# Wetter Temperatur Luftdruck Luftfeuchtigkeit Sichtweite Windgeschwindigkeit Windrichtung Zeit
1 Mist 12 1019 93 4700 1 250 19:58 17.10.2019
2 Smoke 12 1019 81 4900 1.58 277.463 19:39 17.10.2019
3 Smoke 13 1019 76 4800 1 240 19:19 17.10.2019
4 Smoke 13 1019 81 4900 1.58 277.463 19:19 17.10.2019
5 Smoke 14 1019 76 4800 1 240 18:43 17.10.2019
6 Mist 15 1019 76 6000 1.59 271.771 18:21 17.10.2019
7 Clouds 15 1019 71 6000 1 250 18:00 17.10.2019
8 Clouds 18 1019 63 8000 1 250 17:41 17.10.2019
9 Clouds 18 1019 63 8000 1 250 17:23 17.10.2019
10 Clouds 20 1018 55 10000 2 270 16:56 17.10.2019
11 Clouds 21 1018 52 10000 2 280 16:37 17.10.2019
12 Clouds 21 1018 52 10000 2 280 16:18 17.10.2019
13 Clouds 21 1018 49 10000 3 300 15:55 17.10.2019
14 Clouds 21 1018 49 10000 3 300 15:55 17.10.2019
15 Clouds 22 1018 49 10000 2 280 15:37 17.10.2019
16 Clouds 22 1018 49 10000 2 280 15:19 17.10.2019
17 Clouds 22 1018 49 10000 2 250 14:42 17.10.2019
18 Clouds 22 1019 49 10000 3 280 14:23 17.10.2019
19 -273 0 0 0 0 0 13:56 17.10.2019
20 Clouds 22 1019 46 10000 3 260 13:38 17.10.2019
21 Clouds 22 1019 46 10000 3 260 13:18 17.10.2019
22 Clouds 21 1019 55 10000 3 240 12:41 17.10.2019
23 Clear 20 1019 55 10000 3 240 12:20 17.10.2019
24 Clear 19 1019 55 10000 3 230 11:58 17.10.2019
25 Clear 19 1020 59 10000 3 240 11:40 17.10.2019
26 Clear 18 1020 59 10000 3 240 11:19 17.10.2019
27 Clear 17 1020 63 10000 4 270 10:55 17.10.2019
28 Clear 17 1020 59 10000 5 250 10:36 17.10.2019
29 Clear 17 1020 59 10000 5 250 10:18 17.10.2019
30 Clear 14 1019 62 10000 3 230 09:42 17.10.2019
31 Clouds 14 1019 62 10000 3 230 09:22 17.10.2019
32 -273 0 0 0 0 0 08:58 17.10.2019
33 Clouds 14 1019 62 10000 3 220 08:58 17.10.2019
34 Clouds 12 1019 62 10000 3 240 08:39 17.10.2019
35 Clouds 12 1019 62 10000 3 240 08:21 17.10.2019
36 Clouds 10 1019 71 10000 3 240 07:55 17.10.2019
37 Clouds 11 1019 71 10000 3 240 07:54 17.10.2019
38 Clouds 10 1019 71 10000 3 210 07:36 17.10.2019
39 Clouds 10 1019 71 10000 3 210 07:18 17.10.2019
40 Clouds 9 1019 81 10000 3 210 06:39 17.10.2019
41 Clouds 9 1019 81 10000 3 210 06:20 17.10.2019
42 Clouds 9 1019 75 10000 2 220 05:51 17.10.2019
43 Clouds 9 1019 75 10000 2 220 05:31 17.10.2019
44 Clouds 9 1019 75 10000 3 220 04:52 17.10.2019
45 Clouds 10 1019 66 10000 1 0 03:55 17.10.2019
46 Clouds 11 1019 62 10000 1 0 02:36 17.10.2019
47 Clouds 13 1019 54 10000 2 180 00:57 17.10.2019
48 Clouds 12 1019 50 10000 2 200 00:38 17.10.2019
49 Clouds 13 1019 50 10000 2 200 00:18 17.10.2019
50 Clouds 13 1019 47 10000 3 190 23:42 16.10.2019
51 Clouds 13 1019 54 10000 2 180 23:21 16.10.2019
52 Clouds 13 1019 54 10000 2 180 23:21 16.10.2019
53 Clouds 14 1019 51 10000 2 180 22:55 16.10.2019
54 Clouds 14 1019 47 10000 3 170 22:36 16.10.2019
55 Clouds 13 1019 47 10000 3 170 22:18 16.10.2019
56 -273 0 0 0 0 0 21:56 16.10.2019
57 Clouds 14 1019 44 10000 2 150 21:37 16.10.2019
58 Clouds 14 1019 44 10000 2 150 21:18 16.10.2019
59 Clouds 15 1019 42 10000 2 160 20:56 16.10.2019
60 Clouds 15 1019 42 10000 2 150 20:38 16.10.2019
61 Clouds 16 1019 42 10000 2 150 20:20 16.10.2019
62 Clouds 16 1019 39 10000 3 160 19:56 16.10.2019
63 Clouds 16 1019 39 10000 3 150 19:38 16.10.2019
64 Clouds 16 1019 39 10000 3 150 19:38 16.10.2019
65 Clouds 16 1019 39 10000 3 150 19:19 16.10.2019
66 Clouds 17 1019 36 10000 2 140 18:39 16.10.2019
67 Clouds 17 1019 36 10000 2 140 18:39 16.10.2019
68 Clouds 17 1019 36 10000 2 140 18:39 16.10.2019
69 Clear 17 1019 36 10000 2 140 18:19 16.10.2019
70 Clear 18 1019 36 10000 2 140 17:56 16.10.2019
71 Clear 19 1019 32 10000 2 150 17:38 16.10.2019
72 Clear 19 1019 32 10000 2 150 17:20 16.10.2019
73 Clear 21 1019 30 10000 2 150 16:58 16.10.2019
74 Clear 21 1019 30 10000 2 150 16:40 16.10.2019
75 Clear 22 1019 30 10000 3 160 16:20 16.10.2019
76 Clear 22 1019 33 10000 2 150 15:56 16.10.2019
77 -273 0 0 0 0 0 15:55 16.10.2019
78 Clear 23 1019 26 10000 5 150 15:36 16.10.2019
79 Clear 23 1019 26 10000 5 150 15:18 16.10.2019
80 Clear 23 1019 26 10000 5 150 14:55 16.10.2019
81 Clear 23 1019 26 10000 5 150 14:36 16.10.2019
82 Clear 22 1019 28 10000 3 190 14:18 16.10.2019
83 -273 0 0 0 0 0 13:42 16.10.2019
84 Clear 21 1020 35 10000 3 180 13:23 16.10.2019
85 Clear 21 1020 37 10000 2 160 12:57 16.10.2019
86 Clear 20 1019 34 10000 5 180 12:39 16.10.2019
87 Clear 21 1020 40 10000 3 190 12:18 16.10.2019
88 Clear 19 1020 52 10000 3 180 11:42 16.10.2019
89 Clear 19 1020 52 10000 3 180 11:42 16.10.2019
90 Clear 18 1021 63 10000 3 190 11:18 16.10.2019
91 Clear 18 1021 63 10000 3 190 11:18 16.10.2019
92 Clear 16 1021 55 10000 4 180 10:38 16.10.2019
93 Clear 15 1021 72 10000 2 180 10:20 16.10.2019
94 -273 0 0 0 0 0 09:55 16.10.2019
95 Clear 12 1021 87 10000 3 180 09:37 16.10.2019
96 Clouds 12 1021 87 10000 3 180 09:19 16.10.2019
97 Clouds 11 1021 87 10000 2 180 08:42 16.10.2019
98 Clouds 11 1021 100 9000 1 0 08:24 16.10.2019
99 Mist 10 1021 100 3300 1 0 07:45 16.10.2019
100 Mist 10 1021 100 3300 1 0 07:45 16.10.2019
101 Fog 10 1021 100 200 1 0 07:25 16.10.2019
102 Fog 10 1021 100 200 1 0 07:24 16.10.2019
103 Fog 10 1020 100 300 1 0 06:57 16.10.2019
104 Fog 9 1020 100 300 1 0 06:35 16.10.2019
105 Fog 8 1021 100 1000 2 140 05:39 16.10.2019
106 Clouds 10 1021 100 9000 1 0 02:57 16.10.2019
107 Clouds 10 1021 100 9000 1 0 02:37 16.10.2019
108 Clouds 12 1021 87 10000 2 90 01:18 16.10.2019
109 Clouds 12 1021 100 10000 2.035 157 00:46 16.10.2019
110 Clouds 11 1020 100 10000 2.035 157 00:25 16.10.2019
111 Clouds 12 1020 67 8000 3 140 23:39 15.10.2019
112 Clouds 12 1020 81 10000 1 0 23:21 15.10.2019
113 Clouds 12 1020 81 10000 2.504 142 22:55 15.10.2019
114 Clouds 12 1020 81 10000 2.504 142 22:37 15.10.2019
115 Clouds 12 1020 81 10000 1 0 22:19 15.10.2019
116 Clouds 15 1020 63 9000 1 130 21:55 15.10.2019
117 Clouds 15 1020 63 9000 1 130 21:37 15.10.2019
118 Clouds 15 1020 63 10000 2 130 21:19 15.10.2019
119 Clouds 15 1020 63 10000 2 130 21:19 15.10.2019
120 Clouds 13 1020 71 10000 2 130 20:56 15.10.2019
121 Clouds 13 1020 71 10000 2 130 20:37 15.10.2019
122 Clouds 13 1020 76 9000 2.005 109 20:19 15.10.2019
123 Clouds 13 1020 87 10000 2.005 109 19:56 15.10.2019
124 Clouds 13 1020 87 10000 2.005 109 19:37 15.10.2019
125 Clouds 15 1020 82 10000 1 0 19:19 15.10.2019
126 Clouds 15 1020 76 10000 2 90 18:44 15.10.2019
127 Clouds 16 1020 72 10000 1.298 113 18:26 15.10.2019
128 Clouds 18 1020 67 10000 1 120 17:57 15.10.2019
129 Clouds 18 1020 67 10000 1 120 17:38 15.10.2019
130 Clouds 20 1019 63 10000 1 100 17:19 15.10.2019
131 Clouds 21 1019 52 10000 2 100 16:46 15.10.2019
132 Clouds 22 1019 56 10000 2 90 16:22 15.10.2019
133 Clouds 23 1020 46 10000 2 110 15:58 15.10.2019
134 Clouds 23 1020 46 10000 2 110 15:40 15.10.2019
135 Clear 24 1020 41 10000 1.059 172 15:20 15.10.2019
136 Clear 24 1020 41 10000 1 0 14:57 15.10.2019
137 Clear 23 1020 43 9000 2 70 14:37 15.10.2019
138 Clear 23 1020 43 9000 2 70 14:19 15.10.2019
139 Clear 24 1020 43 10000 2 120 13:44 15.10.2019
140 Smoke 23 1020 43 10000 2 190 13:21 15.10.2019
141 Smoke 22 1020 46 9000 2 190 12:59 15.10.2019
142 Smoke 22 1020 46 9000 2 190 12:59 15.10.2019
143 Clear 23 1021 49 9000 2 120 12:38 15.10.2019
144 Clear 22 1021 49 9000 2 120 12:20 15.10.2019
145 Clear 21 1021 52 9000 1 0 11:44 15.10.2019
146 Clear 20 1021 49 10000 1 0 11:21 15.10.2019
147 Clear 19 1021 55 10000 2 120 10:57 15.10.2019
148 Clear 18 1021 59 10000 1 0 10:39 15.10.2019
149 Clear 18 1021 59 10000 1 0 10:19 15.10.2019
150 Clear 17 1021 63 10000 1 0 09:56 15.10.2019
151 -273 0 0 0 0 0 09:37 15.10.2019
152 Clear 15 1021 67 10000 2 270 09:19 15.10.2019
153 Clear 12 1020 81 10000 1 260 08:41 15.10.2019
154 Clear 13 1020 81 10000 1 260 08:21 15.10.2019
155 -273 0 0 0 0 0 07:55 15.10.2019
156 Clear 10 1020 100 8000 1 0 07:36 15.10.2019
157 Clear 10 1020 100 8000 1 0 07:36 15.10.2019
158 Mist 8 1020 100 8000 2 250 07:18 15.10.2019
159 Mist 7 1020 100 9000 2 260 06:43 15.10.2019
160 Clear 8 1020 100 10000 2 240 06:20 15.10.2019
161 Clear 9 1019 93 6000 2 220 05:37 15.10.2019
162 Clear 9 1020 100 9000 2 250 04:54 15.10.2019
163 Clear 8 1020 100 8000 2 250 04:20 15.10.2019
164 Mist 8 1019 100 5000 2 240 03:35 15.10.2019
165 Mist 8 1019 100 5000 2 240 03:35 15.10.2019
166 Smoke 8 1019 100 8000 2 220 02:19 15.10.2019
167 Clear 8 1019 100 9000 2 240 01:41 15.10.2019
168 Clear 9 1020 100 6000 2 250 01:18 15.10.2019
169 Clear 9 1020 93 8000 2 240 00:26 15.10.2019
170 Clear 10 1020 93 8000 2 230 23:59 14.10.2019
171 Clear 11 1020 93 8000 2 230 23:39 14.10.2019
172 Clear 12 1020 87 9000 2 250 23:19 14.10.2019
173 Clear 12 1019 54 10000 3 210 22:40 14.10.2019
174 Clear 13 1020 76 9000 2 250 22:21 14.10.2019
175 Clear 13 1020 76 9000 3 240 21:59 14.10.2019
176 Clear 14 1020 81 10000 3 210 21:40 14.10.2019
177 Clear 14 1020 71 10000 3 230 21:21 14.10.2019
178 Clear 14 1020 71 10000 3 230 21:21 14.10.2019
179 Clouds 15 1019 58 10000 3 220 20:58 14.10.2019
180 Clouds 15 1019 58 10000 3 220 20:38 14.10.2019
181 Clouds 15 1019 54 9000 3 210 20:19 14.10.2019
182 Clouds 14 1019 62 9000 2 230 19:56 14.10.2019
183 Clouds 15 1019 62 9000 2 230 19:37 14.10.2019
184 Clouds 15 1019 58 9000 3 210 19:19 14.10.2019
185 Clouds 15 1020 58 8000 3 210 18:57 14.10.2019
186 Clouds 16 1020 51 8000 3 220 18:37 14.10.2019
187 Smoke 18 1019 48 10000 2 220 18:18 14.10.2019
188 Clear 19 1019 42 10000 2 220 17:41 14.10.2019
189 Clear 19 1019 42 10000 2 220 17:23 14.10.2019
190 -273 0 0 0 0 0 16:55 14.10.2019
191 Clear 20 1019 40 10000 2 210 16:54 14.10.2019
192 Clear 22 1019 33 10000 2 230 16:36 14.10.2019
193 Clear 22 1019 33 10000 2 230 16:18 14.10.2019
194 Clear 23 1019 31 10000 3 220 15:41 14.10.2019
195 Clear 23 1020 31 10000 4 230 15:21 14.10.2019
196 Clear 24 1020 29 10000 4 210 14:44 14.10.2019
197 Clear 24 1020 29 10000 4 210 14:44 14.10.2019
198 Clear 24 1020 29 10000 4 220 14:25 14.10.2019
199 Clear 24 1020 28 10000 4 220 13:58 14.10.2019
200 Clear 24 1021 31 10000 4 210 13:40 14.10.2019
201 Clear 24 1021 31 10000 4 210 13:21 14.10.2019
202 Clear 24 1021 33 10000 5 230 12:42 14.10.2019
203 Clear 23 1021 33 10000 4 220 12:21 14.10.2019
204 Clear 22 1021 33 10000 4 220 11:55 14.10.2019
205 Clear 22 1021 33 10000 4 220 11:54 14.10.2019
206 Clear 21 1022 35 10000 4 210 11:36 14.10.2019
207 Clear 20 1022 37 10000 3 220 11:18 14.10.2019
208 Clear 20 1022 37 10000 3 220 10:43 14.10.2019
209 Clear 20 1022 40 10000 2 230 10:21 14.10.2019
210 Clear 18 1022 42 10000 2 230 09:59 14.10.2019
211 Clear 16 1022 51 10000 2 250 09:38 14.10.2019
212 Clear 16 1022 51 10000 2 250 09:19 14.10.2019
213 Clear 13 1022 66 10000 1 240 08:47 14.10.2019
214 Clear 13 1022 66 10000 1 240 08:23 14.10.2019
215 Clear 8 1022 93 9000 2 240 07:44 14.10.2019
216 Clear 8 1022 93 9000 2 240 07:21 14.10.2019
217 Clear 7 1022 93 10000 2 240 06:55 14.10.2019
218 Clear 8 1022 93 10000 3 230 06:27 14.10.2019
219 Clear 7 1022 100 10000 2 230 05:51 14.10.2019
220 Clear 8 1022 93 10000 2 240 04:51 14.10.2019
221 Clear 9 1021 93 9000 1 200 03:48 14.10.2019
222 Clear 9 1021 93 10000 1 210 03:22 14.10.2019
223 Clear 11 1022 93 10000 1 180 01:46 14.10.2019
224 Clear 10 1022 87 10000 2.19 245.48 01:18 14.10.2019
225 Clear 12 1022 76 9000 2.2 239.702 00:23 14.10.2019
226 Clear 11 1021 87 8000 2 230 23:46 13.10.2019
227 Clear 11 1021 87 8000 2 230 23:21 13.10.2019
228 Clear 12 1021 76 8000 2 240 23:00 13.10.2019
229 Clear 14 1021 71 9000 2 250 22:41 13.10.2019
230 Clear 14 1021 71 9000 2 250 22:22 13.10.2019
231 Clear 14 1021 71 9000 2 250 22:22 13.10.2019
232 Clear 14 1021 76 8000 3 240 21:59 13.10.2019
233 Clear 14 1021 76 7000 3 230 21:39 13.10.2019
234 Clear 14 1021 76 7000 3 230 21:19 13.10.2019
235 Clear 14 1021 71 8000 2 240 20:58 13.10.2019
236 Clouds 15 1021 66 7000 3 240 20:40 13.10.2019
237 Clouds 15 1021 66 7000 3 240 20:21 13.10.2019
238 Clouds 15 1021 71 8000 2 240 20:00 13.10.2019
239 Clouds 16 1021 67 8000 2 230 19:39 13.10.2019
240 Clouds 16 1021 62 8000 3 230 19:21 13.10.2019
241 Clouds 16 1021 62 8000 3 230 18:59 13.10.2019
242 Clouds 16 1021 62 8000 3 230 18:58 13.10.2019
243 Clouds 16 1021 62 8000 3 230 18:58 13.10.2019
244 Smoke 18 1020 55 5000 3 220 18:38 13.10.2019
245 Smoke 17 1020 55 5000 3 220 18:38 13.10.2019
246 Clouds 18 1020 52 8000 2 230 18:19 13.10.2019
247 Clouds 19 1020 52 8000 2 230 17:58 13.10.2019
248 Clear 20 1020 43 10000 3 230 17:39 13.10.2019
249 Clear 20 1020 43 10000 3 230 17:21 13.10.2019
250 Clear 22 1020 37 10000 3 250 16:43 13.10.2019
251 Clear 23 1020 37 10000 4 250 16:19 13.10.2019
252 Clear 23 1020 38 10000 5 260 15:57 13.10.2019
253 Clear 23 1020 38 10000 5 260 15:57 13.10.2019
254 Clear 24 1020 38 10000 5 260 15:38 13.10.2019
255 Clear 23 1020 38 10000 5 260 15:19 13.10.2019
256 Clear 23 1020 38 10000 5 250 14:57 13.10.2019
257 Clear 23 1020 38 10000 5 260 14:38 13.10.2019
258 Clear 23 1020 38 10000 5 260 14:19 13.10.2019
259 Clear 23 1020 40 10000 5 260 13:42 13.10.2019
260 Clear 23 1020 40 10000 5 260 13:23 13.10.2019
261 Clear 22 1020 40 10000 6 250 12:59 13.10.2019
262 Clear 21 1020 43 10000 5 250 12:39 13.10.2019
263 Clear 21 1020 43 10000 5 250 12:21 13.10.2019
264 Clear 20 1020 45 10000 5 260 11:59 13.10.2019
265 Clear 19 1020 48 10000 4 250 11:39 13.10.2019
266 Clear 19 1020 48 10000 4 250 11:21 13.10.2019
267 Clear 18 1020 48 10000 4 230 10:59 13.10.2019
268 Clear 16 1020 55 10000 4 250 10:39 13.10.2019
269 Clear 16 1020 55 10000 4 250 10:39 13.10.2019
270 Clear 16 1020 55 10000 4 250 10:20 13.10.2019
271 Clear 15 1020 58 10000 4 260 09:39 13.10.2019
272 Clear 14 1020 58 10000 4 260 09:21 13.10.2019
273 Clear 14 1020 58 10000 4 260 09:21 13.10.2019
274 Clear 13 1020 58 10000 5 270 08:51 13.10.2019
275 Clear 12 1020 62 10000 4 260 08:27 13.10.2019
276 Clear 11 1020 66 10000 3 250 07:55 13.10.2019
277 Clear 10 1019 66 10000 3 240 07:35 13.10.2019
278 Clear 9 1019 75 10000 3 260 06:54 13.10.2019
279 Clear 9 1019 70 10000 3 240 06:24 13.10.2019
280 Clear 10 1019 71 10000 3 250 05:27 13.10.2019
281 Clear 10 1019 71 10000 3 250 05:27 13.10.2019
282 Clear 11 1019 66 10000 3 260 04:35 13.10.2019
283 Clear 11 1018 66 10000 3 260 03:34 13.10.2019
284 Clear 11 1018 66 10000 3 250 02:32 13.10.2019
285 Clear 12 1019 66 10000 4 250 01:37 13.10.2019
286 Clear 12 1019 66 10000 4 250 01:18 13.10.2019
287 Clear 12 1018 71 10000 3 250 00:42 13.10.2019
288 Clear 12 1018 71 10000 3 250 00:19 13.10.2019
289 Clear 12 1018 66 10000 3 250 23:42 12.10.2019
290 Clear 12 1018 66 10000 3 250 23:23 12.10.2019
291 Clear 13 1018 62 10000 4 250 22:59 12.10.2019
292 Clear 13 1018 62 10000 4 240 22:40 12.10.2019
293 Clear 13 1018 62 10000 4 240 22:22 12.10.2019
294 Clear 13 1018 62 10000 5 240 21:58 12.10.2019
295 Clear 14 1018 58 10000 5 240 21:40 12.10.2019
296 Clear 14 1018 58 10000 5 240 21:21 12.10.2019
297 Clear 14 1018 54 10000 5 240 20:54 12.10.2019
298 Clear 14 1018 54 10000 5 240 20:54 12.10.2019
299 -273 0 0 0 0 0 20:54 12.10.2019
300 Clear 14 1017 54 10000 5 240 20:36 12.10.2019
301 Clear 14 1017 54 10000 5 240 20:18 12.10.2019
302 Clear 15 1017 51 10000 5 240 19:36 12.10.2019
303 Clear 15 1017 51 10000 5 240 19:18 12.10.2019
304 Clear 15 1017 47 10000 4 230 18:42 12.10.2019
305 Clear 15 1017 47 10000 4 230 18:24 12.10.2019
306 Clear 15 1017 51 10000 4 230 17:46 12.10.2019
307 Clear 16 1018 48 10000 4 220 17:21 12.10.2019
308 Clear 16 1018 48 10000 4 230 16:58 12.10.2019
309 Clear 16 1018 48 10000 4 230 16:58 12.10.2019
310 Clear 17 1018 42 10000 6 230 16:40 12.10.2019
311 Clear 17 1018 42 10000 6 230 16:20 12.10.2019
312 Clear 17 1018 42 10000 6 220 15:46 12.10.2019
313 Clear 17 1018 39 10000 7 230 15:27 12.10.2019
314 Clear 18 1018 36 10000 7 230 14:59 12.10.2019
315 Clear 18 1018 42 10000 7 230 14:38 12.10.2019
316 Clear 17 1018 42 10000 7 230 14:20 12.10.2019
317 Clear 18 1019 36 10000 6 230 13:49 12.10.2019
318 Clear 17 1019 42 10000 8 240 13:31 12.10.2019
319 Clear 17 1019 42 10000 6 230 12:55 12.10.2019
320 Clear 17 1019 42 10000 7 230 12:37 12.10.2019
321 Clear 17 1019 42 10000 7 230 12:18 12.10.2019
322 Clear 15 1020 47 10000 6 230 11:41 12.10.2019
323 Clear 16 1020 47 10000 6 230 11:22 12.10.2019
324 Clear 15 1020 47 10000 7 230 10:57 12.10.2019
325 Clear 15 1020 47 10000 5 230 10:38 12.10.2019
326 Clear 14 1020 47 10000 5 230 10:19 12.10.2019
327 -273 0 0 0 0 0 09:56 12.10.2019
328 Clear 13 1020 54 10000 6 240 09:56 12.10.2019
329 Clear 12 1021 58 10000 5 240 09:37 12.10.2019
330 Clear 11 1020 62 10000 4 230 09:19 12.10.2019
331 Clear 11 1021 66 10000 4 230 08:43 12.10.2019
332 Clear 10 1021 66 10000 4 230 08:23 12.10.2019
333 Clear 8 1021 75 10000 3 230 07:40 12.10.2019
334 Clear 8 1021 75 10000 3 230 07:22 12.10.2019
335 Clear 7 1021 81 10000 3 230 05:54 12.10.2019
336 Clear 7 1021 81 10000 3 230 05:25 12.10.2019
337 Clear 6 1021 87 10000 3 240 04:29 12.10.2019
338 Clear 7 1021 87 10000 2 240 03:46 12.10.2019
339 Clear 6 1021 93 10000 2 240 02:37 12.10.2019
340 Clear 6 1021 100 10000 2 240 01:31 12.10.2019
341 Clear 6 1021 93 10000 2 240 00:44 12.10.2019
342 Clear 5 1021 93 10000 2 240 00:24 12.10.2019
343 Clear 8 1021 87 10000 2 230 23:41 11.10.2019
344 Clear 8 1021 87 10000 2 230 23:21 11.10.2019
345 Clear 8 1021 81 10000 2 220 22:59 11.10.2019
346 Clear 8 1021 81 10000 2 240 22:37 11.10.2019
347 Clear 8 1021 81 10000 2 240 22:37 11.10.2019
348 Clear 8 1021 81 10000 2 240 22:18 11.10.2019
349 Clear 9 1021 81 9000 3 240 21:40 11.10.2019
350 Clouds 9 1021 81 9000 3 240 21:21 11.10.2019
351 Clear 9 1021 76 10000 3 240 20:54 11.10.2019
352 Clear 9 1021 76 10000 3 240 20:54 11.10.2019
353 Clouds 9 1020 81 10000 3 240 20:36 11.10.2019
354 Clouds 9 1020 81 10000 3 240 20:18 11.10.2019
355 Clouds 10 1020 76 9000 3 250 19:54 11.10.2019
356 Clouds 10 1020 76 9000 3 250 19:54 11.10.2019
357 Clear 10 1020 71 10000 3 250 19:36 11.10.2019
358 Clear 10 1020 71 10000 3 250 19:18 11.10.2019
359 Clear 10 1020 71 10000 3 250 19:18 11.10.2019
360 Clouds 10 1020 71 9000 4 260 19:18 11.10.2019
361 Clear 11 1020 62 10000 3 260 18:39 11.10.2019
362 Clear 11 1020 62 10000 3 260 18:19 11.10.2019
363 Clear 11 1019 62 10000 4 260 17:59 11.10.2019
364 Clear 12 1019 54 10000 5 280 17:38 11.10.2019
365 Clear 13 1019 54 10000 5 280 17:20 11.10.2019
366 Clear 14 1019 47 10000 5 290 16:59 11.10.2019
367 Clear 14 1019 50 10000 4 290 16:39 11.10.2019
368 Clear 14 1019 50 10000 5 300 16:19 11.10.2019
369 Clear 14 1019 50 10000 5 300 15:55 11.10.2019
370 Clear 14 1019 54 10000 6 280 15:36 11.10.2019
371 Clouds 14 1018 47 10000 7 300 15:18 11.10.2019
372 Clouds 14 1018 47 10000 7 300 15:18 11.10.2019
373 Clouds 15 1018 50 10000 8 290 14:42 11.10.2019
374 Clouds 15 1018 50 10000 8 290 14:23 11.10.2019
375 Clouds 14 1018 62 10000 7 280 13:47 11.10.2019
376 Clouds 14 1018 62 10000 7 280 13:26 11.10.2019
377 Clouds 14 1018 66 10000 7 260 12:58 11.10.2019
378 Clouds 14 1018 62 10000 6 270 12:40 11.10.2019
379 Clouds 14 1018 62 10000 6 270 12:21 11.10.2019
380 Clear 14 1018 66 10000 5 270 11:59 11.10.2019
381 Clear 13 1018 71 10000 4 260 11:39 11.10.2019
382 Clear 13 1018 71 10000 4 260 11:21 11.10.2019
383 Clear 13 1018 71 10000 4 250 10:56 11.10.2019
384 Clear 13 1018 71 10000 4 250 10:56 11.10.2019
385 Clear 13 1018 71 10000 3 250 10:37 11.10.2019
386 Clear 12 1018 76 10000 4 260 10:18 11.10.2019
387 Clear 11 1017 81 10000 4 270 09:42 11.10.2019
388 Clear 11 1017 81 10000 4 270 09:21 11.10.2019
389 Clear 10 1017 87 10000 3 270 08:59 11.10.2019
390 Clear 9 1017 87 10000 4 280 08:39 11.10.2019
391 Clear 9 1017 87 10000 4 280 08:39 11.10.2019
392 Clear 9 1017 87 10000 4 280 08:20 11.10.2019
393 Clear 8 1017 87 10000 4 280 07:57 11.10.2019
394 Clear 8 1017 93 10000 3 260 07:38 11.10.2019
395 Clear 8 1017 93 10000 3 260 07:19 11.10.2019
396 Clear 7 1016 93 10000 3 240 06:43 11.10.2019
397 Clear 7 1016 100 10000 3 240 06:19 11.10.2019
398 Clear 7 1016 93 10000 2 230 05:32 11.10.2019
399 Clear 7 1016 87 10000 3 260 04:58 11.10.2019
400 Clear 8 1015 87 10000 3 270 03:46 11.10.2019
401 Clear 9 1014 81 10000 3 260 01:57 11.10.2019
402 Clear 10 1014 76 10000 4 260 00:42 11.10.2019
403 Clear 10 1014 76 10000 2 250 00:22 11.10.2019
404 Clear 11 1014 76 10000 3 250 23:41 10.10.2019
405 Clear 11 1014 76 10000 3 250 23:20 10.10.2019
406 Clear 11 1014 71 10000 4 230 22:57 10.10.2019
407 Clear 11 1013 71 10000 3 240 22:36 10.10.2019
408 Clear 11 1013 71 10000 3 240 22:18 10.10.2019
409 Clouds 11 1013 76 10000 2 240 21:54 10.10.2019
410 Clouds 11 1013 76 10000 3 240 21:36 10.10.2019
411 Clouds 11 1013 76 10000 3 240 21:18 10.10.2019
412 Clear 11 1012 71 10000 2 240 20:40 10.10.2019
413 Clear 11 1012 71 10000 2 240 20:20 10.10.2019
414 Clear 12 1012 66 10000 4 280 19:57 10.10.2019
415 Clear 13 1012 62 10000 4 270 19:39 10.10.2019
416 Clear 13 1012 62 10000 4 270 19:19 10.10.2019
417 -273 0 0 0 0 0 18:54 10.10.2019
418 Clouds 13 1012 62 9000 2 230 18:36 10.10.2019
419 Clouds 13 1012 62 9000 2 230 18:18 10.10.2019
420 Clear 14 1011 54 10000 3 260 17:40 10.10.2019
421 Clear 14 1011 54 10000 3 260 17:19 10.10.2019
422 Clear 15 1011 58 10000 4 270 16:57 10.10.2019
423 Clear 15 1011 55 10000 5 290 16:38 10.10.2019
424 Clear 16 1011 55 10000 5 290 16:20 10.10.2019
425 Clouds 16 1010 55 10000 7 280 15:42 10.10.2019
426 Clouds 16 1010 55 10000 7 280 15:23 10.10.2019
427 Clouds 17 1010 51 10000 9 270 14:59 10.10.2019
428 Clouds 17 1010 55 10000 9 280 14:37 10.10.2019
429 Clouds 17 1010 55 10000 9 280 14:19 10.10.2019
430 Clouds 17 1010 59 10000 7 270 13:58 10.10.2019
431 Clouds 17 1010 55 10000 8 270 13:39 10.10.2019
432 Clouds 18 1010 55 10000 8 270 13:18 10.10.2019
433 Clear 17 1009 62 10000 4 230 12:42 10.10.2019
434 Clear 16 1009 62 10000 4 230 12:42 10.10.2019
435 Clear 16 1009 62 10000 4 230 12:21 10.10.2019
436 Clear 15 1009 62 10000 5 240 11:58 10.10.2019
437 Clear 15 1009 62 10000 6 260 11:40 10.10.2019
438 Clear 15 1009 62 10000 6 260 11:19 10.10.2019
439 Clear 15 1009 67 10000 6 250 10:57 10.10.2019
440 Clear 15 1009 67 10000 5 240 10:39 10.10.2019
441 Clear 15 1009 67 10000 5 240 10:20 10.10.2019
442 Clear 15 1008 72 10000 5 230 09:41 10.10.2019
443 Clear 14 1008 71 10000 4 210 09:23 10.10.2019
444 Clear 14 1009 76 10000 4 210 08:59 10.10.2019
445 Clear 13 1008 81 10000 4 200 08:40 10.10.2019
446 Clear 13 1008 81 10000 4 200 08:21 10.10.2019
447 Clear 12 1009 81 10000 4 200 07:47 10.10.2019
448 Clear 12 1009 81 10000 4 200 07:26 10.10.2019
449 Clear 11 1009 76 10000 3 190 06:55 10.10.2019
450 Clear 11 1009 76 10000 3 170 06:36 10.10.2019
451 Clear 11 1010 76 10000 3 140 05:39 10.10.2019
452 Clear 10 1010 76 10000 3 140 05:18 10.10.2019
453 Clear 10 1011 76 10000 3 130 04:34 10.10.2019
454 Clouds 10 1012 81 10000 3 120 02:29 10.10.2019
455 Rain 9 1014 81 10000 3 150 01:37 10.10.2019
456 Rain 9 1014 81 10000 3 150 01:18 10.10.2019
457 Rain 9 1014 87 10000 2 170 00:33 10.10.2019
458 Clear 9 1015 87 10000 1 110 23:42 09.10.2019
459 Clear 9 1015 87 10000 1 110 23:24 09.10.2019
460 Clear 9 1015 87 10000 1 110 23:24 09.10.2019
461 Clear 8 1015 87 10000 1 0 22:59 09.10.2019
462 Clear 9 1015 76 10000 1 0 22:41 09.10.2019
463 Clear 9 1015 76 10000 1 0 22:22 09.10.2019
464 Clear 10 1015 71 10000 2 210 21:57 09.10.2019
465 Clear 10 1015 71 10000 3 230 21:38 09.10.2019
466 Clear 10 1015 71 10000 3 230 21:19 09.10.2019
467 Clear 10 1015 71 10000 3 230 20:55 09.10.2019
468 Clear 10 1016 71 10000 3 230 20:36 09.10.2019
469 Clear 10 1016 71 10000 3 230 20:18 09.10.2019
470 Clear 10 1016 71 10000 3 230 20:18 09.10.2019
471 Clouds 10 1015 66 7000 3 230 19:43 09.10.2019
472 Clouds 10 1015 66 7000 3 230 19:22 09.10.2019
473 Clouds 10 1015 66 10000 3 240 18:39 09.10.2019
474 Clouds 10 1015 66 10000 3 240 18:21 09.10.2019
475 Clear 11 1015 62 10000 3 230 17:58 09.10.2019
476 Clear 11 1015 62 10000 2 220 17:40 09.10.2019
477 Clear 11 1015 62 10000 2 220 17:22 09.10.2019
478 Clear 12 1015 54 10000 2 230 16:57 09.10.2019
479 Clear 12 1015 50 10000 3 240 16:39 09.10.2019
480 Clear 13 1015 50 10000 3 240 16:21 09.10.2019
481 Clouds 13 1015 50 10000 5 240 15:57 09.10.2019
482 Clouds 13 1015 50 10000 4 260 15:37 09.10.2019
483 Clouds 13 1015 50 10000 4 260 15:19 09.10.2019
484 Clouds 13 1015 50 10000 5 240 14:45 09.10.2019
485 Clouds 13 1015 50 10000 5 240 14:20 09.10.2019
486 Clear 13 1015 47 10000 4 240 14:00 09.10.2019
487 Clear 12 1015 53 10000 4 220 13:38 09.10.2019
488 Clear 11 1015 57 10000 5 220 13:18 09.10.2019
489 Clear 11 1015 57 10000 5 220 12:44 09.10.2019
490 Clear 11 1015 57 10000 4 200 12:23 09.10.2019
491 Clear 11 1015 57 10000 4 200 11:58 09.10.2019
492 Clouds 10 1015 66 10000 3 200 11:40 09.10.2019
493 -273 0 0 0 0 0 11:20 09.10.2019
494 Clouds 9 1015 70 10000 3 220 10:59 09.10.2019
495 Clouds 8 1016 65 10000 5 230 10:40 09.10.2019
496 Clouds 8 1016 65 10000 5 230 10:40 09.10.2019
497 Clouds 8 1016 65 10000 5 230 10:18 09.10.2019
498 Clear 8 1016 65 10000 3 230 09:43 09.10.2019
499 Clear 8 1016 65 10000 5 230 09:20 09.10.2019
500 Clear 7 1015 70 10000 5 220 08:58 09.10.2019
501 Clear 7 1016 70 10000 4 230 08:38 09.10.2019
502 Rain 7 1016 70 10000 3 230 08:19 09.10.2019
503 Rain 7 1016 70 10000 3 230 07:47 09.10.2019
504 Rain 7 1016 70 10000 3 230 07:47 09.10.2019
505 Clear 7 1016 65 10000 4 220 07:24 09.10.2019
506 Clear 7 1015 65 10000 5 220 06:57 09.10.2019
507 Clear 7 1015 65 10000 4 220 06:34 09.10.2019
508 Clear 7 1015 65 10000 4 210 05:51 09.10.2019
509 Clear 7 1015 65 10000 5 200 04:50 09.10.2019
510 Clear 6 1016 58 10000 6 200 03:47 09.10.2019
511 Clear 6 1017 56 10000 5 200 02:27 09.10.2019
512 Clear 6 1018 52 10000 4 210 01:24 09.10.2019
513 Clear 6 1018 52 10000 4 210 00:59 09.10.2019
514 Clear 6 1018 56 10000 4 210 00:40 09.10.2019
515 Clear 6 1018 56 10000 4 210 00:22 09.10.2019
516 Clear 6 1018 56 10000 4 210 23:58 08.10.2019
517 Clear 7 1019 52 10000 4 220 23:38 08.10.2019
518 Clear 7 1019 52 10000 4 220 23:18 08.10.2019
519 Clear 7 1019 52 10000 3 220 22:41 08.10.2019
520 Clear 7 1019 52 10000 3 220 22:21 08.10.2019
521 Clear 7 1019 52 10000 3 220 21:58 08.10.2019
522 Clear 7 1019 52 10000 4 210 21:39 08.10.2019
523 Clear 7 1019 52 10000 4 210 21:20 08.10.2019
524 Clear 7 1019 56 10000 4 200 20:58 08.10.2019
525 Clear 7 1019 56 10000 3 210 20:39 08.10.2019
526 Clear 7 1019 56 10000 3 210 20:21 08.10.2019
527 Clear 7 1019 56 10000 3 210 19:59 08.10.2019
528 Clear 7 1019 56 10000 3 220 19:41 08.10.2019
529 Clear 7 1019 56 10000 3 220 19:23 08.10.2019
530 Clear 7 1019 56 10000 3 220 18:55 08.10.2019
531 Clear 7 1019 52 10000 2 220 18:37 08.10.2019
532 Clear 8 1019 52 10000 2 220 18:19 08.10.2019
533 Clear 8 1019 52 10000 3 220 17:55 08.10.2019
534 Clear 9 1019 49 10000 2 230 17:36 08.10.2019
535 Clear 9 1019 49 10000 2 230 17:18 08.10.2019
536 Clear 10 1019 43 10000 5 240 16:40 08.10.2019
537 Clear 10 1019 43 10000 5 240 16:22 08.10.2019
538 Clear 10 1019 46 10000 6 250 15:41 08.10.2019
539 Clear 11 1019 46 10000 6 250 15:22 08.10.2019
540 Clear 11 1019 46 10000 6 250 15:22 08.10.2019
541 Clear 11 1019 43 10000 5 230 14:59 08.10.2019
542 Clouds 11 1019 46 10000 5 270 14:41 08.10.2019
543 Clouds 11 1019 46 10000 5 270 14:21 08.10.2019
544 Clear 10 1019 46 10000 5 270 13:57 08.10.2019
545 Clouds 10 1020 49 10000 5 240 13:39 08.10.2019
546 Clouds 11 1020 49 10000 5 240 13:19 08.10.2019
547 Clouds 11 1020 40 10000 5 270 12:58 08.10.2019
548 Clouds 10 1020 40 10000 6 290 12:38 08.10.2019
549 Clouds 9 1020 52 10000 6 260 12:18 08.10.2019
550 Clouds 9 1021 61 10000 6 260 11:42 08.10.2019
551 Clouds 9 1021 61 10000 6 260 11:24 08.10.2019
552 Clear 7 1021 65 10000 5 260 10:58 08.10.2019
553 Clear 6 1021 70 10000 6 270 10:37 08.10.2019
554 Clear 6 1021 70 10000 6 270 10:19 08.10.2019
555 Clear 5 1021 75 10000 4 260 09:55 08.10.2019
556 Clear 5 1021 80 10000 3 260 09:37 08.10.2019
557 Clear 5 1021 80 10000 3 260 09:19 08.10.2019
558 Clear 2 1021 69 10000 4 250 08:42 08.10.2019
559 Clear 2 1021 69 10000 4 250 08:23 08.10.2019
560 Clear 0 1020 92 10000 2 240 07:44 08.10.2019
561 Clear 0 1020 92 10000 2 240 07:21 08.10.2019
562 Clear -1 1020 92 10000 3 230 06:51 08.10.2019
563 Clear -1 1020 92 9000 2 230 06:28 08.10.2019
564 Clear -2 1020 92 10000 2 260 05:46 08.10.2019
565 Clear -1 1020 92 10000 2 230 05:26 08.10.2019
566 Clear -1 1019 92 10000 2 240 04:31 08.10.2019
567 Clear -1 1019 100 10000 3 240 03:27 08.10.2019
568 Clear 0 1019 92 10000 3 220 02:36 08.10.2019
569 Clear 0 1019 68 10000 2 220 01:47 08.10.2019
570 Clear 0 1019 92 10000 2 230 01:27 08.10.2019
571 Clear 0 1018 92 10000 1 0 00:46 08.10.2019
572 Clear 0 1018 92 10000 1 0 00:20 08.10.2019
573 Clear 1 1018 80 10000 3 260 23:39 07.10.2019
574 Clear 1 1018 80 10000 3 260 23:20 07.10.2019
575 Clear 2 1018 74 10000 3 260 22:56 07.10.2019
576 Clear 3 1018 69 10000 3 270 22:38 07.10.2019
577 Clear 3 1018 69 10000 3 270 22:20 07.10.2019
578 Clear 3 1018 69 10000 3 290 21:56 07.10.2019
579 Clear 3 1018 64 10000 3 300 21:37 07.10.2019
580 Clear 3 1018 64 10000 3 300 21:19 07.10.2019
581 Clear 3 1018 64 10000 4 310 20:57 07.10.2019
582 Clouds 3 1018 64 10000 5 310 20:38 07.10.2019
583 Clouds 3 1018 64 10000 5 310 20:19 07.10.2019
584 Rain 4 1017 69 10000 4 270 19:56 07.10.2019
585 Clear 4 1017 69 10000 4 280 19:38 07.10.2019
586 Rain 4 1017 64 10000 3 290 19:18 07.10.2019
587 Clear 4 1017 64 10000 4 280 18:43 07.10.2019
588 Clear 4 1017 64 10000 4 280 18:19 07.10.2019
589 Clear 4 1017 60 10000 4 280 17:59 07.10.2019
590 Clouds 5 1017 56 10000 4 290 17:41 07.10.2019
591 Clouds 5 1017 56 10000 4 290 17:19 07.10.2019
592 Clouds 5 1016 56 10000 5 280 16:46 07.10.2019
593 Clouds 5 1016 56 10000 5 280 16:46 07.10.2019
594 Clouds 5 1016 52 10000 5 280 16:28 07.10.2019
595 Clouds 5 1016 52 10000 4 290 15:59 07.10.2019
596 Clear 6 1016 48 10000 4 300 15:40 07.10.2019
597 Clear 6 1016 48 10000 4 300 15:21 07.10.2019
598 Clear 6 1016 48 10000 3 300 14:42 07.10.2019
599 Clear 6 1016 48 10000 3 300 14:23 07.10.2019
600 Clear 7 1016 48 10000 3 300 13:45 07.10.2019
601 Clear 6 1016 56 10000 4 310 13:21 07.10.2019
602 Clear 6 1016 52 10000 5 310 12:59 07.10.2019
603 Clear 6 1016 48 10000 5 320 12:40 07.10.2019
604 Clear 6 1016 48 10000 5 320 12:21 07.10.2019
605 Clouds 5 1016 48 10000 5 320 11:59 07.10.2019
606 Clouds 5 1016 52 10000 4 330 11:40 07.10.2019
607 Clouds 5 1016 52 10000 4 330 11:21 07.10.2019
608 Clouds 5 1016 48 10000 5 320 10:57 07.10.2019
609 Clouds 5 1016 51 10000 5 330 10:39 07.10.2019
610 Clouds 5 1016 51 10000 5 330 10:20 07.10.2019
611 Clear 3 1016 64 10000 4 310 09:39 07.10.2019
612 Clear 3 1016 64 10000 4 310 09:39 07.10.2019
613 Clear 4 1016 64 10000 4 310 09:21 07.10.2019
614 Clear 2 1016 74 10000 4 300 08:44 07.10.2019
615 Clear 3 1016 74 10000 4 300 08:21 07.10.2019
616 Clear 2 1016 86 10000 3 290 07:56 07.10.2019
617 Clear 1 1015 62 10000 2 290 07:38 07.10.2019
618 Clear 1 1015 62 10000 2 290 07:19 07.10.2019
619 Clear 0 1015 62 10000 4 300 06:43 07.10.2019
620 Clear 0 1015 62 10000 4 300 06:22 07.10.2019
621 Clear 1 1015 86 10000 4 310 05:27 07.10.2019
622 Clear 2 1015 80 10000 4 300 04:56 07.10.2019
623 Clouds 3 1014 62 10000 4 320 03:51 07.10.2019
624 Clouds 3 1014 62 10000 4 320 03:51 07.10.2019
625 Clouds 3 1014 86 10000 4 310 03:32 07.10.2019
626 Clouds 3 1014 86 10000 4 320 02:53 07.10.2019
627 Rain 3 1014 86 10000 4 330 02:19 07.10.2019
628 Clouds 4 1014 80 10000 5 320 01:24 07.10.2019
629 Clouds 5 1014 80 10000 4 330 00:53 07.10.2019
630 Clouds 5 1013 80 10000 4 330 00:26 07.10.2019
631 Clouds 5 1013 80 10000 5 330 23:59 06.10.2019
632 Clouds 5 1013 80 10000 5 340 23:40 06.10.2019
633 Clouds 5 1013 80 10000 5 340 23:20 06.10.2019
634 Clouds 5 1013 80 10000 5 340 22:57 06.10.2019
635 Clouds 6 1013 81 10000 5 340 22:39 06.10.2019
636 Clouds 6 1013 81 10000 4 350 22:20 06.10.2019
637 Clouds 6 1013 81 10000 4 350 21:55 06.10.2019
638 Clear 6 1013 81 10000 4 350 21:37 06.10.2019
639 Clear 6 1013 81 10000 4 350 21:18 06.10.2019
640 Clear 6 1013 81 10000 4 330 20:55 06.10.2019
641 Clear 6 1013 81 10000 4 320 20:36 06.10.2019
642 Clear 6 1013 81 10000 4 320 20:18 06.10.2019
643 Clear 6 1012 87 10000 4 330 19:55 06.10.2019
644 Clouds 6 1012 87 10000 4 330 19:36 06.10.2019
645 Clouds 6 1012 87 10000 4 330 19:18 06.10.2019
646 Rain 6 1012 87 10000 3 310 18:55 06.10.2019
647 Rain 6 1012 87 10000 3 310 18:55 06.10.2019
648 Clouds 6 1012 75 10000 5 300 18:36 06.10.2019
649 Clouds 7 1012 75 10000 5 300 18:18 06.10.2019
650 Clouds 7 1012 75 10000 5 300 18:18 06.10.2019
651 Clouds 8 1012 65 10000 3 330 17:42 06.10.2019
652 Clouds 8 1012 65 10000 3 330 17:20 06.10.2019
653 Clouds 8 1011 65 10000 4 330 16:55 06.10.2019
654 Clouds 8 1011 70 10000 5 330 16:37 06.10.2019
655 Clouds 8 1011 70 10000 5 330 16:18 06.10.2019
656 Clouds 9 1011 70 10000 5 350 15:42 06.10.2019
657 Clouds 9 1011 70 10000 5 350 15:42 06.10.2019
658 Clouds 9 1011 70 10000 5 350 15:21 06.10.2019
659 Clouds 9 1011 66 10000 4 10 14:44 06.10.2019
660 Clouds 9 1010 70 10000 4 30 14:26 06.10.2019
661 Rain 10 1010 61 10000 5 340 13:59 06.10.2019
662 Clouds 11 1010 57 10000 4 340 13:40 06.10.2019
663 Clouds 10 1010 57 10000 4 340 13:21 06.10.2019
664 Clouds 10 1010 66 10000 5 330 12:58 06.10.2019
665 Clouds 11 1010 61 10000 5 340 12:39 06.10.2019
666 Clouds 10 1010 61 10000 5 340 12:21 06.10.2019
667 Clouds 10 1010 66 10000 3 360 11:58 06.10.2019
668 Clouds 10 1010 70 10000 4 350 11:39 06.10.2019
669 Clouds 9 1010 70 10000 4 360 11:21 06.10.2019
670 Clouds 9 1010 70 10000 4 360 10:54 06.10.2019
671 Clouds 9 1010 70 10000 4 330 10:36 06.10.2019
672 Clouds 9 1010 70 10000 4 330 10:18 06.10.2019
673 Clouds 8 1010 75 10000 4 360 09:41 06.10.2019
674 Clouds 8 1010 81 10000 4 340 09:19 06.10.2019
675 Clouds 8 1010 81 10000 4 340 09:19 06.10.2019
676 Clouds 7 1010 93 10000 4 330 08:47 06.10.2019
677 Clouds 7 1010 93 10000 4 330 08:21 06.10.2019
678 Clouds 6 1009 93 10000 4 340 07:57 06.10.2019
679 Clouds 6 1009 93 10000 3 330 07:38 06.10.2019
680 Clouds 6 1009 93 10000 4 330 06:39 06.10.2019
681 Clouds 6 1009 93 10000 3 330 05:36 06.10.2019
682 Clouds 6 1009 93 10000 2 330 04:29 06.10.2019
683 Clear 6 1009 93 10000 3 330 02:48 06.10.2019
684 Clear 6 1009 87 10000 2 340 02:28 06.10.2019
685 Clear 7 1008 87 10000 3 330 01:46 06.10.2019
686 Clear 7 1009 87 10000 2 320 01:27 06.10.2019
687 Clear 7 1009 87 10000 2 320 01:27 06.10.2019
688 Clouds 8 1008 75 10000 3 360 00:59 06.10.2019
689 Clouds 8 1008 75 10000 3 360 00:59 06.10.2019
690 Clouds 8 1008 70 10000 4 10 00:31 06.10.2019
691 Clouds 8 1009 70 10000 3 10 23:46 05.10.2019
692 Clouds 8 1009 70 10000 3 10 23:24 05.10.2019
693 Clouds 9 1009 70 10000 3 10 22:59 05.10.2019
694 Clouds 9 1009 70 10000 4 10 22:40 05.10.2019
695 Clouds 9 1009 70 10000 4 10 22:21 05.10.2019
696 Clouds 9 1009 70 10000 4 10 22:21 05.10.2019
697 Rain 9 1009 70 10000 4 20 21:59 05.10.2019
698 Rain 9 1009 66 10000 4 20 21:40 05.10.2019
699 Rain 9 1009 66 10000 4 20 21:21 05.10.2019
700 Clear 9 1009 71 10000 4 20 20:56 05.10.2019
701 Clear 9 1009 71 10000 4 30 20:38 05.10.2019
702 Clear 10 1009 71 10000 4 30 20:19 05.10.2019
703 Clear 10 1009 71 10000 3 10 19:39 05.10.2019
704 Clear 10 1009 71 10000 3 10 19:21 05.10.2019
705 Clear 10 1009 71 10000 2 10 18:57 05.10.2019
706 Clear 10 1009 71 10000 3 10 18:39 05.10.2019
707 Clear 10 1009 71 10000 3 10 18:39 05.10.2019
708 Clear 10 1009 71 10000 3 10 18:20 05.10.2019
709 Clear 10 1009 71 10000 4 10 17:46 05.10.2019
710 Clear 10 1009 71 10000 4 360 17:28 05.10.2019
711 Clouds 11 1009 66 10000 4 10 16:59 05.10.2019
712 Clear 11 1009 57 10000 4 20 16:41 05.10.2019
713 Clear 11 1009 57 10000 4 20 16:21 05.10.2019
714 Clouds 12 1009 62 10000 4 30 15:57 05.10.2019
715 Clouds 12 1009 66 10000 4 40 15:39 05.10.2019
716 Clouds 12 1009 66 10000 4 40 15:21 05.10.2019
717 Clouds 11 1009 66 10000 4 30 14:56 05.10.2019
718 Clouds 11 1009 66 10000 4 30 14:56 05.10.2019
719 Clouds 11 1009 66 10000 4 30 14:56 05.10.2019
720 Clouds 12 1009 66 10000 3 40 14:38 05.10.2019
721 Clouds 12 1009 66 10000 3 40 14:38 05.10.2019
722 Clouds 12 1009 66 10000 3 40 14:19 05.10.2019
723 Clouds 12 1010 66 10000 3 40 13:41 05.10.2019
724 Clouds 12 1010 66 10000 3 40 13:21 05.10.2019
725 Clear 12 1010 66 10000 3 30 12:46 05.10.2019
726 Clouds 11 1010 71 10000 2 360 12:21 05.10.2019
727 Clouds 12 1010 71 10000 2 360 11:54 05.10.2019
728 Clear 11 1011 71 10000 2 30 11:36 05.10.2019
729 Clear 11 1011 71 10000 2 30 11:18 05.10.2019
730 Clear 10 1011 76 10000 1 0 10:44 05.10.2019
731 Clear 10 1011 76 10000 1 0 10:24 05.10.2019
732 Clear 9 1011 87 10000 2 60 09:57 05.10.2019
733 Clear 8 1011 87 10000 2 60 09:38 05.10.2019
734 Clear 8 1011 87 10000 2 60 09:20 05.10.2019
735 Clouds 7 1011 100 9000 1 0 08:39 05.10.2019
736 Clouds 7 1011 100 9000 1 0 08:39 05.10.2019
737 Clouds 7 1011 100 9000 1 0 08:19 05.10.2019
738 Clouds 6 1011 100 7000 2.06 1.642 07:56 05.10.2019
739 Mist 6 1011 100 5000 2.06 1.642 07:33 05.10.2019
740 Mist 6 1011 100 8000 2 10 06:58 05.10.2019
741 Mist 5 1011 100 10000 1 360 06:26 05.10.2019
742 Mist 5 1011 100 9000 2 290 05:40 05.10.2019
743 Mist 4 1011 100 8000 2 290 03:56 05.10.2019
744 Fog 4 1011 93 10000 2 280 03:28 05.10.2019
745 Clouds 6 1011 100 9000 2 290 01:41 05.10.2019
746 Clouds 6 1011 100 9000 2 290 01:18 05.10.2019
747 Clouds 6 1011 100 8000 1.6 331.547 00:41 05.10.2019
748 Clouds 6 1011 100 8000 2.11 332.247 00:23 05.10.2019
749 Clear 6 1011 93 10000 1 270 23:44 04.10.2019
750 Clear 6 1011 93 10000 1 270 23:25 04.10.2019
751 Clear 7 1011 93 10000 1 300 22:59 04.10.2019
752 Clear 7 1011 93 10000 2 320 22:39 04.10.2019
753 Clear 7 1011 93 10000 2 320 22:19 04.10.2019
754 Clear 8 1010 93 10000 1 330 22:19 04.10.2019
755 Clear 8 1010 93 10000 1 330 21:55 04.10.2019
756 Clouds 8 1011 93 10000 1 0 21:36 04.10.2019
757 Clouds 9 1011 87 10000 2 310 21:18 04.10.2019
758 Clouds 9 1011 81 10000 2 310 20:42 04.10.2019
759 Clouds 9 1011 81 10000 2 310 20:23 04.10.2019
760 Clear 9 1011 76 10000 2 320 19:58 04.10.2019
761 Clear 9 1011 76 10000 2 330 19:39 04.10.2019
762 Clear 10 1010 76 10000 2 330 19:20 04.10.2019
763 Clear 10 1010 76 10000 2 330 18:56 04.10.2019
764 Clouds 10 1011 87 10000 1 290 18:37 04.10.2019
765 Clouds 10 1011 87 10000 1 290 18:18 04.10.2019
766 Clear 11 1011 71 10000 2 330 17:41 04.10.2019
767 Clear 11 1011 71 10000 2 330 17:22 04.10.2019
768 Clear 11 1011 71 10000 3 330 16:58 04.10.2019
769 Clear 11 1011 66 10000 2 340 16:40 04.10.2019
770 Clear 11 1011 66 10000 3 360 16:19 04.10.2019
771 Clear 11 1011 66 10000 3 360 15:56 04.10.2019
772 Clouds 11 1011 66 10000 4 360 15:38 04.10.2019
773 Clouds 11 1011 66 10000 3 340 15:19 04.10.2019
774 Clouds 11 1011 66 10000 3 340 14:56 04.10.2019
775 Clouds 12 1011 71 10000 4 340 14:37 04.10.2019
776 Clouds 12 1011 71 10000 4 340 14:19 04.10.2019
777 Clouds 12 1011 71 10000 3 360 13:44 04.10.2019
778 Clouds 12 1011 71 10000 3 360 13:22 04.10.2019
779 -273 0 0 0 0 0 12:54 04.10.2019
780 Clouds 12 1012 76 10000 3 320 12:36 04.10.2019
781 Clouds 11 1012 76 10000 3 320 12:18 04.10.2019
782 Clouds 11 1012 81 10000 3 330 11:42 04.10.2019
783 Clouds 11 1012 81 10000 3 330 11:41 04.10.2019
784 Clouds 11 1012 81 10000 3 330 11:21 04.10.2019
785 Clouds 10 1012 81 10000 3 340 10:41 04.10.2019
786 Clouds 10 1012 81 10000 3 340 10:21 04.10.2019
787 Clouds 10 1012 81 10000 3 340 10:21 04.10.2019
788 Clouds 10 1012 87 10000 3 340 09:50 04.10.2019
789 Clouds 9 1012 87 10000 4 340 09:32 04.10.2019
790 Clouds 9 1011 87 10000 5 350 08:59 04.10.2019
791 Clouds 9 1011 93 10000 4 340 08:41 04.10.2019
792 Clouds 9 1011 93 10000 4 340 08:41 04.10.2019
793 Clouds 9 1011 93 10000 4 340 08:23 04.10.2019
794 Clouds 8 1011 93 10000 4 340 07:47 04.10.2019
795 Clouds 8 1011 93 10000 4 340 07:23 04.10.2019
796 Clouds 8 1010 93 10000 5 320 06:48 04.10.2019
797 Clouds 8 1010 93 10000 5 320 06:27 04.10.2019
798 Clouds 9 1010 93 10000 5 310 05:52 04.10.2019
799 Clouds 8 1010 93 10000 5 310 05:19 04.10.2019
800 Rain 9 1009 93 10000 5 320 04:25 04.10.2019
801 Rain 9 1008 93 10000 6 320 02:56 04.10.2019
802 Rain 9 1008 93 10000 6 320 02:56 04.10.2019
803 Rain 9 1008 93 9000 6 320 02:37 04.10.2019
804 Rain 9 1008 93 10000 6 330 01:43 04.10.2019
805 Rain 10 1008 93 10000 6 330 01:24 04.10.2019
806 Rain 10 1008 100 10000 6 310 00:24 04.10.2019
807 Rain 11 1008 100 10000 7 300 23:38 03.10.2019
808 Rain 12 1006 93 10000 6 300 23:19 03.10.2019
809 Rain 12 1006 93 10000 6 300 22:57 03.10.2019
810 Clouds 12 1006 93 10000 7 320 22:39 03.10.2019
811 Clouds 12 1006 93 10000 7 320 22:21 03.10.2019
812 Clouds 13 1006 93 10000 7 310 21:56 03.10.2019
813 Rain 14 1005 93 10000 7 300 21:37 03.10.2019
814 Rain 14 1005 93 10000 7 300 21:37 03.10.2019
815 Rain 15 1004 87 10000 6 290 21:19 03.10.2019
816 Rain 16 1004 87 10000 6 290 20:56 03.10.2019
817 Rain 16 1004 100 7000 2 230 20:37 03.10.2019
818 Thunderstorm 16 1004 100 7000 2 230 20:19 03.10.2019
819 Rain 17 1004 100 8000 1 0 19:55 03.10.2019
820 Thunderstorm 18 1004 88 8000 6 280 19:36 03.10.2019
821 Thunderstorm 18 1004 88 8000 6 280 19:18 03.10.2019
822 Rain 20 1003 64 9000 2 160 18:40 03.10.2019
823 Rain 20 1003 64 9000 2 160 18:20 03.10.2019
824 Clear 20 1004 68 10000 1 0 17:59 03.10.2019
825 Clear 22 1004 60 10000 2 170 17:41 03.10.2019
826 Clouds 23 1004 53 10000 3 200 17:20 03.10.2019
827 Clouds 24 1004 53 10000 3 200 16:54 03.10.2019
828 Clouds 24 1004 53 10000 2 210 16:36 03.10.2019
829 Clouds 24 1004 53 10000 2 210 16:18 03.10.2019
830 Clouds 24 1004 56 10000 4 220 15:41 03.10.2019
831 Clouds 23 1004 56 10000 4 210 15:23 03.10.2019
832 Clear 24 1004 56 10000 4 210 14:54 03.10.2019
833 Clear 24 1004 56 10000 4 180 14:36 03.10.2019
834 Clear 23 1004 56 10000 4 180 14:18 03.10.2019
835 Clear 23 1004 60 10000 5 190 13:41 03.10.2019
836 Clear 23 1004 60 10000 5 190 13:19 03.10.2019
837 Clear 22 1005 60 10000 4 170 12:57 03.10.2019
838 Clouds 21 1005 64 10000 4 200 12:38 03.10.2019
839 Clouds 21 1005 64 10000 4 200 12:19 03.10.2019
840 Clouds 20 1005 77 10000 3 160 11:42 03.10.2019
841 Clouds 19 1005 77 10000 3 160 11:23 03.10.2019
842 Clouds 18 1005 77 10000 4 160 10:59 03.10.2019
843 Clouds 18 1005 77 10000 3 160 10:40 03.10.2019
844 Clouds 18 1005 77 10000 3 160 10:19 03.10.2019
845 Clouds 17 1006 77 10000 4 160 10:19 03.10.2019
846 Clouds 17 1006 77 10000 4 160 09:58 03.10.2019
847 Clouds 17 1006 82 10000 3 180 09:40 03.10.2019
848 Clouds 17 1006 82 10000 3 180 09:21 03.10.2019
849 Clear 16 1006 82 10000 3 160 08:46 03.10.2019
850 Clear 15 1006 87 10000 3 160 08:27 03.10.2019
851 Clear 15 1006 82 10000 3 150 07:59 03.10.2019
852 Clear 15 1006 82 10000 3 150 07:59 03.10.2019
853 Clear 14 1005 87 10000 2 150 07:41 03.10.2019
854 Clear 14 1005 87 10000 2 150 07:19 03.10.2019
855 Clear 12 1005 93 10000 2 150 06:50 03.10.2019
856 Clear 12 1005 93 10000 2 150 06:24 03.10.2019
857 Clouds 12 1005 87 10000 5 160 05:46 03.10.2019
858 Clear 12 1006 87 10000 3 160 05:19 03.10.2019
859 Clear 13 1006 71 10000 2 150 04:27 03.10.2019
860 Clear 13 1006 67 10000 2 150 03:24 03.10.2019
861 Clear 14 1007 67 10000 2 180 02:39 03.10.2019
862 Clear 14 1007 67 10000 2 180 01:52 03.10.2019
863 Clear 15 1007 67 10000 3 180 01:33 03.10.2019
864 Clear 15 1007 63 10000 3 180 00:49 03.10.2019
865 Clear 16 1007 63 10000 3 180 00:19 03.10.2019
866 Clear 16 1007 59 10000 3 180 23:43 02.10.2019
867 Clear 16 1007 59 10000 3 180 23:21 02.10.2019
868 Clear 17 1007 55 10000 3 190 22:44 02.10.2019
869 Clear 17 1007 55 10000 3 190 22:22 02.10.2019
870 Clear 17 1007 55 10000 3 180 21:57 02.10.2019
871 Clear 17 1007 55 10000 3 180 21:57 02.10.2019
872 Clear 17 1007 59 10000 3 170 21:38 02.10.2019
873 Clear 17 1007 59 10000 3 170 21:20 02.10.2019
874 Clear 18 1007 55 10000 4 170 20:57 02.10.2019
875 Clear 18 1007 55 10000 3 160 20:38 02.10.2019
876 Clear 18 1007 55 10000 3 160 20:20 02.10.2019
877 Clear 18 1007 55 10000 3 160 20:20 02.10.2019
878 Clear 17 1007 55 10000 2 160 19:55 02.10.2019
879 Clear 17 1007 55 10000 2 160 19:55 02.10.2019
880 Clear 17 1007 55 10000 2 160 19:55 02.10.2019
881 Clear 18 1008 55 10000 2 160 19:36 02.10.2019
882 Clear 18 1008 55 10000 2 160 19:36 02.10.2019
883 Clear 18 1008 55 10000 2 160 19:18 02.10.2019
884 Clear 19 1008 55 10000 2 160 18:56 02.10.2019
885 Clear 19 1008 52 10000 1 0 18:36 02.10.2019
886 Clear 19 1008 52 10000 1 0 18:18 02.10.2019
887 Clear 20 1008 52 10000 2 160 17:42 02.10.2019
888 Clear 21 1008 46 10000 2 180 17:21 02.10.2019
889 Clear 22 1008 46 10000 3 190 16:58 02.10.2019
890 Clear 22 1008 46 10000 3 190 16:39 02.10.2019
891 Clear 23 1008 40 10000 3 190 16:20 02.10.2019
892 Clear 23 1008 40 10000 3 190 15:56 02.10.2019
893 Clear 23 1008 38 10000 5 200 15:37 02.10.2019
894 Clear 23 1009 40 10000 3 190 15:18 02.10.2019
895 Clear 23 1009 40 10000 5 190 14:45 02.10.2019
896 Clear 23 1009 40 10000 5 190 14:27 02.10.2019
897 Clear 23 1009 40 10000 4 200 13:58 02.10.2019
898 Clear 23 1009 40 10000 3 200 13:40 02.10.2019
899 Clear 22 1009 43 10000 4 200 13:21 02.10.2019
900 Clear 21 1010 45 10000 4 210 12:41 02.10.2019
901 Clear 21 1010 49 10000 4 190 12:23 02.10.2019
902 Clear 21 1010 49 10000 4 190 11:59 02.10.2019
903 Clear 20 1010 52 10000 3 170 11:41 02.10.2019
904 Clear 19 1010 52 10000 3 180 11:21 02.10.2019
905 Clear 19 1010 52 10000 3 180 10:39 02.10.2019
906 Clear 19 1010 52 10000 3 180 10:19 02.10.2019
907 Clear 19 1010 52 10000 3 180 10:19 02.10.2019
908 Clear 16 1010 62 10000 3 190 09:41 02.10.2019
909 Clear 16 1010 62 10000 3 190 09:20 02.10.2019
910 Clear 14 1010 66 10000 5 200 08:57 02.10.2019
911 Clear 14 1010 66 10000 5 200 08:38 02.10.2019
912 Clear 14 1010 66 10000 5 200 08:20 02.10.2019
913 Clear 11 1010 76 10000 4 210 07:43 02.10.2019
914 Clear 11 1010 76 10000 4 210 07:24 02.10.2019
915 Clear 11 1010 76 10000 4 220 06:58 02.10.2019
916 Clear 10 1010 76 10000 4 220 06:27 02.10.2019
917 Clear 10 1010 76 10000 5 220 05:51 02.10.2019
918 Clear 10 1010 76 10000 5 220 05:21 02.10.2019
919 Clear 10 1010 76 10000 5 210 03:53 02.10.2019
920 Clear 10 1011 81 10000 5 210 03:31 02.10.2019
921 Clear 10 1011 76 10000 2 200 02:27 02.10.2019
922 Clear 11 1011 76 10000 2 210 01:59 02.10.2019
923 Clear 10 1011 81 10000 2 200 00:52 02.10.2019
924 Clear 10 1011 81 10000 1 0 00:29 02.10.2019
925 Clear 10 1011 81 10000 2 210 23:55 01.10.2019
926 Clear 10 1011 81 10000 3 200 23:36 01.10.2019
927 Clear 10 1011 81 10000 3 200 23:18 01.10.2019
928 Clear 10 1011 81 10000 3 210 22:57 01.10.2019
929 Clear 10 1011 87 10000 1 220 22:37 01.10.2019
930 Clear 10 1011 87 10000 1 220 22:18 01.10.2019
931 Clear 10 1011 81 10000 2 220 22:18 01.10.2019
932 Clear 11 1011 76 10000 3 230 21:42 01.10.2019
933 Clear 11 1011 71 10000 3 230 21:22 01.10.2019
934 Clear 11 1011 71 10000 3 230 20:58 01.10.2019
935 Clear 12 1011 71 10000 2 230 20:39 01.10.2019
936 Clear 11 1011 71 10000 3 250 20:20 01.10.2019
937 Clear 12 1011 71 10000 2 230 20:20 01.10.2019
938 Clear 11 1011 71 10000 3 250 19:57 01.10.2019
939 Clear 12 1010 66 10000 3 250 19:39 01.10.2019
940 Clear 12 1010 66 10000 3 250 19:20 01.10.2019
941 Clear 13 1010 66 10000 3 260 18:55 01.10.2019
942 Clear 13 1010 62 10000 4 250 18:37 01.10.2019
943 Clear 14 1010 58 10000 4 260 18:19 01.10.2019
944 Clear 16 1010 54 10000 6 270 17:43 01.10.2019
945 Clear 15 1009 48 10000 7 270 17:20 01.10.2019
946 Clear 16 1009 48 10000 7 270 16:59 01.10.2019
947 Clear 16 1009 48 10000 7 290 16:40 01.10.2019
948 Clear 16 1009 48 10000 7 290 16:22 01.10.2019
949 Clear 16 1009 48 10000 7 290 16:22 01.10.2019
950 Clear 17 1009 48 10000 8 270 15:48 01.10.2019
951 Clear 17 1009 48 10000 8 270 15:24 01.10.2019
952 Clouds 17 1009 48 10000 7 290 14:58 01.10.2019
953 Clouds 16 1009 51 10000 9 280 14:37 01.10.2019
954 Clouds 16 1009 48 10000 8 290 14:19 01.10.2019
955 Clouds 17 1009 48 10000 8 290 13:55 01.10.2019
956 Clouds 17 1008 51 10000 7 290 13:36 01.10.2019
957 Clouds 16 1008 58 10000 8 280 13:18 01.10.2019
958 Clouds 16 1008 62 10000 7 300 12:42 01.10.2019
959 Clouds 15 1008 62 10000 7 300 12:21 01.10.2019
960 Clouds 14 1007 71 10000 9 300 11:59 01.10.2019
961 Clouds 14 1007 71 10000 9 300 11:39 01.10.2019
962 Clouds 14 1007 71 10000 9 300 11:19 01.10.2019
963 Rain 14 1007 71 10000 9 300 10:59 01.10.2019
964 Rain 14 1006 67 10000 7 290 10:41 01.10.2019
965 Rain 14 1006 67 10000 7 290 10:23 01.10.2019
966 Rain 13 1005 87 10000 8 300 09:43 01.10.2019
967 Rain 13 1005 87 10000 8 300 09:25 01.10.2019
968 Clouds 13 1004 93 10000 8 290 08:43 01.10.2019
969 Clouds 13 1004 93 10000 8 290 08:25 01.10.2019
970 Rain 13 1003 93 10000 7 290 07:49 01.10.2019
971 Rain 12 1003 100 10000 7 290 07:25 01.10.2019
972 Rain 12 1003 100 10000 7 290 07:25 01.10.2019
973 Rain 11 1001 100 4300 7 270 06:50 01.10.2019
974 Rain 11 1001 100 4300 7 270 06:23 01.10.2019
975 Rain 11 1000 100 8000 6 260 05:46 01.10.2019
976 Rain 12 1000 100 8000 6 260 05:18 01.10.2019
977 Clouds 12 1000 87 10000 8 260 04:34 01.10.2019
978 Clouds 13 999 87 10000 7 250 02:30 01.10.2019
979 Clear 13 999 87 10000 5 240 01:59 01.10.2019
980 Clear 13 1000 93 10000 6 240 01:25 01.10.2019
981 Rain 13 999 93 10000 4 230 00:40 01.10.2019
982 Rain 13 999 93 10000 4 230 00:40 01.10.2019
983 Rain 13 1000 93 10000 5 240 00:22 01.10.2019
984 Rain 14 1000 93 10000 5 250 23:41 30.09.2019
985 Rain 14 999 87 10000 8 270 23:21 30.09.2019
986 Rain 14 1000 87 10000 9 270 22:45 30.09.2019
987 Rain 14 1000 87 10000 9 270 22:26 30.09.2019
988 Rain 15 1000 82 10000 6 260 21:58 30.09.2019
989 Rain 15 1000 87 10000 6 250 21:39 30.09.2019
990 Rain 15 1000 87 10000 6 250 21:39 30.09.2019
991 Rain 16 1000 87 7000 7 260 21:20 30.09.2019
992 Rain 16 1000 87 7000 7 260 21:20 30.09.2019
993 Rain 16 1000 87 7000 7 260 20:58 30.09.2019
994 Rain 16 1000 77 8000 10 290 20:39 30.09.2019
995 Rain 17 1000 77 8000 10 290 20:20 30.09.2019
996 Thunderstorm 19 998 63 10000 5 220 19:57 30.09.2019
997 Rain 19 999 63 10000 5 210 19:39 30.09.2019
998 Clear 19 999 63 10000 5 210 19:19 30.09.2019
999 Clear 19 999 60 10000 5 210 18:57 30.09.2019
1000 Clear 19 999 60 10000 5 210 18:39 30.09.2019
1001 Clear 20 999 60 10000 5 220 18:20 30.09.2019
1002 Clear 20 999 60 10000 5 220 18:20 30.09.2019
1003 Clear 20 999 60 10000 5 210 17:43 30.09.2019
1004 Clear 20 999 60 10000 5 210 17:23 30.09.2019
1005 Clear 20 999 60 10000 5 200 16:58 30.09.2019
1006 Clear 20 1000 60 10000 5 200 16:40 30.09.2019
1007 Clear 20 1000 60 10000 6 200 16:19 30.09.2019
1008 Clear 19 1000 60 10000 6 200 16:19 30.09.2019
1009 Clear 20 1000 60 10000 6 200 15:58 30.09.2019
1010 Clear 19 1001 63 10000 5 200 15:38 30.09.2019
1011 Clear 19 1001 63 10000 5 200 15:19 30.09.2019
1012 Clear 19 1001 63 10000 5 200 14:57 30.09.2019
1013 Rain 19 1002 63 10000 6 210 14:37 30.09.2019
1014 Rain 19 1002 63 10000 6 210 14:18 30.09.2019
1015 Rain 19 1002 59 10000 5 200 13:56 30.09.2019
1016 Rain 19 1003 59 10000 5 210 13:37 30.09.2019
1017 Clear 19 1003 59 10000 5 200 13:19 30.09.2019
1018 Clear 19 1003 59 10000 4 200 12:42 30.09.2019
1019 Clear 19 1003 59 10000 4 200 12:22 30.09.2019
1020 Clear 18 1004 63 10000 4 200 11:57 30.09.2019
1021 Clear 18 1004 63 10000 4 200 11:57 30.09.2019
1022 Clear 18 1004 63 10000 4 200 11:57 30.09.2019
1023 Clear 18 1004 63 10000 4 200 11:38 30.09.2019
1024 Clear 18 1004 63 10000 4 200 11:19 30.09.2019
1025 Clear 17 1004 67 10000 4 200 10:41 30.09.2019
1026 Clear 17 1004 67 10000 4 200 10:41 30.09.2019
1027 Clear 17 1004 67 10000 4 200 10:19 30.09.2019
1028 Clear 16 1005 67 10000 4 200 09:59 30.09.2019
1029 Clear 16 1005 67 10000 3 210 09:39 30.09.2019
1030 Clear 16 1005 67 10000 3 210 09:20 30.09.2019
1031 Clear 13 1006 82 10000 4 210 08:47 30.09.2019
1032 Clear 13 1006 82 10000 4 210 08:28 30.09.2019
1033 Clear 11 1006 93 10000 3 210 07:46 30.09.2019
1034 Clear 11 1006 93 10000 3 210 07:28 30.09.2019
1035 Clear 11 1006 93 10000 3 220 06:56 30.09.2019
1036 Clear 11 1006 93 10000 4 210 06:34 30.09.2019
1037 Clear 11 1007 93 10000 3 210 05:48 30.09.2019
1038 Clear 11 1007 93 10000 3 210 05:48 30.09.2019
1039 Clear 11 1007 93 10000 3 220 04:40 30.09.2019
1040 Clear 10 1008 100 10000 2 230 02:48 30.09.2019
1041 Clear 11 1009 100 10000 2 240 01:37 30.09.2019
1042 Clear 11 1009 100 10000 2 240 00:42 30.09.2019
1043 Clear 11 1009 100 10000 2 230 00:22 30.09.2019
1044 Clear 11 1010 100 10000 2 240 23:47 29.09.2019
1045 Clear 11 1010 100 10000 2 240 23:27 29.09.2019
1046 Clear 11 1010 100 10000 2 230 22:59 29.09.2019
1047 Clear 11 1010 100 10000 2 240 22:41 29.09.2019
1048 Clear 11 1010 100 10000 2 240 22:23 29.09.2019
1049 Clear 11 1010 100 10000 2 240 21:57 29.09.2019
1050 Clear 12 1010 93 10000 1 250 21:37 29.09.2019
1051 Clear 12 1010 93 10000 1 250 21:19 29.09.2019
1052 Clear 12 1010 87 10000 3 250 20:45 29.09.2019
1053 Clear 13 1010 87 10000 3 250 20:20 29.09.2019
1054 Clouds 13 1010 82 10000 4 250 19:59 29.09.2019
1055 Rain 13 1010 82 10000 2 230 19:38 29.09.2019
1056 Clear 14 1010 82 10000 2 220 19:19 29.09.2019
1057 Clear 14 1010 87 10000 2 230 18:56 29.09.2019
1058 Clear 14 1010 87 10000 2 230 18:38 29.09.2019
1059 Clear 14 1010 87 10000 2 230 18:38 29.09.2019
1060 Clear 14 1010 87 10000 2 230 18:19 29.09.2019
1061 Clear 14 1010 87 10000 2 230 18:19 29.09.2019
1062 Clear 15 1010 77 10000 2 270 17:58 29.09.2019
1063 Clear 16 1010 72 10000 3 270 17:40 29.09.2019
1064 Clear 17 1010 67 10000 5 270 17:20 29.09.2019
1065 Clear 17 1010 67 10000 5 270 16:58 29.09.2019
1066 Clear 17 1010 67 10000 6 270 16:40 29.09.2019
1067 Clear 18 1010 67 10000 6 270 16:19 29.09.2019
1068 Clear 18 1010 63 10000 5 260 15:57 29.09.2019
1069 Clouds 18 1010 63 10000 5 270 15:36 29.09.2019
1070 Clouds 18 1010 63 10000 5 270 15:18 29.09.2019
1071 Clouds 18 1010 63 10000 5 290 14:55 29.09.2019
1072 Clouds 19 1010 59 10000 6 290 14:36 29.09.2019
1073 Clouds 19 1010 59 10000 6 290 14:18 29.09.2019
1074 Clouds 19 1011 67 10000 6 290 13:42 29.09.2019
1075 Clouds 18 1011 67 10000 6 290 13:19 29.09.2019
1076 Clouds 18 1011 68 10000 6 290 12:58 29.09.2019
1077 Clouds 18 1011 72 10000 5 280 12:40 29.09.2019
1078 Clouds 17 1011 72 10000 5 280 12:21 29.09.2019
1079 Clouds 16 1011 87 10000 5 290 11:57 29.09.2019
1080 Clouds 16 1011 87 10000 5 290 11:39 29.09.2019
1081 Clouds 16 1011 87 10000 5 290 11:19 29.09.2019
1082 Clouds 16 1011 87 10000 4 300 10:57 29.09.2019
1083 Clouds 16 1011 87 10000 4 300 10:57 29.09.2019
1084 Clouds 15 1011 93 10000 4 290 10:37 29.09.2019
1085 Clouds 15 1011 93 10000 4 290 10:18 29.09.2019
1086 Clouds 15 1011 100 10000 4 300 09:47 29.09.2019
1087 Clouds 14 1011 100 10000 4 300 09:21 29.09.2019
1088 Clouds 14 1011 100 10000 3 300 08:59 29.09.2019
1089 Clouds 14 1010 93 10000 3 290 08:41 29.09.2019
1090 Clouds 14 1010 93 10000 3 290 08:20 29.09.2019
1091 Rain 13 1010 100 10000 2 290 07:43 29.09.2019
1092 Rain 13 1010 100 10000 2 290 07:24 29.09.2019
1093 Rain 13 1010 100 10000 2 290 07:24 29.09.2019
1094 Rain 13 1010 100 5000 3 240 06:43 29.09.2019
1095 Rain 13 1010 100 3600 2 270 05:27 29.09.2019
1096 Rain 13 1011 100 4700 2 220 04:40 29.09.2019
1097 Rain 13 1011 100 4700 2 220 04:22 29.09.2019
1098 Rain 13 1012 93 4600 4 250 02:47 29.09.2019
1099 Rain 13 1012 93 4600 4 250 02:18 29.09.2019
1100 Rain 13 1013 93 8000 2 250 01:32 29.09.2019
1101 Rain 13 1013 87 10000 1 0 00:52 29.09.2019
1102 Rain 13 1013 87 10000 1 0 00:21 29.09.2019
1103 Clouds 13 1013 87 10000 4.17 194.955 00:21 29.09.2019
1104 Rain 13 1013 87 9000 4.17 194.955 23:44 28.09.2019
1105 Rain 13 1013 87 9000 4.17 194.955 23:23 28.09.2019
1106 Rain 13 1014 82 9000 2 210 22:59 28.09.2019
1107 Clear 13 1014 87 10000 1 0 22:38 28.09.2019
1108 Clear 13 1014 87 10000 1 0 22:20 28.09.2019
1109 Rain 13 1013 93 9000 3 200 21:56 28.09.2019
1110 Rain 13 1014 93 10000 4 200 21:38 28.09.2019
1111 Clear 14 1014 82 10000 1 0 21:20 28.09.2019
1112 Clear 14 1014 82 10000 1 0 20:57 28.09.2019
1113 Clear 14 1015 82 10000 2 200 20:38 28.09.2019
1114 Clouds 14 1015 82 10000 2 190 20:18 28.09.2019
1115 Clouds 14 1015 82 10000 2 190 19:55 28.09.2019
1116 Clouds 14 1015 82 10000 2 180 19:36 28.09.2019
1117 Clouds 14 1015 82 10000 2 180 19:18 28.09.2019
1118 Rain 14 1015 82 9000 2 190 18:41 28.09.2019
1119 Rain 14 1016 82 9000 1 0 18:22 28.09.2019
1120 Rain 14 1016 82 9000 1 0 17:59 28.09.2019
1121 Rain 14 1016 82 9000 2 180 17:40 28.09.2019
1122 Rain 14 1016 82 9000 2 220 17:21 28.09.2019
1123 Rain 14 1016 82 9000 2 220 16:49 28.09.2019
1124 Rain 15 1016 77 9000 2 230 16:29 28.09.2019
1125 Rain 16 1017 63 10000 2 220 15:59 28.09.2019
1126 Clear 16 1017 59 10000 3 200 15:39 28.09.2019
1127 Clear 16 1017 59 10000 3 200 15:21 28.09.2019
1128 Rain 17 1017 59 10000 3 220 14:55 28.09.2019
1129 Rain 17 1017 59 10000 3 220 14:55 28.09.2019
1130 Clouds 17 1017 59 9000 3 210 14:36 28.09.2019
1131 Clouds 17 1017 59 9000 3 210 14:18 28.09.2019
1132 Clear 17 1017 59 10000 3 200 13:43 28.09.2019
1133 Clear 17 1018 55 10000 3 220 13:20 28.09.2019
1134 Clear 17 1018 55 10000 3 220 12:57 28.09.2019
1135 Clouds 17 1018 55 10000 3 190 12:37 28.09.2019
1136 Clear 16 1018 58 10000 3 180 12:18 28.09.2019
1137 Clouds 15 1018 58 10000 3 190 11:41 28.09.2019
1138 Clouds 15 1018 58 10000 3 190 11:20 28.09.2019
1139 Clouds 14 1018 62 7000 3 170 10:56 28.09.2019
1140 Clouds 15 1019 58 10000 2 170 10:38 28.09.2019
1141 Clouds 14 1018 66 10000 3 150 10:18 28.09.2019
1142 Clear 13 1018 76 10000 2 140 09:41 28.09.2019
1143 Clouds 13 1018 87 10000 2 130 09:19 28.09.2019
1144 Clouds 13 1018 87 10000 2 130 09:19 28.09.2019
1145 Clouds 13 1018 87 10000 2 130 08:48 28.09.2019
1146 Clouds 12 1019 93 9000 1.17 184.857 08:29 28.09.2019
1147 Clouds 11 1019 100 7000 1.17 184.857 07:57 28.09.2019
1148 Mist 10 1018 100 5000 1 250 07:38 28.09.2019
1149 Fog 9 1018 100 3100 1.17 184.857 07:19 28.09.2019
1150 Mist 9 1018 100 4900 1.17 184.857 06:38 28.09.2019
1151 Mist 9 1018 100 4900 0.79 51.181 06:20 28.09.2019
1152 Clouds 10 1018 100 6000 2 260 05:25 28.09.2019
1153 Clouds 10 1018 100 7000 0.79 51.181 04:56 28.09.2019
1154 Clouds 10 1018 100 7000 0.79 51.181 04:30 28.09.2019
1155 Clouds 10 1018 100 7000 0.79 51.181 03:41 28.09.2019
1156 Clouds 10 1018 100 8000 1.31 18.546 02:59 28.09.2019
1157 Clouds 10 1018 100 7000 1 0 02:40 28.09.2019
1158 Clouds 10 1018 100 7000 1 0 02:19 28.09.2019
1159 Clouds 10 1018 93 7000 1 0 01:42 28.09.2019
1160 Clouds 10 1018 100 7000 2 310 01:19 28.09.2019
1161 Clouds 10 1018 100 6000 1 300 00:45 28.09.2019
1162 Clouds 10 1018 100 6000 1 300 00:27 28.09.2019
1163 Clouds 10 1018 100 9000 1 0 23:39 27.09.2019
1164 Clouds 10 1018 100 9000 1 0 23:21 27.09.2019
1165 Clouds 10 1018 93 10000 1 320 22:49 27.09.2019
1166 Clouds 11 1017 93 10000 1 0 22:21 27.09.2019
1167 Clouds 11 1017 93 10000 1 0 22:00 27.09.2019
1168 Clouds 11 1017 93 10000 1 0 21:40 27.09.2019
1169 Clouds 11 1017 93 10000 1 0 21:21 27.09.2019
1170 Clouds 11 1017 93 10000 2 320 20:59 27.09.2019
1171 Clouds 11 1017 93 10000 2 320 20:59 27.09.2019
1172 Rain 11 1017 93 7000 2 330 20:40 27.09.2019
1173 Rain 11 1017 93 7000 2 330 20:20 27.09.2019
1174 Rain 11 1017 93 7000 2 330 20:20 27.09.2019
1175 Drizzle 11 1017 93 7000 3 340 19:57 27.09.2019
1176 Drizzle 11 1017 93 9000 3 340 19:39 27.09.2019
1177 Rain 11 1017 93 8000 3 340 19:20 27.09.2019
1178 Rain 11 1016 93 9000 2 320 18:42 27.09.2019
1179 Rain 11 1016 93 9000 2 320 18:24 27.09.2019
1180 Rain 11 1016 93 10000 2 330 17:57 27.09.2019
1181 Clouds 11 1016 93 8000 2 320 17:38 27.09.2019
1182 Clouds 11 1016 93 8000 2 320 17:20 27.09.2019
1183 Drizzle 11 1016 93 5000 2 360 16:57 27.09.2019
1184 Drizzle 11 1016 93 6000 2 30 16:38 27.09.2019
1185 Drizzle 11 1016 93 6000 2 30 16:18 27.09.2019
1186 Drizzle 11 1016 93 6000 2 30 16:18 27.09.2019
1187 Drizzle 11 1016 87 9000 3 10 15:46 27.09.2019
1188 Drizzle 11 1016 87 9000 3 10 15:21 27.09.2019
1189 Drizzle 11 1016 87 9000 3 10 14:59 27.09.2019
1190 Clouds 12 1016 81 10000 3 360 14:41 27.09.2019
1191 Clouds 12 1016 81 10000 3 360 14:21 27.09.2019
1192 Clouds 12 1016 81 10000 3 350 13:58 27.09.2019
1193 Clouds 12 1016 87 10000 4 360 13:40 27.09.2019
1194 Clouds 12 1016 87 10000 4 360 13:21 27.09.2019
1195 Clouds 12 1016 87 10000 4 360 13:21 27.09.2019
1196 Clouds 12 1016 100 7000 3 360 12:54 27.09.2019
1197 Clouds 12 1016 100 7000 3 360 12:24 27.09.2019
1198 Drizzle 11 1016 93 10000 2 350 11:59 27.09.2019
1199 Drizzle 11 1015 93 10000 3 360 11:38 27.09.2019
1200 Drizzle 11 1015 93 10000 3 360 11:20 27.09.2019
1201 Drizzle 11 1015 100 6000 3 360 10:43 27.09.2019
1202 Drizzle 10 1015 100 6000 3 360 10:23 27.09.2019
1203 Drizzle 11 1015 100 7000 4 360 09:58 27.09.2019
1204 Drizzle 11 1015 100 7000 4 360 09:58 27.09.2019
1205 Drizzle 10 1015 100 8000 4 10 09:40 27.09.2019
1206 Rain 10 1015 100 7000 4 10 09:20 27.09.2019
1207 Rain 10 1014 100 4400 3 360 08:42 27.09.2019
1208 Drizzle 10 1014 100 4700 3 10 08:22 27.09.2019
1209 Drizzle 10 1014 100 4700 3 10 07:58 27.09.2019
1210 Drizzle 10 1014 100 8000 3 20 07:39 27.09.2019
1211 Mist 10 1014 100 10000 3 10 07:20 27.09.2019
1212 Mist 10 1014 100 9000 3 20 06:40 27.09.2019
1213 Mist 10 1013 100 9000 3 30 06:22 27.09.2019
1214 Mist 10 1013 100 10000 3 30 05:49 27.09.2019
1215 Mist 10 1013 100 10000 3 30 05:30 27.09.2019
1216 Mist 10 1013 100 8000 4 360 03:52 27.09.2019
1217 Drizzle 11 1012 100 4300 4 10 01:58 27.09.2019
1218 Rain 11 1012 100 650 3 10 01:34 27.09.2019
1219 Drizzle 12 1012 100 2500 2 250 00:44 27.09.2019
1220 Mist 12 1012 100 4700 2 260 23:59 26.09.2019
1221 Mist 12 1012 100 4800 3 240 23:41 26.09.2019
1222 Rain 12 1012 100 4800 3 240 23:22 26.09.2019
1223 Rain 12 1012 100 5000 3 240 22:59 26.09.2019
1224 Rain 12 1012 100 5000 3 230 22:40 26.09.2019
1225 Drizzle 11 1012 100 2300 1 110 22:19 26.09.2019
1226 Drizzle 11 1012 100 2300 1 110 21:59 26.09.2019
1227 Rain 11 1012 100 7000 2 230 21:38 26.09.2019
1228 Rain 11 1012 100 7000 2 230 21:20 26.09.2019
1229 Rain 11 1012 100 7000 2 210 20:59 26.09.2019
1230 Rain 11 1012 100 6000 2 180 20:40 26.09.2019
1231 Rain 11 1012 100 6000 2 180 20:22 26.09.2019
1232 Rain 11 1012 100 6000 2 180 20:22 26.09.2019
1233 Rain 10 1012 93 8000 2 170 19:59 26.09.2019
1234 Rain 10 1012 93 8000 2 180 19:40 26.09.2019
1235 Rain 10 1012 100 9000 2 180 19:18 26.09.2019
1236 Rain 10 1012 100 9000 2 180 18:58 26.09.2019
1237 Rain 10 1012 93 10000 2 170 18:37 26.09.2019
1238 Rain 10 1012 93 10000 2 170 18:19 26.09.2019
1239 Rain 10 1012 93 10000 3 170 17:38 26.09.2019
1240 Rain 10 1012 93 10000 3 170 17:38 26.09.2019
1241 Rain 10 1012 93 10000 3 170 17:19 26.09.2019
1242 Rain 10 1012 93 10000 3 170 16:59 26.09.2019
1243 Rain 10 1012 100 8000 3 170 16:39 26.09.2019
1244 Rain 9 1012 100 8000 3 170 16:20 26.09.2019
1245 Rain 10 1012 87 10000 3 170 15:57 26.09.2019
1246 -273 0 0 0 0 0 15:37 26.09.2019
1247 Rain 10 1012 93 10000 4 180 15:18 26.09.2019
1248 Rain 10 1012 93 10000 4 170 14:41 26.09.2019
1249 Rain 10 1012 93 10000 4 170 14:23 26.09.2019
1250 Rain 10 1013 93 9000 4 170 13:58 26.09.2019
1251 Rain 10 1013 93 9000 4 170 13:58 26.09.2019
1252 Rain 10 1013 93 9000 4 170 13:58 26.09.2019
1253 Rain 11 1013 93 3700 4 160 13:40 26.09.2019
1254 Rain 11 1013 93 10000 4 160 13:19 26.09.2019
1255 Rain 12 1013 93 4400 4 170 12:56 26.09.2019
1256 Rain 12 1013 93 4400 4 170 12:38 26.09.2019
1257 Rain 12 1013 87 10000 4 160 12:19 26.09.2019
1258 Rain 12 1013 87 10000 4 160 12:19 26.09.2019
1259 Rain 13 1013 87 10000 3 160 11:42 26.09.2019
1260 Rain 13 1013 87 10000 3 160 11:21 26.09.2019
1261 Rain 13 1013 87 10000 4 170 10:55 26.09.2019
1262 Rain 13 1013 82 10000 3 180 10:37 26.09.2019
1263 Rain 13 1013 82 10000 3 180 10:19 26.09.2019
1264 Rain 13 1013 66 10000 3 170 09:41 26.09.2019
1265 Rain 13 1013 66 10000 3 170 09:23 26.09.2019
1266 Clear 13 1013 66 10000 3 180 08:54 26.09.2019
1267 Clear 13 1013 62 10000 3 190 08:32 26.09.2019
1268 Clear 12 1013 66 10000 4 190 07:59 26.09.2019
1269 Clear 12 1013 62 10000 3 190 07:41 26.09.2019
1270 Clear 12 1012 58 10000 4 190 07:20 26.09.2019
1271 Clear 11 1012 58 10000 4 190 06:43 26.09.2019
1272 Clear 11 1012 58 10000 4 190 06:24 26.09.2019
1273 Clear 11 1012 58 10000 3 180 05:40 26.09.2019
1274 Clear 11 1012 58 10000 3 180 05:21 26.09.2019
1275 Clear 10 1013 57 10000 2 180 02:41 26.09.2019
1276 Clear 11 1013 54 10000 2 180 01:49 26.09.2019
1277 Clear 11 1013 54 10000 2 180 01:27 26.09.2019
1278 Clear 11 1013 54 10000 1 0 00:54 26.09.2019
1279 Clear 11 1013 54 10000 1 0 00:36 26.09.2019
1280 Clear 11 1014 54 10000 1 0 23:45 25.09.2019
1281 Clouds 11 1013 57 10000 3 160 23:27 25.09.2019
1282 Clear 11 1013 54 10000 2 130 22:57 25.09.2019
1283 Clear 12 1014 54 10000 2 130 22:38 25.09.2019
1284 Clear 12 1014 54 10000 2 130 22:38 25.09.2019
1285 Clouds 12 1013 58 10000 3 130 22:20 25.09.2019
1286 Clouds 12 1013 58 10000 3 130 22:20 25.09.2019
1287 Clear 12 1014 54 10000 2 130 21:56 25.09.2019
1288 Clear 12 1014 54 10000 3 140 21:38 25.09.2019
1289 Clear 13 1014 58 10000 3 130 21:18 25.09.2019
1290 Clear 13 1014 58 10000 3 130 20:56 25.09.2019
1291 Clear 13 1014 62 10000 3 130 20:38 25.09.2019
1292 Clear 13 1014 58 10000 3 110 20:19 25.09.2019
1293 Clear 13 1014 54 10000 3 110 19:41 25.09.2019
1294 Clear 13 1014 62 10000 3 100 19:22 25.09.2019
1295 Clear 14 1014 58 10000 2 90 18:57 25.09.2019
1296 Clear 14 1014 58 10000 2 90 18:39 25.09.2019
1297 Clear 14 1014 58 10000 2 90 18:21 25.09.2019
1298 Clouds 15 1014 54 10000 3 70 17:58 25.09.2019
1299 Clouds 15 1014 54 10000 3 80 17:37 25.09.2019
1300 Clouds 15 1015 48 10000 3 90 17:18 25.09.2019
1301 Clouds 16 1015 48 10000 3 90 16:44 25.09.2019
1302 Clouds 16 1015 48 10000 3 90 16:26 25.09.2019
1303 Clouds 16 1015 48 10000 3 90 16:26 25.09.2019
1304 Clouds 16 1015 48 10000 3 120 15:58 25.09.2019
1305 Clouds 16 1015 44 10000 3 160 15:40 25.09.2019
1306 Clouds 16 1015 44 10000 3 160 15:21 25.09.2019
1307 Clouds 16 1015 48 10000 3 170 14:54 25.09.2019
1308 Clouds 16 1015 48 10000 3 170 14:54 25.09.2019
1309 Clouds 16 1015 48 10000 3 180 14:36 25.09.2019
1310 Clouds 16 1015 44 10000 3 160 14:18 25.09.2019
1311 Clouds 16 1016 44 10000 2 170 13:41 25.09.2019
1312 Clouds 15 1016 44 10000 3 180 13:20 25.09.2019
1313 Clouds 15 1016 44 10000 3 180 12:58 25.09.2019
1314 Clouds 16 1016 38 10000 3 140 12:39 25.09.2019
1315 Clouds 15 1016 38 10000 3 140 12:39 25.09.2019
1316 Clouds 15 1016 41 10000 3 140 12:20 25.09.2019
1317 Clouds 15 1016 47 10000 3 120 11:42 25.09.2019
1318 Clouds 14 1016 47 10000 3 120 11:21 25.09.2019
1319 Clouds 14 1017 54 10000 4 130 10:57 25.09.2019
1320 Clouds 13 1017 50 10000 3 120 10:38 25.09.2019
1321 Clouds 13 1017 50 10000 3 120 10:19 25.09.2019
1322 Clouds 12 1017 53 10000 3 130 10:19 25.09.2019
1323 Clouds 13 1017 50 10000 3 120 10:19 25.09.2019
1324 Clouds 12 1017 53 10000 3 130 09:55 25.09.2019
1325 Clouds 12 1017 53 10000 4 120 09:36 25.09.2019
1326 Clear 11 1017 50 10000 3 130 09:18 25.09.2019
1327 Clear 9 1017 61 10000 3 100 08:41 25.09.2019
1328 Clear 9 1017 61 10000 3 100 08:20 25.09.2019
1329 Clear 6 1017 45 10000 3 70 07:55 25.09.2019
1330 Clear 7 1017 65 10000 2 80 07:55 25.09.2019
1331 Clear 6 1017 45 10000 3 70 07:36 25.09.2019
1332 Clear 6 1017 45 10000 3 80 07:18 25.09.2019
1333 Clear 5 1017 45 10000 3 90 06:37 25.09.2019
1334 Clear 5 1017 65 10000 3 90 05:52 25.09.2019
1335 Clear 5 1017 65 10000 3 90 05:26 25.09.2019
1336 Clear 5 1017 65 10000 2 100 04:45 25.09.2019
1337 Clear 4 1017 69 10000 2 100 01:44 25.09.2019
1338 Clear 4 1017 69 10000 2 100 00:42 25.09.2019
1339 Clear 4 1017 69 10000 2 100 00:23 25.09.2019
1340 Clear 6 1018 56 10000 3 80 23:45 24.09.2019
1341 Clear 6 1018 56 10000 3 80 23:23 24.09.2019
1342 Clear 7 1018 56 10000 2 90 22:59 24.09.2019
1343 Clear 7 1018 56 10000 3 80 22:38 24.09.2019
1344 Clear 7 1018 56 10000 3 80 22:20 24.09.2019
1345 Clear 7 1018 56 10000 3 80 21:56 24.09.2019
1346 Clear 8 1018 52 10000 2 80 21:37 24.09.2019
1347 Clear 8 1018 38 10000 2 80 21:18 24.09.2019
1348 Clear 7 1018 38 10000 2 80 20:57 24.09.2019
1349 Clear 7 1018 56 10000 3 80 20:38 24.09.2019
1350 Clear 9 1018 38 10000 3 80 20:19 24.09.2019
1351 Clear 8 1018 38 10000 2 110 19:43 24.09.2019
1352 Clear 9 1018 38 10000 2 90 19:21 24.09.2019
1353 Clear 10 1018 43 10000 2 70 18:58 24.09.2019
1354 Clear 10 1018 43 10000 2 70 18:39 24.09.2019
1355 Clear 12 1018 37 10000 2 110 18:21 24.09.2019
1356 Clear 13 1018 30 10000 2 100 17:57 24.09.2019
1357 Clear 13 1018 30 10000 2 100 17:38 24.09.2019
1358 Clear 14 1018 26 10000 2 120 17:20 24.09.2019
1359 Clear 14 1018 26 10000 2 60 16:43 24.09.2019
1360 Clear 14 1018 28 10000 2 100 16:21 24.09.2019
1361 Clear 14 1018 28 10000 2 100 15:59 24.09.2019
1362 Clear 14 1018 28 10000 3 80 15:41 24.09.2019
1363 Clear 14 1018 28 10000 3 80 15:22 24.09.2019
1364 Clear 15 1019 28 10000 2 150 14:40 24.09.2019
1365 Clear 14 1019 30 10000 3 40 14:19 24.09.2019
1366 Clear 14 1019 33 10000 3 40 13:45 24.09.2019
1367 Clear 15 1019 33 10000 3 40 13:24 24.09.2019
1368 Clear 14 1020 32 10000 3 50 12:59 24.09.2019
1369 Clear 14 1020 35 10000 3 40 12:39 24.09.2019
1370 Clear 13 1020 37 10000 2 50 12:18 24.09.2019
1371 Clear 13 1021 37 10000 2 120 11:43 24.09.2019
1372 Clear 13 1021 37 10000 2 120 11:22 24.09.2019
1373 Clear 12 1021 40 10000 3 100 10:57 24.09.2019
1374 Clear 12 1021 40 10000 4 90 10:37 24.09.2019
1375 Clear 11 1021 43 10000 3 120 10:18 24.09.2019
1376 Clear 10 1021 36 10000 3 120 09:46 24.09.2019
1377 Clear 10 1021 55 10000 3 120 09:27 24.09.2019
1378 Clear 9 1021 53 10000 3 90 08:57 24.09.2019
1379 Clear 7 1021 65 10000 3 90 08:38 24.09.2019
1380 Clear 6 1021 70 10000 3 90 08:20 24.09.2019
1381 Clear 6 1021 70 10000 3 90 07:52 24.09.2019
1382 Clear 1 1021 80 10000 2 90 07:25 24.09.2019
1383 Clear 0 1021 80 10000 2 90 06:57 24.09.2019
1384 Clear 0 1021 60 10000 2 80 06:36 24.09.2019
1385 Clear 0 1021 60 10000 2 80 05:51 24.09.2019
1386 Clear 1 1021 60 10000 2 80 05:20 24.09.2019
1387 Clear -1 1021 60 10000 2 100 03:45 24.09.2019
1388 Clear 3 1021 74 10000 2 90 02:57 24.09.2019
1389 Clear 3 1021 69 10000 2 90 02:38 24.09.2019
1390 Clear 3 1021 69 10000 3 90 01:22 24.09.2019
1391 Clear 4 1021 65 10000 3 80 00:37 24.09.2019
1392 Clear 5 1021 65 10000 2 80 00:18 24.09.2019
1393 Clear 5 1021 65 10000 2 100 23:40 23.09.2019
1394 Clear 5 1021 65 10000 2 100 23:21 23.09.2019
1395 Clear 5 1021 65 10000 2 80 22:40 23.09.2019
1396 Clear 6 1021 60 10000 2 80 22:21 23.09.2019
1397 Clear 6 1021 60 10000 2 80 21:58 23.09.2019
1398 Clear 6 1021 56 10000 2 70 21:40 23.09.2019
1399 Clear 7 1021 56 10000 2 70 21:20 23.09.2019
1400 Clear 7 1021 56 10000 2 80 20:56 23.09.2019
1401 Clear 8 1020 52 10000 3 60 20:37 23.09.2019
1402 Clear 7 1020 52 10000 3 60 20:18 23.09.2019
1403 Clear 7 1020 36 10000 3 20 19:39 23.09.2019
1404 Clear 8 1020 36 10000 3 20 19:21 23.09.2019
1405 Clear 8 1020 36 10000 3 20 18:57 23.09.2019
1406 Clear 9 1020 36 10000 3 10 18:38 23.09.2019
1407 Clear 11 1020 43 10000 3 10 18:18 23.09.2019
1408 Clear 12 1019 40 10000 3 20 17:56 23.09.2019
1409 Clear 12 1019 40 10000 3 20 17:37 23.09.2019
1410 Clear 12 1019 40 10000 3 20 17:18 23.09.2019
1411 Clear 12 1019 40 10000 4 30 16:40 23.09.2019
1412 Clear 13 1019 37 10000 3 360 16:22 23.09.2019
1413 Clear 13 1019 37 10000 3 360 15:59 23.09.2019
1414 Clear 13 1019 40 10000 4 40 15:41 23.09.2019
1415 Clear 12 1019 37 10000 3 60 15:20 23.09.2019
1416 Clear 12 1019 37 10000 3 60 14:59 23.09.2019
1417 Clear 13 1020 37 10000 4 10 14:39 23.09.2019
1418 Clear 13 1020 40 10000 4 60 14:19 23.09.2019
1419 Clear 13 1020 28 10000 4 50 13:57 23.09.2019
1420 Clear 13 1020 30 10000 4 50 13:37 23.09.2019
1421 Clouds 13 1020 40 10000 3 50 13:18 23.09.2019
1422 Clouds 12 1020 46 10000 4 70 12:41 23.09.2019
1423 Clouds 12 1020 50 10000 4 50 12:21 23.09.2019
1424 Clouds 11 1020 57 10000 4 40 11:55 23.09.2019
1425 Clouds 11 1020 57 10000 4 40 11:37 23.09.2019
1426 Clouds 11 1020 57 10000 4 40 11:18 23.09.2019
1427 Clouds 11 1020 57 10000 4 40 11:18 23.09.2019
1428 Clouds 10 1020 66 10000 3 60 10:44 23.09.2019
1429 Clear 9 1020 70 10000 3 40 10:20 23.09.2019
1430 Clear 9 1020 65 10000 3 50 09:49 23.09.2019
1431 Clear 8 1020 65 10000 3 50 09:29 23.09.2019
1432 Clouds 8 1020 70 10000 4 50 08:58 23.09.2019
1433 Clouds 8 1020 70 10000 5 50 08:39 23.09.2019
1434 Clouds 7 1019 75 10000 5 70 08:19 23.09.2019
1435 Clouds 7 1019 75 10000 4 60 07:38 23.09.2019
1436 Clouds 7 1018 75 10000 5 50 07:20 23.09.2019
1437 Clouds 7 1017 81 10000 6 40 06:20 23.09.2019
1438 Clouds 7 1017 75 10000 5 40 05:44 23.09.2019
1439 Clouds 8 1017 75 10000 3 40 04:59 23.09.2019
1440 Clouds 8 1016 75 10000 2 70 04:37 23.09.2019
1441 Clouds 10 1015 87 10000 6 30 01:26 23.09.2019
1442 Clouds 12 1014 81 10000 2 300 00:39 23.09.2019
1443 Clear 12 1014 81 10000 3 270 00:19 23.09.2019
1444 Clear 12 1014 81 10000 4 270 23:44 22.09.2019
1445 Clear 12 1014 81 10000 4 270 23:44 22.09.2019
1446 Clear 12 1014 81 10000 4 270 23:26 22.09.2019
1447 Clear 12 1013 76 10000 5 260 22:56 22.09.2019
1448 Clear 12 1013 76 10000 4 260 22:37 22.09.2019
1449 Clear 12 1013 76 10000 3 260 22:19 22.09.2019
1450 Clear 13 1013 76 10000 4 260 21:43 22.09.2019
1451 Clear 13 1013 76 10000 4 260 21:21 22.09.2019
1452 Clear 14 1013 71 10000 6 270 20:45 22.09.2019
1453 Clear 14 1013 71 10000 6 270 20:27 22.09.2019
1454 Clear 15 1012 62 10000 5 260 19:59 22.09.2019
1455 Clear 15 1012 62 10000 5 260 19:59 22.09.2019
1456 Clear 15 1013 59 10000 5 250 19:41 22.09.2019
1457 Clear 15 1013 59 10000 4 250 19:21 22.09.2019
1458 Clear 16 1013 59 10000 4 250 18:57 22.09.2019
1459 Clear 17 1013 51 10000 4 260 18:38 22.09.2019
1460 Clear 17 1013 48 10000 5 280 18:18 22.09.2019
1461 Clear 18 1013 48 10000 6 290 17:47 22.09.2019
1462 Clear 18 1013 48 10000 6 290 17:27 22.09.2019
1463 Clear 19 1013 42 10000 4 300 16:58 22.09.2019
1464 Clear 19 1013 48 10000 6 290 16:40 22.09.2019
1465 Clear 19 1013 48 10000 6 290 16:21 22.09.2019
1466 Clear 18 1014 45 10000 7 290 15:46 22.09.2019
1467 Clear 18 1014 45 10000 7 290 15:27 22.09.2019
1468 Clear 19 1014 45 10000 7 310 14:57 22.09.2019
1469 Clear 19 1014 45 10000 7 310 14:57 22.09.2019
1470 Clouds 19 1014 52 10000 6 310 14:39 22.09.2019
1471 Clouds 18 1014 52 10000 6 310 14:21 22.09.2019
1472 Clouds 18 1015 52 10000 7 310 13:45 22.09.2019
1473 Clouds 18 1015 52 10000 7 310 13:26 22.09.2019
1474 Clouds 17 1015 63 10000 6 300 12:58 22.09.2019
1475 Clouds 16 1015 63 10000 6 300 12:40 22.09.2019
1476 Clouds 16 1015 67 10000 6 300 12:21 22.09.2019
1477 Clouds 16 1015 67 10000 6 300 12:21 22.09.2019
1478 Clouds 15 1015 67 10000 6 300 11:56 22.09.2019
1479 Clouds 15 1015 67 10000 8 300 11:38 22.09.2019
1480 Clouds 14 1015 67 10000 7 290 11:19 22.09.2019
1481 Rain 14 1015 71 10000 8 290 10:42 22.09.2019
1482 Rain 14 1015 71 10000 8 290 10:20 22.09.2019
1483 Rain 14 1015 71 10000 8 290 10:20 22.09.2019
1484 Clouds 14 1015 71 10000 6 290 09:55 22.09.2019
1485 Rain 13 1015 82 10000 6 300 09:36 22.09.2019
1486 Clouds 13 1015 82 10000 6 290 09:18 22.09.2019
1487 Rain 13 1015 87 9000 7 290 08:42 22.09.2019
1488 Rain 13 1015 87 9000 7 290 08:22 22.09.2019
1489 Rain 13 1015 82 10000 6 290 07:46 22.09.2019
1490 Rain 12 1015 87 9000 7 290 07:26 22.09.2019
1491 Rain 12 1014 87 10000 7 290 06:59 22.09.2019
1492 Rain 12 1014 87 10000 7 290 06:37 22.09.2019
1493 Clouds 13 1014 82 10000 7 290 05:18 22.09.2019
1494 Clouds 12 1015 93 10000 8 280 02:45 22.09.2019
1495 Clouds 12 1015 93 10000 8 280 02:24 22.09.2019
1496 Rain 12 1015 93 10000 8 270 01:43 22.09.2019
1497 Drizzle 12 1015 100 5000 8 270 00:53 22.09.2019
1498 Drizzle 11 1016 87 10000 7 270 00:32 22.09.2019
1499 Rain 11 1016 93 10000 7 260 23:54 21.09.2019
1500 Drizzle 11 1016 93 7000 6 260 23:36 21.09.2019
1501 Drizzle 10 1017 93 9000 5 270 22:46 21.09.2019
1502 Drizzle 10 1017 93 9000 5 270 22:25 21.09.2019
1503 Rain 10 1017 93 10000 5 270 21:59 21.09.2019
1504 Rain 10 1017 93 10000 5 270 21:59 21.09.2019
1505 Clouds 10 1017 87 10000 6 270 21:41 21.09.2019
1506 Drizzle 10 1018 87 10000 7 260 21:19 21.09.2019
1507 Drizzle 10 1018 87 10000 7 260 20:56 21.09.2019
1508 Clouds 11 1018 81 10000 8 270 20:36 21.09.2019
1509 Rain 11 1018 71 10000 7 260 20:18 21.09.2019
1510 Rain 11 1018 62 10000 6 270 19:43 21.09.2019
1511 Rain 12 1018 58 10000 6 260 19:19 21.09.2019
1512 Rain 12 1018 50 10000 5 270 18:40 21.09.2019
1513 Rain 12 1018 50 10000 5 270 18:21 21.09.2019
1514 Clear 13 1019 44 10000 7 270 17:43 21.09.2019
1515 Clear 13 1019 37 10000 7 270 17:23 21.09.2019
1516 Clear 13 1019 37 10000 7 270 16:57 21.09.2019
1517 Clear 13 1019 37 10000 5 260 16:37 21.09.2019
1518 Clear 14 1020 32 10000 7 280 16:19 21.09.2019
1519 Clear 14 1020 32 10000 7 280 15:43 21.09.2019
1520 Clear 14 1020 32 10000 7 280 15:22 21.09.2019
1521 Clear 15 1021 33 10000 6 280 14:48 21.09.2019
1522 Clear 14 1021 33 10000 6 280 14:29 21.09.2019
1523 Clear 14 1021 35 10000 4 280 13:50 21.09.2019
1524 Clear 14 1021 35 10000 4 280 13:29 21.09.2019
1525 Clear 13 1022 37 10000 5 320 12:59 21.09.2019
1526 Clear 13 1022 40 10000 4 300 12:41 21.09.2019
1527 Clouds 12 1022 43 10000 5 320 12:22 21.09.2019
1528 Clouds 12 1022 43 10000 5 320 11:59 21.09.2019
1529 Clouds 12 1022 38 10000 6 330 11:41 21.09.2019
1530 Clouds 12 1022 38 10000 6 330 11:21 21.09.2019
1531 Clouds 12 1022 38 10000 6 330 11:21 21.09.2019
1532 Clouds 10 1023 53 10000 5 330 10:41 21.09.2019
1533 Clear 9 1023 61 10000 4 330 10:23 21.09.2019
1534 Clear 10 1023 61 10000 4 330 09:57 21.09.2019
1535 Clear 8 1023 70 10000 4 340 09:38 21.09.2019
1536 Clear 8 1023 70 10000 4 340 09:20 21.09.2019
1537 Clear 7 1023 81 10000 4 330 08:51 21.09.2019
1538 Clear 6 1022 86 10000 4 320 08:26 21.09.2019
1539 Clouds 5 1022 93 10000 3 320 07:41 21.09.2019
1540 Clouds 4 1022 93 10000 4 320 07:21 21.09.2019
1541 Clouds 4 1021 93 10000 4 320 06:47 21.09.2019
1542 Clouds 4 1021 93 10000 4 330 06:26 21.09.2019
1543 Rain 4 1021 93 10000 5 320 04:49 21.09.2019
1544 Rain 4 1021 93 10000 5 320 04:49 21.09.2019
1545 Rain 5 1020 93 10000 5 310 04:31 21.09.2019
1546 Clouds 5 1020 86 10000 5 300 02:27 21.09.2019
1547 Clouds 6 1020 86 10000 5 310 01:52 21.09.2019
1548 Clouds 5 1020 86 10000 5 310 01:33 21.09.2019
1549 Clouds 6 1019 81 10000 5 310 00:39 21.09.2019
1550 Clouds 5 1019 86 10000 5 300 00:18 21.09.2019
1551 Clouds 5 1019 86 10000 4 290 23:42 20.09.2019
1552 Clouds 5 1019 86 10000 4 290 23:22 20.09.2019
1553 Clear 5 1019 81 10000 5 300 22:41 20.09.2019
1554 Clear 6 1019 81 10000 5 300 22:23 20.09.2019
1555 Clear 6 1019 81 10000 5 300 21:56 20.09.2019
1556 Clear 6 1019 81 10000 5 280 21:37 20.09.2019
1557 Clear 7 1019 81 10000 4 270 21:18 20.09.2019
1558 -273 0 0 0 0 0 20:54 20.09.2019
1559 Clear 7 1019 81 10000 4 300 20:36 20.09.2019
1560 Clear 7 1019 81 10000 4 300 20:36 20.09.2019
1561 Clouds 7 1019 75 10000 3 310 20:18 20.09.2019
1562 Rain 7 1019 75 10000 3 310 19:41 20.09.2019
1563 Clear 8 1018 75 10000 4 320 19:20 20.09.2019
1564 Rain 8 1018 75 10000 5 330 18:40 20.09.2019
1565 Clear 8 1018 70 10000 6 320 18:21 20.09.2019
1566 Clear 9 1018 70 10000 6 320 17:59 20.09.2019
1567 Clouds 9 1018 61 9000 6 300 17:41 20.09.2019
1568 Clouds 10 1018 61 9000 6 300 17:23 20.09.2019
1569 Clouds 10 1017 57 10000 9 300 16:43 20.09.2019
1570 Clouds 11 1017 57 10000 9 300 16:21 20.09.2019
1571 Clouds 11 1017 54 10000 7 320 15:58 20.09.2019
1572 Clouds 11 1017 57 10000 7 300 15:40 20.09.2019
1573 Clouds 11 1017 57 10000 7 300 15:21 20.09.2019
1574 Clouds 12 1017 50 10000 7 310 14:42 20.09.2019
1575 Rain 13 1016 59 0 0.89 153 14:19 20.09.2019
1576 Rain 13 1016 59 0 0.89 153 14:19 20.09.2019
1577 Clouds 12 1017 54 10000 5 310 13:48 20.09.2019
1578 Clouds 12 1017 54 10000 5 310 13:28 20.09.2019
1579 Clouds 12 1017 58 10000 5 290 12:58 20.09.2019
1580 Clouds 13 1017 58 10000 5 290 12:37 20.09.2019
1581 Clear 12 1018 58 10000 5 300 12:18 20.09.2019
1582 Clouds 12 1018 66 10000 5 290 11:49 20.09.2019
1583 Clouds 12 1018 66 10000 5 290 11:21 20.09.2019
1584 Clear 11 1018 71 10000 4 290 10:44 20.09.2019
1585 Clear 10 1018 71 10000 4 290 10:24 20.09.2019
1586 Clear 9 1018 81 10000 5 270 09:59 20.09.2019
1587 Clouds 9 1018 81 10000 4 270 09:38 20.09.2019
1588 Clouds 9 1018 81 10000 4 270 09:18 20.09.2019
1589 Clouds 7 1018 93 10000 4 270 08:42 20.09.2019
1590 Clouds 8 1018 93 10000 4 270 08:23 20.09.2019
1591 Clouds 7 1018 93 10000 2 270 07:47 20.09.2019
1592 Clouds 6 1018 93 10000 2 270 07:28 20.09.2019
1593 Clouds 5 1018 93 10000 3 270 06:45 20.09.2019
1594 Clouds 5 1018 93 10000 3 270 06:45 20.09.2019
1595 Clouds 5 1018 93 10000 3 270 06:25 20.09.2019
1596 Mist 5 1018 100 10000 3 250 05:50 20.09.2019
1597 Clear 5 1018 100 8000 3 240 03:42 20.09.2019
1598 Clear 5 1018 100 8000 3 240 03:19 20.09.2019
1599 Clear 6 1019 87 10000 3 280 01:45 20.09.2019
1600 Clouds 7 1019 93 10000 4 270 01:18 20.09.2019
1601 Clear 7 1019 87 10000 4 270 00:26 20.09.2019
1602 Clear 7 1019 87 10000 4 290 23:45 19.09.2019
1603 Clear 7 1019 87 10000 4 290 23:22 19.09.2019
1604 Clear 7 1019 81 10000 4 270 22:57 19.09.2019
1605 Clear 8 1019 81 10000 3 270 22:38 19.09.2019
1606 Clear 7 1019 75 10000 3 270 22:19 19.09.2019
1607 Clear 8 1019 75 10000 3 270 21:56 19.09.2019
1608 Clear 8 1019 75 10000 4 280 21:37 19.09.2019
1609 Clear 8 1018 70 10000 4 270 21:18 19.09.2019
1610 Clouds 9 1018 61 10000 4 280 20:43 19.09.2019
1611 Clear 10 1018 61 10000 5 290 20:22 19.09.2019
1612 Clear 10 1018 61 10000 5 290 19:56 19.09.2019
1613 Clear 11 1018 57 10000 5 280 19:38 19.09.2019
1614 Clear 11 1018 58 10000 3 260 19:19 19.09.2019
1615 Clear 11 1018 58 10000 3 260 19:19 19.09.2019
1616 Clear 11 1018 58 10000 3 260 19:19 19.09.2019
1617 Clear 11 1018 58 10000 3 260 19:19 19.09.2019
1618 Clear 12 1017 47 10000 5 270 18:43 19.09.2019
1619 Clear 12 1017 47 10000 3 280 18:24 19.09.2019
1620 Clear 13 1017 50 10000 4 290 17:57 19.09.2019
1621 Clear 13 1017 50 10000 4 290 17:39 19.09.2019
1622 Clouds 14 1017 47 10000 5 280 17:21 19.09.2019
1623 Clouds 14 1017 47 10000 5 280 16:57 19.09.2019
1624 Clear 14 1017 47 10000 6 290 16:38 19.09.2019
1625 Clear 14 1017 47 10000 7 290 16:18 19.09.2019
1626 Clouds 14 1017 47 10000 6 290 15:38 19.09.2019
1627 Rain 13 1017 50 10000 6 270 15:18 19.09.2019
1628 Clouds 14 1017 44 10000 6 270 14:42 19.09.2019
1629 Clouds 14 1017 44 10000 6 270 14:23 19.09.2019
1630 Clouds 13 1017 54 10000 5 270 13:59 19.09.2019
1631 Clouds 14 1017 54 10000 7 280 13:39 19.09.2019
1632 Clouds 14 1017 54 10000 7 280 13:39 19.09.2019
1633 Rain 13 1017 54 10000 7 280 13:19 19.09.2019
1634 Clouds 13 1017 62 10000 6 290 12:39 19.09.2019
1635 Clouds 12 1017 62 10000 7 280 12:19 19.09.2019
1636 Clouds 12 1017 62 10000 7 280 11:56 19.09.2019
1637 Clouds 12 1017 62 10000 6 290 11:38 19.09.2019
1638 Clouds 12 1017 66 10000 6 280 11:19 19.09.2019
1639 Clouds 11 1017 66 10000 6 270 10:40 19.09.2019
1640 Clouds 11 1017 66 10000 6 270 10:22 19.09.2019
1641 Clouds 10 1017 76 10000 5 270 09:58 19.09.2019
1642 Clouds 8 1017 87 10000 7 270 09:40 19.09.2019
1643 Clouds 8 1017 87 10000 7 270 09:20 19.09.2019
1644 Clouds 8 1017 87 10000 5 270 08:52 19.09.2019
1645 Clouds 8 1017 87 10000 5 270 08:27 19.09.2019
1646 Clouds 7 1016 87 10000 5 270 07:55 19.09.2019
1647 Clouds 8 1016 87 10000 6 270 07:55 19.09.2019
1648 Clouds 7 1016 87 10000 5 270 07:36 19.09.2019
1649 Clouds 7 1016 93 10000 4 260 07:18 19.09.2019
1650 Clouds 7 1016 93 10000 4 260 06:42 19.09.2019
1651 Clouds 7 1015 93 10000 5 260 06:24 19.09.2019
1652 Clear 6 1015 93 10000 4 260 05:50 19.09.2019
1653 Clear 7 1015 87 10000 5 270 04:24 19.09.2019
1654 Clear 7 1015 87 10000 5 270 03:21 19.09.2019
1655 Clear 8 1015 87 10000 5 270 01:50 19.09.2019
1656 Clear 8 1014 87 10000 6 260 01:20 19.09.2019
1657 Clear 8 1014 87 10000 6 280 00:45 19.09.2019
1658 Clear 8 1014 87 10000 6 280 00:20 19.09.2019
1659 Clear 9 1013 81 10000 6 280 23:38 18.09.2019
1660 Clouds 9 1013 81 10000 7 290 23:20 18.09.2019
1661 Clouds 9 1012 76 10000 7 280 22:42 18.09.2019
1662 Rain 9 1012 81 10000 6 290 22:20 18.09.2019
1663 Rain 9 1012 81 10000 6 290 21:58 18.09.2019
1664 Rain 9 1012 81 10000 7 290 21:40 18.09.2019
1665 Rain 9 1011 81 10000 5 280 21:18 18.09.2019
1666 Rain 9 1011 81 10000 5 280 20:58 18.09.2019
1667 Rain 9 1011 76 9000 5 310 20:40 18.09.2019
1668 Rain 9 1010 66 10000 5 280 20:22 18.09.2019
1669 Rain 10 1010 66 10000 7 280 19:57 18.09.2019
1670 Clear 10 1010 66 10000 7 280 19:38 18.09.2019
1671 Clear 10 1009 66 10000 7 290 19:19 18.09.2019
1672 Clouds 10 1009 66 10000 8 280 18:55 18.09.2019
1673 Clouds 10 1009 66 10000 8 280 18:37 18.09.2019
1674 Clouds 10 1008 62 10000 9 290 18:18 18.09.2019
1675 Clouds 11 1008 62 10000 7 290 17:57 18.09.2019
1676 Clouds 11 1008 62 10000 9 290 17:57 18.09.2019
1677 Clouds 11 1008 62 10000 7 290 17:38 18.09.2019
1678 Clouds 11 1008 62 10000 7 290 17:38 18.09.2019
1679 Clouds 10 1008 66 10000 7 290 17:18 18.09.2019
1680 Clouds 11 1008 66 10000 7 290 16:55 18.09.2019
1681 Rain 11 1007 66 9000 10 270 16:36 18.09.2019
1682 Clear 12 1007 58 10000 10 290 16:18 18.09.2019
1683 Clear 12 1007 58 10000 10 290 15:54 18.09.2019
1684 Clouds 12 1007 62 10000 10 280 15:36 18.09.2019
1685 Clear 11 1007 66 10000 9 290 15:18 18.09.2019
1686 Rain 11 1007 66 10000 9 290 14:55 18.09.2019
1687 Rain 10 1007 66 10000 8 290 14:36 18.09.2019
1688 Rain 10 1007 66 10000 8 290 14:18 18.09.2019
1689 Rain 9 1006 81 7000 8 280 13:40 18.09.2019
1690 Rain 10 1006 70 9000 8 290 13:19 18.09.2019
1691 Rain 10 1005 50 10000 10 280 12:53 18.09.2019
1692 Rain 11 1005 50 10000 10 280 12:30 18.09.2019
1693 Clouds 12 1005 52 10000 9 270 11:55 18.09.2019
1694 Clouds 11 1005 53 10000 10 280 11:37 18.09.2019
1695 Clouds 11 1005 53 10000 9 280 11:19 18.09.2019
1696 Clouds 11 1005 57 10000 7 260 10:40 18.09.2019
1697 Clouds 11 1005 57 10000 7 260 10:21 18.09.2019
1698 Rain 11 1005 70 10000 6 310 09:58 18.09.2019
1699 Rain 9 1004 57 10000 10 270 09:38 18.09.2019
1700 Rain 9 1004 57 10000 10 270 09:20 18.09.2019
1701 Clouds 10 1004 57 10000 10 280 08:44 18.09.2019
1702 Clouds 10 1003 57 10000 11 280 08:25 18.09.2019
1703 Clouds 10 1003 57 10000 11 280 07:58 18.09.2019
1704 Clouds 10 1003 66 10000 11 280 07:40 18.09.2019
1705 Rain 10 1003 66 10000 11 280 07:22 18.09.2019
1706 Clear 11 1002 66 10000 8 280 06:40 18.09.2019
1707 Rain 11 1002 71 10000 4 240 05:50 18.09.2019
1708 Clear 11 1002 71 10000 4 240 04:57 18.09.2019
1709 Clear 11 1003 62 10000 4 240 03:19 18.09.2019
1710 Clear 12 1004 62 10000 4 250 02:29 18.09.2019
1711 Clear 12 1004 50 10000 4 240 01:21 18.09.2019
1712 Clear 13 1004 50 10000 3 230 00:49 18.09.2019
1713 Clear 13 1005 50 10000 3 230 00:21 18.09.2019
1714 Clear 13 1005 47 10000 4 250 23:45 17.09.2019
1715 Clear 13 1005 47 10000 3 240 23:22 17.09.2019
1716 Clear 13 1006 47 10000 3 230 22:43 17.09.2019
1717 Clear 13 1006 47 10000 3 230 22:24 17.09.2019
1718 Clear 13 1006 50 10000 2 230 21:55 17.09.2019
1719 Clear 13 1006 50 10000 2 230 21:37 17.09.2019
1720 Clear 13 1006 50 10000 2 230 21:19 17.09.2019
1721 Clear 12 1006 50 10000 2 230 20:58 17.09.2019
1722 Clear 12 1006 53 10000 2 220 20:40 17.09.2019
1723 Clear 12 1006 53 10000 2 230 20:21 17.09.2019
1724 Clear 12 1006 53 10000 2 230 19:58 17.09.2019
1725 Clear 13 1007 43 10000 2 250 19:39 17.09.2019
1726 Clear 15 1007 38 10000 3 260 19:19 17.09.2019
1727 Clear 15 1007 38 10000 4 270 18:56 17.09.2019
1728 Clear 15 1007 38 10000 4 270 18:38 17.09.2019
1729 Clear 15 1007 38 10000 4 270 18:19 17.09.2019
1730 Clear 17 1007 33 10000 7 280 17:45 17.09.2019
1731 Clear 18 1007 31 10000 6 280 17:20 17.09.2019
1732 Clear 18 1007 31 10000 6 280 17:19 17.09.2019
1733 Clear 18 1007 31 10000 6 280 16:57 17.09.2019
1734 Clear 18 1007 31 10000 6 280 16:37 17.09.2019
1735 Clear 18 1007 31 10000 6 280 16:19 17.09.2019
1736 Clear 19 1007 32 10000 7 290 15:39 17.09.2019
1737 Clear 19 1007 32 10000 7 290 15:20 17.09.2019
1738 Clear 19 1008 31 10000 7 280 14:56 17.09.2019
1739 Clear 19 1007 31 10000 7 280 14:56 17.09.2019
1740 Clear 19 1008 31 10000 7 280 14:38 17.09.2019
1741 Clear 19 1008 31 10000 6 300 14:19 17.09.2019
1742 Clear 19 1008 31 10000 6 300 13:54 17.09.2019
1743 Clear 19 1008 34 10000 7 290 13:36 17.09.2019
1744 Clear 19 1008 36 10000 8 280 13:18 17.09.2019
1745 Clear 18 1009 39 10000 7 270 12:41 17.09.2019
1746 Clear 17 1009 39 10000 8 300 12:19 17.09.2019
1747 Clear 17 1009 42 10000 7 300 11:44 17.09.2019
1748 Clear 17 1009 42 10000 7 300 11:25 17.09.2019
1749 Clear 16 1009 44 10000 8 280 10:57 17.09.2019
1750 Clear 16 1009 44 10000 8 280 10:39 17.09.2019
1751 Clear 16 1009 48 10000 7 290 10:20 17.09.2019
1752 Clear 15 1010 51 10000 6 290 09:43 17.09.2019
1753 Clear 14 1010 54 10000 6 300 09:23 17.09.2019
1754 Clear 14 1010 54 10000 6 300 08:57 17.09.2019
1755 Clear 14 1010 58 10000 6 290 08:38 17.09.2019
1756 Clear 12 1009 62 10000 6 280 08:19 17.09.2019
1757 Clear 12 1009 66 10000 5 280 07:42 17.09.2019
1758 Clear 11 1009 66 10000 4 280 07:24 17.09.2019
1759 Clear 11 1009 66 10000 4 280 06:51 17.09.2019
1760 Clear 12 1009 66 10000 4 290 06:25 17.09.2019
1761 Clear 12 1009 62 10000 3 280 05:51 17.09.2019
1762 Clear 12 1009 62 10000 2 270 04:32 17.09.2019
1763 Clear 12 1009 62 10000 3 260 03:34 17.09.2019
1764 Clear 13 1009 58 10000 2 280 02:39 17.09.2019
1765 Clear 13 1009 58 10000 2 280 02:39 17.09.2019
1766 Clear 14 1009 58 10000 3 300 01:34 17.09.2019
1767 Clear 15 1010 51 10000 3 320 00:45 17.09.2019
1768 Clear 16 1010 45 10000 5 330 23:41 16.09.2019
1769 Clear 17 1010 48 10000 5 310 23:19 16.09.2019
1770 Clear 17 1010 48 10000 5 310 23:19 16.09.2019
1771 Clear 17 1010 48 10000 5 310 22:57 16.09.2019
1772 Clear 17 1010 48 10000 4 290 22:39 16.09.2019
1773 Clear 17 1010 48 10000 4 290 22:21 16.09.2019
1774 Clear 18 1009 42 10000 5 260 21:55 16.09.2019
1775 Clear 18 1009 42 10000 5 260 21:37 16.09.2019
1776 Clear 18 1009 42 10000 5 260 21:18 16.09.2019
1777 Clear 18 1009 45 10000 5 270 20:40 16.09.2019
1778 Clear 18 1009 45 10000 4 260 20:22 16.09.2019
1779 Clear 19 1009 42 10000 6 270 19:57 16.09.2019
1780 Clear 19 1009 42 10000 6 270 19:39 16.09.2019
1781 Clear 19 1009 45 10000 6 260 19:19 16.09.2019
1782 Clear 20 1009 40 10000 7 260 18:47 16.09.2019
1783 Clear 20 1009 40 10000 7 260 18:29 16.09.2019
1784 Clear 21 1009 35 10000 9 270 17:58 16.09.2019
1785 Clear 21 1009 35 10000 9 270 17:39 16.09.2019
1786 Clear 21 1009 35 10000 9 270 17:21 16.09.2019
1787 Clear 21 1009 35 10000 8 290 16:55 16.09.2019
1788 Clear 22 1009 30 10000 9 280 16:37 16.09.2019
1789 Clear 23 1009 30 10000 9 290 16:18 16.09.2019
1790 Clear 23 1009 30 10000 9 290 15:54 16.09.2019
1791 Clear 23 1009 30 10000 9 290 15:54 16.09.2019
1792 Clear 23 1009 28 10000 9 290 15:36 16.09.2019
1793 Clear 23 1009 31 10000 10 270 15:18 16.09.2019
1794 Clear 24 1009 27 10000 10 290 14:42 16.09.2019
1795 Clear 23 1009 27 10000 10 290 14:22 16.09.2019
1796 Clear 24 1009 33 10000 9 270 13:57 16.09.2019
1797 Clear 23 1010 30 10000 9 290 13:38 16.09.2019
1798 Clear 23 1010 33 10000 8 280 13:19 16.09.2019
1799 Clear 22 1010 33 10000 9 290 12:42 16.09.2019
1800 Clear 22 1011 37 10000 7 260 12:24 16.09.2019
1801 Clear 22 1011 37 10000 7 260 11:54 16.09.2019
1802 Clear 21 1011 42 10000 6 250 11:36 16.09.2019
1803 Clear 20 1011 45 10000 7 270 11:18 16.09.2019
1804 Clear 19 1011 52 10000 6 270 10:38 16.09.2019
1805 Clear 18 1011 55 10000 6 270 10:19 16.09.2019
1806 Clear 17 1011 55 10000 6 270 09:57 16.09.2019
1807 Clear 17 1012 55 10000 5 270 09:38 16.09.2019
1808 Clear 16 1012 55 10000 6 270 09:18 16.09.2019
1809 Clear 16 1012 55 10000 6 260 08:42 16.09.2019
1810 Clear 16 1012 55 10000 6 260 08:24 16.09.2019
1811 Clear 14 1012 58 10000 5 260 07:48 16.09.2019
1812 Clear 14 1012 58 10000 5 260 07:25 16.09.2019
1813 Clear 13 1012 58 10000 5 260 06:59 16.09.2019
1814 Clear 13 1012 58 10000 5 260 06:40 16.09.2019
1815 Clear 13 1012 58 10000 6 260 06:22 16.09.2019
1816 Clear 13 1012 58 10000 6 260 05:43 16.09.2019
1817 Clear 13 1012 54 10000 5 260 05:23 16.09.2019
1818 Clear 13 1013 50 10000 6 260 03:51 16.09.2019
1819 Clear 14 1015 47 10000 3 250 01:40 16.09.2019
1820 Clear 14 1015 54 10000 4 240 00:39 16.09.2019
1821 Clear 14 1016 50 10000 4 240 00:21 16.09.2019
1822 Clear 14 1016 54 10000 4 240 23:39 15.09.2019
1823 Clear 14 1016 54 10000 4 240 23:20 15.09.2019
1824 Clear 14 1016 54 10000 3 230 22:40 15.09.2019
1825 Clear 15 1017 50 10000 3 230 22:21 15.09.2019
1826 Clear 15 1017 50 10000 3 230 21:58 15.09.2019
1827 Clear 15 1017 50 10000 3 230 21:58 15.09.2019
1828 Clear 15 1017 47 10000 3 220 21:39 15.09.2019
1829 Clear 15 1017 50 10000 3 230 21:21 15.09.2019
1830 Clear 15 1017 50 10000 3 230 20:57 15.09.2019
1831 Clear 15 1018 47 10000 3 220 20:39 15.09.2019
1832 Clear 16 1018 41 10000 3 230 20:21 15.09.2019
1833 Clear 16 1018 41 10000 3 240 19:44 15.09.2019
1834 Clear 17 1018 39 10000 3 240 19:23 15.09.2019
1835 Clear 18 1018 36 10000 4 250 18:43 15.09.2019
1836 Clear 18 1018 36 10000 4 250 18:24 15.09.2019
1837 Clear 19 1019 34 10000 5 260 17:58 15.09.2019
1838 Clear 19 1019 34 10000 5 260 17:39 15.09.2019
1839 Clear 19 1020 37 10000 5 260 17:20 15.09.2019
1840 Clear 20 1020 32 10000 6 270 16:44 15.09.2019
1841 Clear 20 1020 32 10000 6 270 16:44 15.09.2019
1842 Clear 20 1020 32 10000 6 270 16:25 15.09.2019
1843 Clear 20 1020 32 10000 6 270 15:58 15.09.2019
1844 Clear 20 1021 34 10000 7 270 15:40 15.09.2019
1845 Clear 20 1021 34 10000 7 270 15:20 15.09.2019
1846 Clear 20 1021 34 10000 7 260 14:58 15.09.2019
1847 Clear 21 1022 34 10000 5 270 14:39 15.09.2019
1848 Clear 20 1022 39 10000 5 280 14:20 15.09.2019
1849 Clear 20 1023 37 10000 7 280 13:46 15.09.2019
1850 Clear 20 1023 37 10000 7 280 13:46 15.09.2019
1851 Clear 19 1023 39 10000 6 280 13:24 15.09.2019
1852 Clear 19 1024 39 10000 6 270 12:56 15.09.2019
1853 Clear 19 1024 39 10000 6 270 12:38 15.09.2019
1854 Clear 18 1024 42 10000 6 270 12:18 15.09.2019
1855 Clouds 18 1024 45 10000 4 290 11:42 15.09.2019
1856 Clouds 18 1024 45 10000 4 290 11:22 15.09.2019
1857 Clouds 18 1025 48 10000 5 260 10:56 15.09.2019
1858 Clear 17 1025 48 10000 4 260 10:38 15.09.2019
1859 Clear 16 1025 51 10000 4 270 10:20 15.09.2019
1860 Clear 16 1026 54 10000 3 270 09:40 15.09.2019
1861 Clear 14 1026 62 10000 3 260 09:20 15.09.2019
1862 Clear 13 1026 66 10000 3 270 08:47 15.09.2019
1863 Clear 13 1026 66 10000 3 270 08:47 15.09.2019
1864 Clear 13 1026 66 10000 3 270 08:28 15.09.2019
1865 Clear 13 1026 66 10000 3 270 08:28 15.09.2019
1866 Clear 11 1026 71 10000 3 270 07:51 15.09.2019
1867 Clear 8 1026 75 10000 2 260 07:32 15.09.2019
1868 Clear 7 1026 81 10000 2 250 06:43 15.09.2019
1869 Clear 8 1026 75 10000 3 270 03:54 15.09.2019
1870 Clear 10 1025 70 10000 3 260 02:46 15.09.2019
1871 Clear 11 1026 66 10000 3 250 01:45 15.09.2019
1872 Clear 11 1026 66 10000 3 250 01:45 15.09.2019
1873 Clear 11 1026 66 10000 3 250 01:45 15.09.2019
1874 Clear 11 1026 66 10000 3 250 01:27 15.09.2019
1875 Clear 12 1026 57 10000 3 260 00:50 15.09.2019
1876 Clear 11 1026 57 10000 3 260 00:24 15.09.2019
1877 Clear 12 1026 57 10000 2 260 23:59 14.09.2019
1878 Clear 12 1026 53 10000 3 270 23:41 14.09.2019
1879 Clear 11 1026 53 10000 3 270 23:22 14.09.2019
1880 Clear 12 1026 53 10000 3 260 22:59 14.09.2019
1881 Clear 12 1026 53 10000 3 260 22:59 14.09.2019
1882 Clear 12 1026 50 10000 2 260 22:41 14.09.2019
1883 Clear 12 1026 50 10000 2 260 22:41 14.09.2019
1884 Clear 13 1025 50 10000 2 280 22:21 14.09.2019
1885 Clear 13 1025 50 10000 2 280 21:57 14.09.2019
1886 Clear 12 1025 50 10000 2 290 21:39 14.09.2019
1887 Clear 13 1025 47 10000 2 310 21:19 14.09.2019
1888 Clear 13 1025 47 10000 2 310 20:55 14.09.2019
1889 Clear 14 1025 41 10000 3 320 20:37 14.09.2019
1890 Clear 14 1025 36 10000 3 330 20:19 14.09.2019
1891 Clear 15 1025 33 10000 4 340 19:44 14.09.2019
1892 Clear 16 1024 41 10000 4 330 19:21 14.09.2019
1893 Clear 17 1024 41 10000 6 350 18:55 14.09.2019
1894 Clear 17 1024 41 10000 6 350 18:37 14.09.2019
1895 Clear 18 1024 29 10000 6 330 18:18 14.09.2019
1896 Clear 19 1023 28 10000 6 340 17:42 14.09.2019
1897 Clear 20 1023 33 10000 6 350 17:22 14.09.2019
1898 Clear 20 1023 26 10000 6 340 16:47 14.09.2019
1899 Clear 20 1023 26 10000 6 340 16:47 14.09.2019
1900 Clear 21 1023 26 10000 6 340 16:26 14.09.2019
1901 Clear 21 1023 30 10000 6 340 15:58 14.09.2019
1902 Clear 21 1024 28 10000 8 320 15:40 14.09.2019
1903 Clear 21 1024 28 10000 8 320 15:20 14.09.2019
1904 Clear 21 1024 34 10000 7 330 14:43 14.09.2019
1905 Clear 21 1024 34 10000 7 330 14:43 14.09.2019
1906 Clear 21 1024 34 10000 5 350 14:19 14.09.2019
1907 Clear 21 1024 34 10000 7 330 14:19 14.09.2019
1908 Clear 20 1024 40 10000 5 330 13:48 14.09.2019
1909 Clear 20 1024 40 10000 5 330 13:48 14.09.2019
1910 Clear 21 1024 40 10000 5 330 13:24 14.09.2019
1911 Clear 20 1024 40 10000 7 320 12:59 14.09.2019
1912 Clear 20 1024 40 10000 7 320 12:38 14.09.2019
1913 Clouds 19 1024 42 10000 6 330 12:18 14.09.2019
1914 Clouds 19 1024 55 10000 5 320 11:40 14.09.2019
1915 Clouds 18 1024 63 10000 6 330 11:19 14.09.2019
1916 Clouds 17 1023 67 10000 6 320 10:39 14.09.2019
1917 Clouds 17 1023 67 10000 6 320 10:20 14.09.2019
1918 Rain 17 1023 77 10000 5 320 09:57 14.09.2019
1919 Rain 17 1023 77 10000 4 340 09:39 14.09.2019
1920 Rain 17 1023 67 10000 6 330 09:19 14.09.2019
1921 Rain 17 1022 67 10000 5 330 08:47 14.09.2019
1922 Rain 17 1022 67 10000 5 330 08:24 14.09.2019
1923 Clouds 17 1022 67 10000 5 330 07:48 14.09.2019
1924 Clouds 17 1022 67 10000 5 330 07:28 14.09.2019
1925 Clouds 16 1022 77 10000 2 290 06:52 14.09.2019
1926 Clear 16 1021 72 10000 4 280 06:28 14.09.2019
1927 Clouds 16 1022 77 10000 2 290 06:28 14.09.2019
1928 Clear 16 1021 67 10000 3 270 05:26 14.09.2019
1929 Clear 16 1021 76 10000 3 230 03:46 14.09.2019
1930 Clear 15 1021 76 10000 3 230 02:54 14.09.2019
1931 Clear 15 1021 71 10000 3 230 02:54 14.09.2019
1932 Clear 15 1022 76 10000 2 230 01:52 14.09.2019
1933 Clear 13 1022 76 10000 2 240 01:23 14.09.2019
1934 Clear 15 1022 76 10000 2 240 00:58 14.09.2019
1935 Clear 16 1022 72 10000 2 240 00:38 14.09.2019
1936 Clear 16 1022 63 10000 2 240 00:20 14.09.2019
1937 Clear 17 1022 63 10000 2 250 23:38 13.09.2019
1938 Clear 18 1022 59 10000 2 280 23:19 13.09.2019
1939 Clear 18 1022 59 10000 2 280 23:19 13.09.2019
1940 Clear 18 1022 59 10000 2 280 22:58 13.09.2019
1941 Clear 18 1022 55 10000 4 300 22:38 13.09.2019
1942 Clear 18 1023 52 10000 2 290 22:20 13.09.2019
1943 Clear 19 1023 49 10000 4 300 21:42 13.09.2019
1944 Clear 20 1023 49 10000 4 300 21:20 13.09.2019
1945 Clear 20 1023 49 10000 4 310 20:59 13.09.2019
1946 Clear 21 1023 46 10000 4 310 20:40 13.09.2019
1947 Clear 21 1022 43 10000 5 300 20:21 13.09.2019
1948 Clear 21 1022 43 10000 5 300 19:56 13.09.2019
1949 Clear 21 1022 43 10000 5 300 19:38 13.09.2019
1950 Clear 22 1022 43 10000 4 300 19:19 13.09.2019
1951 -273 0 0 0 0 0 18:55 13.09.2019
1952 Clear 24 1022 38 10000 5 310 18:36 13.09.2019
1953 Clear 24 1022 36 10000 5 310 18:18 13.09.2019
1954 Clear 26 1022 36 10000 5 320 17:39 13.09.2019
1955 Clear 26 1022 34 10000 5 280 17:19 13.09.2019
1956 Clear 27 1022 34 10000 5 310 16:42 13.09.2019
1957 Clear 27 1022 34 10000 5 310 16:21 13.09.2019
1958 Clear 27 1022 36 10000 5 300 15:57 13.09.2019
1959 Clear 27 1022 30 10000 5 300 15:39 13.09.2019
1960 Clear 28 1023 28 10000 5 280 15:20 13.09.2019
1961 Clear 29 1023 26 10000 5 270 14:43 13.09.2019
1962 Clear 28 1023 28 10000 6 270 14:22 13.09.2019
1963 Clear 29 1023 26 10000 5 270 14:22 13.09.2019
1964 Clear 29 1023 28 10000 6 270 13:54 13.09.2019
1965 Clear 29 1023 26 10000 6 270 13:36 13.09.2019
1966 Clear 29 1024 28 10000 5 290 13:18 13.09.2019
1967 Clear 28 1024 28 10000 5 290 13:18 13.09.2019
1968 Clear 28 1024 30 10000 5 260 12:41 13.09.2019
1969 Clear 27 1024 30 10000 5 280 12:22 13.09.2019
1970 Clear 27 1024 30 10000 5 280 11:55 13.09.2019
1971 Clear 27 1024 31 10000 4 240 11:19 13.09.2019
1972 Clear 24 1025 33 10000 2 220 10:39 13.09.2019
1973 Clear 23 1025 40 10000 2 260 10:19 13.09.2019
1974 Clear 21 1025 42 10000 2 290 09:45 13.09.2019
1975 Clear 21 1025 42 10000 2 290 09:24 13.09.2019
1976 Clear 19 1025 48 10000 3 280 08:58 13.09.2019
1977 Clear 19 1025 48 10000 3 280 08:40 13.09.2019
1978 Clear 18 1025 48 10000 3 280 08:20 13.09.2019
1979 Clear 15 1025 67 10000 2 250 07:45 13.09.2019
1980 Clear 14 1025 67 10000 2 250 07:27 13.09.2019
1981 Clear 10 1025 81 10000 2 240 06:47 13.09.2019
1982 Clear 10 1025 87 10000 2 230 05:49 13.09.2019
1983 Clear 10 1025 81 10000 1 200 04:53 13.09.2019
1984 Clear 12 1025 81 10000 1 0 03:39 13.09.2019
1985 Clear 11 1025 81 10000 1 0 02:20 13.09.2019
1986 Clear 13 1026 71 10000 1.48 196.099 01:42 13.09.2019
1987 Clear 14 1026 62 10000 1.35 197.669 01:22 13.09.2019
1988 Clear 14 1026 66 10000 1.35 197.669 00:38 13.09.2019
1989 Clouds 14 1026 66 9000 1.59 243.677 23:58 12.09.2019
1990 Clouds 14 1026 66 9000 1 190 23:35 12.09.2019
1991 Clouds 15 1026 67 9000 1.59 243.677 22:59 12.09.2019
1992 Clouds 16 1026 62 7000 1 0 22:41 12.09.2019
1993 Clouds 15 1026 62 7000 1 0 22:23 12.09.2019
1994 Clouds 16 1026 71 9000 1.59 243.677 21:56 12.09.2019
1995 Clouds 16 1026 67 9000 1.59 243.677 21:37 12.09.2019
1996 Clouds 17 1026 67 9000 1.42 149.994 21:19 12.09.2019
1997 -273 0 0 0 0 0 20:55 12.09.2019
1998 Clouds 17 1026 67 9000 1.78 142.453 20:55 12.09.2019
1999 Clouds 17 1026 67 9000 1.78 142.453 20:55 12.09.2019
2000 Clouds 17 1026 62 9000 1.78 142.453 20:36 12.09.2019
2001 Clouds 18 1026 55 9000 1.78 142.453 20:18 12.09.2019
2002 Clear 20 1026 52 10000 1.78 142.453 19:41 12.09.2019
2003 Clear 20 1026 52 10000 1.78 142.453 19:41 12.09.2019
2004 Clear 21 1026 40 10000 2 140 19:20 12.09.2019
2005 Clear 22 1026 40 10000 2 140 18:58 12.09.2019
2006 Clear 24 1026 31 10000 1 130 18:36 12.09.2019
2007 Clear 25 1026 29 10000 1 130 18:18 12.09.2019
2008 Clear 26 1026 27 10000 2 140 17:41 12.09.2019
2009 Clear 27 1026 21 10000 2 160 17:21 12.09.2019
2010 Clear 27 1026 21 10000 2 160 16:58 12.09.2019
2011 Clear 27 1026 22 10000 2 210 16:40 12.09.2019
2012 Clear 28 1026 20 10000 2 210 16:20 12.09.2019
2013 Clear 28 1026 21 10000 2 220 15:42 12.09.2019
2014 Clear 28 1026 21 10000 2 220 15:23 12.09.2019
2015 Clear 28 1026 21 10000 2 220 15:23 12.09.2019
2016 Clear 28 1026 21 10000 2 220 15:23 12.09.2019
2017 Clear 28 1027 22 10000 2 170 14:47 12.09.2019
2018 Clear 28 1027 22 10000 2 200 14:23 12.09.2019
2019 Clear 28 1027 22 10000 2 200 13:59 12.09.2019
2020 Clear 28 1027 24 10000 2 200 13:38 12.09.2019
2021 Clear 28 1027 24 10000 2 200 13:20 12.09.2019
2022 Clear 28 1028 22 10000 2 170 12:47 12.09.2019
2023 Clear 27 1028 26 10000 1 0 12:19 12.09.2019
2024 Clear 27 1028 26 10000 1 0 11:57 12.09.2019
2025 Clear 27 1028 29 10000 2 160 11:39 12.09.2019
2026 Clear 27 1028 29 10000 2 160 11:19 12.09.2019
2027 Clear 25 1028 29 10000 2 210 10:45 12.09.2019
2028 Clear 25 1028 29 10000 2 210 10:26 12.09.2019
2029 Clear 22 1028 35 10000 2 180 09:45 12.09.2019
2030 -273 0 0 0 0 0 09:25 12.09.2019
2031 Clear 21 1028 37 10000 2 170 08:59 12.09.2019
2032 Clear 20 1028 45 10000 1 0 08:41 12.09.2019
2033 Clear 20 1028 45 10000 1 0 08:22 12.09.2019
2034 Smoke 16 1028 72 10000 1.66 172.261 07:44 12.09.2019
2035 Clear 11 1028 76 10000 1 80 07:20 12.09.2019
2036 Clear 10 1027 81 10000 1 70 06:51 12.09.2019
2037 Smoke 9 1028 81 10000 1 80 06:23 12.09.2019
2038 Smoke 12 1027 71 10000 2 80 05:51 12.09.2019
2039 Smoke 13 1027 71 10000 2 80 05:33 12.09.2019
2040 Smoke 13 1027 62 10000 2 90 04:41 12.09.2019
2041 Clear 12 1027 71 10000 1 0 02:43 12.09.2019
2042 Clear 12 1027 62 10000 2.51 140.408 01:37 12.09.2019
2043 Clear 13 1027 66 10000 2.51 140.408 01:18 12.09.2019
2044 Smoke 12 1027 62 10000 2.51 140.408 00:42 12.09.2019
2045 Smoke 15 1027 58 10000 1.95 161.202 00:24 12.09.2019
2046 Smoke 15 1027 62 10000 1.95 161.202 23:42 11.09.2019
2047 Smoke 15 1027 54 10000 1 0 23:22 11.09.2019
2048 Smoke 15 1027 54 10000 1 0 22:57 11.09.2019
2049 Smoke 15 1027 54 10000 2 50 22:37 11.09.2019
2050 Smoke 15 1027 62 10000 1.95 161.202 22:19 11.09.2019
2051 Smoke 16 1027 58 10000 1 0 21:43 11.09.2019
2052 Smoke 17 1027 58 10000 1 0 21:25 11.09.2019
2053 Clear 20 1027 42 10000 2 120 20:58 11.09.2019
2054 Clear 19 1027 42 10000 2 120 20:40 11.09.2019
2055 Clear 20 1027 42 10000 2 120 20:19 11.09.2019
2056 Smoke 21 1027 40 10000 2 120 19:58 11.09.2019
2057 Smoke 21 1027 37 10000 2 120 19:39 11.09.2019
2058 Smoke 21 1027 37 10000 2 120 19:21 11.09.2019
2059 Clear 23 1026 33 10000 3 120 18:58 11.09.2019
2060 Clear 23 1026 33 10000 3 120 18:38 11.09.2019
2061 Clear 24 1026 33 10000 2 120 18:19 11.09.2019
2062 Clear 25 1026 29 10000 3 120 17:56 11.09.2019
2063 Clear 25 1026 29 10000 3 120 17:37 11.09.2019
2064 Clear 26 1026 29 10000 3 120 17:19 11.09.2019
2065 Clear 27 1026 26 10000 4 100 16:48 11.09.2019
2066 Clear 27 1026 26 10000 4 100 16:25 11.09.2019
2067 Clear 27 1027 27 10000 4 110 15:54 11.09.2019
2068 Clear 27 1027 27 10000 4 120 15:36 11.09.2019
2069 Clear 27 1027 27 10000 4 120 15:18 11.09.2019
2070 Clear 27 1027 29 10000 3 120 14:42 11.09.2019
2071 Clear 27 1027 29 10000 3 120 14:21 11.09.2019
2072 Clear 27 1027 29 10000 5 110 13:59 11.09.2019
2073 Clear 27 1027 27 10000 4 120 13:37 11.09.2019
2074 Clear 27 1027 27 10000 4 120 13:37 11.09.2019
2075 Clear 27 1027 27 10000 5 100 13:19 11.09.2019
2076 Clear 27 1027 27 10000 5 100 12:55 11.09.2019
2077 Clear 27 1028 27 10000 4 130 12:37 11.09.2019
2078 Clear 26 1027 29 10000 4 120 12:19 11.09.2019
2079 Clear 26 1028 31 10000 3 180 11:39 11.09.2019
2080 Clear 26 1027 33 10000 2 140 11:21 11.09.2019
2081 Clear 25 1027 33 10000 2 140 10:55 11.09.2019
2082 Clear 24 1028 33 10000 2 150 10:37 11.09.2019
2083 Clear 23 1028 38 10000 1 0 10:19 11.09.2019
2084 Clear 22 1028 40 10000 1 0 09:38 11.09.2019
2085 Smoke 20 1027 43 10000 1 0 09:19 11.09.2019
2086 Smoke 20 1027 45 10000 1 0 08:42 11.09.2019
2087 Smoke 19 1027 45 10000 1 0 08:22 11.09.2019
2088 Smoke 17 1027 59 10000 2 80 07:59 11.09.2019
2089 Clear 16 1027 72 10000 2 90 07:39 11.09.2019
2090 Clear 16 1027 72 10000 2 90 07:39 11.09.2019
2091 Smoke 12 1027 71 10000 1 0 07:20 11.09.2019
2092 Smoke 12 1027 71 10000 1 0 07:20 11.09.2019
2093 Smoke 13 1026 66 10000 2 90 06:40 11.09.2019
2094 Smoke 13 1026 58 10000 2 90 06:21 11.09.2019
2095 Smoke 13 1026 62 10000 2 70 05:34 11.09.2019
2096 Smoke 11 1026 66 10000 1 0 04:53 11.09.2019
2097 Clear 11 1026 66 10000 1 60 04:18 11.09.2019
2098 Clear 13 1025 71 10000 1 0 03:27 11.09.2019
2099 Clear 12 1025 66 10000 2.86 145.805 02:32 11.09.2019
2100 Smoke 12 1025 66 10000 1 0 01:32 11.09.2019
2101 Clear 14 1025 62 10000 2 120 00:37 11.09.2019
2102 Clear 16 1025 51 10000 2 120 00:19 11.09.2019
2103 Clear 16 1025 48 10000 2 120 23:40 10.09.2019
2104 Smoke 18 1024 45 10000 2 130 23:21 10.09.2019
2105 Clear 19 1024 45 10000 2 130 22:55 10.09.2019
2106 Clear 18 1024 42 10000 2 130 22:37 10.09.2019
2107 Clear 19 1024 42 10000 2 130 22:18 10.09.2019
2108 Clear 19 1024 42 10000 2 130 22:18 10.09.2019
2109 Clear 18 1024 42 10000 2 130 22:18 10.09.2019
2110 Clear 19 1024 42 10000 2 120 21:54 10.09.2019
2111 Clear 19 1024 42 10000 2 120 21:36 10.09.2019
2112 Clear 19 1024 42 10000 2 120 21:18 10.09.2019
2113 Clear 20 1024 40 10000 2 130 20:54 10.09.2019
2114 Clear 20 1024 40 10000 2 120 20:36 10.09.2019
2115 Smoke 21 1024 35 10000 3 120 20:18 10.09.2019
2116 Clear 21 1024 35 10000 3 120 19:54 10.09.2019
2117 Clear 21 1024 35 10000 3 120 19:36 10.09.2019
2118 Clear 22 1023 33 10000 3 120 19:18 10.09.2019
2119 Clear 23 1023 28 10000 3 120 18:42 10.09.2019
2120 Clear 24 1023 27 10000 3 110 18:22 10.09.2019
2121 Clear 24 1023 27 10000 3 110 17:55 10.09.2019
2122 Clear 25 1023 23 10000 5 110 17:37 10.09.2019
2123 Clear 25 1023 23 10000 5 110 17:19 10.09.2019
2124 Clear 26 1023 27 10000 4 120 16:56 10.09.2019
2125 Clear 26 1023 23 10000 5 110 16:37 10.09.2019
2126 Clear 26 1023 23 10000 5 110 16:37 10.09.2019
2127 Smoke 26 1023 23 10000 5 120 16:19 10.09.2019
2128 Clear 27 1023 26 10000 4 130 15:43 10.09.2019
2129 Clear 27 1023 24 10000 4 140 15:22 10.09.2019
2130 Clear 27 1023 24 10000 4 140 14:55 10.09.2019
2131 Clear 26 1023 24 10000 4 140 14:37 10.09.2019
2132 Clear 26 1023 26 10000 4 130 14:19 10.09.2019
2133 Clear 26 1023 26 10000 4 130 14:19 10.09.2019
2134 Clear 27 1023 27 10000 5 130 13:44 10.09.2019
2135 Clear 27 1023 27 10000 5 130 13:22 10.09.2019
2136 Clear 27 1024 26 10000 5 130 12:51 10.09.2019
2137 Clear 26 1024 25 10000 6 130 12:28 10.09.2019
2138 Clear 26 1024 31 10000 5 120 11:58 10.09.2019
2139 Clear 26 1024 31 10000 5 120 11:40 10.09.2019
2140 Clear 25 1024 38 10000 3 130 11:21 10.09.2019
2141 Clouds 24 1024 40 9000 4 130 10:42 10.09.2019
2142 Clear 23 1024 43 10000 4 110 10:21 10.09.2019
2143 Clear 22 1024 43 10000 3 130 09:58 10.09.2019
2144 Clear 22 1024 43 10000 3 130 09:40 10.09.2019
2145 Clouds 21 1024 42 9000 3 140 09:19 10.09.2019
2146 Clouds 20 1024 48 9000 3 130 08:47 10.09.2019
2147 Clear 19 1024 48 10000 2 120 08:28 10.09.2019
2148 Clear 18 1024 48 10000 2 120 07:55 10.09.2019
2149 Clear 17 1023 67 10000 2 80 07:55 10.09.2019
2150 Clear 18 1024 48 10000 2 120 07:55 10.09.2019
2151 Clear 17 1023 67 10000 2 80 07:37 10.09.2019
2152 Clear 15 1023 71 10000 2 60 07:18 10.09.2019
2153 Clear 13 1023 76 10000 3 80 06:39 10.09.2019
2154 Clear 12 1023 71 10000 3 70 06:19 10.09.2019
2155 Clear 14 1022 76 10000 2 100 04:18 10.09.2019
2156 Clear 16 1022 67 10000 2 110 02:38 10.09.2019
2157 Clear 16 1022 67 10000 2 110 02:38 10.09.2019
2158 Clear 16 1022 62 10000 2 110 02:19 10.09.2019
2159 Clear 16 1022 59 10000 2 110 01:50 10.09.2019
2160 Clear 16 1022 59 10000 2 110 01:50 10.09.2019
2161 Clear 16 1022 59 10000 2 110 01:50 10.09.2019
2162 Clear 17 1022 51 10000 2 110 01:22 10.09.2019
2163 Clear 18 1022 48 10000 2 110 00:34 10.09.2019
2164 Clear 18 1022 42 10000 3 110 23:48 09.09.2019
2165 Clear 19 1022 40 10000 3 120 23:20 09.09.2019
2166 Clear 19 1022 40 10000 3 120 22:58 09.09.2019
2167 Clear 20 1022 40 10000 3 120 22:39 09.09.2019
2168 Clear 20 1022 40 10000 3 130 22:21 09.09.2019
2169 Clear 20 1022 40 10000 2 120 21:59 09.09.2019
2170 Clear 20 1022 40 10000 2 120 21:40 09.09.2019
2171 Clear 21 1022 37 10000 3 120 21:21 09.09.2019
2172 Clear 21 1022 35 10000 3 120 20:57 09.09.2019
2173 Clear 21 1022 35 10000 3 120 20:38 09.09.2019
2174 Clear 21 1022 35 10000 3 130 20:19 09.09.2019
2175 Clear 21 1022 35 10000 3 130 19:59 09.09.2019
2176 Clear 22 1022 31 10000 3 120 19:39 09.09.2019
2177 Clear 23 1022 32 10000 4 150 19:20 09.09.2019
2178 Clear 24 1021 29 10000 4 120 18:58 09.09.2019
2179 Clear 24 1021 29 10000 4 120 18:40 09.09.2019
2180 Clear 25 1021 27 10000 4 120 18:21 09.09.2019
2181 Clear 25 1021 27 10000 4 120 17:59 09.09.2019
2182 Clear 25 1021 27 10000 4 120 17:59 09.09.2019
2183 Clear 26 1022 27 10000 4 110 17:40 09.09.2019
2184 Clear 27 1022 26 10000 5 120 17:21 09.09.2019
2185 Clear 27 1022 26 10000 5 120 17:21 09.09.2019
2186 Clear 27 1022 26 10000 5 120 16:57 09.09.2019
2187 Clear 27 1022 26 10000 5 120 16:38 09.09.2019
2188 Clear 27 1022 22 10000 6 120 16:20 09.09.2019
2189 Clear 27 1022 27 10000 5 150 15:56 09.09.2019
2190 Clear 27 1022 27 10000 5 150 15:37 09.09.2019
2191 Clear 28 1022 28 10000 4 140 15:18 09.09.2019
2192 Clear 28 1023 28 10000 4 130 14:55 09.09.2019
2193 Clear 28 1023 28 10000 4 130 14:37 09.09.2019
2194 Clear 27 1023 29 10000 5 130 14:19 09.09.2019
2195 Clear 27 1023 29 10000 5 130 14:19 09.09.2019
2196 Clear 28 1023 28 10000 5 130 13:44 09.09.2019
2197 Clear 28 1024 30 10000 5 130 13:20 09.09.2019
2198 Clear 28 1024 30 10000 5 130 12:58 09.09.2019
2199 Clear 28 1024 32 10000 4 150 12:38 09.09.2019
2200 Clear 27 1024 31 10000 4 140 12:19 09.09.2019
2201 Clear 27 1024 31 10000 4 140 12:19 09.09.2019
2202 Clear 27 1024 31 10000 4 120 11:46 09.09.2019
2203 Clear 26 1024 33 10000 4 120 11:22 09.09.2019
2204 Clear 26 1024 38 10000 3 100 10:58 09.09.2019
2205 Clear 26 1024 38 10000 3 100 10:40 09.09.2019
2206 Clear 25 1025 43 10000 3 100 10:20 09.09.2019
2207 Clear 25 1025 43 10000 3 100 09:56 09.09.2019
2208 Clear 24 1025 43 10000 3 100 09:37 09.09.2019
2209 Clear 23 1025 43 10000 3 130 09:18 09.09.2019
2210 Clear 21 1025 46 10000 2 130 08:38 09.09.2019
2211 Clear 20 1025 46 10000 2 130 08:19 09.09.2019
2212 Clear 18 1025 52 10000 2 120 07:45 09.09.2019
2213 Clear 15 1025 77 10000 1 0 07:22 09.09.2019
2214 Clear 12 1025 76 10000 2 70 06:56 09.09.2019
2215 Clear 12 1025 76 10000 2 70 06:56 09.09.2019
2216 Clear 13 1025 76 10000 2 70 06:32 09.09.2019
2217 Clear 13 1025 81 10000 2 110 04:54 09.09.2019
2218 Clear 15 1025 76 10000 2 120 02:43 09.09.2019
2219 Clear 16 1025 67 10000 2 120 01:50 09.09.2019
2220 Clear 17 1025 48 10000 3 110 00:39 09.09.2019
2221 Clear 17 1025 55 10000 3 110 00:21 09.09.2019
2222 Clear 18 1025 48 10000 2 110 23:44 08.09.2019
2223 Clear 19 1025 48 10000 2 120 23:23 08.09.2019
2224 Clear 19 1025 40 10000 2 120 22:55 08.09.2019
2225 Clear 19 1025 40 10000 2 120 22:36 08.09.2019
2226 Clear 20 1025 35 10000 2 140 22:18 08.09.2019
2227 Clear 21 1025 31 10000 3 140 21:41 08.09.2019
2228 Clear 21 1024 33 10000 3 140 21:22 08.09.2019
2229 Clear 22 1024 31 10000 3 140 20:57 08.09.2019
2230 Clear 22 1024 31 10000 3 140 20:37 08.09.2019
2231 Clear 22 1024 31 10000 3 140 20:19 08.09.2019
2232 Clear 22 1024 31 10000 3 140 20:19 08.09.2019
2233 Clear 23 1024 31 10000 3 140 19:56 08.09.2019
2234 Clear 23 1024 31 10000 2 140 19:37 08.09.2019
2235 Clear 23 1024 31 10000 3 130 19:18 08.09.2019
2236 Clear 23 1024 31 10000 3 130 19:18 08.09.2019
2237 Clear 24 1024 31 10000 3 130 18:55 08.09.2019
2238 Clear 25 1024 31 10000 3 130 18:37 08.09.2019
2239 Clear 25 1024 33 10000 3 130 18:18 08.09.2019
2240 Clear 27 1024 30 10000 3 120 17:38 08.09.2019
2241 Clear 27 1023 30 10000 4 140 17:19 08.09.2019
2242 Clear 28 1023 30 10000 4 140 16:58 08.09.2019
2243 Clear 28 1023 30 10000 5 120 16:40 08.09.2019
2244 Clear 28 1023 30 10000 5 110 16:20 08.09.2019
2245 Clear 28 1023 30 10000 5 110 15:56 08.09.2019
2246 Clear 29 1023 30 10000 5 120 15:37 08.09.2019
2247 Clear 29 1023 28 10000 6 120 15:18 08.09.2019
2248 Clear 29 1023 30 10000 5 120 14:40 08.09.2019
2249 Clear 29 1024 30 10000 5 110 14:22 08.09.2019
2250 Clear 29 1024 30 10000 5 110 13:58 08.09.2019
2251 Clear 29 1024 30 10000 3 130 13:40 08.09.2019
2252 Clear 29 1024 28 10000 4 150 13:22 08.09.2019
2253 Clear 29 1024 28 10000 3 150 12:55 08.09.2019
2254 Clear 29 1024 28 10000 3 150 12:37 08.09.2019
2255 Clear 28 1024 30 10000 4 140 12:19 08.09.2019
2256 Clear 28 1024 30 10000 4 140 12:19 08.09.2019
2257 Clear 28 1024 34 10000 4 150 11:56 08.09.2019
2258 Clear 28 1024 34 10000 4 150 11:37 08.09.2019
2259 Clear 28 1024 34 10000 4 150 11:37 08.09.2019
2260 Clear 27 1024 34 10000 3 140 11:19 08.09.2019
2261 Clear 27 1024 39 10000 2 150 10:42 08.09.2019
2262 Clear 25 1024 41 10000 2 170 10:23 08.09.2019
2263 Clear 24 1024 49 10000 2 170 09:56 08.09.2019
2264 Clear 24 1024 49 10000 2 170 09:37 08.09.2019
2265 Clear 23 1024 53 10000 2 160 09:19 08.09.2019
2266 Clear 21 1023 56 10000 1 0 08:39 08.09.2019
2267 Clear 20 1023 60 10000 1 0 08:19 08.09.2019
2268 Clear 18 1023 77 10000 3 70 07:43 08.09.2019
2269 Clear 16 1023 87 10000 2 70 07:22 08.09.2019
2270 Clear 16 1023 87 10000 2 70 06:57 08.09.2019
2271 Clear 14 1023 93 10000 3 80 06:38 08.09.2019
2272 Clear 14 1022 93 10000 2 70 05:40 08.09.2019
2273 Clear 15 1022 93 10000 2 70 05:21 08.09.2019
2274 Clear 16 1022 93 10000 1 0 03:23 08.09.2019
2275 Clear 16 1022 87 10000 2.6 123.378 02:48 08.09.2019
2276 Clear 18 1022 77 10000 2 100 01:54 08.09.2019
2277 Clear 18 1022 77 10000 3 100 01:27 08.09.2019
2278 Clear 18 1022 72 10000 4 100 00:49 08.09.2019
2279 Clear 19 1022 68 10000 4 100 00:30 08.09.2019
2280 Clear 19 1022 68 10000 4 100 23:57 07.09.2019
2281 Clear 18 1022 77 10000 3 80 23:37 07.09.2019
2282 Clear 19 1022 72 10000 3 80 23:18 07.09.2019
2283 Clear 19 1022 77 10000 3 80 22:43 07.09.2019
2284 Clouds 20 1022 60 10000 2 60 22:23 07.09.2019
2285 Clear 20 1022 72 10000 3 70 21:56 07.09.2019
2286 Clear 20 1022 72 10000 3 70 21:38 07.09.2019
2287 Clear 20 1022 64 10000 4 60 21:19 07.09.2019
2288 Clear 21 1022 68 10000 3 60 20:39 07.09.2019
2289 Clear 21 1022 68 10000 3 70 20:21 07.09.2019
2290 Clear 21 1022 68 10000 3 70 19:56 07.09.2019
2291 Clear 21 1022 68 10000 2 50 19:38 07.09.2019
2292 Clear 22 1021 60 10000 3 20 19:19 07.09.2019
2293 Clear 23 1021 56 10000 3 20 18:58 07.09.2019
2294 Clear 23 1021 56 10000 3 20 18:38 07.09.2019
2295 Clear 24 1021 53 10000 3 40 18:20 07.09.2019
2296 Clear 24 1021 53 10000 3 40 18:20 07.09.2019
2297 Clear 25 1021 50 10000 3 40 17:58 07.09.2019
2298 Clear 25 1021 50 10000 3 40 17:39 07.09.2019
2299 Clear 26 1021 50 10000 4 40 17:18 07.09.2019
2300 Clear 26 1021 50 10000 2 40 16:55 07.09.2019
2301 Clear 26 1021 50 10000 2 40 16:36 07.09.2019
2302 Clear 26 1021 47 10000 2 30 16:18 07.09.2019
2303 Clouds 25 1021 50 10000 3 20 15:43 07.09.2019
2304 Clouds 25 1021 47 10000 3 70 15:24 07.09.2019
2305 Clouds 25 1021 50 10000 2 110 14:56 07.09.2019
2306 Clouds 25 1021 50 10000 2 110 14:36 07.09.2019
2307 Clear 25 1021 50 10000 2 70 14:18 07.09.2019
2308 Clear 26 1022 47 10000 3 100 13:44 07.09.2019
2309 Clouds 25 1022 47 10000 2 100 13:25 07.09.2019
2310 Clear 25 1022 53 10000 2 50 12:54 07.09.2019
2311 Clear 26 1022 53 10000 2 50 12:36 07.09.2019
2312 Clear 26 1022 53 10000 2 50 12:36 07.09.2019
2313 Clouds 24 1022 56 10000 4 50 12:18 07.09.2019
2314 Clouds 24 1022 56 10000 3 30 11:40 07.09.2019
2315 Clear 23 1022 56 10000 4 30 11:21 07.09.2019
2316 Clear 23 1022 64 10000 4 50 10:41 07.09.2019
2317 Clear 22 1022 64 10000 5 40 10:23 07.09.2019
2318 Clear 22 1022 64 10000 5 40 09:59 07.09.2019
2319 Clear 21 1022 60 10000 4 40 09:40 07.09.2019
2320 Clear 21 1022 60 10000 4 40 09:40 07.09.2019
2321 Clear 20 1022 68 10000 4 30 09:21 07.09.2019
2322 Clear 19 1022 68 10000 3 30 08:48 07.09.2019
2323 Clear 19 1022 68 10000 3 30 08:30 07.09.2019
2324 Clear 17 1022 87 10000 1 0 07:48 07.09.2019
2325 Clear 14 1022 100 10000 2.48 38.462 07:28 07.09.2019
2326 Clear 13 1022 100 10000 2.48 38.462 06:55 07.09.2019
2327 Mist 11 1022 100 10000 1.86 44.76 06:35 07.09.2019
2328 Mist 12 1022 100 9000 1.86 44.76 05:38 07.09.2019
2329 Clouds 12 1021 100 9000 1.86 44.76 04:26 07.09.2019
2330 Clouds 12 1021 100 9000 1.86 44.76 03:27 07.09.2019
2331 Clear 12 1021 100 10000 2.26 46.128 02:21 07.09.2019
2332 Clear 12 1021 100 10000 2.06 38.99 01:27 07.09.2019
2333 Clear 13 1021 93 10000 2.06 38.99 00:48 07.09.2019
2334 Clear 13 1021 93 10000 2.03 17.01 00:21 07.09.2019
2335 Clear 13 1021 93 10000 1 90 23:57 06.09.2019
2336 Clear 14 1021 93 10000 1 90 23:37 06.09.2019
2337 Clear 14 1021 93 10000 1 90 23:18 06.09.2019
2338 Clear 14 1021 87 10000 2 90 22:55 06.09.2019
2339 Clear 15 1021 87 10000 2 90 22:36 06.09.2019
2340 Clear 14 1021 87 10000 1 80 22:18 06.09.2019
2341 Clear 15 1021 82 10000 1 100 21:41 06.09.2019
2342 Clear 15 1020 77 10000 1 90 21:23 06.09.2019
2343 Clear 16 1020 77 10000 1 90 20:59 06.09.2019
2344 Clear 17 1020 67 10000 2 90 20:40 06.09.2019
2345 Clear 18 1020 67 10000 2.07 341.951 20:21 06.09.2019
2346 Clear 18 1020 67 10000 2.07 341.951 19:58 06.09.2019
2347 Clear 19 1020 59 10000 2.07 341.951 19:40 06.09.2019
2348 Clear 20 1020 56 10000 3 10 19:20 06.09.2019
2349 Clear 22 1020 49 10000 2 20 18:48 06.09.2019
2350 Clear 23 1019 46 10000 2 30 18:29 06.09.2019
2351 Clear 23 1019 46 10000 2 30 17:59 06.09.2019
2352 Clear 23 1019 46 10000 2 30 17:59 06.09.2019
2353 Clear 23 1019 43 10000 3 20 17:39 06.09.2019
2354 Clear 24 1019 41 10000 4 20 17:20 06.09.2019
2355 Clear 24 1019 41 10000 4 20 17:20 06.09.2019
2356 Clear 24 1019 41 10000 4 20 17:20 06.09.2019
2357 Clear 24 1019 41 10000 3 20 16:42 06.09.2019
2358 Clear 24 1019 41 10000 3 10 16:20 06.09.2019
2359 Clear 24 1019 41 10000 3 10 15:59 06.09.2019
2360 Clear 24 1019 44 10000 4 350 15:40 06.09.2019
2361 Clear 23 1019 41 10000 5 10 15:22 06.09.2019
2362 Clear 23 1019 41 10000 4 30 14:41 06.09.2019
2363 Clear 23 1020 46 10000 4 10 14:19 06.09.2019
2364 Clear 22 1020 49 10000 4 20 13:44 06.09.2019
2365 Clear 22 1020 49 10000 3 40 13:23 06.09.2019
2366 Clear 22 1020 53 10000 3 20 12:56 06.09.2019
2367 Clear 23 1020 53 10000 3 20 12:36 06.09.2019
2368 Clear 22 1020 56 10000 2 10 12:18 06.09.2019
2369 Clear 22 1020 56 10000 2 10 12:18 06.09.2019
2370 Clouds 22 1020 56 10000 2 360 11:40 06.09.2019
2371 Clouds 21 1020 64 10000 2 50 11:22 06.09.2019
2372 Clouds 21 1020 64 10000 2 50 10:56 06.09.2019
2373 Clouds 20 1020 68 10000 2 60 10:38 06.09.2019
2374 Clouds 20 1020 72 10000 1 0 10:18 06.09.2019
2375 Clouds 19 1020 72 10000 2 100 09:38 06.09.2019
2376 Clear 19 1020 72 10000 2 120 09:19 06.09.2019
2377 Clear 18 1020 72 10000 2 120 08:54 06.09.2019
2378 Clear 17 1019 77 10000 2 130 08:36 06.09.2019
2379 Clear 16 1019 82 10000 2 90 08:18 06.09.2019
2380 Clear 15 1019 93 10000 1 100 07:41 06.09.2019
2381 Clear 13 1019 100 9000 1.73 7.647 07:22 06.09.2019
2382 Fog 11 1019 100 2700 1.73 7.647 06:41 06.09.2019
2383 Fog 11 1018 100 2600 1.69 7.977 05:58 06.09.2019
2384 Fog 11 1018 93 9000 1 340 04:56 06.09.2019
2385 Clear 11 1018 100 9000 1.69 7.977 04:25 06.09.2019
2386 Mist 12 1018 100 9000 1.96 315.165 03:23 06.09.2019
2387 Mist 13 1017 93 10000 1.4 350.141 01:31 06.09.2019
2388 Clear 13 1017 100 10000 1.62 354.627 00:23 06.09.2019
2389 Clear 13 1017 93 10000 1 160 23:42 05.09.2019
2390 Clear 13 1017 93 10000 1.62 354.627 23:22 05.09.2019
2391 Clear 14 1017 87 10000 1 110 22:46 05.09.2019
2392 Clear 14 1017 87 10000 1 110 22:27 05.09.2019
2393 Clear 15 1017 82 10000 2 110 21:58 05.09.2019
2394 Clear 16 1017 77 10000 2 110 21:40 05.09.2019
2395 Clear 16 1017 77 10000 2 120 21:20 05.09.2019
2396 Clear 16 1017 77 10000 2 120 20:58 05.09.2019
2397 Clear 17 1017 72 10000 3 120 20:40 05.09.2019
2398 Clouds 17 1016 68 10000 3 120 20:21 05.09.2019
2399 Clouds 18 1016 68 10000 3 120 19:57 05.09.2019
2400 Clouds 18 1016 63 10000 3 110 19:39 05.09.2019
2401 Clear 18 1016 77 10000 3 120 19:20 05.09.2019
2402 Clear 20 1016 72 10000 3 110 18:45 05.09.2019
2403 Clouds 20 1016 52 10000 1 0 18:27 05.09.2019
2404 Clouds 21 1016 52 10000 1 0 17:59 05.09.2019
2405 Clouds 21 1016 52 10000 2 90 17:40 05.09.2019
2406 Clouds 21 1016 52 10000 3 50 17:22 05.09.2019
2407 Clear 21 1016 49 10000 2 350 16:57 05.09.2019
2408 Clouds 21 1016 52 10000 3 50 16:57 05.09.2019
2409 Clouds 21 1016 52 10000 3 50 16:57 05.09.2019
2410 Clear 21 1016 49 10000 2 350 16:39 05.09.2019
2411 Clear 21 1016 49 10000 4 60 16:18 05.09.2019
2412 Clear 21 1016 52 10000 2 350 15:40 05.09.2019
2413 Clear 21 1016 49 10000 3 10 15:19 05.09.2019
2414 Clear 21 1016 49 10000 3 10 15:19 05.09.2019
2415 Clear 21 1016 49 10000 3 10 15:19 05.09.2019
2416 Clear 21 1016 49 10000 3 10 14:57 05.09.2019
2417 Clear 21 1016 49 10000 4 10 14:38 05.09.2019
2418 Clouds 21 1016 46 10000 3 350 14:18 05.09.2019
2419 Clear 20 1016 45 10000 4 340 13:43 05.09.2019
2420 Clear 21 1017 45 10000 4 330 13:21 05.09.2019
2421 Clear 20 1017 52 10000 4 330 12:46 05.09.2019
2422 Clear 20 1017 55 10000 4 340 12:26 05.09.2019
2423 Clear 20 1017 52 10000 4 330 12:26 05.09.2019
2424 Clouds 19 1017 55 10000 5 350 11:58 05.09.2019
2425 Clouds 20 1017 55 10000 5 350 11:39 05.09.2019
2426 Clear 20 1017 45 10000 4 20 11:18 05.09.2019
2427 Clouds 19 1017 63 10000 5 10 10:42 05.09.2019
2428 Clear 19 1017 63 10000 4 350 10:22 05.09.2019
2429 Clear 18 1017 63 10000 4 350 09:58 05.09.2019
2430 Clear 18 1017 63 10000 4 350 09:58 05.09.2019
2431 Clear 17 1017 72 10000 3 350 09:38 05.09.2019
2432 Clear 17 1017 77 10000 3 340 09:18 05.09.2019
2433 Clear 17 1017 77 10000 3 340 09:18 05.09.2019
2434 Clear 16 1017 82 10000 3 340 08:45 05.09.2019
2435 Clear 15 1017 82 10000 2 310 08:26 05.09.2019
2436 Clear 13 1017 87 10000 2 290 07:46 05.09.2019
2437 Clear 14 1017 87 10000 2 290 07:27 05.09.2019
2438 Clear 12 1017 93 10000 2 290 06:54 05.09.2019
2439 Clear 12 1017 93 10000 2 290 06:30 05.09.2019
2440 Clear 12 1017 93 10000 2 290 06:30 05.09.2019
2441 Clear 12 1017 93 10000 2 270 05:50 05.09.2019
2442 Clear 11 1017 93 10000 2 270 05:30 05.09.2019
2443 Clear 10 1017 93 10000 1 250 04:50 05.09.2019
2444 Clear 10 1017 93 10000 1 260 04:24 05.09.2019
2445 Clear 11 1017 93 10000 2 250 03:38 05.09.2019
2446 Clear 11 1017 100 10000 1 260 02:45 05.09.2019
2447 Clear 11 1017 100 10000 1 260 02:20 05.09.2019
2448 Clear 11 1017 100 10000 1 260 01:36 05.09.2019
2449 Clear 11 1017 93 10000 2.81 353.806 00:42 05.09.2019
2450 Clear 12 1017 100 10000 3.01 3.394 00:20 05.09.2019
2451 Clear 12 1017 93 10000 3.01 3.394 23:48 04.09.2019
2452 Clear 12 1017 93 10000 3.01 3.394 23:26 04.09.2019
2453 Clear 12 1017 93 10000 3.01 3.394 22:59 04.09.2019
2454 Clear 12 1017 87 10000 3.01 3.394 22:40 04.09.2019
2455 Clear 12 1017 93 10000 3.01 3.394 22:18 04.09.2019
2456 Clear 13 1017 87 10000 1 310 21:39 04.09.2019
2457 Clear 15 1017 82 10000 1 310 21:20 04.09.2019
2458 Clear 15 1017 82 10000 2.24 3.474 20:56 04.09.2019
2459 Clear 16 1017 82 10000 2.24 3.474 20:38 04.09.2019
2460 Clear 16 1017 72 10000 2 360 20:18 04.09.2019
2461 Clear 17 1017 63 10000 2 20 19:55 04.09.2019
2462 Clear 17 1017 63 10000 3 30 19:36 04.09.2019
2463 Clear 17 1017 63 10000 3 30 19:18 04.09.2019
2464 Clear 18 1017 63 10000 3 350 18:38 04.09.2019
2465 Clear 19 1016 55 10000 4 10 18:19 04.09.2019
2466 Clear 19 1017 59 10000 4 360 17:41 04.09.2019
2467 Clear 19 1017 59 10000 4 360 17:23 04.09.2019
2468 Clear 19 1017 59 10000 4 360 16:58 04.09.2019
2469 Clear 19 1017 59 10000 4 360 16:39 04.09.2019
2470 Clouds 19 1017 68 10000 5 40 16:21 04.09.2019
2471 -273 0 0 0 0 0 15:55 04.09.2019
2472 Clear 20 1017 56 10000 4 340 15:37 04.09.2019
2473 Clouds 19 1017 59 10000 4 340 15:18 04.09.2019
2474 Clouds 19 1017 59 10000 4 340 14:54 04.09.2019
2475 Clouds 19 1017 63 10000 4 340 14:36 04.09.2019
2476 Clouds 19 1017 55 10000 5 350 14:18 04.09.2019
2477 Clouds 19 1017 59 10000 4 350 13:39 04.09.2019
2478 Clouds 19 1017 63 10000 6 330 13:21 04.09.2019
2479 Clouds 18 1017 63 10000 5 330 12:45 04.09.2019
2480 Clouds 18 1017 68 10000 5 340 12:26 04.09.2019
2481 Clouds 18 1017 68 10000 5 340 12:26 04.09.2019
2482 Clouds 18 1017 72 10000 5 330 11:58 04.09.2019
2483 Clouds 17 1017 72 10000 5 330 11:39 04.09.2019
2484 Clouds 17 1017 72 10000 6 330 11:21 04.09.2019
2485 Clouds 16 1017 72 10000 6 330 10:56 04.09.2019
2486 -273 0 0 0 0 0 10:38 04.09.2019
2487 Clouds 16 1017 72 10000 5 320 10:38 04.09.2019
2488 Clouds 15 1017 77 10000 5 320 10:19 04.09.2019
2489 Clouds 15 1017 77 10000 6 320 09:45 04.09.2019
2490 Clouds 15 1017 77 10000 5 320 09:21 04.09.2019
2491 Rain 15 1017 82 10000 4 320 08:43 04.09.2019
2492 Rain 15 1017 82 10000 4 320 08:24 04.09.2019
2493 Clouds 14 1017 82 10000 5 310 07:59 04.09.2019
2494 Clouds 14 1017 82 10000 6 310 07:37 04.09.2019
2495 Clouds 14 1017 82 10000 5 320 06:59 04.09.2019
2496 Rain 14 1017 82 10000 6 310 06:39 04.09.2019
2497 Rain 14 1017 82 10000 6 310 06:39 04.09.2019
2498 Clouds 15 1016 77 10000 6 310 04:55 04.09.2019
2499 Clouds 15 1016 77 10000 6 310 04:23 04.09.2019
2500 Clouds 15 1016 82 10000 6 310 02:51 04.09.2019
2501 Clouds 16 1015 77 10000 5 310 01:20 04.09.2019
2502 Clouds 16 1016 82 10000 5 290 00:45 04.09.2019
2503 Clouds 16 1016 82 10000 5 290 00:27 04.09.2019
2504 Clouds 17 1015 82 10000 6 290 23:52 03.09.2019
2505 Clouds 17 1015 82 10000 6 290 23:27 03.09.2019
2506 Clouds 18 1015 82 10000 7 290 22:43 03.09.2019
2507 Clear 18 1015 82 10000 8 300 22:25 03.09.2019
2508 Clear 18 1015 82 10000 8 300 21:59 03.09.2019
2509 Clear 18 1015 82 10000 8 300 21:59 03.09.2019
2510 Clear 19 1015 77 10000 7 300 21:39 03.09.2019
2511 Clear 20 1015 72 10000 7 290 21:20 03.09.2019
2512 Clear 20 1015 72 10000 7 290 20:59 03.09.2019
2513 Clear 21 1015 68 10000 8 300 20:40 03.09.2019
2514 Clouds 22 1014 68 10000 4 310 20:21 03.09.2019
2515 Thunderstorm 23 1013 60 10000 2 290 19:55 03.09.2019
2516 Thunderstorm 23 1013 60 10000 2 290 19:55 03.09.2019
2517 Thunderstorm 24 1013 60 10000 2 290 19:36 03.09.2019
2518 Clear 25 1014 57 10000 7 300 19:18 03.09.2019
2519 Clear 27 1013 42 10000 5 290 18:42 03.09.2019
2520 Clear 27 1012 44 10000 4.79 297.871 18:24 03.09.2019
2521 Rain 28 1013 35 10000 4 300 17:56 03.09.2019
2522 Rain 28 1013 35 10000 4 300 17:38 03.09.2019
2523 Rain 29 1013 37 10000 5 290 17:19 03.09.2019
2524 Clear 30 1013 35 10000 5 290 16:43 03.09.2019
2525 Clouds 30 1013 37 10000 3 270 16:23 03.09.2019
2526 Clouds 30 1013 37 10000 3 270 15:58 03.09.2019
2527 Clouds 31 1013 40 10000 4 280 15:38 03.09.2019
2528 Clouds 31 1013 38 10000 4 280 15:20 03.09.2019
2529 Clouds 31 1013 38 10000 4 280 14:56 03.09.2019
2530 Clear 31 1013 37 10000 4 270 14:37 03.09.2019
2531 Clear 31 1013 40 10000 3 300 14:19 03.09.2019
2532 Clear 31 1014 38 10000 4 290 13:56 03.09.2019
2533 Clear 31 1014 38 10000 4 290 13:37 03.09.2019
2534 Clear 30 1014 40 10000 3 300 13:18 03.09.2019
2535 Clear 31 1014 42 10000 2 290 12:48 03.09.2019
2536 Clear 30 1014 42 10000 2 290 12:29 03.09.2019
2537 Clear 29 1014 45 10000 2 330 11:44 03.09.2019
2538 Clear 29 1014 45 10000 2 330 11:25 03.09.2019
2539 Clear 28 1014 50 10000 2 280 10:59 03.09.2019
2540 Clear 27 1014 50 10000 2 280 10:40 03.09.2019
2541 Clear 26 1014 53 10000 2 270 10:21 03.09.2019
2542 Clear 25 1014 53 10000 1 0 09:51 03.09.2019
2543 Clear 25 1014 53 10000 1 0 09:33 03.09.2019
2544 Clear 23 1014 56 10000 2 250 08:57 03.09.2019
2545 Clear 23 1014 60 10000 1 0 08:38 03.09.2019
2546 Clear 23 1014 60 10000 1 0 08:38 03.09.2019
2547 Clear 22 1014 64 10000 1 0 08:19 03.09.2019
2548 Clear 20 1014 73 10000 0.41 317.291 07:43 03.09.2019
2549 Clear 19 1014 77 10000 1 110 07:24 03.09.2019
2550 Clear 17 1014 82 10000 2 100 06:50 03.09.2019
2551 Clear 16 1014 82 10000 2 100 06:32 03.09.2019
2552 Clear 15 1014 82 10000 1 60 03:44 03.09.2019
2553 Clear 17 1014 82 10000 1.24 135.131 02:48 03.09.2019
2554 Clear 17 1014 82 10000 1.24 135.131 02:29 03.09.2019
2555 Clear 17 1014 87 10000 1.24 135.131 01:58 03.09.2019
2556 Clear 17 1014 77 10000 1 90 01:39 03.09.2019
2557 Clear 17 1014 82 10000 1 230 01:20 03.09.2019
2558 Clear 19 1014 68 10000 1 80 00:28 03.09.2019
2559 Clear 18 1014 68 10000 1 70 23:41 02.09.2019
2560 Clear 19 1014 68 10000 1.78 142.379 23:21 02.09.2019
2561 Clear 19 1014 68 10000 1.78 142.379 23:21 02.09.2019
2562 Clear 18 1014 68 10000 1.78 142.379 22:58 02.09.2019
2563 Clear 18 1014 68 10000 1.78 142.379 22:58 02.09.2019
2564 Clear 19 1014 68 10000 1.78 142.379 22:39 02.09.2019
2565 Clear 19 1014 68 10000 1 90 22:21 02.09.2019
2566 Clear 20 1014 68 10000 1 90 21:58 02.09.2019
2567 Clear 20 1014 64 10000 2 90 21:40 02.09.2019
2568 Clear 20 1014 64 10000 2 90 21:40 02.09.2019
2569 Clear 20 1014 64 10000 2 90 21:40 02.09.2019
2570 Clear 22 1014 64 10000 1 0 21:20 02.09.2019
2571 Clear 21 1014 64 10000 1 0 20:59 02.09.2019
2572 Clear 22 1014 64 10000 2 120 20:40 02.09.2019
2573 Clear 23 1014 56 10000 2 100 20:19 02.09.2019
2574 Clear 23 1014 64 10000 2 80 19:57 02.09.2019
2575 Clear 24 1014 64 10000 2 80 19:39 02.09.2019
2576 Clear 25 1013 49 10000 2 70 19:20 02.09.2019
2577 Clear 27 1013 44 10000 2 120 18:41 02.09.2019
2578 Clear 27 1013 39 10000 2 50 18:22 02.09.2019
2579 Clear 28 1013 42 10000 3 100 17:58 02.09.2019
2580 Clear 28 1013 42 10000 3 100 17:39 02.09.2019
2581 Clear 28 1014 42 10000 2 110 17:21 02.09.2019
2582 Clear 28 1014 42 10000 2 110 16:58 02.09.2019
2583 Clear 29 1014 39 10000 4 70 16:37 02.09.2019
2584 Clear 29 1014 39 10000 3 110 16:19 02.09.2019
2585 Clear 29 1014 39 10000 2 310 15:44 02.09.2019
2586 Clear 29 1014 39 10000 2 230 15:22 02.09.2019
2587 Clear 29 1014 37 10000 2 70 14:57 02.09.2019
2588 Clear 29 1014 37 10000 2 70 14:57 02.09.2019
2589 Clear 29 1014 37 10000 2 70 14:37 02.09.2019
2590 Clear 29 1014 37 10000 2 90 14:19 02.09.2019
2591 Clear 29 1014 37 10000 2 90 13:55 02.09.2019
2592 Clear 29 1015 39 10000 3 300 13:36 02.09.2019
2593 Clear 28 1015 39 10000 1 0 13:18 02.09.2019
2594 Clear 29 1015 42 10000 2 190 12:42 02.09.2019
2595 Clear 28 1015 44 10000 2 200 12:24 02.09.2019
2596 Clear 28 1015 47 10000 1 0 11:58 02.09.2019
2597 Clear 28 1015 47 10000 1 0 11:38 02.09.2019
2598 Clear 27 1015 47 10000 1 0 11:19 02.09.2019
2599 Clear 27 1015 50 10000 2 80 10:55 02.09.2019
2600 Clear 26 1015 50 10000 2 80 10:36 02.09.2019
2601 Clear 25 1015 53 10000 2 80 10:18 02.09.2019
2602 Clear 24 1015 57 10000 3 80 09:42 02.09.2019
2603 Clear 23 1015 60 10000 2 70 09:21 02.09.2019
2604 Clear 22 1015 64 10000 2 100 08:44 02.09.2019
2605 Clear 21 1015 68 10000 2 90 08:22 02.09.2019
2606 Clear 19 1015 77 10000 1.76 53.767 07:57 02.09.2019
2607 Clear 19 1015 77 10000 1.76 53.767 07:39 02.09.2019
2608 Clear 17 1015 87 10000 1.76 53.767 07:20 02.09.2019
2609 Clear 15 1015 87 10000 2 10 06:43 02.09.2019
2610 Clear 14 1015 100 10000 1 90 05:54 02.09.2019
2611 Clear 14 1015 100 10000 1 90 05:26 02.09.2019
2612 Clear 15 1015 93 10000 1 70 04:50 02.09.2019
2613 Clear 16 1015 87 10000 1 90 02:30 02.09.2019
2614 Clear 17 1015 82 10000 2 90 01:41 02.09.2019
2615 Clear 17 1015 82 10000 2 90 01:41 02.09.2019
2616 Clear 17 1016 82 10000 2 80 00:42 02.09.2019
2617 Clear 18 1015 87 10000 2 20 00:20 02.09.2019
2618 Clear 19 1016 72 10000 2 80 23:39 01.09.2019
2619 Clear 19 1016 68 10000 4 60 23:19 01.09.2019
2620 Clear 19 1016 68 10000 4 60 23:19 01.09.2019
2621 Clear 20 1016 68 10000 4 60 22:57 01.09.2019
2622 Clear 19 1016 77 10000 3 70 22:38 01.09.2019
2623 Clear 20 1015 64 10000 3 50 22:18 01.09.2019
2624 Clear 20 1015 64 10000 3 50 22:18 01.09.2019
2625 Clear 21 1015 64 10000 3 50 21:54 01.09.2019
2626 Clear 21 1015 64 10000 3 40 21:36 01.09.2019
2627 Clear 21 1015 64 10000 3 40 21:36 01.09.2019
2628 Clear 21 1015 72 10000 2 40 21:18 01.09.2019
2629 Clear 21 1015 72 10000 2 40 20:54 01.09.2019
2630 Clear 21 1015 68 10000 3 20 20:36 01.09.2019
2631 Clear 21 1015 64 10000 3 20 20:18 01.09.2019
2632 Clear 21 1015 64 10000 2 20 19:40 01.09.2019
2633 Clear 22 1015 60 10000 3 20 19:21 01.09.2019
2634 Clear 24 1015 53 10000 2 30 18:49 01.09.2019
2635 Clear 25 1014 50 10000 2 20 18:30 01.09.2019
2636 Clear 26 1015 44 10000 2 70 17:59 01.09.2019
2637 Clear 26 1015 44 10000 2 70 17:39 01.09.2019
2638 Clear 26 1015 47 10000 1 0 17:21 01.09.2019
2639 Clear 27 1015 44 10000 1 0 16:56 01.09.2019
2640 Clear 27 1015 44 10000 1 0 16:37 01.09.2019
2641 Clear 27 1015 47 10000 1 0 16:18 01.09.2019
2642 Clear 27 1015 42 10000 1 0 15:42 01.09.2019
2643 Clear 27 1015 42 10000 1 0 15:42 01.09.2019
2644 Clear 27 1015 42 10000 1 0 15:23 01.09.2019
2645 Clear 26 1016 44 10000 1 0 14:44 01.09.2019
2646 Clear 27 1016 44 10000 2 120 14:26 01.09.2019
2647 Clear 27 1016 44 10000 2 120 13:59 01.09.2019
2648 Clear 27 1016 47 10000 2 360 13:41 01.09.2019
2649 Clear 27 1016 47 10000 2 360 13:23 01.09.2019
2650 Clear 27 1017 47 10000 3 10 12:45 01.09.2019
2651 Clear 27 1017 47 10000 3 10 12:26 01.09.2019
2652 Clear 26 1017 53 10000 2 30 11:58 01.09.2019
2653 Clear 26 1017 57 10000 3 60 11:38 01.09.2019
2654 Clear 25 1017 57 10000 4 30 11:19 01.09.2019
2655 Clear 25 1017 57 10000 3 50 10:45 01.09.2019
2656 Clear 24 1017 60 10000 4 40 10:23 01.09.2019
2657 Clear 23 1017 64 10000 3 50 09:48 01.09.2019
2658 Clear 23 1017 64 10000 3 50 09:26 01.09.2019
2659 Clear 23 1017 64 10000 3 50 09:26 01.09.2019
2660 Clear 21 1017 68 10000 3 70 08:58 01.09.2019
2661 Clear 21 1017 68 10000 3 70 08:39 01.09.2019
2662 Clear 20 1017 72 10000 3 60 08:20 01.09.2019
2663 Clear 19 1017 77 10000 3 60 07:41 01.09.2019
2664 Clear 18 1017 82 10000 2 50 07:21 01.09.2019
2665 Clear 17 1017 82 10000 2 70 06:39 01.09.2019
2666 Clear 17 1017 87 10000 2 70 05:59 01.09.2019
2667 Clear 17 1017 87 10000 2 70 05:59 01.09.2019
2668 Clear 17 1017 87 10000 2 80 04:43 01.09.2019
2669 Clear 17 1017 77 10000 1 90 03:49 01.09.2019
2670 Clear 17 1017 77 10000 1 90 03:30 01.09.2019
2671 Clear 18 1018 77 10000 2 80 02:37 01.09.2019
2672 Clear 19 1018 77 10000 2 70 02:19 01.09.2019
2673 Clear 19 1018 77 10000 2 60 01:28 01.09.2019
2674 Clear 20 1018 68 10000 3 60 00:55 01.09.2019
2675 Clear 20 1018 68 10000 3 60 00:36 01.09.2019
2676 Clear 20 1018 64 10000 3 60 00:18 01.09.2019
2677 Clear 20 1018 64 10000 4 60 23:40 31.08.2019
2678 Clear 21 1018 64 10000 4 60 23:20 31.08.2019
2679 Clear 21 1018 64 10000 4 60 22:55 31.08.2019
2680 Clear 21 1018 64 10000 4 60 22:55 31.08.2019
2681 Clear 21 1018 64 10000 3 40 22:37 31.08.2019
2682 Clear 22 1018 64 10000 3 30 22:19 31.08.2019
2683 Clear 22 1018 64 10000 3 20 21:42 31.08.2019
2684 Clear 22 1018 64 10000 3 20 21:21 31.08.2019
2685 Clear 22 1018 64 10000 3 20 20:59 31.08.2019
2686 Clear 23 1018 60 10000 4 20 20:40 31.08.2019
2687 Clear 23 1018 57 10000 4 20 20:22 31.08.2019
2688 Clear 24 1018 57 10000 4 10 19:41 31.08.2019
2689 Clear 24 1018 60 10000 3 10 19:22 31.08.2019
2690 Clear 25 1017 54 10000 3 30 18:55 31.08.2019
2691 Clear 25 1017 54 10000 3 30 18:55 31.08.2019
2692 Clear 25 1017 54 10000 3 30 18:36 31.08.2019
2693 Clear 26 1018 50 10000 5 10 18:18 31.08.2019
2694 Clear 26 1018 50 10000 5 10 18:18 31.08.2019
2695 Clear 27 1018 47 10000 5 30 17:54 31.08.2019
2696 Clear 28 1018 47 10000 5 30 17:36 31.08.2019
2697 Clear 28 1018 51 10000 5 30 17:18 31.08.2019
2698 Clear 28 1018 51 10000 5 30 17:18 31.08.2019
2699 Clear 28 1018 45 10000 4 10 16:41 31.08.2019
2700 Clear 28 1018 45 10000 4 10 16:23 31.08.2019
2701 Clear 28 1019 51 10000 4 40 15:59 31.08.2019
2702 Clear 28 1019 51 10000 4 40 15:38 31.08.2019
2703 Clear 28 1019 51 10000 4 40 15:38 31.08.2019
2704 Clear 28 1019 48 10000 4 20 15:18 31.08.2019
2705 Clear 29 1019 48 10000 4 10 14:42 31.08.2019
2706 Clear 29 1019 48 10000 4 10 14:24 31.08.2019
2707 Clear 29 1019 45 10000 2 320 13:56 31.08.2019
2708 Clear 30 1019 45 10000 1 0 13:36 31.08.2019
2709 Clear 29 1019 47 10000 2 40 13:18 31.08.2019
2710 Clear 28 1020 48 10000 2 40 12:42 31.08.2019
2711 Clear 27 1020 47 10000 3 20 12:21 31.08.2019
2712 Clear 28 1020 47 10000 3 20 11:59 31.08.2019
2713 Clear 27 1020 47 10000 3 50 11:40 31.08.2019
2714 Clear 26 1020 47 10000 1 0 11:22 31.08.2019
2715 Clear 25 1020 47 10000 2 330 10:54 31.08.2019
2716 Clear 25 1020 47 10000 2 330 10:36 31.08.2019
2717 Clear 24 1020 46 10000 1 0 10:18 31.08.2019
2718 Clear 22 1020 49 10000 2 280 09:39 31.08.2019
2719 Clear 21 1020 59 10000 3 250 09:21 31.08.2019
2720 Rain 20 1020 63 10000 2 250 08:45 31.08.2019
2721 Rain 20 1020 63 10000 2 250 08:27 31.08.2019
2722 Rain 18 1020 67 10000 1 0 07:43 31.08.2019
2723 Rain 18 1020 59 10000 3 250 07:23 31.08.2019
2724 Rain 18 1020 59 10000 3 250 06:56 31.08.2019
2725 Clouds 17 1020 51 10000 3 240 06:23 31.08.2019
2726 Rain 17 1020 48 10000 3 240 05:35 31.08.2019
2727 Clear 17 1020 51 10000 3 250 04:45 31.08.2019
2728 Clear 16 1020 54 10000 2 240 04:27 31.08.2019
2729 Clear 16 1020 54 10000 2 250 03:42 31.08.2019
2730 Clear 18 1021 48 10000 1 0 02:20 31.08.2019
2731 Clear 18 1021 48 10000 1 0 02:20 31.08.2019
2732 Clear 19 1021 42 10000 1 0 01:42 31.08.2019
2733 Clear 19 1021 42 10000 2 200 01:23 31.08.2019
2734 Rain 19 1021 42 10000 1 0 00:44 31.08.2019
2735 -273 0 0 0 0 0 00:25 31.08.2019
2736 Rain 20 1021 40 10000 1 0 23:48 30.08.2019
2737 Clear 20 1021 52 10000 2.59 189.207 23:19 30.08.2019
2738 Clear 19 1021 52 10000 2.59 189.207 22:56 30.08.2019
2739 Clear 20 1021 59 10000 1 0 22:37 30.08.2019
2740 Clear 19 1021 55 10000 2.59 189.207 22:19 30.08.2019
2741 Clear 19 1021 59 10000 2.85 186.011 21:55 30.08.2019
2742 Clear 20 1021 59 10000 2.85 186.011 21:36 30.08.2019
2743 Clear 20 1021 52 10000 2 90 21:18 30.08.2019
2744 Clear 21 1021 52 10000 2.27 158.489 20:42 30.08.2019
2745 Clear 22 1021 52 10000 2.27 158.489 20:22 30.08.2019
2746 Clear 22 1021 33 10000 3 120 19:59 30.08.2019
2747 Clear 22 1021 33 10000 3 120 19:40 30.08.2019
2748 Clear 22 1020 52 10000 1 0 19:21 30.08.2019
2749 Clear 26 1020 27 10000 2 90 18:58 30.08.2019
2750 Clear 26 1020 27 10000 2 90 18:39 30.08.2019
2751 Clear 26 1020 26 10000 2 110 18:20 30.08.2019
2752 Clear 27 1020 30 10000 3 120 17:56 30.08.2019
2753 Clear 27 1020 30 10000 3 120 17:56 30.08.2019
2754 Clear 28 1020 30 10000 3 120 17:37 30.08.2019
2755 Clear 28 1020 30 10000 3 120 17:37 30.08.2019
2756 Clear 28 1020 30 10000 2 110 17:18 30.08.2019
2757 Clear 28 1020 28 10000 2 100 16:43 30.08.2019
2758 Clear 29 1021 26 10000 1 0 16:25 30.08.2019
2759 Clear 28 1021 26 10000 2 60 15:46 30.08.2019
2760 Clear 28 1021 26 10000 2 60 15:25 30.08.2019
2761 Clear 28 1021 28 10000 1 0 14:59 30.08.2019
2762 Clear 28 1021 28 10000 2 110 14:41 30.08.2019
2763 Clear 28 1022 28 10000 2 250 14:23 30.08.2019
2764 Clear 28 1022 28 10000 2 250 14:23 30.08.2019
2765 Clear 28 1022 30 10000 1 0 13:44 30.08.2019
2766 Clear 27 1022 28 10000 1 0 13:23 30.08.2019
2767 Clear 28 1022 28 10000 1 0 12:58 30.08.2019
2768 Clear 27 1022 31 10000 2 270 12:40 30.08.2019
2769 Clear 26 1022 33 10000 3 100 12:22 30.08.2019
2770 Clear 26 1022 33 10000 3 100 12:22 30.08.2019
2771 Clear 27 1022 33 10000 2 110 11:43 30.08.2019
2772 Clear 26 1022 33 10000 2 110 11:24 30.08.2019
2773 Clear 25 1022 41 10000 2 140 10:43 30.08.2019
2774 Clear 23 1022 43 10000 1 0 10:24 30.08.2019
2775 Clear 23 1022 43 10000 1 0 09:59 30.08.2019
2776 Clear 22 1022 43 10000 2 140 09:40 30.08.2019
2777 Clear 21 1022 43 10000 2 120 09:19 30.08.2019
2778 Clear 20 1022 45 10000 2 120 08:57 30.08.2019
2779 Clear 20 1022 45 10000 2 120 08:38 30.08.2019
2780 Clear 19 1022 48 10000 1 0 08:20 30.08.2019
2781 Clear 17 1022 63 10000 2 80 07:40 30.08.2019
2782 Clear 15 1022 67 10000 2 90 07:21 30.08.2019
2783 Clear 13 1022 66 10000 2 70 06:47 30.08.2019
2784 Clear 12 1022 66 10000 2 70 06:28 30.08.2019
2785 Clear 10 1022 81 10000 1 90 05:46 30.08.2019
2786 Clear 11 1022 76 10000 1.87 152.64 03:59 30.08.2019
2787 Clear 12 1022 76 10000 1 80 03:38 30.08.2019
2788 Clear 12 1022 76 10000 1 80 03:38 30.08.2019
2789 Clear 12 1022 81 10000 1 80 02:56 30.08.2019
2790 Clear 13 1022 71 10000 2 80 02:29 30.08.2019
2791 Clear 15 1022 62 10000 1 70 01:29 30.08.2019
2792 Clear 15 1022 67 10000 2 70 00:38 30.08.2019
2793 Clear 16 1022 62 10000 2 90 00:18 30.08.2019
2794 Clear 17 1022 62 10000 2 100 23:40 29.08.2019
2795 Clear 18 1022 51 10000 2 110 23:20 29.08.2019
2796 Clear 18 1022 51 10000 2 110 23:20 29.08.2019
2797 Clear 18 1022 42 10000 3 110 22:43 29.08.2019
2798 Clear 18 1022 42 10000 3 100 22:25 29.08.2019
2799 Clear 19 1022 52 10000 2 100 21:56 29.08.2019
2800 Clear 19 1022 52 10000 2 100 21:38 29.08.2019
2801 Clear 19 1022 48 10000 3 90 21:20 29.08.2019
2802 Clear 20 1022 48 10000 3 90 20:43 29.08.2019
2803 Clear 20 1022 48 10000 3 90 20:21 29.08.2019
2804 Clear 21 1022 45 10000 3 90 19:59 29.08.2019
2805 Clear 21 1022 55 10000 2 110 19:40 29.08.2019
2806 Clear 21 1022 55 10000 2 110 19:21 29.08.2019
2807 Clear 24 1022 36 10000 2 130 18:44 29.08.2019
2808 Clear 25 1022 33 10000 3 110 18:21 29.08.2019
2809 Clear 25 1022 33 10000 3 110 18:21 29.08.2019
2810 Clear 26 1022 33 10000 3 110 17:57 29.08.2019
2811 Clear 26 1022 31 10000 3 100 17:39 29.08.2019
2812 Clear 27 1022 31 10000 3 100 17:19 29.08.2019
2813 Clear 26 1022 31 10000 3 100 17:19 29.08.2019
2814 Clear 27 1022 31 10000 3 100 16:57 29.08.2019
2815 Clear 27 1023 31 10000 1 0 16:39 29.08.2019
2816 Clear 27 1023 31 10000 1 0 16:21 29.08.2019
2817 Clear 27 1023 34 10000 2 120 15:39 29.08.2019
2818 Clear 26 1023 31 10000 2 100 15:21 29.08.2019
2819 Clear 27 1023 32 10000 4 70 14:50 29.08.2019
2820 Clear 27 1023 31 10000 4 100 14:26 29.08.2019
2821 Clear 26 1024 34 10000 3 120 13:59 29.08.2019
2822 Clear 26 1024 34 10000 3 120 13:41 29.08.2019
2823 Clear 27 1024 33 10000 4 120 13:21 29.08.2019
2824 Clear 27 1024 33 10000 4 120 12:59 29.08.2019
2825 Clear 26 1024 29 10000 5 70 12:41 29.08.2019
2826 Clear 26 1024 36 10000 3 130 12:22 29.08.2019
2827 Clear 25 1024 36 10000 3 130 11:59 29.08.2019
2828 Clear 24 1024 38 10000 4 120 11:40 29.08.2019
2829 Clear 25 1024 38 10000 4 100 11:20 29.08.2019
2830 Clear 24 1024 38 10000 4 100 11:20 29.08.2019
2831 Clear 23 1024 43 10000 4 110 10:45 29.08.2019
2832 Clear 22 1024 49 10000 4 90 10:25 29.08.2019
2833 Clear 21 1024 52 10000 4 100 09:57 29.08.2019
2834 Clear 21 1024 52 10000 4 100 09:39 29.08.2019
2835 Clear 20 1025 52 10000 3 110 09:18 29.08.2019
2836 Clear 19 1025 55 10000 3 100 08:41 29.08.2019
2837 Clear 19 1024 55 10000 3 110 08:23 29.08.2019
2838 Clear 18 1024 55 10000 3 100 07:53 29.08.2019
2839 Clear 17 1024 55 10000 3 100 07:30 29.08.2019
2840 Clear 16 1024 59 10000 4 90 06:56 29.08.2019
2841 Clear 16 1024 59 10000 4 90 06:37 29.08.2019
2842 Clear 14 1024 62 10000 3 100 05:51 29.08.2019
2843 Clear 15 1024 59 10000 3 100 04:52 29.08.2019
2844 Clear 15 1024 59 10000 3 100 04:30 29.08.2019
2845 Clear 15 1024 55 10000 3 100 03:54 29.08.2019
2846 Clear 19 1024 52 10000 3 110 01:54 29.08.2019
2847 Clear 18 1024 52 10000 3 110 01:35 29.08.2019
2848 Clear 18 1024 63 10000 3 80 00:47 29.08.2019
2849 Clear 18 1024 63 10000 2 100 00:21 29.08.2019
2850 Clear 18 1024 63 10000 2 80 23:57 28.08.2019
2851 Clear 18 1024 63 10000 2 80 23:38 28.08.2019
2852 Clear 19 1023 63 10000 2 80 23:19 28.08.2019
2853 Clear 19 1023 63 10000 2 80 22:39 28.08.2019
2854 Clear 19 1023 72 10000 2 90 22:19 28.08.2019
2855 Clear 20 1023 72 10000 2 90 21:59 28.08.2019
2856 Clear 20 1023 60 10000 1 80 21:41 28.08.2019
2857 Clear 21 1023 60 10000 1 80 21:21 28.08.2019
2858 Clear 22 1023 56 10000 2 90 20:56 28.08.2019
2859 Clear 21 1023 56 10000 2 90 20:37 28.08.2019
2860 Clear 21 1023 56 10000 2 90 20:37 28.08.2019
2861 Clear 22 1023 56 10000 3 90 20:19 28.08.2019
2862 Clear 23 1023 49 10000 3 40 19:40 28.08.2019
2863 Clear 24 1023 49 10000 2 50 19:21 28.08.2019
2864 Clear 24 1022 47 10000 3 40 18:56 28.08.2019
2865 Clear 24 1022 47 10000 3 40 18:37 28.08.2019
2866 Clear 26 1022 44 10000 4 30 18:18 28.08.2019
2867 Clear 26 1022 44 10000 4 40 17:37 28.08.2019
2868 Clear 26 1022 44 10000 4 40 17:37 28.08.2019
2869 Clear 27 1023 44 10000 4 40 17:19 28.08.2019
2870 Clear 27 1023 44 10000 4 50 16:43 28.08.2019
2871 Clear 27 1023 44 10000 4 50 16:21 28.08.2019
2872 Clear 27 1023 44 10000 4 50 15:59 28.08.2019
2873 Clear 27 1023 42 10000 3 50 15:37 28.08.2019
2874 Clear 27 1023 44 10000 4 60 15:19 28.08.2019
2875 Clear 27 1023 44 10000 4 60 14:56 28.08.2019
2876 Clear 27 1023 44 10000 3 20 14:38 28.08.2019
2877 Clear 27 1023 44 10000 4 60 14:19 28.08.2019
2878 Clear 27 1023 44 10000 4 60 13:57 28.08.2019
2879 Clear 27 1024 44 10000 4 10 13:37 28.08.2019
2880 Clear 26 1024 47 10000 4 30 13:18 28.08.2019
2881 Clear 26 1024 44 10000 4 40 12:41 28.08.2019
2882 Clear 27 1024 44 10000 4 30 12:23 28.08.2019
2883 Clear 27 1024 44 10000 4 30 12:23 28.08.2019
2884 Clear 26 1024 47 10000 4 360 11:54 28.08.2019
2885 Clear 27 1024 47 10000 4 360 11:36 28.08.2019
2886 Clear 26 1024 47 10000 4 50 11:18 28.08.2019
2887 Clear 25 1025 50 10000 3 10 10:41 28.08.2019
2888 Clear 24 1025 50 10000 3 10 10:21 28.08.2019
2889 Clear 24 1025 50 10000 3 10 09:58 28.08.2019
2890 Clear 24 1025 53 10000 2 30 09:40 28.08.2019
2891 Clear 23 1025 56 10000 2 30 09:18 28.08.2019
2892 Clear 21 1025 60 10000 2 70 08:39 28.08.2019
2893 Clear 21 1025 64 10000 2 30 08:20 28.08.2019
2894 Clear 20 1024 68 10000 2 30 07:41 28.08.2019
2895 Clear 19 1024 77 10000 2.6 27.503 07:22 28.08.2019
2896 Clear 16 1024 82 10000 2.6 27.503 06:51 28.08.2019
2897 Clear 15 1024 82 10000 2.6 27.503 06:32 28.08.2019
2898 Clear 14 1024 93 10000 2 50 05:42 28.08.2019
2899 Clear 16 1024 87 10000 1 0 02:48 28.08.2019
2900 Clear 16 1024 87 10000 2.05 31.545 01:32 28.08.2019
2901 Clear 16 1024 82 10000 1 260 00:55 28.08.2019
2902 Clear 16 1024 82 10000 1 260 00:37 28.08.2019
2903 Clear 17 1024 72 10000 1 0 23:58 27.08.2019
2904 Clear 17 1024 72 10000 1 0 23:39 27.08.2019
2905 Clear 17 1024 64 10000 3 10 23:20 27.08.2019
2906 Clear 18 1024 60 10000 2 20 22:42 27.08.2019
2907 Clear 19 1023 56 10000 2 20 22:23 27.08.2019
2908 Clear 19 1023 56 10000 2 20 21:57 27.08.2019
2909 Clear 20 1023 53 10000 3 30 21:39 27.08.2019
2910 Clear 22 1023 49 10000 3 30 21:20 27.08.2019
2911 Clear 22 1023 49 10000 3 20 20:59 27.08.2019
2912 Clear 22 1023 49 10000 3 20 20:40 27.08.2019
2913 Clear 22 1023 49 10000 3 20 20:19 27.08.2019
2914 Clear 24 1023 44 10000 2 30 19:46 27.08.2019
2915 Clear 25 1022 46 10000 2 30 19:28 27.08.2019
2916 Clear 26 1023 41 10000 4 20 18:59 27.08.2019
2917 Clear 26 1023 41 10000 4 20 18:41 27.08.2019
2918 Clear 27 1022 36 10000 3 30 18:18 27.08.2019
2919 Clear 27 1023 36 10000 4 360 17:56 27.08.2019
2920 Clear 27 1023 36 10000 4 360 17:56 27.08.2019
2921 Clear 27 1023 36 10000 4 360 17:37 27.08.2019
2922 Clear 28 1023 28 10000 5 10 17:18 27.08.2019
2923 Clear 28 1023 34 10000 5 30 16:43 27.08.2019
2924 Clear 28 1023 34 10000 5 30 16:43 27.08.2019
2925 Clear 28 1023 32 10000 5 20 16:24 27.08.2019
2926 Clear 28 1024 34 10000 4 30 15:57 27.08.2019
2927 Clear 28 1024 34 10000 4 30 15:57 27.08.2019
2928 Clear 28 1024 34 10000 4 30 15:38 27.08.2019
2929 Clear 28 1024 37 10000 6 10 15:19 27.08.2019
2930 Clear 28 1024 37 10000 6 10 15:19 27.08.2019
2931 Clear 28 1024 34 10000 4 360 14:43 27.08.2019
2932 Clear 29 1024 37 10000 3 340 14:24 27.08.2019
2933 Clear 29 1024 37 10000 3 340 14:24 27.08.2019
2934 Clear 27 1024 39 10000 3 20 13:56 27.08.2019
2935 Clear 27 1024 39 10000 3 20 13:36 27.08.2019
2936 Clear 28 1025 39 10000 4 350 13:18 27.08.2019
2937 Clear 27 1025 39 10000 4 10 12:41 27.08.2019
2938 Clear 27 1025 39 10000 4 30 12:20 27.08.2019
2939 Clear 26 1025 41 10000 3 20 11:47 27.08.2019
2940 Clear 26 1025 44 10000 5 30 11:28 27.08.2019
2941 Clear 26 1025 41 10000 3 10 10:56 27.08.2019
2942 Clear 26 1025 41 10000 3 10 10:38 27.08.2019
2943 Clear 25 1025 41 10000 3 20 10:18 27.08.2019
2944 Clear 25 1025 44 10000 3 360 09:54 27.08.2019
2945 Clear 25 1025 44 10000 3 360 09:36 27.08.2019
2946 Clear 24 1025 47 10000 2 350 09:18 27.08.2019
2947 Clear 22 1025 53 10000 1.78 17.394 08:41 27.08.2019
2948 Clear 21 1025 56 10000 1 0 08:23 27.08.2019
2949 Clear 19 1025 77 10000 1 260 07:41 27.08.2019
2950 Clear 16 1025 82 10000 1 270 07:20 27.08.2019
2951 Clear 13 1025 93 10000 1 260 06:54 27.08.2019
2952 Clear 12 1025 93 10000 1.09 44.22 06:28 27.08.2019
2953 Clear 12 1024 93 10000 1.09 44.22 05:47 27.08.2019
2954 Clear 13 1025 93 10000 1.09 44.22 04:54 27.08.2019
2955 Clear 14 1024 87 10000 1.09 44.22 03:39 27.08.2019
2956 Clear 14 1025 82 10000 1.67 100.24 02:23 27.08.2019
2957 Clear 15 1025 82 10000 1 80 01:44 27.08.2019
2958 Clear 15 1025 77 10000 1 80 01:23 27.08.2019
2959 Clear 15 1025 77 10000 1 80 01:23 27.08.2019
2960 Clear 16 1025 77 10000 1.55 104.967 00:44 27.08.2019
2961 Clear 16 1025 77 10000 2.78 94.484 00:24 27.08.2019
2962 Clear 17 1025 72 10000 2 90 23:39 26.08.2019
2963 Clear 19 1025 68 10000 2 90 23:21 26.08.2019
2964 Clear 19 1025 68 10000 2 80 22:41 26.08.2019
2965 Clear 19 1025 68 10000 2 80 22:21 26.08.2019
2966 Clear 20 1025 64 10000 3 90 21:59 26.08.2019
2967 Clear 20 1025 64 10000 2 80 21:38 26.08.2019
2968 Clear 21 1025 68 10000 2 100 21:20 26.08.2019
2969 Clear 21 1025 68 10000 2 100 20:56 26.08.2019
2970 Clear 22 1025 60 10000 2 70 20:38 26.08.2019
2971 Clear 22 1025 60 10000 2 70 20:19 26.08.2019
2972 Clear 24 1025 47 10000 3 40 19:43 26.08.2019
2973 Clear 25 1024 47 10000 3 50 19:20 26.08.2019
2974 Clear 25 1024 47 10000 3 50 18:58 26.08.2019
2975 Clear 25 1024 44 10000 3 60 18:38 26.08.2019
2976 Clear 27 1024 42 10000 3 50 18:19 26.08.2019
2977 Clear 27 1025 42 10000 3 60 17:44 26.08.2019
2978 Clear 28 1025 37 10000 2 20 17:20 26.08.2019
2979 Clear 28 1025 37 10000 2 20 16:58 26.08.2019
2980 Clear 28 1025 37 10000 2 80 16:40 26.08.2019
2981 Clear 28 1025 37 10000 2 80 16:40 26.08.2019
2982 Clear 28 1025 39 10000 3 60 16:19 26.08.2019
2983 Clear 28 1025 39 10000 3 60 15:56 26.08.2019
2984 Clear 28 1026 37 10000 3 100 15:38 26.08.2019
2985 Clear 28 1026 39 10000 3 60 15:20 26.08.2019
2986 Clear 28 1026 39 10000 2 90 14:44 26.08.2019
2987 Clear 28 1026 39 10000 2 90 14:23 26.08.2019
2988 Clear 28 1026 42 10000 3 110 13:57 26.08.2019
2989 Clear 28 1027 39 10000 3 30 13:37 26.08.2019
2990 Clear 27 1027 42 10000 3 90 13:18 26.08.2019
2991 Clear 28 1027 41 10000 3 70 12:43 26.08.2019
2992 Clear 27 1027 41 10000 3 70 12:22 26.08.2019
2993 Clear 26 1027 41 10000 4 90 11:44 26.08.2019
2994 Clear 27 1027 41 10000 4 90 11:26 26.08.2019
2995 Clear 27 1027 44 10000 3 80 10:59 26.08.2019
2996 Clear 25 1027 44 10000 3 80 10:40 26.08.2019
2997 Clear 25 1027 44 10000 3 80 10:19 26.08.2019
2998 Clear 25 1027 47 10000 3 80 10:19 26.08.2019
2999 Clear 24 1027 50 10000 3 70 09:45 26.08.2019
3000 Clear 23 1027 50 10000 3 70 09:25 26.08.2019
3001 Clear 22 1027 53 10000 2 80 08:59 26.08.2019
3002 Clear 22 1027 53 10000 2 80 08:59 26.08.2019
3003 Clear 21 1027 60 10000 3 90 08:40 26.08.2019
3004 Clear 20 1027 64 10000 3 80 08:21 26.08.2019
3005 Clear 19 1027 68 10000 3 80 07:45 26.08.2019
3006 Clear 19 1027 68 10000 3 80 07:25 26.08.2019
3007 Clear 18 1027 77 10000 2 90 06:58 26.08.2019
3008 Clear 16 1027 82 10000 2 90 06:39 26.08.2019
3009 Clear 15 1026 82 10000 2 90 06:19 26.08.2019
3010 Clear 14 1026 87 10000 2 80 05:41 26.08.2019
3011 Clear 16 1026 72 10000 2 90 04:22 26.08.2019
3012 Clear 17 1026 72 10000 3 80 02:42 26.08.2019
3013 Clear 18 1026 68 10000 3 80 01:23 26.08.2019
3014 Clear 18 1027 72 10000 3 60 00:45 26.08.2019
3015 Clear 19 1027 72 10000 3 60 00:27 26.08.2019
3016 Clear 20 1026 64 10000 3 50 23:46 25.08.2019
3017 Clear 20 1026 64 10000 3 50 23:21 25.08.2019
3018 Clear 20 1026 63 10000 2 60 22:59 25.08.2019
3019 Clear 20 1026 60 10000 3 60 22:40 25.08.2019
3020 Clear 20 1026 60 10000 3 60 22:21 25.08.2019
3021 Clear 21 1026 56 10000 4 60 21:58 25.08.2019
3022 Clear 19 1026 72 10000 3.52 74.471 21:40 25.08.2019
3023 Clear 19 1026 72 9000 1 80 21:19 25.08.2019
3024 Clear 19 1026 72 9000 1 80 20:56 25.08.2019
3025 Clear 21 1026 56 10000 1 80 20:38 25.08.2019
3026 Clear 22 1026 56 10000 2 100 20:19 25.08.2019
3027 Clear 22 1025 49 10000 2 80 19:41 25.08.2019
3028 Clear 23 1025 49 10000 2 80 19:23 25.08.2019
3029 Clear 23 1025 49 10000 2 80 19:23 25.08.2019
3030 Clear 26 1025 38 10000 3 50 18:59 25.08.2019
3031 Clear 25 1025 38 10000 3 50 18:40 25.08.2019
3032 Clear 26 1025 36 10000 4 40 18:22 25.08.2019
3033 Clear 26 1025 36 10000 4 40 17:59 25.08.2019
3034 Clear 27 1025 34 10000 4 30 17:39 25.08.2019
3035 Clear 27 1025 34 10000 4 30 17:20 25.08.2019
3036 Clear 27 1025 34 10000 4 30 16:41 25.08.2019
3037 Clear 27 1025 34 10000 4 30 16:23 25.08.2019
3038 Clear 27 1025 36 10000 4 360 15:48 25.08.2019
3039 Clear 27 1025 36 10000 4 360 15:27 25.08.2019
3040 Clear 27 1025 36 10000 2 60 14:59 25.08.2019
3041 Clear 27 1025 34 10000 3 60 14:39 25.08.2019
3042 Clear 27 1025 34 10000 3 60 14:20 25.08.2019
3043 Clear 26 1026 36 10000 1 0 13:45 25.08.2019
3044 Clear 26 1026 36 10000 1 0 13:21 25.08.2019
3045 Clear 26 1026 41 10000 3 90 13:21 25.08.2019
3046 Clear 27 1026 41 10000 3 90 12:56 25.08.2019
3047 Clear 27 1026 39 10000 4 20 12:37 25.08.2019
3048 Clear 27 1026 39 10000 4 20 12:37 25.08.2019
3049 Clear 26 1026 39 10000 4 40 12:19 25.08.2019
3050 Clear 26 1026 39 10000 4 40 11:54 25.08.2019
3051 Clear 25 1026 41 10000 4 50 11:36 25.08.2019
3052 Clear 25 1026 47 10000 5 40 11:18 25.08.2019
3053 Clear 24 1026 49 10000 4 50 10:40 25.08.2019
3054 Clear 24 1026 49 10000 4 50 10:20 25.08.2019
3055 Clear 23 1026 46 10000 5 60 09:56 25.08.2019
3056 Clear 23 1026 46 10000 4 60 09:38 25.08.2019
3057 Clear 21 1026 49 10000 4 60 09:20 25.08.2019
3058 Clear 21 1026 49 10000 3 60 08:42 25.08.2019
3059 Clear 21 1026 49 10000 3 60 08:22 25.08.2019
3060 Clear 18 1026 59 10000 3 60 07:38 25.08.2019
3061 Clear 17 1026 63 10000 3 70 07:19 25.08.2019
3062 Clear 16 1026 77 10000 1 0 06:22 25.08.2019
3063 Clear 15 1025 67 10000 3 20 04:41 25.08.2019
3064 Clear 16 1025 67 10000 2 20 03:36 25.08.2019
3065 Clear 16 1025 59 10000 2 60 02:39 25.08.2019
3066 Clear 16 1025 59 10000 2 30 01:28 25.08.2019
3067 Clear 17 1025 59 10000 2 70 00:40 25.08.2019
3068 Clear 18 1025 59 10000 2 70 00:20 25.08.2019
3069 Clear 18 1025 55 10000 3 30 23:51 24.08.2019
3070 Clear 19 1025 52 10000 3 30 23:22 24.08.2019
3071 Clear 18 1025 52 10000 3 30 22:55 24.08.2019
3072 Clear 18 1025 52 10000 3 20 22:37 24.08.2019
3073 Clear 18 1025 52 10000 3 20 22:19 24.08.2019
3074 Clear 18 1025 55 10000 4 20 21:55 24.08.2019
3075 Clear 19 1025 49 10000 3 20 21:37 24.08.2019
3076 Clear 19 1025 49 10000 3 20 21:37 24.08.2019
3077 Clear 19 1025 49 10000 3 20 21:18 24.08.2019
3078 Clear 21 1025 46 10000 4 20 20:54 24.08.2019
3079 Clear 21 1025 46 10000 4 20 20:36 24.08.2019
3080 Clear 21 1025 46 10000 4 20 20:18 24.08.2019
3081 Clear 22 1025 46 10000 3 10 19:41 24.08.2019
3082 Clear 22 1025 46 10000 3 10 19:22 24.08.2019
3083 Clear 24 1025 44 10000 4 10 18:59 24.08.2019
3084 Clear 25 1025 41 10000 4 10 18:39 24.08.2019
3085 Clear 26 1024 41 10000 4 360 18:20 24.08.2019
3086 Clear 27 1024 41 10000 4 360 17:44 24.08.2019
3087 Clear 27 1024 41 10000 4 360 17:24 24.08.2019
3088 Clear 27 1025 39 10000 4 360 16:48 24.08.2019
3089 Clear 27 1025 42 10000 4 360 16:21 24.08.2019
3090 Clear 27 1025 42 10000 4 360 15:58 24.08.2019
3091 Clear 27 1025 42 10000 4 360 15:40 24.08.2019
3092 Clear 27 1025 42 10000 4 360 15:22 24.08.2019
3093 Clear 27 1025 44 10000 3 10 14:43 24.08.2019
3094 Clear 27 1025 44 10000 4 30 14:22 24.08.2019
3095 Clear 27 1025 44 10000 4 30 13:57 24.08.2019
3096 Clear 26 1025 44 10000 3 10 13:37 24.08.2019
3097 Clear 26 1025 47 10000 4 40 13:19 24.08.2019
3098 Clear 27 1026 47 10000 4 20 12:42 24.08.2019
3099 Clear 26 1026 47 10000 4 20 12:24 24.08.2019
3100 Clear 25 1026 50 10000 5 20 11:58 24.08.2019
3101 Clear 25 1026 50 10000 5 20 11:39 24.08.2019
3102 Clear 25 1026 47 10000 5 30 11:20 24.08.2019
3103 Clear 24 1026 49 10000 5 30 10:44 24.08.2019
3104 Clear 23 1026 49 10000 5 30 10:23 24.08.2019
3105 Clear 22 1026 53 10000 4 360 09:44 24.08.2019
3106 Clear 21 1026 56 10000 4 360 09:21 24.08.2019
3107 Clear 21 1026 56 10000 4 360 08:58 24.08.2019
3108 Clear 20 1026 60 10000 2 360 08:39 24.08.2019
3109 Clear 20 1026 60 10000 2 360 08:21 24.08.2019
3110 Clear 18 1026 68 10000 2 20 07:47 24.08.2019
3111 Clear 17 1026 68 10000 2 20 07:26 24.08.2019
3112 Clear 15 1026 72 10000 3 20 06:28 24.08.2019
3113 Clear 15 1026 77 10000 2 50 05:41 24.08.2019
3114 Clear 15 1026 72 10000 2 50 04:36 24.08.2019
3115 Clear 15 1026 72 10000 2 30 03:36 24.08.2019
3116 Clear 16 1026 67 10000 2 20 02:25 24.08.2019
3117 Clear 17 1026 67 10000 2 50 01:31 24.08.2019
3118 Clear 17 1026 72 10000 2 30 00:52 24.08.2019
3119 Clear 17 1026 68 10000 3 20 00:25 24.08.2019
3120 Clear 17 1026 72 10000 3 10 23:57 23.08.2019
3121 Clear 18 1026 72 10000 3 10 23:37 23.08.2019
3122 Clear 17 1026 72 10000 3 10 23:18 23.08.2019
3123 Clear 18 1026 68 10000 3 350 22:42 23.08.2019
3124 Clear 18 1026 68 10000 3 350 22:23 23.08.2019
3125 Clear 19 1026 63 10000 3 350 21:39 23.08.2019
3126 Clear 19 1026 63 10000 3 350 21:20 23.08.2019
3127 Clear 19 1026 63 10000 3 350 20:56 23.08.2019
3128 Clear 19 1026 63 10000 3 350 20:37 23.08.2019
3129 Clear 20 1026 64 10000 5 350 20:19 23.08.2019
3130 Clear 20 1026 64 10000 4 360 19:43 23.08.2019
3131 Clear 21 1026 60 10000 4 360 19:18 23.08.2019
3132 Clear 22 1026 56 10000 4 10 18:45 23.08.2019
3133 Clear 22 1026 56 10000 5 350 18:27 23.08.2019
3134 Clear 23 1026 56 10000 5 350 17:54 23.08.2019
3135 Clear 23 1026 53 10000 5 350 17:36 23.08.2019
3136 Clear 23 1026 53 10000 5 350 17:18 23.08.2019
3137 Clear 24 1026 53 10000 6 10 16:44 23.08.2019
3138 Clear 24 1026 53 10000 6 10 16:25 23.08.2019
3139 Clear 24 1026 53 10000 6 10 15:55 23.08.2019
3140 Thunderstorm 24 1026 43 10000 5 360 15:36 23.08.2019
3141 Clear 24 1026 56 10000 6 10 15:18 23.08.2019
3142 Clear 24 1026 53 10000 6 20 14:41 23.08.2019
3143 Clear 24 1026 53 10000 6 20 14:21 23.08.2019
3144 Clear 24 1026 57 10000 6 10 13:56 23.08.2019
3145 Clear 24 1026 56 10000 6 360 13:38 23.08.2019
3146 Clear 24 1026 60 10000 6 10 13:19 23.08.2019
3147 Clear 24 1026 60 10000 6 10 12:57 23.08.2019
3148 Clear 23 1026 60 10000 5 20 12:38 23.08.2019
3149 Clear 23 1026 60 10000 5 20 12:20 23.08.2019
3150 Clear 22 1026 60 10000 5 20 11:54 23.08.2019
3151 Clear 22 1026 64 10000 5 350 11:36 23.08.2019
3152 Clear 22 1026 64 10000 4 360 11:18 23.08.2019
3153 Clear 21 1027 68 10000 4 350 10:42 23.08.2019
3154 Clear 20 1027 68 10000 4 350 10:21 23.08.2019
3155 Clear 20 1026 72 10000 4 30 09:48 23.08.2019
3156 Clear 20 1026 72 10000 4 30 09:30 23.08.2019
3157 Clear 19 1026 72 10000 5 20 08:59 23.08.2019
3158 Clear 18 1026 77 10000 4 40 08:39 23.08.2019
3159 Clear 18 1026 77 10000 4 40 08:39 23.08.2019
3160 Clear 18 1026 77 10000 4 40 08:19 23.08.2019
3161 Clear 16 1026 77 10000 5 30 07:42 23.08.2019
3162 Clear 16 1026 77 10000 5 30 07:24 23.08.2019
3163 Clear 16 1026 82 10000 5 20 06:56 23.08.2019
3164 Clear 15 1026 77 10000 5 20 06:37 23.08.2019
3165 Clear 15 1026 77 10000 5 20 06:19 23.08.2019
3166 Clear 15 1026 82 10000 5 30 05:32 23.08.2019
3167 Clear 16 1026 82 10000 5 20 04:20 23.08.2019
3168 Clear 16 1026 77 10000 5 30 02:53 23.08.2019
3169 Clear 16 1026 77 10000 5 30 02:22 23.08.2019
3170 Clear 17 1026 72 10000 5 30 01:39 23.08.2019
3171 Clear 18 1026 68 10000 5 30 00:45 23.08.2019
3172 Clear 18 1026 68 10000 5 30 00:19 23.08.2019
3173 Clear 18 1026 68 10000 6 40 23:47 22.08.2019
3174 Clear 18 1026 68 10000 6 40 23:24 22.08.2019
3175 Clear 19 1026 68 10000 6 30 22:56 22.08.2019
3176 Clear 19 1025 68 10000 6 30 22:38 22.08.2019
3177 Clear 19 1025 68 10000 4 20 22:19 22.08.2019
3178 Clear 19 1026 68 10000 3 20 21:55 22.08.2019
3179 Clear 19 1026 68 10000 3 20 21:36 22.08.2019
3180 Clear 19 1025 68 10000 5 20 21:18 22.08.2019
3181 Clear 20 1025 68 10000 5 10 20:54 22.08.2019
3182 Clear 19 1025 68 10000 5 20 20:54 22.08.2019
3183 Clear 20 1025 68 10000 5 10 20:36 22.08.2019
3184 Clear 20 1025 72 10000 5 10 20:18 22.08.2019
3185 Clear 20 1025 72 10000 5 360 19:40 22.08.2019
3186 Clear 20 1025 72 10000 5 360 19:21 22.08.2019
3187 Clear 21 1025 68 10000 6 10 18:59 22.08.2019
3188 Clear 21 1025 64 10000 5 10 18:40 22.08.2019
3189 Clear 22 1024 64 10000 6 350 18:20 22.08.2019
3190 Clear 22 1024 64 10000 6 350 17:58 22.08.2019
3191 Clear 22 1024 64 10000 6 350 17:39 22.08.2019
3192 Clear 23 1024 64 10000 7 360 17:19 22.08.2019
3193 Clear 23 1024 64 10000 6 10 16:56 22.08.2019
3194 Clear 23 1024 64 10000 6 10 16:38 22.08.2019
3195 Clear 23 1024 64 10000 6 10 16:20 22.08.2019
3196 Clear 23 1024 60 10000 7 10 16:19 22.08.2019
3197 Clear 23 1024 60 10000 7 10 16:19 22.08.2019
3198 Clear 23 1024 60 10000 6 10 15:42 22.08.2019
3199 Clear 23 1024 60 10000 6 10 15:42 22.08.2019
3200 Clear 23 1024 60 10000 6 10 15:42 22.08.2019
3201 Clear 23 1024 60 10000 6 10 15:42 22.08.2019
3202 Clear 23 1024 60 10000 6 10 15:24 22.08.2019
3203 Clear 23 1024 60 10000 6 10 15:24 22.08.2019
3204 Clear 24 1024 64 10000 6 10 14:59 22.08.2019
3205 Clear 24 1024 68 10000 5 10 14:41 22.08.2019
3206 Clear 24 1024 68 10000 5 10 14:22 22.08.2019
3207 Clear 24 1024 68 10000 6 20 13:58 22.08.2019
3208 Clear 24 1024 64 10000 6 360 13:40 22.08.2019
3209 Clear 24 1024 68 10000 6 10 13:20 22.08.2019
3210 Clear 24 1024 68 10000 6 10 12:56 22.08.2019
3211 Clear 23 1024 64 10000 5 10 12:38 22.08.2019
3212 Clear 24 1024 68 10000 5 350 12:19 22.08.2019
3213 Clear 23 1024 64 10000 5 20 11:42 22.08.2019
3214 Clear 22 1024 68 10000 4 360 11:20 22.08.2019
3215 Clear 23 1024 68 10000 4 360 10:58 22.08.2019
3216 Clear 22 1024 68 10000 4 350 10:40 22.08.2019
3217 Clear 22 1024 73 10000 5 340 10:22 22.08.2019
3218 Clear 21 1024 73 10000 5 340 09:57 22.08.2019
3219 Clouds 20 1024 77 10000 5 350 09:39 22.08.2019
3220 Clouds 20 1024 77 10000 5 350 09:39 22.08.2019
3221 Clouds 20 1024 77 10000 5 350 09:20 22.08.2019
3222 Clouds 20 1023 77 10000 5 350 08:54 22.08.2019
3223 Clouds 19 1023 82 10000 5 350 08:36 22.08.2019
3224 Clouds 19 1023 88 10000 5 350 08:18 22.08.2019
3225 Clouds 19 1023 88 10000 5 350 07:39 22.08.2019
3226 Clouds 19 1022 93 10000 4 10 07:19 22.08.2019
3227 Clouds 18 1022 93 10000 5 360 06:47 22.08.2019
3228 Clouds 19 1022 93 10000 5 360 06:22 22.08.2019
3229 Clear 19 1022 88 10000 3 350 05:30 22.08.2019
3230 Clear 18 1021 77 10000 3 290 04:19 22.08.2019
3231 Clear 17 1021 93 10000 2 240 02:37 22.08.2019
3232 Clear 18 1021 82 10000 0.38 63.98 01:40 22.08.2019
3233 Clear 18 1021 93 9000 1 250 01:20 22.08.2019
3234 Clear 18 1021 88 9000 0.38 63.98 00:41 22.08.2019
3235 Clear 19 1021 88 10000 1.33 66.818 00:22 22.08.2019
3236 Clear 19 1021 77 10000 1.33 66.818 23:44 21.08.2019
3237 Clear 20 1021 77 10000 1.33 66.818 23:25 21.08.2019
3238 Smoke 20 1021 77 10000 1.33 66.818 22:59 21.08.2019
3239 Smoke 20 1021 72 8000 1.33 66.818 22:40 21.08.2019
3240 Smoke 20 1021 72 8000 1.33 66.818 22:21 21.08.2019
3241 Smoke 21 1021 72 9000 1.33 66.818 21:56 21.08.2019
3242 Clear 21 1021 77 10000 1 80 21:38 21.08.2019
3243 Clear 24 1021 60 10000 2 90 21:19 21.08.2019
3244 Clear 24 1021 60 10000 2 90 20:56 21.08.2019
3245 Clear 24 1021 60 10000 2 90 20:56 21.08.2019
3246 Clear 24 1021 60 10000 1 100 20:38 21.08.2019
3247 Clear 26 1020 57 10000 2 90 20:20 21.08.2019
3248 Clear 26 1020 50 10000 2 100 19:44 21.08.2019
3249 Clear 26 1020 50 10000 2 100 19:44 21.08.2019
3250 Clear 27 1020 50 10000 2 100 19:25 21.08.2019
3251 Clear 28 1020 45 10000 2 100 18:58 21.08.2019
3252 Clear 29 1020 39 10000 2 100 18:39 21.08.2019
3253 Clear 31 1020 37 10000 1.91 84.914 18:20 21.08.2019
3254 Clear 31 1020 33 10000 1 0 17:45 21.08.2019
3255 Clear 31 1020 33 10000 1 0 17:23 21.08.2019
3256 Clear 32 1020 33 10000 2 120 16:58 21.08.2019
3257 Clear 32 1020 33 10000 3 90 16:40 21.08.2019
3258 Clear 32 1020 29 10000 3 60 16:20 21.08.2019
3259 Clear 32 1020 29 10000 3 60 15:58 21.08.2019
3260 Clear 32 1021 29 10000 3 120 15:38 21.08.2019
3261 Clear 32 1021 29 10000 3 120 15:20 21.08.2019
3262 Clear 32 1021 31 10000 3 120 14:56 21.08.2019
3263 Clear 31 1021 29 10000 2 130 14:38 21.08.2019
3264 Clear 32 1021 29 10000 2 140 14:19 21.08.2019
3265 Clear 31 1022 30 10000 3 140 13:43 21.08.2019
3266 Clear 31 1022 30 10000 3 140 13:21 21.08.2019
3267 Clear 31 1022 30 10000 2 120 12:58 21.08.2019
3268 Clear 31 1022 33 10000 4 110 12:40 21.08.2019
3269 Clear 31 1022 33 10000 4 110 12:20 21.08.2019
3270 Clear 31 1022 32 10000 3 130 11:56 21.08.2019
3271 Clear 30 1023 37 10000 3 90 11:37 21.08.2019
3272 Clear 30 1023 37 10000 3 90 11:18 21.08.2019
3273 Clear 30 1023 37 10000 3 90 11:18 21.08.2019
3274 Clear 30 1023 37 10000 3 90 10:55 21.08.2019
3275 Clear 29 1023 42 10000 1 0 10:37 21.08.2019
3276 Clear 28 1023 42 10000 2 150 10:19 21.08.2019
3277 Clear 28 1023 44 10000 1 0 09:41 21.08.2019
3278 Clear 27 1023 44 10000 1 0 09:23 21.08.2019
3279 Clear 27 1024 44 10000 2 150 08:56 21.08.2019
3280 Clear 26 1024 47 10000 2 170 08:37 21.08.2019
3281 Clear 25 1023 50 10000 1 0 08:19 21.08.2019
3282 Clear 23 1023 60 10000 2 90 07:39 21.08.2019
3283 Clear 22 1023 60 10000 2 90 07:20 21.08.2019
3284 Clear 17 1023 88 10000 1 60 06:46 21.08.2019
3285 Clear 16 1023 82 10000 2 80 06:20 21.08.2019
3286 Clear 16 1023 93 10000 1 70 05:31 21.08.2019
3287 Clear 15 1023 87 10000 1.87 119.954 04:59 21.08.2019
3288 Clear 17 1023 87 10000 1.05 144.696 02:55 21.08.2019
3289 Clear 19 1023 72 10000 1.05 144.696 01:42 21.08.2019
3290 Clear 19 1023 77 10000 1.14 141.606 00:43 21.08.2019
3291 Clear 19 1023 77 10000 1.62 121.649 00:22 21.08.2019
3292 Clear 20 1023 68 10000 1.62 121.649 23:55 20.08.2019
3293 Clear 20 1023 72 10000 1.62 121.649 23:36 20.08.2019
3294 Clear 21 1023 72 10000 1 110 23:18 20.08.2019
3295 Clear 20 1023 72 10000 1 110 22:54 20.08.2019
3296 Clear 22 1023 64 10000 2 90 22:36 20.08.2019
3297 Clear 23 1023 64 10000 2 80 22:18 20.08.2019
3298 Clear 23 1023 64 10000 2 80 21:56 20.08.2019
3299 Clear 23 1023 64 10000 1 50 21:37 20.08.2019
3300 Clear 23 1023 64 10000 1 50 21:18 20.08.2019
3301 Clear 24 1022 60 10000 1 110 20:42 20.08.2019
3302 Clear 26 1022 47 10000 2 120 20:23 20.08.2019
3303 Clouds 26 1022 44 10000 1 130 19:41 20.08.2019
3304 Clouds 26 1022 44 10000 1 130 19:22 20.08.2019
3305 Clear 28 1022 39 10000 2 140 18:59 20.08.2019
3306 Clear 30 1022 33 10000 1 0 18:40 20.08.2019
3307 Clear 30 1022 33 10000 1 0 18:20 20.08.2019
3308 Clear 31 1022 33 10000 1 0 17:58 20.08.2019
3309 Clear 31 1022 33 10000 1 0 17:39 20.08.2019
3310 Clear 31 1022 35 10000 2 160 17:20 20.08.2019
3311 Clear 31 1022 33 10000 1 0 16:46 20.08.2019
3312 Clear 31 1022 33 10000 1 0 16:27 20.08.2019
3313 Clear 32 1022 31 10000 3 170 15:58 20.08.2019
3314 Clear 31 1022 35 10000 2 130 15:40 20.08.2019
3315 Clear 31 1022 33 10000 3 120 15:18 20.08.2019
3316 Clear 31 1022 33 10000 2 110 14:44 20.08.2019
3317 Clear 31 1022 33 10000 2 110 14:44 20.08.2019
3318 Clear 31 1022 33 10000 2 110 14:22 20.08.2019
3319 Clear 31 1022 35 10000 2 220 13:58 20.08.2019
3320 Clear 31 1022 35 10000 2 30 13:39 20.08.2019
3321 Clear 30 1022 33 10000 2 200 13:21 20.08.2019
3322 Clear 31 1022 33 10000 2 200 12:54 20.08.2019
3323 Clear 30 1022 39 10000 2 130 12:36 20.08.2019
3324 Clear 31 1022 37 10000 2 180 12:18 20.08.2019
3325 Clear 30 1022 35 10000 1 0 11:42 20.08.2019
3326 Clear 29 1022 39 10000 1 0 11:21 20.08.2019
3327 Clear 29 1022 39 10000 1 0 10:57 20.08.2019
3328 Clear 28 1022 39 10000 1 0 10:39 20.08.2019
3329 Clear 28 1022 39 10000 1 0 10:39 20.08.2019
3330 Clear 28 1022 39 10000 1 0 10:39 20.08.2019
3331 Clear 27 1022 42 10000 2 260 10:20 20.08.2019
3332 Clear 27 1022 42 10000 2 260 09:56 20.08.2019
3333 Clear 26 1022 47 10000 2 270 09:38 20.08.2019
3334 Clear 26 1022 47 10000 2 270 09:38 20.08.2019
3335 Clear 25 1022 50 10000 2 270 09:20 20.08.2019
3336 Clear 23 1022 53 10000 2 230 08:41 20.08.2019
3337 Clear 24 1022 53 10000 2 230 08:23 20.08.2019
3338 Clear 22 1022 56 10000 2 230 07:57 20.08.2019
3339 Clear 21 1022 60 10000 1 0 07:38 20.08.2019
3340 Clear 20 1022 77 10000 2 260 07:20 20.08.2019
3341 Clear 17 1022 87 10000 2 250 06:43 20.08.2019
3342 Clear 16 1021 77 10000 1 0 06:19 20.08.2019
3343 Clear 16 1021 82 10000 1 0 05:41 20.08.2019
3344 Clear 16 1021 77 10000 2 230 04:23 20.08.2019
3345 Clear 18 1020 72 10000 1 0 02:48 20.08.2019
3346 Clear 18 1020 77 10000 1.81 172.879 01:50 20.08.2019
3347 Clear 18 1020 77 10000 1.72 165.413 01:20 20.08.2019
3348 Clear 18 1020 77 10000 1.72 165.413 00:43 20.08.2019
3349 Clear 19 1020 77 10000 2.12 148.307 00:21 20.08.2019
3350 Clear 18 1020 82 10000 2.12 148.307 23:42 19.08.2019
3351 Clear 20 1020 63 10000 1 70 23:19 19.08.2019
3352 Clear 20 1020 63 10000 1 70 22:58 19.08.2019
3353 Clear 20 1020 63 10000 2 60 22:39 19.08.2019
3354 Clear 20 1020 63 10000 1 0 22:19 19.08.2019
3355 Clear 22 1020 49 10000 1 150 21:56 19.08.2019
3356 Clear 22 1020 56 10000 2 120 21:38 19.08.2019
3357 Clear 22 1020 68 10000 0.55 145.47 21:19 19.08.2019
3358 Clear 23 1020 56 10000 1 140 20:40 19.08.2019
3359 Clear 23 1019 53 10000 1 140 20:21 19.08.2019
3360 Clear 23 1019 53 10000 1 140 19:59 19.08.2019
3361 Clear 25 1019 47 10000 2 130 19:41 19.08.2019
3362 Clear 25 1019 47 10000 2 130 19:19 19.08.2019
3363 Clear 28 1019 39 10000 2 140 18:59 19.08.2019
3364 Clear 27 1019 39 10000 2 140 18:39 19.08.2019
3365 Clear 28 1019 39 10000 3 130 18:21 19.08.2019
3366 Clear 29 1019 39 10000 2 130 17:55 19.08.2019
3367 Clear 29 1019 39 10000 2 130 17:36 19.08.2019
3368 Clear 29 1019 39 10000 2 130 17:18 19.08.2019
3369 Clear 29 1019 28 10000 2 140 16:38 19.08.2019
3370 Clear 29 1019 35 10000 1 0 16:20 19.08.2019
3371 Clear 29 1019 35 10000 1 0 15:56 19.08.2019
3372 Clear 29 1019 37 10000 2 290 15:38 19.08.2019
3373 Clear 29 1019 37 10000 2 290 15:19 19.08.2019
3374 Clear 28 1019 37 10000 2 20 14:43 19.08.2019
3375 Clear 28 1019 37 10000 2 20 14:23 19.08.2019
3376 Clear 29 1019 39 10000 2 310 13:58 19.08.2019
3377 Clear 29 1019 37 10000 2 40 13:38 19.08.2019
3378 Clear 28 1019 39 10000 2 260 13:20 19.08.2019
3379 Clear 28 1019 39 10000 2 260 12:58 19.08.2019
3380 Clear 28 1019 36 10000 2 170 12:39 19.08.2019
3381 Clear 28 1019 39 10000 2 200 12:19 19.08.2019
3382 Clear 27 1019 42 10000 1 0 11:40 19.08.2019
3383 Clear 27 1019 42 10000 1 0 11:21 19.08.2019
3384 Clear 27 1019 41 10000 2 210 10:58 19.08.2019
3385 Clear 26 1019 41 10000 2 150 10:37 19.08.2019
3386 Clear 25 1019 44 10000 1 0 10:18 19.08.2019
3387 Clear 24 1019 47 10000 2 260 09:45 19.08.2019
3388 Clear 24 1019 47 10000 2 260 09:24 19.08.2019
3389 Clear 24 1019 47 10000 2 260 09:24 19.08.2019
3390 Clear 23 1019 53 10000 2 280 08:59 19.08.2019
3391 Clear 21 1019 56 10000 1 0 08:41 19.08.2019
3392 Clear 21 1019 56 10000 1 0 08:41 19.08.2019
3393 Clear 20 1019 64 10000 1.45 225.056 08:20 19.08.2019
3394 Clear 20 1019 64 10000 1.45 225.056 07:49 19.08.2019
3395 Clear 18 1019 72 10000 1 270 07:31 19.08.2019
3396 Clear 16 1019 77 10000 1 260 06:52 19.08.2019
3397 Clear 13 1018 93 10000 1 220 06:33 19.08.2019
3398 Clear 13 1018 93 10000 1.83 245.904 05:21 19.08.2019
3399 Clear 13 1017 93 10000 1.83 245.904 04:32 19.08.2019
3400 Clear 12 1017 93 10000 1.42 246.304 03:24 19.08.2019
3401 Clear 13 1017 93 10000 1.42 246.304 02:29 19.08.2019
3402 Clear 12 1017 87 10000 1.42 246.304 01:35 19.08.2019
3403 Clear 13 1016 93 10000 1.39 260.905 00:44 19.08.2019
3404 Clear 13 1016 93 10000 1.79 285.463 00:23 19.08.2019
3405 Clear 14 1016 87 10000 1.79 285.463 23:43 18.08.2019
3406 Clear 14 1016 93 10000 1.79 285.463 23:22 18.08.2019
3407 Clear 14 1016 93 10000 1.79 285.463 22:57 18.08.2019
3408 Clear 15 1016 82 10000 1.79 285.463 22:38 18.08.2019
3409 Smoke 15 1016 87 10000 1.79 285.463 22:20 18.08.2019
3410 Smoke 15 1016 87 10000 1.79 285.463 21:56 18.08.2019
3411 Clear 16 1016 82 10000 1.79 285.463 21:37 18.08.2019
3412 Clear 17 1016 77 10000 1.11 350.064 21:19 18.08.2019
3413 Clear 19 1015 72 10000 1 110 20:44 18.08.2019
3414 -273 0 0 0 0 0 20:25 18.08.2019
3415 Clear 20 1015 59 10000 1 70 19:56 18.08.2019
3416 Clear 22 1015 52 10000 2 60 19:37 18.08.2019
3417 Clear 22 1015 52 10000 2 60 19:19 18.08.2019
3418 Clear 25 1015 41 10000 2 90 18:41 18.08.2019
3419 Clear 25 1015 41 10000 2 90 18:23 18.08.2019
3420 Clear 25 1014 38 10000 4 20 17:59 18.08.2019
3421 Clear 26 1014 38 10000 5 310 17:41 18.08.2019
3422 Clear 26 1014 36 10000 5 310 17:19 18.08.2019
3423 Clear 26 1014 36 10000 5 310 16:57 18.08.2019
3424 Clear 26 1014 36 10000 4 330 16:38 18.08.2019
3425 Clear 26 1014 36 10000 5 340 16:20 18.08.2019
3426 Clear 26 1014 36 10000 4 330 16:20 18.08.2019
3427 Clear 26 1014 36 10000 5 340 15:56 18.08.2019
3428 Clear 26 1014 36 10000 5 340 15:56 18.08.2019
3429 Clear 26 1014 36 10000 5 300 15:38 18.08.2019
3430 Clear 25 1014 36 10000 5 320 15:20 18.08.2019
3431 Clear 25 1014 38 10000 4 300 14:40 18.08.2019
3432 Clear 25 1014 38 10000 4 300 14:21 18.08.2019
3433 Clear 26 1014 36 10000 5 350 13:59 18.08.2019
3434 Clear 24 1014 41 10000 5 330 13:41 18.08.2019
3435 Clear 24 1014 41 10000 5 310 13:22 18.08.2019
3436 Clear 24 1014 41 10000 5 310 12:58 18.08.2019
3437 Clear 24 1014 43 10000 6 310 12:39 18.08.2019
3438 Clear 24 1014 43 10000 6 310 12:20 18.08.2019
3439 Clear 23 1014 46 10000 6 330 11:43 18.08.2019
3440 Clear 23 1014 46 10000 6 330 11:43 18.08.2019
3441 Clear 23 1014 46 10000 6 330 11:23 18.08.2019
3442 Clear 22 1014 49 10000 5 330 10:57 18.08.2019
3443 Clear 22 1014 40 10000 6 340 10:39 18.08.2019
3444 Clear 21 1014 52 10000 5 320 10:19 18.08.2019
3445 Clear 20 1014 59 10000 4 320 09:43 18.08.2019
3446 Clear 19 1014 63 10000 4 320 09:20 18.08.2019
3447 Clear 18 1014 72 10000 3 290 08:44 18.08.2019
3448 Clear 18 1014 72 10000 3 290 08:44 18.08.2019
3449 Clear 18 1014 72 10000 3 290 08:25 18.08.2019
3450 Clear 18 1014 72 10000 3 290 08:25 18.08.2019
3451 Clear 17 1014 82 10000 3 300 07:57 18.08.2019
3452 Clear 15 1014 87 10000 3 260 07:30 18.08.2019
3453 Clear 13 1014 93 10000 2 260 06:47 18.08.2019
3454 Clear 12 1013 100 10000 3 260 05:43 18.08.2019
3455 Clear 12 1013 93 10000 3 270 04:18 18.08.2019
3456 Clear 12 1013 93 10000 3 270 02:59 18.08.2019
3457 Clear 12 1013 93 10000 2 260 02:41 18.08.2019
3458 Clear 12 1013 100 10000 2 270 01:57 18.08.2019
3459 Clear 13 1013 93 10000 3 270 01:26 18.08.2019
3460 Clear 14 1013 87 10000 3 270 00:42 18.08.2019
3461 Clear 14 1013 87 10000 3 270 00:22 18.08.2019
3462 Clouds 14 1013 87 10000 3 280 23:58 17.08.2019
3463 Clouds 15 1013 87 10000 3 270 23:38 17.08.2019
3464 Clouds 15 1013 87 10000 2 260 23:19 17.08.2019
3465 Clouds 15 1013 87 10000 2 260 22:57 17.08.2019
3466 Clouds 15 1013 82 10000 3.79 329.964 22:39 17.08.2019
3467 Clouds 16 1013 72 10000 2 320 22:20 17.08.2019
3468 Clouds 16 1013 72 10000 2 320 22:20 17.08.2019
3469 Clouds 16 1013 72 10000 2 320 21:54 17.08.2019
3470 Rain 16 1013 72 10000 2 350 21:36 17.08.2019
3471 Clouds 16 1013 72 10000 3 10 21:18 17.08.2019
3472 Clouds 16 1013 72 10000 4 350 20:38 17.08.2019
3473 Clouds 17 1013 72 10000 5 350 20:19 17.08.2019
3474 Clouds 17 1013 72 10000 5 350 19:43 17.08.2019
3475 Clouds 17 1013 72 10000 5 350 19:24 17.08.2019
3476 Clouds 17 1013 72 10000 5 350 18:59 17.08.2019
3477 Clouds 17 1013 72 10000 5 350 18:39 17.08.2019
3478 Clouds 17 1013 72 10000 5 350 18:18 17.08.2019
3479 Clouds 17 1013 72 10000 5 350 18:18 17.08.2019
3480 Clouds 17 1013 72 10000 5 350 18:18 17.08.2019
3481 Clouds 17 1013 72 10000 6 360 17:43 17.08.2019
3482 Clouds 17 1013 72 10000 6 360 17:22 17.08.2019
3483 Clouds 17 1013 72 10000 7 360 16:59 17.08.2019
3484 Clouds 18 1013 68 10000 6 10 16:40 17.08.2019
3485 Clouds 18 1013 68 10000 6 10 16:22 17.08.2019
3486 Clouds 18 1013 68 10000 4 350 15:54 17.08.2019
3487 Clouds 18 1013 72 10000 4 340 15:36 17.08.2019
3488 Clouds 18 1013 72 10000 4 340 15:36 17.08.2019
3489 Clouds 18 1013 72 10000 5 340 15:18 17.08.2019
3490 Clouds 17 1013 72 10000 6 340 14:40 17.08.2019
3491 Clouds 17 1013 72 10000 6 340 14:22 17.08.2019
3492 Rain 17 1013 82 10000 5 330 13:46 17.08.2019
3493 Rain 16 1013 82 10000 5 330 13:21 17.08.2019
3494 Clouds 16 1013 77 10000 5 330 12:46 17.08.2019
3495 Clouds 16 1013 77 10000 5 330 12:21 17.08.2019
3496 Clouds 16 1013 77 10000 6 330 11:59 17.08.2019
3497 Clouds 16 1013 77 10000 5 330 11:39 17.08.2019
3498 Clouds 16 1013 77 10000 5 330 11:20 17.08.2019
3499 Clouds 16 1012 77 10000 4 320 10:44 17.08.2019
3500 Clouds 16 1012 77 10000 4 320 10:25 17.08.2019
3501 Clouds 16 1012 77 10000 4 320 10:25 17.08.2019
3502 Clouds 16 1012 82 10000 5 330 09:59 17.08.2019
3503 Clouds 16 1012 82 10000 3 340 09:41 17.08.2019
3504 Clouds 16 1012 82 10000 3 340 09:41 17.08.2019
3505 Clouds 16 1012 82 10000 3 340 09:23 17.08.2019
3506 Clouds 16 1012 82 10000 4 340 08:52 17.08.2019
3507 Clouds 15 1012 82 10000 5 340 08:23 17.08.2019
3508 Clouds 15 1012 77 10000 5 320 07:44 17.08.2019
3509 Clouds 14 1012 82 10000 5 330 07:20 17.08.2019
3510 Clouds 14 1012 82 10000 5 330 07:20 17.08.2019
3511 Clouds 14 1012 82 10000 5 320 06:34 17.08.2019
3512 Clouds 15 1012 82 10000 4 330 04:48 17.08.2019
3513 Clouds 15 1012 82 10000 4 330 04:23 17.08.2019
3514 Clouds 15 1012 82 10000 4 340 02:49 17.08.2019
3515 Clouds 15 1013 82 10000 5 330 01:40 17.08.2019
3516 Clouds 15 1013 77 10000 5 320 01:21 17.08.2019
3517 Clouds 15 1013 82 10000 4 330 00:48 17.08.2019
3518 Clouds 15 1013 82 10000 4 330 00:25 17.08.2019
3519 Clouds 16 1013 77 10000 4 330 23:47 16.08.2019
3520 Clouds 16 1013 77 10000 5 320 23:25 16.08.2019
3521 Clouds 16 1013 77 10000 5 330 22:44 16.08.2019
3522 Clouds 16 1013 77 10000 5 330 22:20 16.08.2019
3523 Clouds 16 1013 77 10000 4 330 21:59 16.08.2019
3524 Clouds 16 1013 72 10000 4 340 21:39 16.08.2019
3525 Clouds 16 1013 72 10000 4 350 21:19 16.08.2019
3526 Clouds 17 1013 77 10000 3 330 20:43 16.08.2019
3527 Clouds 16 1013 82 10000 3 330 20:21 16.08.2019
3528 Clouds 16 1013 82 10000 3 330 19:59 16.08.2019
3529 Clouds 17 1013 77 10000 5 330 19:39 16.08.2019
3530 Clouds 16 1013 72 10000 5 340 19:20 16.08.2019
3531 Clouds 17 1013 72 10000 5 340 18:42 16.08.2019
3532 Clouds 17 1013 72 10000 5 340 18:23 16.08.2019
3533 Clouds 17 1013 77 10000 4 340 17:48 16.08.2019
3534 Clouds 17 1013 77 10000 4 340 17:28 16.08.2019
3535 Clouds 17 1013 82 10000 5 350 16:59 16.08.2019
3536 Rain 17 1013 87 4600 5 340 16:40 16.08.2019
3537 Rain 17 1013 87 10000 7 330 16:19 16.08.2019
3538 Rain 17 1013 87 10000 7 330 15:56 16.08.2019
3539 Rain 17 1012 82 10000 7 330 15:38 16.08.2019
3540 Clouds 17 1012 77 10000 6 330 15:19 16.08.2019
3541 Clouds 17 1012 77 10000 6 330 14:56 16.08.2019
3542 Clouds 17 1012 77 10000 6 330 14:37 16.08.2019
3543 Clouds 17 1012 77 10000 6 330 14:18 16.08.2019
3544 Clouds 17 1012 77 10000 5 330 13:40 16.08.2019
3545 Clouds 17 1012 77 10000 5 330 13:21 16.08.2019
3546 Clouds 17 1012 87 10000 5 330 12:41 16.08.2019
3547 Clouds 17 1012 87 10000 5 330 12:22 16.08.2019
3548 Clouds 16 1012 87 10000 5 320 11:56 16.08.2019
3549 Clouds 16 1012 93 10000 5 320 11:56 16.08.2019
3550 Clouds 16 1012 87 10000 5 320 11:37 16.08.2019
3551 Clouds 16 1012 87 10000 5 320 11:19 16.08.2019
3552 Drizzle 16 1012 93 8000 4 330 10:42 16.08.2019
3553 Drizzle 16 1012 93 8000 5 330 10:21 16.08.2019
3554 Rain 15 1012 93 6000 4 330 09:39 16.08.2019
3555 Rain 15 1012 100 1800 4 330 09:20 16.08.2019
3556 Rain 15 1012 100 1800 4 330 08:59 16.08.2019
3557 Rain 15 1012 100 1600 4 330 08:39 16.08.2019
3558 Rain 15 1012 100 1700 4 330 08:19 16.08.2019
3559 Drizzle 14 1012 100 1800 5 330 07:48 16.08.2019
3560 Drizzle 14 1012 100 1800 5 330 07:28 16.08.2019
3561 Clouds 15 1012 93 10000 5 320 06:55 16.08.2019
3562 Clouds 15 1012 87 10000 5 320 06:19 16.08.2019
3563 Clouds 15 1012 87 10000 4 330 05:34 16.08.2019
3564 Rain 15 1012 93 10000 4 340 03:20 16.08.2019
3565 Clouds 15 1012 87 10000 5 340 01:52 16.08.2019
3566 Rain 15 1012 93 10000 4 340 01:25 16.08.2019
3567 Rain 16 1012 93 10000 5 340 00:50 16.08.2019
3568 Rain 16 1012 87 10000 5 350 00:24 16.08.2019
3569 Clouds 16 1012 82 10000 5 340 23:57 15.08.2019
3570 Rain 16 1013 82 10000 5 340 23:39 15.08.2019
3571 Rain 16 1013 82 10000 5 340 23:18 15.08.2019
3572 Clouds 17 1013 77 10000 5 340 22:41 15.08.2019
3573 Clouds 17 1013 77 10000 5 340 22:23 15.08.2019
3574 Clouds 17 1012 77 10000 5 340 21:58 15.08.2019
3575 Clouds 17 1013 77 10000 5 340 21:39 15.08.2019
3576 Clouds 17 1013 77 10000 5 340 21:39 15.08.2019
3577 Clouds 17 1013 77 10000 5 340 21:19 15.08.2019
3578 Clouds 18 1012 72 10000 4 340 20:58 15.08.2019
3579 Clouds 18 1012 72 10000 5 330 20:40 15.08.2019
3580 Clouds 18 1012 72 10000 5 330 20:20 15.08.2019
3581 Clouds 19 1011 68 10000 5 10 19:40 15.08.2019
3582 Clouds 19 1011 68 10000 5 10 19:22 15.08.2019
3583 Clouds 19 1011 68 10000 4 360 18:57 15.08.2019
3584 Clouds 19 1011 68 10000 5 360 18:39 15.08.2019
3585 Clouds 19 1011 68 10000 4 10 18:21 15.08.2019
3586 Clouds 19 1011 68 10000 4 10 17:54 15.08.2019
3587 Clouds 19 1011 72 10000 4 20 17:36 15.08.2019
3588 Clouds 19 1012 72 10000 5 20 17:18 15.08.2019
3589 Clouds 20 1012 68 10000 5 10 16:42 15.08.2019
3590 Clouds 20 1012 68 10000 5 10 16:23 15.08.2019
3591 Clouds 19 1012 68 10000 5 10 15:55 15.08.2019
3592 Clouds 19 1012 72 10000 4 10 15:36 15.08.2019
3593 Clouds 19 1012 72 10000 4 10 15:18 15.08.2019
3594 Clouds 19 1012 77 10000 6 360 14:41 15.08.2019
3595 Clouds 19 1012 77 10000 6 360 14:22 15.08.2019
3596 Clouds 19 1012 77 10000 7 360 13:57 15.08.2019
3597 Clouds 19 1012 77 10000 6 360 13:38 15.08.2019
3598 Clouds 19 1012 77 10000 6 360 13:19 15.08.2019
3599 Clouds 19 1012 77 10000 6 350 13:19 15.08.2019
3600 Clouds 18 1012 77 10000 5 10 12:41 15.08.2019
3601 Clouds 18 1012 82 10000 5 360 12:23 15.08.2019
3602 Clouds 18 1012 82 10000 5 360 11:59 15.08.2019
3603 Clouds 18 1012 72 10000 6 360 11:39 15.08.2019
3604 Clouds 18 1012 72 10000 6 360 11:39 15.08.2019
3605 Clouds 18 1012 88 10000 6 360 11:20 15.08.2019
3606 Clouds 18 1012 88 10000 6 360 10:59 15.08.2019
3607 Clouds 18 1012 88 10000 5 360 10:38 15.08.2019
3608 Clouds 17 1012 88 10000 5 10 10:19 15.08.2019
3609 Clouds 17 1012 88 10000 6 360 09:44 15.08.2019
3610 Clouds 17 1012 88 10000 6 360 09:23 15.08.2019
3611 Clouds 17 1012 88 10000 6 360 09:23 15.08.2019
3612 Clouds 17 1012 88 10000 5 340 08:56 15.08.2019
3613 Clouds 17 1012 88 10000 5 340 08:55 15.08.2019
3614 Clouds 17 1011 88 10000 4 350 08:36 15.08.2019
3615 Clouds 18 1011 88 10000 4 350 08:18 15.08.2019
3616 Clouds 18 1011 88 10000 5 360 07:42 15.08.2019
3617 Clouds 18 1011 88 10000 5 360 07:22 15.08.2019
3618 Clouds 18 1011 88 10000 5 350 06:53 15.08.2019
3619 Clouds 18 1011 93 10000 5 350 06:32 15.08.2019
3620 Clouds 18 1010 100 10000 5 330 05:43 15.08.2019
3621 Clouds 18 1010 100 10000 5 330 05:23 15.08.2019
3622 Clouds 19 1010 88 10000 7 330 04:30 15.08.2019
3623 Clouds 20 1009 88 10000 5 340 03:30 15.08.2019
3624 Clouds 20 1009 88 10000 4 330 02:35 15.08.2019
3625 Clear 21 1010 64 10000 3 310 01:49 15.08.2019
3626 Clear 21 1009 56 10000 3 250 01:26 15.08.2019
3627 Clear 21 1009 53 10000 2 200 00:39 15.08.2019
3628 Clear 22 1008 53 10000 2 200 00:20 15.08.2019
3629 Clear 23 1008 53 10000 2 200 23:57 14.08.2019
3630 Clear 23 1008 53 10000 2 180 23:37 14.08.2019
3631 Clear 23 1009 53 10000 2 190 23:19 14.08.2019
3632 Clear 23 1009 50 10000 4 190 22:42 14.08.2019
3633 Clear 24 1009 50 10000 4 190 22:23 14.08.2019
3634 Clear 24 1009 50 10000 4 190 21:58 14.08.2019
3635 Clear 24 1009 57 10000 3 190 21:40 14.08.2019
3636 Clear 25 1009 57 10000 3 190 21:21 14.08.2019
3637 Clear 25 1009 50 10000 3 180 20:59 14.08.2019
3638 Clear 26 1008 50 10000 3 180 20:41 14.08.2019
3639 Clear 27 1008 47 10000 2 180 20:20 14.08.2019
3640 Clear 28 1008 45 10000 2 170 19:55 14.08.2019
3641 Clear 29 1008 42 10000 3 180 19:37 14.08.2019
3642 Clear 28 1008 45 10000 2 170 19:37 14.08.2019
3643 Clear 29 1008 42 10000 3 180 19:18 14.08.2019
3644 Clear 30 1008 42 10000 3 170 18:55 14.08.2019
3645 Clear 30 1008 42 10000 3 170 18:37 14.08.2019
3646 Clear 31 1009 40 10000 3 180 18:18 14.08.2019
3647 Clear 31 1009 40 10000 3 180 17:54 14.08.2019
3648 Clear 31 1009 42 10000 4 200 17:36 14.08.2019
3649 Clear 32 1009 40 10000 4 200 17:18 14.08.2019
3650 Clear 32 1009 38 10000 4 190 16:39 14.08.2019
3651 Clear 32 1009 38 10000 4 190 16:20 14.08.2019
3652 Clear 32 1010 38 10000 4 190 15:44 14.08.2019
3653 Clear 32 1010 38 10000 4 190 15:20 14.08.2019
3654 Clear 32 1010 40 10000 4 190 14:58 14.08.2019
3655 Clear 32 1010 43 10000 4 180 14:39 14.08.2019
3656 Clear 32 1010 45 10000 4 190 14:19 14.08.2019
3657 Clear 32 1010 45 10000 4 190 14:19 14.08.2019
3658 Clear 32 1010 45 10000 4 190 13:55 14.08.2019
3659 Clear 31 1011 45 10000 4 200 13:37 14.08.2019
3660 Clouds 31 1011 55 10000 3 170 13:18 14.08.2019
3661 Clouds 30 1011 55 10000 3 180 12:40 14.08.2019
3662 Clear 29 1012 62 10000 2 160 12:22 14.08.2019
3663 Clear 29 1012 62 10000 2 160 11:58 14.08.2019
3664 Clear 28 1012 65 10000 3 150 11:40 14.08.2019
3665 Clear 28 1012 65 10000 3 150 11:21 14.08.2019
3666 Clear 26 1012 74 10000 4 110 10:45 14.08.2019
3667 Clear 26 1013 78 10000 4 100 10:25 14.08.2019
3668 Clear 26 1012 74 10000 4 110 10:25 14.08.2019
3669 Clear 26 1013 78 10000 4 100 09:59 14.08.2019
3670 Clear 25 1013 83 10000 4 100 09:41 14.08.2019
3671 Clear 24 1013 83 10000 4 90 09:20 14.08.2019
3672 Clear 23 1013 88 10000 3 80 08:42 14.08.2019
3673 Clear 23 1013 88 10000 3 80 08:23 14.08.2019
3674 Clouds 22 1014 88 10000 4 80 07:55 14.08.2019
3675 Clouds 22 1014 88 10000 4 80 07:34 14.08.2019
3676 Clear 21 1014 100 10000 3 100 06:49 14.08.2019
3677 Clear 20 1013 100 10000 2 80 06:18 14.08.2019
3678 Clear 20 1013 94 10000 2 50 05:28 14.08.2019
3679 Clear 20 1013 94 10000 2 50 05:28 14.08.2019
3680 Clear 21 1014 100 10000 3 350 03:38 14.08.2019
3681 Rain 21 1014 100 10000 3 80 02:34 14.08.2019
3682 Thunderstorm 22 1015 94 9000 3 30 01:55 14.08.2019
3683 Thunderstorm 22 1016 94 10000 4 320 01:21 14.08.2019
3684 Thunderstorm 24 1014 78 10000 3 20 23:56 13.08.2019
3685 Thunderstorm 25 1014 74 10000 4 30 23:37 13.08.2019
3686 Thunderstorm 25 1013 74 10000 4 50 23:18 13.08.2019
3687 Thunderstorm 25 1013 74 10000 4 60 22:42 13.08.2019
3688 Thunderstorm 25 1013 74 10000 4 60 22:24 13.08.2019
3689 Rain 26 1013 78 10000 4 350 21:59 13.08.2019
3690 Rain 26 1013 83 10000 3 290 21:39 13.08.2019
3691 Rain 27 1012 54 10000 2 230 21:19 13.08.2019
3692 Rain 26 1012 54 10000 2 230 20:57 13.08.2019
3693 Rain 27 1012 58 10000 2 250 20:38 13.08.2019
3694 Rain 28 1012 58 10000 5 270 20:18 13.08.2019
3695 Rain 30 1012 51 10000 2 240 19:43 13.08.2019
3696 Rain 30 1012 51 10000 2 240 19:22 13.08.2019
3697 Clouds 31 1011 58 10000 3 250 19:00 13.08.2019
3698 Clear 31 1011 48 10000 3 260 18:41 13.08.2019
3699 Rain 32 1011 43 10000 4 260 18:20 13.08.2019
3700 Clear 33 1011 43 10000 3 250 17:43 13.08.2019
3701 Clear 34 1011 44 10000 4 260 17:22 13.08.2019
3702 Clear 34 1011 44 10000 4 260 16:58 13.08.2019
3703 Clear 34 1011 41 10000 4 260 16:39 13.08.2019
3704 Clear 35 1011 38 10000 6 280 16:21 13.08.2019
3705 Clear 35 1011 38 10000 6 280 15:59 13.08.2019
3706 Clear 35 1011 38 10000 6 280 15:59 13.08.2019
3707 Clear 34 1011 43 10000 4 230 15:38 13.08.2019
3708 Clear 34 1011 43 10000 4 230 15:19 13.08.2019
3709 Clear 35 1011 41 10000 5 230 15:19 13.08.2019
3710 Clear 34 1011 43 10000 4 230 15:19 13.08.2019
3711 Clear 35 1012 41 10000 6 230 14:42 13.08.2019
3712 Clear 35 1012 41 10000 6 230 14:20 13.08.2019
3713 Clear 35 1012 38 10000 6 220 13:56 13.08.2019
3714 Clear 35 1012 38 10000 6 220 13:56 13.08.2019
3715 Clear 34 1012 38 10000 6 200 13:38 13.08.2019
3716 Clear 34 1012 41 10000 5 220 13:18 13.08.2019
3717 Clear 33 1012 40 10000 6 210 12:42 13.08.2019
3718 Clear 32 1013 40 10000 6 210 12:24 13.08.2019
3719 Clear 32 1013 40 10000 6 210 11:59 13.08.2019
3720 Clear 32 1013 43 10000 4 200 11:40 13.08.2019
3721 Clear 32 1013 43 10000 4 200 11:21 13.08.2019
3722 Clear 31 1013 45 10000 4 190 10:57 13.08.2019
3723 Clear 30 1013 48 10000 4 180 10:37 13.08.2019
3724 Clear 29 1013 51 10000 3 190 10:19 13.08.2019
3725 Clear 29 1014 54 10000 3 180 09:44 13.08.2019
3726 Clear 29 1014 54 10000 3 180 09:23 13.08.2019
3727 Clear 28 1014 54 10000 3 190 08:55 13.08.2019
3728 Clear 26 1014 61 10000 3 180 08:37 13.08.2019
3729 Clear 25 1014 64 10000 3 180 08:18 13.08.2019
3730 Clear 23 1014 64 10000 3 180 07:38 13.08.2019
3731 Clear 23 1014 64 10000 3 180 07:38 13.08.2019
3732 Clear 22 1014 64 10000 3 170 07:20 13.08.2019
3733 Clear 21 1015 73 10000 2 130 06:43 13.08.2019
3734 Clear 20 1015 82 10000 2 120 05:46 13.08.2019
3735 Clear 19 1016 82 10000 2 90 03:45 13.08.2019
3736 Clear 20 1016 72 10000 2 110 02:22 13.08.2019
3737 Clear 21 1016 64 10000 2 120 01:21 13.08.2019
3738 Clear 21 1016 64 10000 3 120 00:47 13.08.2019
3739 Clear 22 1016 64 10000 3 120 23:58 12.08.2019
3740 Clear 22 1017 64 10000 2 130 23:40 12.08.2019
3741 Clear 22 1017 64 10000 2 130 23:20 12.08.2019
3742 Clear 22 1017 60 10000 3 120 22:40 12.08.2019
3743 Clear 23 1017 60 10000 3 120 22:20 12.08.2019
3744 Clear 23 1017 60 10000 3 120 21:56 12.08.2019
3745 Clear 23 1017 60 10000 3 120 21:38 12.08.2019
3746 Clear 24 1017 57 10000 3 120 21:19 12.08.2019
3747 Clear 24 1017 57 10000 3 120 20:57 12.08.2019
3748 Clear 24 1017 57 10000 2 110 20:38 12.08.2019
3749 Clear 24 1017 57 10000 2 110 20:20 12.08.2019
3750 Clear 25 1017 53 10000 2 120 19:56 12.08.2019
3751 Clear 26 1017 50 10000 2 120 19:37 12.08.2019
3752 Clear 27 1017 47 10000 2 120 19:19 12.08.2019
3753 Clear 27 1017 47 10000 2 120 18:55 12.08.2019
3754 Clear 28 1017 47 10000 3 100 18:37 12.08.2019
3755 Clear 28 1017 47 10000 3 100 18:37 12.08.2019
3756 Clear 28 1017 47 10000 3 100 18:19 12.08.2019
3757 Clear 29 1017 48 10000 3 100 17:47 12.08.2019
3758 Clear 29 1017 48 10000 3 100 17:28 12.08.2019
3759 Clear 29 1017 42 10000 3 100 16:57 12.08.2019
3760 Clear 29 1018 45 10000 2 70 16:39 12.08.2019
3761 Clear 29 1018 45 10000 2 70 16:20 12.08.2019
3762 Clear 30 1018 42 10000 2 120 15:58 12.08.2019
3763 -273 0 0 0 0 0 15:40 12.08.2019
3764 -273 0 0 0 0 0 15:39 12.08.2019
3765 Clear 29 1018 39 10000 3 80 15:38 12.08.2019
3766 Clear 30 1018 45 10000 2 120 15:20 12.08.2019
3767 Clear 30 1018 45 10000 2 120 14:55 12.08.2019
3768 Clear 29 1018 42 10000 2 80 14:36 12.08.2019
3769 Clear 29 1019 39 10000 1 0 14:18 12.08.2019
3770 Clear 29 1019 39 10000 1 0 14:18 12.08.2019
3771 Clear 28 1019 42 10000 3 150 13:42 12.08.2019
3772 Clear 28 1019 42 10000 3 150 13:23 12.08.2019
3773 Clear 28 1019 44 10000 2 120 12:44 12.08.2019
3774 Clear 28 1019 44 10000 2 120 12:22 12.08.2019
3775 Clear 27 1019 44 10000 2 80 11:56 12.08.2019
3776 Clear 27 1019 47 10000 2 110 11:38 12.08.2019
3777 Clear 26 1019 53 10000 2 60 11:19 12.08.2019
3778 Clear 25 1019 57 10000 1 0 10:40 12.08.2019
3779 Clear 25 1019 57 10000 1 0 10:40 12.08.2019
3780 Clear 25 1019 57 10000 1 0 10:22 12.08.2019
3781 Clear 23 1019 69 10000 2 100 09:56 12.08.2019
3782 Clear 23 1019 69 10000 2 100 09:37 12.08.2019
3783 Clear 23 1019 69 10000 2 100 09:37 12.08.2019
3784 Clear 23 1019 73 10000 3 90 09:18 12.08.2019
3785 Clear 22 1019 73 10000 2 100 08:42 12.08.2019
3786 Clear 22 1019 73 10000 2 100 08:24 12.08.2019
3787 Clear 21 1019 77 10000 2 90 07:57 12.08.2019
3788 Clear 20 1019 88 10000 2 70 07:39 12.08.2019
3789 Clear 19 1019 100 10000 3 90 07:19 12.08.2019
3790 Mist 18 1019 100 8000 1 0 06:42 12.08.2019
3791 Fog 16 1018 100 1200 1.31 298.093 04:40 12.08.2019
3792 Fog 17 1018 100 8000 1 0 02:43 12.08.2019
3793 Mist 17 1018 100 9000 1.46 286.729 01:49 12.08.2019
3794 Fog 18 1018 100 9000 2 260 01:20 12.08.2019
3795 Fog 18 1018 100 9000 2 260 00:56 12.08.2019
3796 Clear 19 1018 100 10000 2 230 00:37 12.08.2019
3797 Clear 19 1017 100 10000 2 220 00:18 12.08.2019
3798 Clear 19 1017 100 10000 2 220 00:18 12.08.2019
3799 Clear 20 1017 93 10000 3 230 23:41 11.08.2019
3800 Clear 20 1017 88 10000 2 230 23:20 11.08.2019
3801 Clear 20 1017 88 10000 2 230 22:58 11.08.2019
3802 Clear 20 1017 88 10000 3 270 22:39 11.08.2019
3803 Clear 20 1017 88 10000 2 230 22:19 11.08.2019
3804 Clear 21 1017 88 10000 2 230 21:58 11.08.2019
3805 Clear 22 1017 78 10000 2 220 21:39 11.08.2019
3806 Rain 22 1017 78 10000 2 220 21:19 11.08.2019
3807 Rain 22 1017 78 10000 2 210 20:45 11.08.2019
3808 Rain 22 1017 78 10000 2 210 20:24 11.08.2019
3809 Rain 22 1017 73 10000 2 240 19:57 11.08.2019
3810 Clear 23 1016 64 10000 2 240 19:39 11.08.2019
3811 Clear 24 1016 64 10000 2 260 19:18 11.08.2019
3812 Clear 24 1016 61 10000 4 270 18:41 11.08.2019
3813 Clear 25 1016 61 10000 4 270 18:20 11.08.2019
3814 Clouds 25 1016 61 10000 3 260 17:56 11.08.2019
3815 Clear 25 1016 57 10000 3 260 17:38 11.08.2019
3816 Clear 25 1016 57 10000 4 250 17:20 11.08.2019
3817 Clear 25 1016 57 10000 4 250 16:55 11.08.2019
3818 Clear 25 1016 60 10000 4 250 16:37 11.08.2019
3819 Clear 25 1016 57 10000 4 230 16:18 11.08.2019
3820 Clear 25 1016 57 10000 4 230 16:18 11.08.2019
3821 Clear 25 1017 57 10000 5 230 15:42 11.08.2019
3822 Clear 25 1017 57 10000 5 230 15:23 11.08.2019
3823 Clear 25 1017 60 10000 5 240 14:56 11.08.2019
3824 Clear 24 1017 57 10000 4 230 14:38 11.08.2019
3825 Clear 25 1017 60 10000 4 230 14:19 11.08.2019
3826 Clear 25 1017 60 10000 4 230 14:19 11.08.2019
3827 Clouds 24 1017 64 10000 3 230 13:44 11.08.2019
3828 Clouds 23 1017 64 10000 3 220 13:24 11.08.2019
3829 Clouds 23 1017 64 10000 3 230 13:24 11.08.2019
3830 Clear 23 1017 64 10000 4 240 12:48 11.08.2019
3831 Clear 23 1017 64 10000 4 240 12:23 11.08.2019
3832 Clear 22 1017 68 10000 4 240 11:56 11.08.2019
3833 Clear 22 1017 64 10000 4 240 11:38 11.08.2019
3834 Clear 21 1017 64 10000 3 230 11:20 11.08.2019
3835 Clear 21 1017 68 10000 3 220 10:41 11.08.2019
3836 Clear 20 1017 64 10000 3 220 10:22 11.08.2019
3837 Clear 20 1017 64 10000 3 220 09:59 11.08.2019
3838 Clear 19 1017 72 10000 2 220 09:38 11.08.2019
3839 Clear 19 1018 82 10000 2 240 09:20 11.08.2019
3840 Clear 19 1018 82 10000 2 240 08:47 11.08.2019
3841 Clear 18 1018 77 10000 1 0 08:27 11.08.2019
3842 Clear 18 1017 82 10000 2 240 07:55 11.08.2019
3843 Clear 18 1018 77 10000 1 270 07:25 11.08.2019
3844 Clear 17 1017 87 10000 1 0 06:45 11.08.2019
3845 Clear 14 1017 100 10000 1.06 201.521 05:39 11.08.2019
3846 Clear 14 1017 100 10000 1.06 201.521 03:43 11.08.2019
3847 Clear 14 1017 100 10000 0.41 189.326 02:49 11.08.2019
3848 Mist 14 1017 100 10000 0.61 188.768 01:39 11.08.2019
3849 Clear 15 1017 93 10000 0.61 188.768 01:20 11.08.2019
3850 Clear 15 1017 93 10000 0.61 188.768 01:20 11.08.2019
3851 Clear 15 1017 93 10000 0.61 188.768 00:44 11.08.2019
3852 Clear 15 1017 93 10000 0.91 358.118 00:25 11.08.2019
3853 Clear 16 1017 93 10000 0.91 358.118 23:45 10.08.2019
3854 Clear 17 1017 93 10000 0.91 358.118 23:27 10.08.2019
3855 Clear 17 1017 77 10000 0.91 358.118 22:44 10.08.2019
3856 Clear 17 1017 77 10000 0.91 358.118 22:25 10.08.2019
3857 Clear 18 1017 72 10000 2 250 21:58 10.08.2019
3858 Clear 19 1017 68 10000 2 280 21:38 10.08.2019
3859 Clear 20 1016 68 10000 1 0 21:20 10.08.2019
3860 Clear 20 1016 64 10000 2.85 329.606 20:56 10.08.2019
3861 Clear 20 1016 64 10000 2.85 329.606 20:37 10.08.2019
3862 Clear 21 1016 53 10000 2 340 20:18 10.08.2019
3863 Clear 21 1016 49 10000 3 330 19:39 10.08.2019
3864 Clear 21 1016 49 10000 3 330 19:21 10.08.2019
3865 Clear 23 1015 46 10000 4 350 18:41 10.08.2019
3866 Clear 23 1015 46 10000 4 350 18:23 10.08.2019
3867 Clear 24 1015 47 10000 5 340 17:46 10.08.2019
3868 Clear 24 1015 47 10000 5 340 17:25 10.08.2019
3869 Clear 24 1015 44 10000 5 330 16:48 10.08.2019
3870 Clear 24 1015 44 10000 5 330 16:29 10.08.2019
3871 Clear 23 1015 46 10000 5 330 15:59 10.08.2019
3872 Clear 24 1015 44 10000 4 320 15:40 10.08.2019
3873 Clear 25 1015 44 10000 5 310 15:21 10.08.2019
3874 Clear 24 1015 44 10000 6 310 14:43 10.08.2019
3875 Clear 24 1015 44 10000 6 310 14:19 10.08.2019
3876 Clear 25 1015 49 10000 5 300 13:40 10.08.2019
3877 Clouds 24 1015 49 10000 6 330 13:19 10.08.2019
3878 Clouds 24 1015 49 10000 5 310 12:43 10.08.2019
3879 Clouds 23 1014 53 10000 5 310 12:23 10.08.2019
3880 Clouds 23 1014 53 10000 5 310 11:57 10.08.2019
3881 Clouds 22 1014 53 10000 5 320 11:39 10.08.2019
3882 Clouds 22 1014 53 10000 5 320 11:20 10.08.2019
3883 Clouds 21 1014 60 10000 4 350 10:39 10.08.2019
3884 Clouds 21 1014 60 10000 4 350 10:20 10.08.2019
3885 Clouds 21 1014 60 10000 4 350 10:20 10.08.2019
3886 Clear 21 1015 64 10000 4 320 09:59 10.08.2019
3887 Clear 21 1014 68 10000 5 320 09:38 10.08.2019
3888 Clear 20 1014 72 10000 4 330 09:20 10.08.2019
3889 Clear 19 1014 72 10000 4 330 08:39 10.08.2019
3890 Clear 18 1014 77 10000 3 300 08:19 10.08.2019
3891 Clear 18 1014 77 10000 3 300 07:52 10.08.2019
3892 Clear 17 1014 82 10000 3 290 07:27 10.08.2019
3893 Clear 15 1013 93 10000 2 270 06:48 10.08.2019
3894 Clear 15 1013 93 10000 2 270 06:21 10.08.2019
3895 Clear 15 1013 100 10000 3 250 05:24 10.08.2019
3896 Clear 15 1012 93 10000 3 250 04:21 10.08.2019
3897 Clear 16 1013 93 10000 3 260 02:54 10.08.2019
3898 Clear 16 1012 93 10000 2 250 01:59 10.08.2019
3899 Clear 16 1012 93 10000 2 250 01:40 10.08.2019
3900 Clear 16 1012 93 10000 2 250 01:20 10.08.2019
3901 Clear 15 1012 93 10000 3 250 00:44 10.08.2019
3902 Clear 16 1012 93 10000 3 250 00:22 10.08.2019
3903 Clear 16 1012 93 10000 3 240 23:43 09.08.2019
3904 Clear 16 1012 93 10000 3 240 23:23 09.08.2019
3905 Clear 16 1012 100 10000 3 240 22:57 09.08.2019
3906 Clear 16 1012 100 10000 3 240 22:38 09.08.2019
3907 Clear 16 1012 100 10000 2 250 22:19 09.08.2019
3908 Clear 16 1012 93 10000 2 240 21:41 09.08.2019
3909 Clear 16 1012 100 10000 2 230 21:23 09.08.2019
3910 Clear 16 1012 100 10000 2 230 20:59 09.08.2019
3911 Clear 17 1012 93 10000 2 220 20:40 09.08.2019
3912 Clear 17 1012 93 10000 2 220 20:21 09.08.2019
3913 Clear 17 1012 93 10000 2 190 19:56 09.08.2019
3914 Clear 18 1011 93 10000 4.96 280.823 19:38 09.08.2019
3915 Clear 18 1011 93 10000 4.96 280.823 19:38 09.08.2019
3916 Clear 18 1011 93 10000 1 180 19:18 09.08.2019
3917 Rain 18 1011 82 10000 1 0 18:40 09.08.2019
3918 Rain 17 1011 82 10000 1 0 18:22 09.08.2019
3919 Rain 18 1012 82 10000 2 10 17:56 09.08.2019
3920 Rain 18 1012 82 10000 2 10 17:56 09.08.2019
3921 Rain 17 1013 82 9000 7 300 17:38 09.08.2019
3922 Thunderstorm 21 1013 72 9000 11 310 17:19 09.08.2019
3923 Thunderstorm 25 1010 44 10000 5 270 16:40 09.08.2019
3924 Clouds 26 1010 44 10000 5 270 16:21 09.08.2019
3925 Clear 27 1011 42 10000 5 250 15:56 09.08.2019
3926 Clear 27 1011 42 10000 5 250 15:56 09.08.2019
3927 Clear 27 1011 41 10000 3 240 15:37 09.08.2019
3928 Clear 27 1011 41 10000 3 240 15:18 09.08.2019
3929 Clear 27 1012 41 10000 4 270 14:44 09.08.2019
3930 Clear 27 1012 41 10000 4 270 14:22 09.08.2019
3931 -273 0 0 0 0 0 14:22 09.08.2019
3932 Clear 26 1012 44 10000 5 260 13:56 09.08.2019
3933 Clear 27 1012 44 10000 3 260 13:38 09.08.2019
3934 Clear 27 1013 47 10000 4 270 13:18 09.08.2019
3935 Clear 26 1013 47 10000 4 260 12:43 09.08.2019
3936 Clear 26 1013 47 10000 4 260 12:22 09.08.2019
3937 Clear 25 1013 47 10000 4 270 11:42 09.08.2019
3938 Clear 25 1013 47 10000 4 270 11:21 09.08.2019
3939 Clear 25 1013 50 10000 4 260 10:59 09.08.2019
3940 Clear 24 1013 53 10000 4 290 10:39 09.08.2019
3941 Clear 24 1013 53 10000 4 290 10:21 09.08.2019
3942 Clear 22 1014 64 10000 3 290 09:42 09.08.2019
3943 Clear 22 1014 64 10000 3 290 09:19 09.08.2019
3944 Clear 21 1014 68 10000 2 250 08:54 09.08.2019
3945 Clear 20 1013 72 10000 2 290 08:36 09.08.2019
3946 Clear 20 1013 72 10000 2 290 08:36 09.08.2019
3947 Clear 20 1013 77 10000 3 290 08:18 09.08.2019
3948 Clear 19 1013 82 10000 3 280 07:42 09.08.2019
3949 Clear 18 1013 88 10000 4 280 07:21 09.08.2019
3950 Clear 17 1013 88 10000 2 260 06:52 09.08.2019
3951 Clear 17 1013 88 10000 2 260 06:26 09.08.2019
3952 Clear 16 1013 93 10000 2 250 05:46 09.08.2019
3953 Clear 18 1012 82 10000 3 260 02:30 09.08.2019
3954 Clear 18 1011 82 10000 3 270 01:30 09.08.2019
3955 Clear 19 1011 82 10000 3 260 00:43 09.08.2019
3956 Clear 19 1011 77 10000 3 250 00:24 09.08.2019
3957 Clear 19 1011 77 10000 3 250 23:57 08.08.2019
3958 Clear 19 1011 77 10000 4 260 23:38 08.08.2019
3959 Clear 19 1011 77 10000 4 260 23:19 08.08.2019
3960 Clear 20 1011 77 10000 3 250 22:56 08.08.2019
3961 Clear 20 1011 77 10000 4 260 22:36 08.08.2019
3962 Clear 20 1011 82 10000 3 280 22:18 08.08.2019
3963 Clear 20 1011 77 10000 4 250 21:43 08.08.2019
3964 Clear 21 1011 73 10000 3 260 21:24 08.08.2019
3965 Clear 21 1011 73 10000 3 260 20:58 08.08.2019
3966 Clear 21 1010 68 10000 5 280 20:40 08.08.2019
3967 Clear 22 1010 68 10000 5 280 20:20 08.08.2019
3968 Clear 24 1009 57 10000 8 280 19:49 08.08.2019
3969 Clear 24 1009 57 10000 8 280 19:29 08.08.2019
3970 Clear 24 1008 60 10000 8 270 18:59 08.08.2019
3971 Clouds 24 1008 57 10000 8 270 18:40 08.08.2019
3972 Clouds 25 1008 61 10000 7 280 18:19 08.08.2019
3973 Clouds 25 1008 57 10000 8 270 17:42 08.08.2019
3974 Clouds 26 1008 57 10000 8 270 17:24 08.08.2019
3975 Clear 24 1008 78 10000 3 220 16:58 08.08.2019
3976 Clear 24 1008 78 10000 3 220 16:40 08.08.2019
3977 Clear 24 1008 78 10000 3 220 16:22 08.08.2019
3978 Clouds 23 1007 94 10000 2 210 15:57 08.08.2019
3979 Thunderstorm 21 1007 94 10000 4 200 15:38 08.08.2019
3980 Thunderstorm 20 1007 94 10000 3 280 15:20 08.08.2019
3981 Thunderstorm 23 1007 88 5000 9 260 14:38 08.08.2019
3982 Rain 25 1005 51 10000 6 210 14:19 08.08.2019
3983 Thunderstorm 29 1005 45 10000 7 200 13:42 08.08.2019
3984 Clear 29 1007 51 10000 6 200 13:23 08.08.2019
3985 Clear 29 1007 51 10000 6 200 12:58 08.08.2019
3986 Clear 27 1007 54 10000 5 200 12:38 08.08.2019
3987 Clear 26 1007 57 10000 4 190 12:18 08.08.2019
3988 Clear 26 1007 61 10000 5 190 11:42 08.08.2019
3989 Rain 24 1008 69 10000 3 180 11:24 08.08.2019
3990 Clouds 24 1008 64 10000 2 190 10:41 08.08.2019
3991 Clear 24 1008 60 10000 3 190 10:22 08.08.2019
3992 Clear 24 1008 60 10000 3 190 09:58 08.08.2019
3993 Clear 24 1008 64 10000 2 190 09:39 08.08.2019
3994 Clear 24 1008 64 10000 2 200 09:20 08.08.2019
3995 Clear 24 1009 64 10000 2 180 08:40 08.08.2019
3996 Clear 23 1009 64 10000 3 170 08:21 08.08.2019
3997 Clear 22 1009 73 10000 3 150 07:42 08.08.2019
3998 Clear 21 1009 73 10000 3 160 07:21 08.08.2019
3999 Clear 21 1009 73 10000 3 160 06:59 08.08.2019
4000 Clear 21 1009 73 10000 3 160 06:41 08.08.2019
4001 Rain 20 1009 73 10000 3 160 05:55 08.08.2019
4002 Thunderstorm 20 1010 77 10000 3 160 05:28 08.08.2019
4003 Thunderstorm 20 1010 88 10000 2 160 03:57 08.08.2019
4004 Clear 20 1010 82 10000 3.4 181.987 03:35 08.08.2019
4005 Rain 21 1011 73 10000 4 280 01:41 08.08.2019
4006 Rain 22 1010 60 10000 3 230 00:46 08.08.2019
4007 Rain 23 1010 60 10000 3 230 00:20 08.08.2019
4008 Clear 22 1010 64 10000 3 230 23:23 07.08.2019
4009 Clouds 22 1010 64 10000 3 230 22:59 07.08.2019
4010 Clear 22 1010 60 10000 3 220 22:41 07.08.2019
4011 Clear 22 1010 60 10000 3 220 22:20 07.08.2019
4012 Rain 22 1010 57 10000 3 220 21:57 07.08.2019
4013 Rain 22 1011 57 10000 3 220 21:39 07.08.2019
4014 Rain 23 1011 60 10000 3 210 21:20 07.08.2019
4015 Rain 23 1011 60 10000 3 210 20:57 07.08.2019
4016 Clouds 23 1011 64 10000 1 200 20:38 07.08.2019
4017 Clouds 23 1011 64 10000 1 200 20:19 07.08.2019
4018 Clouds 23 1011 64 10000 1 200 20:19 07.08.2019
4019 Clouds 23 1011 64 10000 1 200 20:19 07.08.2019
4020 Clear 24 1011 64 10000 1 0 19:55 07.08.2019
4021 Clouds 24 1011 57 10000 2 50 19:36 07.08.2019
4022 Clouds 24 1011 54 10000 2 190 19:18 07.08.2019
4023 Thunderstorm 26 1011 50 10000 2 230 18:40 07.08.2019
4024 Clouds 27 1011 50 10000 2 230 18:19 07.08.2019
4025 Clouds 27 1011 47 10000 3 230 17:54 07.08.2019
4026 Clear 27 1011 47 10000 3 220 17:36 07.08.2019
4027 Clear 27 1011 47 10000 4 220 17:18 07.08.2019
4028 Clear 27 1011 47 10000 4 220 17:18 07.08.2019
4029 Clear 27 1011 47 10000 4 220 16:55 07.08.2019
4030 Clear 28 1011 45 10000 4 230 16:37 07.08.2019
4031 -273 0 0 0 0 0 16:18 07.08.2019
4032 Clear 29 1011 45 10000 5 220 15:42 07.08.2019
4033 Clear 29 1011 45 10000 5 220 15:20 07.08.2019
4034 Clear 29 1012 45 10000 4 210 14:49 07.08.2019
4035 Clear 29 1012 48 10000 5 220 14:30 07.08.2019
4036 Clear 29 1012 45 10000 4 210 13:58 07.08.2019
4037 Clear 28 1012 47 10000 5 210 13:39 07.08.2019
4038 Clear 29 1013 47 10000 5 230 13:19 07.08.2019
4039 Clear 28 1013 47 10000 5 230 12:56 07.08.2019
4040 Clear 28 1013 47 10000 4 220 12:38 07.08.2019
4041 Clear 27 1013 50 10000 5 220 12:19 07.08.2019
4042 Clear 27 1013 50 10000 5 220 11:55 07.08.2019
4043 Clear 27 1013 50 10000 4 220 11:36 07.08.2019
4044 Clear 27 1013 50 10000 4 220 11:18 07.08.2019
4045 Clear 26 1014 53 10000 4 230 10:40 07.08.2019
4046 Clear 26 1014 53 10000 4 230 10:19 07.08.2019
4047 Clear 24 1014 57 10000 3 220 09:46 07.08.2019
4048 Clear 22 1014 56 10000 3 220 09:24 07.08.2019
4049 Clear 22 1014 56 10000 3 220 08:59 07.08.2019
4050 Clear 21 1014 64 10000 2 230 08:41 07.08.2019
4051 Clear 21 1014 64 10000 2 230 08:23 07.08.2019
4052 Clear 19 1014 72 10000 2 250 07:45 07.08.2019
4053 Clear 18 1014 72 10000 2 250 07:26 07.08.2019
4054 Clear 16 1014 82 10000 1 260 06:41 07.08.2019
4055 Clear 14 1014 76 10000 2 260 06:20 07.08.2019
4056 Clear 14 1014 87 10000 1 0 05:40 07.08.2019
4057 Clear 14 1013 82 10000 2.22 203.8 03:23 07.08.2019
4058 Clear 15 1014 71 10000 1 200 02:51 07.08.2019
4059 Clear 14 1014 71 10000 1 200 02:26 07.08.2019
4060 Clear 14 1014 76 10000 2.22 203.8 01:45 07.08.2019
4061 Clear 13 1014 81 10000 2.29 194.462 00:52 07.08.2019
4062 Clear 13 1014 81 10000 1.54 231.236 00:22 07.08.2019
4063 Clear 14 1014 76 10000 1.54 231.236 23:44 06.08.2019
4064 Clear 14 1014 76 10000 1.54 231.236 23:23 06.08.2019
4065 Clear 15 1014 82 10000 1.54 231.236 22:59 06.08.2019
4066 Clear 15 1014 76 10000 1.54 231.236 22:38 06.08.2019
4067 Clear 15 1014 76 10000 1.54 231.236 22:20 06.08.2019
4068 Clear 15 1014 76 10000 1 0 21:44 06.08.2019
4069 Clear 17 1014 76 10000 1 0 21:26 06.08.2019
4070 Clear 17 1014 72 10000 1 180 20:59 06.08.2019
4071 Clear 18 1013 67 10000 1.41 279.262 20:41 06.08.2019
4072 Clear 19 1013 67 10000 1.41 279.262 20:23 06.08.2019
4073 Clear 22 1013 45 10000 1.41 279.262 19:47 06.08.2019
4074 Clear 22 1013 45 10000 1.41 279.262 19:28 06.08.2019
4075 Clear 24 1013 29 10000 1.41 279.262 18:56 06.08.2019
4076 Clear 24 1013 29 10000 2 350 18:36 06.08.2019
4077 Clear 25 1013 29 10000 2 350 18:18 06.08.2019
4078 Clear 24 1013 27 10000 3 340 17:56 06.08.2019
4079 Clear 24 1013 27 10000 3 340 17:56 06.08.2019
4080 Clear 25 1013 25 10000 4 320 17:36 06.08.2019
4081 Clear 24 1013 25 10000 4 260 17:18 06.08.2019
4082 Clear 25 1013 25 10000 4 300 16:42 06.08.2019
4083 Clear 25 1013 27 10000 4 260 16:24 06.08.2019
4084 Clear 25 1013 27 10000 4 260 15:57 06.08.2019
4085 Clear 25 1013 27 10000 4 300 15:39 06.08.2019
4086 Clear 25 1013 27 10000 4 300 15:39 06.08.2019
4087 Clear 25 1013 27 10000 4 260 15:20 06.08.2019
4088 Clear 25 1013 27 10000 4 340 14:45 06.08.2019
4089 Clear 25 1013 27 10000 4 340 14:26 06.08.2019
4090 Clear 25 1013 27 10000 5 280 13:58 06.08.2019
4091 Clear 25 1014 29 10000 5 320 13:40 06.08.2019
4092 Clear 24 1013 27 10000 4 290 13:21 06.08.2019
4093 Clear 24 1014 28 10000 5 300 12:58 06.08.2019
4094 Clear 24 1014 35 10000 3 290 12:39 06.08.2019
4095 Clear 23 1014 35 10000 3 310 12:21 06.08.2019
4096 Clear 22 1014 37 10000 4 300 11:43 06.08.2019
4097 Clear 22 1014 35 10000 4 280 11:19 06.08.2019
4098 Clear 22 1014 35 10000 4 280 10:56 06.08.2019
4099 Clear 21 1014 43 10000 3 240 10:37 06.08.2019
4100 Clear 21 1014 42 10000 3 250 10:19 06.08.2019
4101 Clear 20 1014 49 10000 3 240 09:39 06.08.2019
4102 Clear 20 1014 49 10000 3 240 09:20 06.08.2019
4103 Clear 17 1014 63 10000 2 240 08:47 06.08.2019
4104 Clear 17 1014 63 10000 2 240 08:26 06.08.2019
4105 Clear 15 1013 76 10000 2 250 07:40 06.08.2019
4106 Clear 15 1013 76 10000 2 250 07:22 06.08.2019
4107 Clear 11 1013 93 10000 2 240 06:43 06.08.2019
4108 Clear 9 1013 100 10000 2 230 05:55 06.08.2019
4109 Fog 9 1013 100 10000 2 230 04:32 06.08.2019
4110 Fog 10 1012 100 10000 2 240 01:55 06.08.2019
4111 Fog 10 1012 100 10000 1 200 01:24 06.08.2019
4112 Clear 12 1012 100 10000 2.93 305.467 00:30 06.08.2019
4113 Clear 12 1012 100 10000 1 240 23:46 05.08.2019
4114 Clear 13 1011 100 10000 1 250 23:19 05.08.2019
4115 Clear 12 1011 93 10000 1 0 22:41 05.08.2019
4116 Clear 12 1011 93 10000 1 0 22:23 05.08.2019
4117 Clear 12 1011 93 10000 2.93 305.467 21:55 05.08.2019
4118 Clear 13 1011 93 10000 2.93 305.467 21:36 05.08.2019
4119 Clear 14 1011 87 10000 3.34 311.88 21:18 05.08.2019
4120 Clear 14 1011 87 10000 4.78 315.619 20:55 05.08.2019
4121 Clear 15 1010 82 10000 1 0 20:37 05.08.2019
4122 Clear 16 1010 77 10000 1 0 20:18 05.08.2019
4123 Clear 17 1010 67 10000 2 70 19:40 05.08.2019
4124 Clear 17 1010 67 10000 2 70 19:22 05.08.2019
4125 Clear 19 1009 59 10000 3 40 18:57 05.08.2019
4126 Clear 19 1009 59 10000 3 40 18:57 05.08.2019
4127 Clear 19 1009 59 10000 3 40 18:39 05.08.2019
4128 Clear 19 1009 59 10000 4 30 18:18 05.08.2019
4129 Clear 19 1009 52 10000 3 320 17:41 05.08.2019
4130 Clear 19 1009 52 10000 3 320 17:22 05.08.2019
4131 Clear 19 1009 59 10000 5 290 16:45 05.08.2019
4132 Clear 19 1009 59 10000 5 290 16:24 05.08.2019
4133 Rain 17 1009 72 10000 2 340 15:44 05.08.2019
4134 Thunderstorm 16 1009 72 10000 2 340 15:21 05.08.2019
4135 -273 0 0 0 0 0 14:55 05.08.2019
4136 Rain 20 1009 52 10000 3 240 14:37 05.08.2019
4137 Rain 20 1009 52 10000 3 240 14:19 05.08.2019
4138 Clear 20 1010 59 10000 3 240 13:40 05.08.2019
4139 Clear 20 1010 63 10000 3 230 13:20 05.08.2019
4140 Rain 18 1010 63 10000 2 230 12:44 05.08.2019
4141 Rain 17 1010 63 10000 2 230 12:20 05.08.2019
4142 Clouds 16 1011 93 10000 2 190 11:45 05.08.2019
4143 Clouds 16 1011 93 10000 2 190 11:26 05.08.2019
4144 Rain 19 1010 45 10000 2 310 10:50 05.08.2019
4145 Clear 21 1010 45 10000 2 310 10:32 05.08.2019
4146 Clear 19 1010 48 10000 2 280 09:57 05.08.2019
4147 Clear 19 1010 55 10000 1 0 09:39 05.08.2019
4148 Clear 19 1010 55 10000 1 0 09:20 05.08.2019
4149 Clear 17 1011 63 10000 2 250 08:44 05.08.2019
4150 Clear 17 1011 63 10000 2 250 08:25 05.08.2019
4151 Clear 16 1010 72 10000 2 280 07:49 05.08.2019
4152 Clear 15 1010 77 10000 2 270 07:30 05.08.2019
4153 Clear 15 1010 87 10000 2 290 06:58 05.08.2019
4154 Clear 14 1010 87 10000 1 0 06:24 05.08.2019
4155 Clear 12 1010 100 10000 2 250 05:33 05.08.2019
4156 Clear 12 1010 93 10000 1 0 04:52 05.08.2019
4157 Clear 12 1010 93 10000 2 270 03:52 05.08.2019
4158 Clear 13 1010 87 10000 2 250 02:47 05.08.2019
4159 Clear 13 1010 87 10000 2 260 01:58 05.08.2019
4160 Clear 13 1010 82 10000 2 270 01:25 05.08.2019
4161 Clear 14 1009 72 10000 2 300 00:40 05.08.2019
4162 Clear 15 1009 72 10000 2 300 00:20 05.08.2019
4163 Clear 15 1009 72 10000 2 300 00:20 05.08.2019
4164 Clear 16 1009 59 10000 4 360 23:43 04.08.2019
4165 Clear 15 1009 59 10000 4 360 23:23 04.08.2019
4166 Clear 16 1009 59 10000 2 330 22:57 04.08.2019
4167 Clear 15 1009 59 10000 2 330 22:38 04.08.2019
4168 Clear 16 1009 59 10000 3 310 22:20 04.08.2019
4169 Clear 15 1009 59 10000 3 310 21:56 04.08.2019
4170 Clear 15 1008 63 10000 2 280 21:37 04.08.2019
4171 Clear 18 1008 52 10000 2 10 21:19 04.08.2019
4172 Clear 17 1008 51 10000 3 360 20:41 04.08.2019
4173 Clear 18 1008 48 10000 4 10 20:19 04.08.2019
4174 Clear 19 1007 45 10000 4 10 19:49 04.08.2019
4175 Clear 19 1007 45 10000 4 10 19:28 04.08.2019
4176 Clear 19 1007 45 10000 4 10 18:58 04.08.2019
4177 Clear 20 1007 42 10000 4 20 18:40 04.08.2019
4178 Clear 20 1007 42 10000 5 20 18:20 04.08.2019
4179 Clear 21 1007 37 10000 5 360 17:43 04.08.2019
4180 Clear 21 1007 40 10000 6 10 17:24 04.08.2019
4181 Clear 21 1007 42 10000 7 20 16:46 04.08.2019
4182 Clear 21 1007 42 10000 7 20 16:27 04.08.2019
4183 Clear 21 1007 42 10000 7 20 15:56 04.08.2019
4184 Clear 22 1007 40 10000 7 30 15:37 04.08.2019
4185 Clear 22 1007 40 10000 7 30 15:37 04.08.2019
4186 Clear 22 1007 40 10000 7 30 15:18 04.08.2019
4187 Clear 22 1007 40 10000 6 20 14:42 04.08.2019
4188 Clear 21 1007 40 10000 5 360 14:21 04.08.2019
4189 Clear 21 1007 45 10000 7 30 13:43 04.08.2019
4190 Clear 22 1007 45 10000 7 30 13:24 04.08.2019
4191 Clear 22 1007 42 10000 7 10 13:24 04.08.2019
4192 Clear 21 1007 45 10000 7 10 12:55 04.08.2019
4193 Clear 21 1007 45 10000 7 10 12:37 04.08.2019
4194 Clear 21 1007 45 10000 7 10 12:37 04.08.2019
4195 Clear 21 1007 45 10000 7 20 12:19 04.08.2019
4196 Clear 21 1006 48 10000 7 360 11:41 04.08.2019
4197 Clear 21 1006 48 10000 7 360 11:22 04.08.2019
4198 Clouds 20 1006 55 10000 6 10 10:47 04.08.2019
4199 Clouds 20 1006 55 10000 6 10 10:22 04.08.2019
4200 Clear 19 1006 59 10000 5 350 09:46 04.08.2019
4201 Clear 19 1006 59 10000 5 350 09:25 04.08.2019
4202 Clouds 19 1006 59 10000 5 10 08:57 04.08.2019
4203 Clouds 18 1007 59 10000 3 10 08:33 04.08.2019
4204 Clouds 17 1007 63 10000 3 360 07:54 04.08.2019
4205 Clear 16 1006 77 10000 3 20 07:23 04.08.2019
4206 Clear 15 1006 82 10000 3 20 06:28 04.08.2019
4207 Clear 14 1006 87 10000 2 350 05:57 04.08.2019
4208 Clear 14 1006 77 10000 2 350 03:34 04.08.2019
4209 Clear 15 1006 77 10000 3 40 01:52 04.08.2019
4210 Clear 15 1006 72 10000 4 40 01:28 04.08.2019
4211 Clear 15 1006 77 10000 4 10 00:41 04.08.2019
4212 Clear 15 1006 77 10000 4 10 00:23 04.08.2019
4213 Clear 16 1006 72 10000 3 340 23:42 03.08.2019
4214 Clear 16 1006 82 10000 1 280 23:19 03.08.2019
4215 Clear 16 1006 82 10000 1 280 22:57 03.08.2019
4216 Clear 16 1006 82 10000 1 0 22:38 03.08.2019
4217 Clear 17 1006 82 10000 1 0 22:18 03.08.2019
4218 Clear 17 1007 77 10000 1 260 21:38 03.08.2019
4219 Clear 17 1007 77 10000 1 260 21:19 03.08.2019
4220 Clear 18 1006 68 10000 2 310 20:43 03.08.2019
4221 Clear 18 1006 68 10000 2 310 20:23 03.08.2019
4222 Clear 19 1007 63 10000 3 300 19:43 03.08.2019
4223 Clear 19 1007 63 10000 3 300 19:25 03.08.2019
4224 Clear 19 1007 77 10000 0.26 281.57 18:56 03.08.2019
4225 Clear 19 1007 77 10000 1.08 49.094 18:28 03.08.2019
4226 Clear 20 1007 64 10000 1.08 49.094 17:50 03.08.2019
4227 Clouds 20 1007 64 10000 1.08 49.094 17:22 03.08.2019
4228 Clear 21 1007 64 10000 1.08 49.094 16:58 03.08.2019
4229 Clouds 20 1007 64 10000 1 0 16:38 03.08.2019
4230 Clear 20 1007 64 10000 1.08 49.094 16:19 03.08.2019
4231 Clear 20 1007 64 10000 1 0 15:45 03.08.2019
4232 Clear 20 1007 64 10000 1 0 15:23 03.08.2019
4233 Clouds 21 1007 64 10000 1 0 14:43 03.08.2019
4234 Clouds 21 1007 64 10000 1 0 14:22 03.08.2019
4235 Clouds 20 1008 68 10000 2 60 13:53 03.08.2019
4236 Clouds 20 1008 63 10000 3 40 13:26 03.08.2019
4237 Clouds 21 1008 60 10000 1.82 35.304 12:59 03.08.2019
4238 Clouds 20 1008 60 10000 2 100 12:40 03.08.2019
4239 Clouds 20 1008 68 10000 2 120 12:22 03.08.2019
4240 Clouds 20 1008 68 10000 2 30 11:49 03.08.2019
4241 Clouds 20 1008 68 10000 2 30 11:28 03.08.2019
4242 Clouds 19 1009 72 10000 1 0 10:42 03.08.2019
4243 Clouds 19 1009 77 10000 1 0 10:24 03.08.2019
4244 Clouds 19 1009 72 10000 1 0 10:24 03.08.2019
4245 Clouds 19 1009 77 10000 1.65 38.671 09:45 03.08.2019
4246 Clouds 18 1009 82 10000 1 0 09:23 03.08.2019
4247 Clouds 18 1009 77 10000 2 120 08:55 03.08.2019
4248 Clouds 17 1009 77 10000 2 120 08:18 03.08.2019
4249 Clouds 17 1009 87 10000 1.07 95.567 07:37 03.08.2019
4250 Clouds 16 1009 100 10000 2 100 06:39 03.08.2019
4251 Clouds 15 1009 100 9000 1 0 05:44 03.08.2019
4252 Rain 15 1009 100 1400 1.64 65.472 02:42 03.08.2019
4253 Rain 15 1009 100 8000 1.64 65.472 01:50 03.08.2019
4254 Rain 16 1009 93 10000 2 360 00:51 03.08.2019
4255 Rain 16 1009 93 10000 2 360 00:29 03.08.2019
4256 Rain 16 1010 93 10000 1 270 23:41 02.08.2019
4257 Rain 16 1010 93 10000 1 270 23:19 02.08.2019
4258 Rain 16 1010 100 10000 1 230 22:57 02.08.2019
4259 Rain 16 1010 93 10000 1 280 22:39 02.08.2019
4260 Rain 16 1010 93 10000 1 280 22:20 02.08.2019
4261 Clear 16 1010 100 10000 1.76 62.999 21:55 02.08.2019
4262 Clear 17 1010 93 10000 1 0 21:36 02.08.2019
4263 Clear 17 1009 88 10000 2 350 21:18 02.08.2019
4264 Clear 17 1009 82 10000 2 330 20:41 02.08.2019
4265 Clear 17 1009 82 10000 2 330 20:21 02.08.2019
4266 Rain 18 1009 64 10000 3 330 19:49 02.08.2019
4267 Rain 19 1009 64 10000 3 330 19:28 02.08.2019
4268 Clear 20 1009 68 10000 4 300 18:45 02.08.2019
4269 Clear 20 1009 68 10000 4 300 18:27 02.08.2019
4270 Rain 20 1009 68 10000 4 330 17:48 02.08.2019
4271 Rain 20 1009 68 10000 4 330 17:26 02.08.2019
4272 Rain 21 1009 53 10000 8 310 16:59 02.08.2019
4273 Rain 21 1009 53 10000 8 310 16:39 02.08.2019
4274 Rain 22 1009 53 10000 8 310 16:19 02.08.2019
4275 Clear 24 1008 47 10000 6 300 15:44 02.08.2019
4276 Clear 24 1008 47 10000 6 300 15:20 02.08.2019
4277 Clear 24 1009 49 10000 6 260 14:47 02.08.2019
4278 Clear 23 1009 49 10000 6 260 14:19 02.08.2019
4279 Clear 23 1009 49 10000 6 260 13:50 02.08.2019
4280 Clouds 23 1009 49 10000 5 250 13:28 02.08.2019
4281 Clear 23 1010 46 10000 4 260 12:47 02.08.2019
4282 Clear 23 1010 46 10000 4 260 12:23 02.08.2019
4283 -273 0 0 0 0 0 11:56 02.08.2019
4284 Clear 22 1010 56 10000 4 230 11:37 02.08.2019
4285 Clear 22 1010 52 10000 3 250 11:18 02.08.2019
4286 Clear 21 1010 56 10000 2 220 10:42 02.08.2019
4287 Clear 20 1010 59 10000 2 260 10:23 02.08.2019
4288 Clear 20 1011 59 10000 3 250 09:52 02.08.2019
4289 Clear 19 1011 59 10000 3 250 09:28 02.08.2019
4290 Clear 19 1011 63 10000 2 260 08:52 02.08.2019
4291 Clear 18 1011 59 10000 3 270 08:23 02.08.2019
4292 Clear 17 1011 72 10000 2 270 07:52 02.08.2019
4293 Clear 16 1011 72 10000 2 270 07:32 02.08.2019
4294 Clear 16 1011 87 10000 2 240 06:54 02.08.2019
4295 Clear 15 1011 93 10000 2 220 06:24 02.08.2019
4296 Clear 14 1011 93 10000 2 240 05:37 02.08.2019
4297 Clear 15 1012 82 10000 2 230 03:31 02.08.2019
4298 Clear 15 1012 82 10000 2.25 282.991 02:35 02.08.2019
4299 Clear 16 1013 77 10000 2.37 280.803 00:47 02.08.2019
4300 Clear 16 1013 63 10000 2 330 00:18 02.08.2019
4301 Clear 17 1013 63 10000 2 320 23:43 01.08.2019
4302 Clear 16 1013 72 10000 1 320 23:19 01.08.2019
4303 Clear 17 1013 63 10000 2 340 22:40 01.08.2019
4304 Clear 17 1013 63 10000 2 340 22:21 01.08.2019
4305 Clear 16 1013 63 10000 2 320 21:44 01.08.2019
4306 Clear 17 1013 63 10000 2 320 21:24 01.08.2019
4307 Clear 17 1013 63 10000 2 320 20:59 01.08.2019
4308 Clear 17 1013 63 10000 2 330 20:40 01.08.2019
4309 Clear 17 1013 63 10000 2 300 20:21 01.08.2019
4310 Clear 17 1013 59 10000 2 300 19:42 01.08.2019
4311 Clear 18 1013 59 10000 3 310 19:20 01.08.2019
4312 Clouds 18 1013 59 10000 3 330 18:45 01.08.2019
4313 Clouds 18 1013 59 10000 3 310 18:25 01.08.2019
4314 Clouds 18 1013 59 10000 3 310 17:56 01.08.2019
4315 Clear 18 1014 59 10000 3 300 17:38 01.08.2019
4316 Clear 18 1014 59 10000 3 340 17:19 01.08.2019
4317 Clouds 18 1014 59 10000 4 320 16:44 01.08.2019
4318 Clouds 18 1014 55 10000 4 340 16:21 01.08.2019
4319 Clouds 18 1014 55 10000 3 310 15:42 01.08.2019
4320 Clouds 18 1014 55 10000 4 310 15:20 01.08.2019
4321 Clouds 18 1014 59 10000 4 290 14:44 01.08.2019
4322 Clouds 18 1014 59 10000 4 290 14:21 01.08.2019
4323 Clouds 18 1014 59 10000 4 300 13:58 01.08.2019
4324 Clouds 18 1014 59 10000 5 290 13:40 01.08.2019
4325 Clouds 18 1014 55 10000 4 320 13:21 01.08.2019
4326 Clouds 18 1014 59 10000 5 320 12:49 01.08.2019
4327 Clouds 18 1014 59 10000 5 320 12:28 01.08.2019
4328 Clouds 18 1014 59 10000 5 300 11:44 01.08.2019
4329 Clouds 18 1014 59 10000 5 300 11:26 01.08.2019
4330 Clouds 17 1015 59 10000 4 310 10:59 01.08.2019
4331 Clouds 17 1015 59 10000 4 300 10:40 01.08.2019
4332 Clouds 17 1015 59 10000 4 300 10:22 01.08.2019
4333 Clouds 16 1014 63 10000 3 280 09:48 01.08.2019
4334 Clouds 16 1015 67 10000 2 270 09:23 01.08.2019
4335 Clouds 15 1015 71 10000 3 300 08:49 01.08.2019
4336 Clouds 15 1015 71 10000 3 300 08:21 01.08.2019
4337 Clouds 14 1015 76 10000 3 300 07:53 01.08.2019
4338 Clouds 14 1014 67 10000 2 290 07:29 01.08.2019
4339 Clouds 14 1014 67 10000 2 320 06:50 01.08.2019
4340 Clear 13 1014 71 10000 2 300 06:31 01.08.2019
4341 Clear 11 1014 76 10000 2 310 05:31 01.08.2019
4342 Clear 12 1014 71 10000 2 330 02:36 01.08.2019
4343 Clear 13 1013 58 10000 4 40 00:55 01.08.2019
4344 Clear 14 1013 58 10000 4 40 00:27 01.08.2019
4345 Clear 15 1013 59 10000 5 40 23:57 31.07.2019
4346 Clear 15 1012 55 10000 5 50 23:39 31.07.2019
4347 Clear 15 1012 55 10000 5 50 23:19 31.07.2019
4348 Clear 16 1012 55 10000 4 360 22:44 31.07.2019
4349 Clear 16 1012 55 10000 4 360 22:24 31.07.2019
4350 Clear 17 1011 52 10000 3 360 21:41 31.07.2019
4351 Clear 17 1011 52 10000 3 360 21:22 31.07.2019
4352 Clear 19 1011 52 10000 4 360 20:49 31.07.2019
4353 Clear 19 1011 52 10000 4 360 20:24 31.07.2019
4354 Clear 20 1010 43 10000 5 360 19:49 31.07.2019
4355 Clear 21 1010 43 10000 5 360 19:31 31.07.2019
4356 Clear 22 1010 43 10000 6 350 18:57 31.07.2019
4357 Clear 22 1009 43 10000 6 340 18:37 31.07.2019
4358 Clear 23 1009 40 10000 6 330 18:18 31.07.2019
4359 Clear 23 1009 43 10000 6 360 17:44 31.07.2019
4360 Clear 24 1009 41 10000 7 340 17:20 31.07.2019
4361 Clear 24 1009 41 10000 7 340 16:52 31.07.2019
4362 Clear 24 1008 44 10000 7 350 16:26 31.07.2019
4363 Clear 24 1008 44 10000 7 330 15:55 31.07.2019
4364 Clear 24 1008 47 10000 5 340 15:37 31.07.2019
4365 Clear 24 1009 50 10000 4 20 15:18 31.07.2019
4366 Clear 24 1008 50 10000 5 20 14:42 31.07.2019
4367 Clouds 24 1008 53 10000 5 360 14:19 31.07.2019
4368 Clouds 24 1008 53 10000 4 350 13:46 31.07.2019
4369 Clouds 25 1008 53 10000 4 350 13:28 31.07.2019
4370 Clouds 23 1008 60 10000 3 360 12:58 31.07.2019
4371 Clouds 24 1008 60 10000 3 360 12:40 31.07.2019
4372 Clouds 23 1008 56 10000 4 360 12:21 31.07.2019
4373 Clouds 23 1008 60 10000 3 10 11:39 31.07.2019
4374 Clouds 22 1008 60 10000 4 330 11:20 31.07.2019
4375 Clouds 22 1007 56 10000 4 10 10:45 31.07.2019
4376 Clouds 22 1007 68 10000 4 340 10:21 31.07.2019
4377 Clouds 22 1007 68 10000 4 340 09:58 31.07.2019
4378 Clouds 22 1007 68 10000 3 360 09:39 31.07.2019
4379 Clouds 22 1007 68 10000 3 360 09:39 31.07.2019
4380 Clear 21 1007 77 10000 4 340 09:21 31.07.2019
4381 Clouds 20 1006 82 10000 4 330 08:42 31.07.2019
4382 Clouds 20 1006 82 10000 4 330 08:22 31.07.2019
4383 Clouds 19 1006 88 10000 3 340 07:40 31.07.2019
4384 Clouds 19 1006 88 10000 3 340 07:22 31.07.2019
4385 Rain 19 1004 93 10000 2 320 04:56 31.07.2019
4386 Clouds 19 1004 93 10000 2 350 03:29 31.07.2019
4387 Mist 20 1004 100 4800 2 250 00:24 31.07.2019
4388 Rain 19 1004 100 6000 1 0 23:40 30.07.2019
4389 Rain 20 1004 100 6000 1 0 23:20 30.07.2019
4390 Mist 20 1004 100 4900 0.82 195.974 22:46 30.07.2019
4391 Mist 20 1004 100 4900 0.82 195.974 22:25 30.07.2019
4392 Mist 20 1004 100 5000 0.82 195.974 21:57 30.07.2019
4393 Rain 20 1004 100 9000 0.82 195.974 21:36 30.07.2019
4394 Clear 21 1004 100 10000 0.37 45.546 21:18 30.07.2019
4395 Clouds 21 1004 100 9000 0.99 77.214 20:43 30.07.2019
4396 Clouds 21 1004 100 9000 0.99 77.214 20:24 30.07.2019
4397 Rain 20 1004 100 10000 1 240 19:59 30.07.2019
4398 Rain 21 1004 94 10000 2 340 19:39 30.07.2019
4399 Rain 20 1004 77 9000 4 300 18:58 30.07.2019
4400 Thunderstorm 24 1004 83 9000 6 300 18:39 30.07.2019
4401 Rain 26 1004 57 10000 3 260 18:19 30.07.2019
4402 Clear 27 1004 54 10000 1 0 17:42 30.07.2019
4403 Clear 28 1004 48 10000 1 0 17:19 30.07.2019
4404 Clear 28 1004 48 10000 1 0 16:52 30.07.2019
4405 Clear 29 1004 45 10000 1 0 16:21 30.07.2019
4406 Clear 30 1004 45 10000 2 330 15:58 30.07.2019
4407 Clear 28 1004 48 10000 3 290 15:38 30.07.2019
4408 Rain 27 1005 54 10000 3 260 15:19 30.07.2019
4409 Thunderstorm 27 1005 57 10000 3 250 14:42 30.07.2019
4410 Thunderstorm 28 1005 57 10000 2 220 14:21 30.07.2019
4411 Thunderstorm 27 1005 57 10000 3 250 14:21 30.07.2019
4412 Clear 27 1005 54 10000 2 260 13:47 30.07.2019
4413 Clear 28 1005 54 10000 2 260 13:29 30.07.2019
4414 Clear 28 1005 61 10000 2 250 12:59 30.07.2019
4415 Clear 28 1005 61 10000 2 250 12:59 30.07.2019
4416 Clear 27 1006 69 10000 3 250 12:40 30.07.2019
4417 Clear 28 1006 69 10000 3 250 12:22 30.07.2019
4418 Clear 27 1006 69 10000 2 220 11:40 30.07.2019
4419 Clear 27 1006 69 10000 2 220 11:20 30.07.2019
4420 Clear 26 1006 69 10000 1 0 10:46 30.07.2019
4421 Clear 26 1006 69 10000 1 0 10:27 30.07.2019
4422 Clouds 25 1006 73 10000 1 0 09:50 30.07.2019
4423 Clouds 25 1006 73 10000 3.35 20.816 09:32 30.07.2019
4424 Thunderstorm 23 1015 56 10000 1 0 08:58 30.07.2019
4425 Clear 22 1015 56 10000 1 0 08:31 30.07.2019
4426 Rain 22 1005 83 6000 5 60 07:48 30.07.2019
4427 Rain 22 1005 83 6000 5 60 07:29 30.07.2019
4428 Thunderstorm 22 1005 83 10000 2 30 06:48 30.07.2019
4429 Clear 22 1005 83 10000 2 40 06:22 30.07.2019
4430 Rain 21 1005 94 10000 2 10 05:33 30.07.2019
4431 Clear 21 1005 88 10000 1.14 12.007 03:28 30.07.2019
4432 Clear 21 1005 94 10000 0.74 20.948 01:20 30.07.2019
4433 Clear 23 1005 83 10000 2 90 00:21 30.07.2019
4434 Clear 23 1005 88 10000 1 0 23:46 29.07.2019
4435 Clear 23 1005 88 10000 1 0 23:27 29.07.2019
4436 Clear 23 1005 83 10000 1 0 22:58 29.07.2019
4437 Clear 23 1005 88 10000 2 270 22:39 29.07.2019
4438 Clear 23 1005 88 10000 2 270 22:20 29.07.2019
4439 Clear 23 1005 88 10000 2 270 21:58 29.07.2019
4440 Clear 24 1005 88 10000 2 260 21:38 29.07.2019
4441 Clear 23 1005 88 10000 2 260 21:20 29.07.2019
4442 Clear 23 1005 88 10000 2 260 21:20 29.07.2019
4443 Clear 24 1004 88 10000 2 280 20:48 29.07.2019
4444 Clear 25 1004 94 10000 2 270 20:25 29.07.2019
4445 Clear 25 1004 94 10000 2 270 19:57 29.07.2019
4446 Clear 26 1004 88 10000 2.55 227.628 19:37 29.07.2019
4447 Clear 27 1004 78 10000 1 0 19:19 29.07.2019
4448 Clear 27 1004 83 10000 2 230 18:42 29.07.2019
4449 Clear 26 1004 88 10000 2 230 18:22 29.07.2019
4450 Clear 27 1004 83 10000 2 230 18:22 29.07.2019
4451 Clear 26 1004 88 10000 2 230 17:52 29.07.2019
4452 Rain 26 1004 88 10000 2 240 17:34 29.07.2019
4453 Thunderstorm 25 1005 83 10000 3 310 16:59 29.07.2019
4454 Clouds 24 1005 88 10000 2 190 16:40 29.07.2019
4455 Clouds 24 1005 88 10000 2 190 16:22 29.07.2019
4456 Thunderstorm 25 1006 83 8000 2 190 15:52 29.07.2019
4457 Thunderstorm 25 1006 78 1800 4 320 15:52 29.07.2019
4458 Thunderstorm 27 1006 78 1800 4 320 15:33 29.07.2019
4459 Thunderstorm 29 1006 57 10000 8 360 14:56 29.07.2019
4460 Clouds 30 1005 48 10000 3 120 14:37 29.07.2019
4461 Thunderstorm 30 1005 54 10000 3 110 14:19 29.07.2019
4462 Clouds 31 1005 43 10000 5 270 13:41 29.07.2019
4463 Clouds 31 1005 43 10000 5 270 13:23 29.07.2019
4464 Clouds 31 1006 45 10000 2 280 12:42 29.07.2019
4465 Clouds 31 1006 45 10000 2 280 12:23 29.07.2019
4466 Clear 30 1006 45 10000 2 180 11:43 29.07.2019
4467 Clear 31 1006 45 10000 2 180 11:22 29.07.2019
4468 Clear 30 1006 42 10000 1 0 10:46 29.07.2019
4469 Clear 30 1006 42 10000 1 0 10:25 29.07.2019
4470 Clear 29 1006 51 10000 1.12 329.185 09:50 29.07.2019
4471 Clear 28 1006 51 10000 0.79 4.349 09:28 29.07.2019
4472 Clear 28 1007 54 10000 1 0 08:57 29.07.2019
4473 Clear 27 1007 51 10000 0.46 28.909 08:31 29.07.2019
4474 Clear 27 1007 54 10000 1 0 07:58 29.07.2019
4475 Clear 26 1007 54 10000 0.46 28.909 07:36 29.07.2019
4476 Clear 22 1007 73 10000 0.46 28.909 06:45 29.07.2019
4477 Clear 17 1007 88 10000 0.43 283.619 05:46 29.07.2019
4478 Clear 17 1007 88 10000 0.43 283.619 04:50 29.07.2019
4479 Clear 18 1007 93 10000 0.94 220.362 01:59 29.07.2019
4480 Clear 18 1008 88 10000 0.94 220.362 01:41 29.07.2019
4481 Clear 19 1008 88 10000 1.53 198.554 01:21 29.07.2019
4482 Clear 20 1008 82 10000 1.53 198.554 00:41 29.07.2019
4483 Clear 21 1008 82 10000 1.37 152.366 00:18 29.07.2019
4484 Clear 21 1008 82 10000 1.37 152.366 23:40 28.07.2019
4485 Clear 21 1008 82 10000 1.37 152.366 23:18 28.07.2019
4486 Clear 22 1008 77 10000 1.37 152.366 22:37 28.07.2019
4487 Clear 22 1008 64 10000 2 80 22:18 28.07.2019
4488 Clear 23 1008 60 10000 2 100 21:43 28.07.2019
4489 Clear 25 1008 60 10000 2 100 21:18 28.07.2019
4490 Clear 26 1008 54 10000 1 170 20:44 28.07.2019
4491 Clear 26 1008 54 10000 1 170 20:26 28.07.2019
4492 Clear 28 1008 48 10000 1 170 19:42 28.07.2019
4493 Clear 28 1008 48 10000 1 170 19:22 28.07.2019
4494 Clear 30 1008 45 10000 1 0 18:51 28.07.2019
4495 Clear 30 1008 45 10000 1 0 18:30 28.07.2019
4496 Clear 30 1008 42 10000 1 0 17:58 28.07.2019
4497 Clear 30 1008 42 10000 1 0 17:58 28.07.2019
4498 Clear 30 1008 45 10000 2 240 17:40 28.07.2019
4499 Clear 30 1008 45 10000 2 240 17:20 28.07.2019
4500 Clear 31 1008 37 10000 1 0 16:47 28.07.2019
4501 Clear 31 1008 37 10000 1 0 16:28 28.07.2019
4502 Clear 30 1009 40 10000 1 0 15:57 28.07.2019
4503 Clear 30 1009 40 10000 1 0 15:57 28.07.2019
4504 Clear 31 1009 40 10000 2 230 15:39 28.07.2019
4505 Clear 31 1009 40 10000 2 230 15:20 28.07.2019
4506 Clear 30 1010 42 10000 2 170 14:37 28.07.2019
4507 Clear 30 1010 42 10000 1 0 14:18 28.07.2019
4508 Clear 30 1010 45 10000 2 50 13:41 28.07.2019
4509 Clear 29 1010 45 10000 2 50 13:21 28.07.2019
4510 Clear 29 1010 45 10000 2 60 12:58 28.07.2019
4511 Clear 28 1010 48 10000 2 90 12:39 28.07.2019
4512 Clear 28 1010 48 10000 2 90 12:19 28.07.2019
4513 Clear 28 1011 54 10000 2 40 11:44 28.07.2019
4514 Clear 28 1011 54 10000 2 40 11:26 28.07.2019
4515 Clear 27 1011 57 10000 3 80 10:39 28.07.2019
4516 Clear 27 1011 57 10000 3 80 10:39 28.07.2019
4517 Clear 26 1011 57 10000 3 80 10:20 28.07.2019
4518 Clear 25 1011 57 10000 2 80 09:41 28.07.2019
4519 Clear 25 1011 57 10000 2 80 09:41 28.07.2019
4520 Clear 26 1011 57 10000 2 80 09:23 28.07.2019
4521 Clear 25 1012 64 10000 3 80 08:46 28.07.2019
4522 Clear 24 1012 64 10000 3 80 08:28 28.07.2019
4523 Clear 23 1012 69 10000 3 80 07:51 28.07.2019
4524 Clear 22 1012 73 10000 2 90 07:32 28.07.2019
4525 Clear 19 1012 88 10000 1.6 83.933 06:38 28.07.2019
4526 Clear 15 1012 100 10000 1 0 05:23 28.07.2019
4527 Clear 17 1012 100 10000 1 70 03:23 28.07.2019
4528 Clear 18 1012 93 10000 1.51 114.428 02:19 28.07.2019
4529 Clear 19 1012 88 10000 1.56 108.679 01:18 28.07.2019
4530 Clear 18 1012 88 10000 1.56 108.679 00:44 28.07.2019
4531 Clear 19 1012 82 10000 2 80 23:56 27.07.2019
4532 Clear 19 1012 82 10000 2.88 98.401 23:38 27.07.2019
4533 Clear 20 1012 77 10000 1 90 23:18 27.07.2019
4534 Clear 20 1012 72 10000 2 80 22:40 27.07.2019
4535 Clear 21 1012 73 10000 2 110 22:18 27.07.2019
4536 Clear 22 1012 64 10000 2 110 21:39 27.07.2019
4537 Clear 22 1011 64 10000 2 120 21:19 27.07.2019
4538 Clear 23 1011 60 10000 2 120 20:50 27.07.2019
4539 Clear 23 1011 60 10000 2 120 20:23 27.07.2019
4540 Clear 24 1011 57 10000 2 110 19:43 27.07.2019
4541 Clear 24 1011 57 10000 2 110 19:25 27.07.2019
4542 Clear 24 1011 57 10000 2 110 19:25 27.07.2019
4543 Clear 26 1011 50 10000 4 90 18:50 27.07.2019
4544 Clear 26 1011 50 10000 4 90 18:32 27.07.2019
4545 Clear 27 1011 44 10000 3 60 17:52 27.07.2019
4546 Clear 27 1011 50 10000 3 70 17:33 27.07.2019
4547 Clear 27 1011 44 10000 3 70 16:58 27.07.2019
4548 Clear 27 1011 47 10000 3 90 16:39 27.07.2019
4549 Clear 27 1011 47 10000 3 90 16:19 27.07.2019
4550 Clear 26 1011 50 10000 4 60 15:44 27.07.2019
4551 Clear 27 1011 50 10000 4 60 15:19 27.07.2019
4552 Clouds 27 1011 54 10000 3 60 14:48 27.07.2019
4553 Clouds 27 1011 54 10000 3 60 14:29 27.07.2019
4554 Clouds 26 1012 54 10000 4 70 13:52 27.07.2019
4555 Clouds 27 1012 54 10000 4 70 13:25 27.07.2019
4556 Clouds 26 1012 54 10000 2 90 12:56 27.07.2019
4557 Clouds 26 1012 57 10000 3 70 12:37 27.07.2019
4558 Clouds 25 1012 57 10000 3 60 12:19 27.07.2019
4559 Clear 24 1012 57 10000 2 110 11:40 27.07.2019
4560 Clouds 25 1012 64 10000 3 80 11:21 27.07.2019
4561 Clouds 24 1012 64 10000 2 60 10:41 27.07.2019
4562 Clouds 23 1012 64 10000 2 60 10:22 27.07.2019
4563 Clear 23 1012 64 10000 3 90 09:42 27.07.2019
4564 Clear 22 1012 64 10000 3 90 09:23 27.07.2019
4565 Clear 22 1012 68 10000 3 80 08:50 27.07.2019
4566 Clear 22 1012 68 10000 3 80 08:50 27.07.2019
4567 Clear 21 1012 77 10000 2 70 08:31 27.07.2019
4568 Clear 20 1012 82 10000 2 80 07:56 27.07.2019
4569 Clear 20 1012 82 10000 1 0 07:56 27.07.2019
4570 Clear 20 1012 82 10000 1 0 07:34 27.07.2019
4571 Clear 19 1011 93 10000 2 90 06:58 27.07.2019
4572 Clear 18 1011 93 10000 2 100 06:32 27.07.2019
4573 Fog 17 1011 93 10000 2 90 05:54 27.07.2019
4574 Clear 17 1011 93 10000 2 80 05:32 27.07.2019
4575 Clear 16 1011 100 10000 2 90 04:35 27.07.2019
4576 Clear 16 1011 93 10000 2 90 03:37 27.07.2019
4577 Clear 17 1011 93 10000 2 90 02:41 27.07.2019
4578 Clear 17 1011 88 10000 2 90 01:52 27.07.2019
4579 Clear 18 1011 88 10000 2 90 01:28 27.07.2019
4580 Clear 18 1011 82 10000 2 70 00:33 27.07.2019
4581 Clouds 18 1011 82 9000 1 110 23:58 26.07.2019
4582 Clouds 18 1011 82 9000 1 110 23:38 26.07.2019
4583 Clouds 18 1011 82 9000 1 110 23:20 26.07.2019
4584 Clear 19 1011 77 10000 2 70 22:42 26.07.2019
4585 Clear 19 1011 77 10000 2 70 22:23 26.07.2019
4586 Clear 20 1011 77 10000 2.76 72.871 21:49 26.07.2019
4587 Clear 21 1011 68 10000 2 80 21:20 26.07.2019
4588 Clear 22 1011 64 10000 2 70 20:43 26.07.2019
4589 Clear 22 1011 60 10000 2 90 20:25 26.07.2019
4590 Clear 24 1011 56 10000 2 100 19:44 26.07.2019
4591 Clear 24 1011 56 10000 2 100 19:25 26.07.2019
4592 Clear 24 1011 53 10000 2 90 18:58 26.07.2019
4593 Clear 25 1011 53 10000 1 0 18:38 26.07.2019
4594 Clear 25 1011 53 10000 1 0 18:38 26.07.2019
4595 Clear 25 1011 47 10000 2 80 18:19 26.07.2019
4596 Clear 25 1011 47 10000 1 0 17:46 26.07.2019
4597 Clear 25 1012 50 10000 1 0 17:19 26.07.2019
4598 Clear 25 1012 50 10000 1 0 17:19 26.07.2019
4599 Clear 25 1012 50 10000 1 0 16:57 26.07.2019
4600 Clear 25 1012 53 10000 1 0 16:39 26.07.2019
4601 Clear 25 1012 53 10000 1 0 16:20 26.07.2019
4602 Clear 25 1012 57 10000 2 110 15:56 26.07.2019
4603 Clear 25 1012 57 10000 2 110 15:56 26.07.2019
4604 Clear 25 1012 47 10000 1 0 15:38 26.07.2019
4605 Clouds 26 1012 47 10000 2 110 15:19 26.07.2019
4606 Clear 25 1012 50 10000 3 120 14:43 26.07.2019
4607 Clear 25 1012 50 10000 3 120 14:22 26.07.2019
4608 Clouds 25 1012 53 10000 2 120 13:44 26.07.2019
4609 Clouds 25 1012 53 10000 2 120 13:26 26.07.2019
4610 Clouds 26 1012 57 10000 3 90 12:49 26.07.2019
4611 Clouds 25 1012 57 10000 3 90 12:22 26.07.2019
4612 Clear 24 1012 53 10000 2 80 11:48 26.07.2019
4613 Clear 24 1012 53 10000 2 80 11:22 26.07.2019
4614 Clear 24 1013 56 10000 3 80 10:58 26.07.2019
4615 Clear 24 1013 64 10000 2 130 10:39 26.07.2019
4616 Clear 24 1013 64 10000 2 130 10:39 26.07.2019
4617 Clear 22 1013 64 10000 3 120 10:18 26.07.2019
4618 Clear 22 1013 68 10000 3 110 09:42 26.07.2019
4619 Clear 22 1013 68 10000 3 110 09:24 26.07.2019
4620 Clear 21 1013 72 10000 2 120 08:40 26.07.2019
4621 Clear 21 1013 72 10000 2 120 08:20 26.07.2019
4622 Clear 19 1013 88 10000 2 90 07:39 26.07.2019
4623 Rain 18 1013 93 10000 1.59 186.081 07:18 26.07.2019
4624 Clear 16 1013 93 10000 1 220 05:44 26.07.2019
4625 Clear 17 1013 93 10000 3 280 04:30 26.07.2019
4626 Rain 17 1013 93 10000 1 0 03:44 26.07.2019
4627 Fog 16 1014 100 9000 0.29 276.858 01:45 26.07.2019
4628 Fog 16 1014 100 9000 0.93 276.225 01:18 26.07.2019
4629 Fog 17 1013 93 10000 2.35 337.352 00:27 26.07.2019
4630 Fog 16 1014 87 9000 1 0 23:40 25.07.2019
4631 Fog 17 1014 93 9000 2.35 337.352 23:19 25.07.2019
4632 Fog 16 1014 93 9000 2.35 337.352 22:41 25.07.2019
4633 Fog 16 1014 93 9000 2.35 337.352 22:21 25.07.2019
4634 Clear 17 1014 87 8000 2.35 337.352 21:47 25.07.2019
4635 Rain 19 1014 87 8000 2.8 15.478 21:23 25.07.2019
4636 Rain 20 1014 77 10000 1 250 20:51 25.07.2019
4637 Clear 21 1014 68 10000 2 30 20:33 25.07.2019
4638 Clear 21 1015 64 10000 2 10 19:57 25.07.2019
4639 Clear 22 1014 60 10000 3 10 19:39 25.07.2019
4640 Clear 23 1015 60 10000 2 20 19:21 25.07.2019
4641 Clear 23 1015 60 10000 4 20 18:41 25.07.2019
4642 Clear 23 1015 56 10000 4 360 18:22 25.07.2019
4643 Clear 24 1015 56 10000 4 360 17:48 25.07.2019
4644 Clear 23 1014 60 10000 3 20 17:30 25.07.2019
4645 Clear 24 1014 68 10000 5 20 16:56 25.07.2019
4646 Rain 24 1015 73 10000 8 20 16:37 25.07.2019
4647 Clear 25 1014 57 10000 3 40 16:18 25.07.2019
4648 Rain 25 1014 68 2900 6 10 15:38 25.07.2019
4649 Rain 25 1014 68 2900 6 10 15:19 25.07.2019
4650 Clear 25 1014 44 10000 5 40 14:41 25.07.2019
4651 Clear 25 1014 44 10000 7 20 14:22 25.07.2019
4652 Clear 25 1014 44 10000 7 360 13:44 25.07.2019
4653 Clear 25 1014 44 10000 7 360 13:26 25.07.2019
4654 Clouds 25 1015 56 10000 5 360 12:55 25.07.2019
4655 Clear 25 1015 50 10000 4 360 12:28 25.07.2019
4656 Clouds 25 1014 50 10000 5 350 11:45 25.07.2019
4657 Clouds 24 1014 50 10000 5 350 11:24 25.07.2019
4658 Clouds 25 1015 53 10000 5 350 10:55 25.07.2019
4659 Clouds 25 1015 53 10000 5 350 10:55 25.07.2019
4660 Clouds 24 1015 53 10000 5 340 10:36 25.07.2019
4661 Clear 23 1015 53 10000 4 340 10:18 25.07.2019
4662 Clear 22 1015 56 10000 3 320 09:40 25.07.2019
4663 Clear 21 1015 64 10000 3 340 08:59 25.07.2019
4664 Clear 20 1015 64 10000 3 330 08:40 25.07.2019
4665 Clear 19 1015 72 10000 3 320 07:55 25.07.2019
4666 Clear 19 1015 72 10000 3 320 07:30 25.07.2019
4667 Clear 17 1015 87 10000 3 310 06:42 25.07.2019
4668 Clear 17 1015 87 10000 3 310 06:42 25.07.2019
4669 Clear 16 1015 87 10000 2 320 05:37 25.07.2019
4670 Clear 15 1015 87 10000 3 320 04:57 25.07.2019
4671 Clear 15 1014 93 10000 3 320 04:19 25.07.2019
4672 Clear 16 1014 82 10000 4 330 01:31 25.07.2019
4673 Clear 17 1014 77 10000 4 330 00:45 25.07.2019
4674 Clear 17 1014 77 10000 3 330 00:19 25.07.2019
4675 Clear 18 1014 77 10000 3 330 23:44 24.07.2019
4676 Clear 18 1014 77 10000 3 330 23:25 24.07.2019
4677 Clear 19 1013 68 10000 3 350 22:47 24.07.2019
4678 Clear 19 1013 68 10000 3 350 22:25 24.07.2019
4679 Clear 19 1014 64 10000 3 330 21:59 24.07.2019
4680 Clear 18 1014 64 10000 4 340 21:41 24.07.2019
4681 Clear 19 1014 64 10000 4 340 21:20 24.07.2019
4682 Clear 19 1014 64 10000 4 330 20:48 24.07.2019
4683 Clear 20 1013 60 10000 4 330 20:29 24.07.2019
4684 Clear 20 1013 60 10000 3 340 19:59 24.07.2019
4685 Clear 21 1013 60 10000 4 330 19:41 24.07.2019
4686 Rain 21 1013 56 10000 5 330 19:21 24.07.2019
4687 Rain 22 1012 56 10000 3 360 18:45 24.07.2019
4688 Rain 22 1012 56 10000 3 360 18:24 24.07.2019
4689 Clear 23 1012 60 10000 5 20 17:49 24.07.2019
4690 Clear 23 1012 60 10000 5 20 17:25 24.07.2019
4691 Clear 23 1012 60 10000 4 10 16:59 24.07.2019
4692 Clear 23 1012 60 10000 4 10 16:59 24.07.2019
4693 Clear 23 1012 57 10000 5 10 16:39 24.07.2019
4694 Clear 23 1012 57 10000 5 10 16:21 24.07.2019
4695 Rain 21 1012 60 10000 7 20 15:38 24.07.2019
4696 Rain 21 1012 60 10000 7 20 15:20 24.07.2019
4697 Clouds 23 1012 47 10000 8 340 14:46 24.07.2019
4698 Clouds 23 1012 47 10000 8 340 14:22 24.07.2019
4699 Clouds 23 1012 47 10000 8 340 14:22 24.07.2019
4700 Clouds 25 1011 56 10000 6 330 13:41 24.07.2019
4701 Clouds 24 1011 56 10000 6 330 13:23 24.07.2019
4702 Clouds 23 1012 57 10000 6 350 12:54 24.07.2019
4703 Clouds 23 1012 60 10000 5 340 12:35 24.07.2019
4704 Clouds 23 1012 68 10000 6 350 11:57 24.07.2019
4705 Clouds 22 1012 64 10000 6 330 11:37 24.07.2019
4706 Clouds 21 1012 68 10000 6 340 11:18 24.07.2019
4707 Clouds 21 1012 68 10000 6 340 11:18 24.07.2019
4708 Clouds 21 1012 72 10000 6 330 10:41 24.07.2019
4709 Clouds 20 1012 77 10000 6 330 10:23 24.07.2019
4710 Clouds 20 1012 82 10000 5 310 09:44 24.07.2019
4711 Clouds 20 1012 82 10000 5 310 09:23 24.07.2019
4712 Clouds 19 1012 82 10000 5 320 08:52 24.07.2019
4713 Clouds 18 1011 88 10000 6 300 08:26 24.07.2019
4714 Clouds 18 1011 88 10000 6 310 07:47 24.07.2019
4715 Clouds 18 1011 88 10000 6 310 07:23 24.07.2019
4716 Clouds 17 1011 93 10000 4 300 06:28 24.07.2019
4717 Clouds 16 1011 93 10000 5 310 05:25 24.07.2019
4718 Clouds 16 1012 93 10000 4 280 01:56 24.07.2019
4719 Clouds 16 1012 93 9000 3 270 01:22 24.07.2019
4720 Rain 16 1013 87 10000 5 280 00:50 24.07.2019
4721 Rain 16 1013 93 10000 3 280 00:19 24.07.2019
4722 Rain 16 1013 87 7000 5 320 23:37 23.07.2019
4723 Rain 17 1013 72 10000 4 330 23:19 23.07.2019
4724 Rain 18 1013 63 10000 5 320 22:39 23.07.2019
4725 Rain 18 1013 63 10000 5 320 22:19 23.07.2019
4726 Clear 19 1013 56 10000 4 330 21:46 23.07.2019
4727 Clear 19 1013 56 10000 4 330 21:28 23.07.2019
4728 Clear 20 1013 56 10000 4 340 20:57 23.07.2019
4729 Clear 19 1013 56 10000 4 330 20:39 23.07.2019
4730 Clear 20 1013 49 10000 4 330 20:19 23.07.2019
4731 Clear 21 1013 52 10000 5 340 19:37 23.07.2019
4732 Clear 22 1013 56 10000 4 10 19:18 23.07.2019
4733 Clear 23 1013 40 10000 7 330 18:42 23.07.2019
4734 Clear 23 1012 41 10000 6 320 18:22 23.07.2019
4735 Clear 24 1012 41 10000 6 310 17:44 23.07.2019
4736 Clear 24 1012 41 10000 6 310 17:23 23.07.2019
4737 Clear 25 1012 41 10000 6 300 16:49 23.07.2019
4738 Clear 25 1012 41 10000 6 300 16:27 23.07.2019
4739 Clear 24 1012 41 10000 5 300 15:57 23.07.2019
4740 Clear 25 1013 44 10000 5 300 15:38 23.07.2019
4741 Clear 25 1013 44 10000 5 300 15:20 23.07.2019
4742 Clear 25 1013 41 10000 5 320 14:37 23.07.2019
4743 Clear 25 1013 38 10000 5 320 14:18 23.07.2019
4744 Clear 25 1013 38 10000 5 320 13:56 23.07.2019
4745 Clear 25 1013 38 10000 5 310 13:37 23.07.2019
4746 Clear 25 1014 41 10000 5 300 13:19 23.07.2019
4747 Clear 24 1014 44 10000 5 290 12:42 23.07.2019
4748 Clear 24 1014 44 10000 5 290 12:24 23.07.2019
4749 Clear 24 1014 49 10000 5 290 11:42 23.07.2019
4750 Clear 23 1014 49 10000 5 290 11:23 23.07.2019
4751 Clouds 23 1014 56 10000 5 300 10:51 23.07.2019
4752 Clear 23 1014 60 10000 5 290 10:26 23.07.2019
4753 Clear 22 1014 68 10000 3 280 09:44 23.07.2019
4754 Clear 21 1014 68 10000 3 280 09:22 23.07.2019
4755 Clear 21 1014 68 10000 3 280 08:57 23.07.2019
4756 Clear 20 1015 77 10000 4 300 08:38 23.07.2019
4757 Clear 20 1015 72 10000 3 320 08:18 23.07.2019
4758 Clear 19 1015 82 10000 5 320 07:44 23.07.2019
4759 Clear 19 1015 82 10000 5 320 07:26 23.07.2019
4760 Clear 17 1015 88 10000 3 270 06:36 23.07.2019
4761 Clear 16 1015 93 10000 3 260 04:45 23.07.2019
4762 Clear 17 1016 93 10000 2 250 01:46 23.07.2019
4763 Clear 17 1016 93 10000 3 240 00:47 23.07.2019
4764 Clear 18 1016 93 10000 2 230 00:20 23.07.2019
4765 Clear 18 1016 93 10000 2 250 23:39 22.07.2019
4766 Clear 18 1016 88 10000 3 260 23:20 22.07.2019
4767 Clear 19 1016 88 10000 2 260 22:46 22.07.2019
4768 Clear 19 1016 88 10000 2 260 22:46 22.07.2019
4769 Clear 19 1016 88 10000 2 260 22:26 22.07.2019
4770 Clear 19 1017 82 10000 2 270 21:57 22.07.2019
4771 Clear 19 1017 77 10000 3 300 21:39 22.07.2019
4772 Clear 19 1017 77 10000 3 300 21:19 22.07.2019
4773 Clear 20 1016 73 10000 4 310 20:42 22.07.2019
4774 Clear 21 1016 73 10000 4 310 20:22 22.07.2019
4775 Rain 22 1016 68 10000 3 340 19:43 22.07.2019
4776 Rain 22 1016 68 10000 3 340 19:23 22.07.2019
4777 Rain 22 1016 64 10000 6 310 18:55 22.07.2019
4778 Rain 22 1016 64 10000 6 310 18:37 22.07.2019
4779 Rain 22 1016 64 10000 6 310 18:19 22.07.2019
4780 Rain 24 1015 60 10000 4 310 17:39 22.07.2019
4781 Rain 24 1015 60 10000 4 310 17:20 22.07.2019
4782 Clouds 24 1016 64 10000 5 300 16:41 22.07.2019
4783 Clouds 25 1016 64 10000 5 290 16:21 22.07.2019
4784 Clouds 25 1016 64 10000 5 290 15:55 22.07.2019
4785 Clouds 24 1016 64 10000 7 290 15:36 22.07.2019
4786 Clouds 24 1016 64 10000 6 280 15:18 22.07.2019
4787 Clouds 24 1016 64 10000 6 280 14:42 22.07.2019
4788 Clouds 22 1016 69 10000 5 300 14:20 22.07.2019
4789 Clouds 22 1016 69 10000 5 300 14:20 22.07.2019
4790 Clouds 23 1017 78 10000 4 290 13:45 22.07.2019
4791 Clouds 23 1017 78 10000 4 290 13:45 22.07.2019
4792 Clouds 22 1017 78 10000 4 290 13:26 22.07.2019
4793 Rain 21 1017 83 10000 4 270 12:44 22.07.2019
4794 Rain 21 1017 83 10000 4 270 12:24 22.07.2019
4795 Rain 21 1017 83 10000 3 270 11:44 22.07.2019
4796 Rain 21 1017 94 10000 3 290 11:20 22.07.2019
4797 Rain 20 1017 94 10000 3 290 10:48 22.07.2019
4798 Rain 21 1016 73 10000 7 260 10:27 22.07.2019
4799 Rain 23 1016 73 10000 5 290 09:44 22.07.2019
4800 Rain 24 1016 73 10000 5 290 09:24 22.07.2019
4801 Clear 25 1016 60 10000 1 0 08:44 22.07.2019
4802 Clear 25 1016 60 10000 1 0 08:25 22.07.2019
4803 Clear 23 1016 64 10000 2 230 07:55 22.07.2019
4804 Clear 22 1016 68 10000 2 250 07:33 22.07.2019
4805 Clear 21 1016 73 10000 1 270 06:51 22.07.2019
4806 Clear 18 1017 88 10000 1.52 188.093 03:57 22.07.2019
4807 Clear 18 1017 88 10000 1.33 136.55 02:24 22.07.2019
4808 Clear 19 1017 93 10000 1.6 143.833 00:56 22.07.2019
4809 Clear 20 1018 88 10000 0.92 229.914 00:26 22.07.2019
4810 Clear 20 1018 82 10000 0.92 229.914 23:55 21.07.2019
4811 Clear 20 1018 82 10000 1 70 23:31 21.07.2019
4812 Clear 20 1018 82 10000 0.92 229.914 22:42 21.07.2019
4813 Clear 21 1018 82 10000 0.92 229.914 22:23 21.07.2019
4814 Clear 21 1018 82 10000 0.92 229.914 21:57 21.07.2019
4815 Rain 21 1018 77 9000 0.92 229.914 21:38 21.07.2019
4816 Clear 22 1018 73 10000 0.79 231.397 21:20 21.07.2019
4817 Clear 23 1017 64 10000 1 150 20:44 21.07.2019
4818 Clear 23 1017 64 10000 1 150 20:26 21.07.2019
4819 Clear 24 1017 64 10000 1 110 19:55 21.07.2019
4820 Clear 25 1017 61 10000 2 90 19:36 21.07.2019
4821 Clear 26 1017 54 10000 1 0 19:18 21.07.2019
4822 Clear 26 1017 50 10000 2.48 253.126 18:44 21.07.2019
4823 Clear 26 1017 50 10000 1.3 214.584 18:25 21.07.2019
4824 Clear 26 1017 50 10000 1.3 214.584 18:25 21.07.2019
4825 Clouds 25 1017 73 10000 2 70 17:42 21.07.2019
4826 Rain 25 1018 73 9000 3 90 17:20 21.07.2019
4827 Rain 25 1018 57 10000 5 50 16:45 21.07.2019
4828 Rain 25 1018 57 10000 5 50 16:25 21.07.2019
4829 Thunderstorm 26 1017 42 10000 2 230 15:57 21.07.2019
4830 Thunderstorm 28 1018 39 10000 3 280 15:36 21.07.2019
4831 Thunderstorm 29 1018 39 10000 2 190 15:18 21.07.2019
4832 Thunderstorm 29 1018 42 10000 2 180 14:41 21.07.2019
4833 Clouds 29 1018 37 10000 4 250 14:22 21.07.2019
4834 Clear 29 1018 39 10000 2 210 13:45 21.07.2019
4835 Clear 29 1018 39 10000 2 210 13:27 21.07.2019
4836 Clear 28 1019 44 10000 3 260 12:43 21.07.2019
4837 Clear 28 1019 44 10000 3 260 12:24 21.07.2019
4838 Clear 28 1019 44 10000 2 340 11:47 21.07.2019
4839 Clear 28 1019 44 10000 2 340 11:29 21.07.2019
4840 Clear 27 1019 39 10000 1 0 10:56 21.07.2019
4841 Clear 27 1019 44 10000 1 0 10:38 21.07.2019
4842 Clear 26 1019 47 10000 1 0 10:19 21.07.2019
4843 Clear 26 1019 53 10000 1 0 09:37 21.07.2019
4844 Clear 25 1019 50 10000 1 0 09:19 21.07.2019
4845 Clear 23 1019 56 10000 1 0 08:40 21.07.2019
4846 Clear 23 1019 56 10000 1 0 08:22 21.07.2019
4847 Clear 22 1019 68 10000 1 269.31 07:32 21.07.2019
4848 Clear 20 1019 82 10000 1 0 06:42 21.07.2019
4849 Clear 18 1019 77 10000 3 260 04:23 21.07.2019
4850 Clear 18 1019 87 10000 2 260 01:57 21.07.2019
4851 Clear 18 1019 87 10000 1 260 00:48 21.07.2019
4852 Clear 18 1019 87 10000 1.98 234.674 00:22 21.07.2019
4853 Clear 19 1019 72 10000 2 250 23:54 20.07.2019
4854 Clear 19 1019 82 10000 1 0 23:36 20.07.2019
4855 Clear 19 1019 77 10000 1 0 23:18 20.07.2019
4856 Clear 19 1019 77 10000 1 0 23:18 20.07.2019
4857 Clear 19 1019 77 10000 1 0 23:18 20.07.2019
4858 Rain 19 1019 77 9000 1.98 234.674 22:41 20.07.2019
4859 Rain 18 1019 77 9000 1.98 234.674 22:19 20.07.2019
4860 Clear 20 1018 60 10000 1.98 234.674 21:44 20.07.2019
4861 Clear 21 1018 60 10000 1.24 251.199 21:24 20.07.2019
4862 Clear 22 1018 56 10000 2 260 20:44 20.07.2019
4863 Clear 22 1018 56 10000 2 260 20:23 20.07.2019
4864 Clear 23 1018 49 10000 4 310 19:52 20.07.2019
4865 Clear 23 1018 49 10000 4 310 19:33 20.07.2019
4866 Clear 24 1018 47 10000 7 310 18:57 20.07.2019
4867 Clear 26 1018 39 10000 3 280 18:38 20.07.2019
4868 Clear 27 1017 34 10000 4 280 18:19 20.07.2019
4869 Clear 28 1018 34 10000 3 290 17:46 20.07.2019
4870 Clear 28 1018 32 10000 4 280 17:20 20.07.2019
4871 Clear 28 1017 30 10000 3 230 16:42 20.07.2019
4872 Clear 28 1018 28 10000 4 270 16:23 20.07.2019
4873 Clear 28 1018 30 10000 4 260 15:43 20.07.2019
4874 Clear 28 1018 34 10000 3 200 15:21 20.07.2019
4875 Clear 28 1018 34 10000 3 200 14:54 20.07.2019
4876 Clear 28 1018 30 10000 2 260 14:36 20.07.2019
4877 Clear 28 1018 36 10000 3 290 14:18 20.07.2019
4878 Clear 27 1018 36 10000 3 190 13:38 20.07.2019
4879 Clear 27 1018 36 10000 3 190 13:19 20.07.2019
4880 Clear 28 1018 36 10000 3 210 12:49 20.07.2019
4881 Clear 27 1018 34 10000 3 270 12:20 20.07.2019
4882 Clear 26 1018 36 10000 3 310 11:49 20.07.2019
4883 Clear 26 1018 38 10000 2 290 11:22 20.07.2019
4884 Clear 27 1018 39 10000 2 270 10:49 20.07.2019
4885 Clear 26 1018 39 10000 2 270 10:26 20.07.2019
4886 Clear 25 1018 44 10000 3 240 09:52 20.07.2019
4887 Clear 24 1018 47 10000 2 260 09:27 20.07.2019
4888 Clear 23 1018 49 10000 2 260 08:55 20.07.2019
4889 Clear 22 1018 56 10000 2 250 08:24 20.07.2019
4890 Clear 20 1018 68 10000 2 250 07:48 20.07.2019
4891 Clear 18 1018 77 10000 1 250 06:47 20.07.2019
4892 Clear 14 1018 93 10000 2 240 05:52 20.07.2019
4893 Clear 13 1017 93 10000 2 230 04:31 20.07.2019
4894 Clear 15 1017 87 10000 2 230 02:33 20.07.2019
4895 Clear 15 1017 93 10000 2 230 01:19 20.07.2019
4896 Clear 16 1017 82 10000 2 230 00:39 20.07.2019
4897 Clear 16 1017 82 10000 2 230 00:18 20.07.2019
4898 Clear 17 1017 82 10000 2 240 23:40 19.07.2019
4899 Clear 17 1016 72 10000 2 240 23:22 19.07.2019
4900 Clear 17 1016 72 10000 2 240 22:43 19.07.2019
4901 Clear 17 1016 72 10000 2 240 22:23 19.07.2019
4902 Clear 19 1016 59 10000 2 230 21:45 19.07.2019
4903 Clear 20 1016 59 10000 2 230 21:26 19.07.2019
4904 Clear 22 1015 52 10000 3 240 20:49 19.07.2019
4905 Clear 21 1015 52 10000 3 240 20:31 19.07.2019
4906 Clear 23 1015 44 10000 3 250 19:48 19.07.2019
4907 Clear 23 1015 44 10000 3 250 19:27 19.07.2019
4908 Clear 25 1015 41 10000 4 260 18:42 19.07.2019
4909 Clear 25 1015 41 10000 5 280 18:22 19.07.2019
4910 Clear 25 1015 41 10000 5 280 17:54 19.07.2019
4911 Clear 25 1015 38 10000 5 300 17:28 19.07.2019
4912 Clear 26 1015 39 10000 4 280 16:49 19.07.2019
4913 Clear 26 1015 39 10000 4 280 16:27 19.07.2019
4914 Clear 25 1015 41 10000 4 320 15:53 19.07.2019
4915 Clear 25 1015 41 10000 4 320 15:31 19.07.2019
4916 Clear 26 1015 44 10000 4 300 14:58 19.07.2019
4917 Clear 25 1015 41 10000 3 290 14:39 19.07.2019
4918 Clear 25 1015 41 10000 3 290 14:21 19.07.2019
4919 Clear 24 1015 46 10000 5 290 13:44 19.07.2019
4920 Clear 24 1015 46 10000 5 290 13:44 19.07.2019
4921 Clear 24 1015 46 10000 5 290 13:44 19.07.2019
4922 Clear 24 1015 46 10000 5 290 13:44 19.07.2019
4923 Clear 24 1015 46 10000 5 290 13:26 19.07.2019
4924 Clear 25 1015 41 10000 5 280 12:55 19.07.2019
4925 Clear 25 1015 44 10000 5 280 12:31 19.07.2019
4926 Clear 25 1015 44 10000 5 280 12:31 19.07.2019
4927 Clear 24 1015 49 10000 6 280 11:59 19.07.2019
4928 Clouds 24 1015 44 10000 6 280 11:41 19.07.2019
4929 Clouds 23 1015 44 10000 6 280 11:18 19.07.2019
4930 Clear 22 1015 56 10000 5 290 10:47 19.07.2019
4931 Clear 22 1015 56 10000 5 290 10:22 19.07.2019
4932 Clear 22 1015 56 10000 6 300 09:57 19.07.2019
4933 Clear 21 1015 64 10000 4 290 09:39 19.07.2019
4934 Clear 21 1015 64 10000 4 280 09:21 19.07.2019
4935 Clear 20 1015 72 10000 3 270 08:47 19.07.2019
4936 Clear 17 1015 82 10000 3 270 07:53 19.07.2019
4937 Clear 18 1015 77 10000 4 270 07:53 19.07.2019
4938 Clear 17 1015 82 10000 3 270 07:29 19.07.2019
4939 Clear 15 1014 87 10000 2 260 05:56 19.07.2019
4940 Clear 14 1013 87 10000 3 230 02:23 19.07.2019
4941 Clear 15 1013 87 10000 3 260 01:18 19.07.2019
4942 Clear 15 1013 82 10000 3 260 00:38 19.07.2019
4943 Clear 15 1013 82 10000 3 270 23:45 18.07.2019
4944 Clear 15 1013 82 10000 3 270 23:24 18.07.2019
4945 Clear 16 1012 77 10000 3 270 22:59 18.07.2019
4946 Clear 16 1012 77 10000 3 270 22:40 18.07.2019
4947 Clear 17 1012 77 10000 3 260 22:19 18.07.2019
4948 Clear 17 1012 72 10000 3 270 21:44 18.07.2019
4949 Clear 17 1012 72 10000 3 270 21:26 18.07.2019
4950 Clear 19 1011 59 10000 3 260 20:51 18.07.2019
4951 Clear 19 1011 59 10000 3 260 20:29 18.07.2019
4952 Clear 20 1011 56 10000 5 260 19:57 18.07.2019
4953 Clear 20 1011 56 10000 5 260 19:38 18.07.2019
4954 Clear 21 1011 56 10000 6 270 19:18 18.07.2019
4955 Clouds 21 1010 56 10000 5 270 18:41 18.07.2019
4956 Clouds 21 1010 56 10000 4 280 18:20 18.07.2019
4957 Rain 21 1010 60 10000 5 270 17:43 18.07.2019
4958 Rain 21 1010 52 10000 6 270 17:24 18.07.2019
4959 Clear 22 1010 49 10000 7 260 16:56 18.07.2019
4960 Clear 22 1010 49 10000 7 260 16:31 18.07.2019
4961 Clear 21 1010 52 10000 7 260 15:59 18.07.2019
4962 Clouds 22 1010 49 10000 7 270 15:39 18.07.2019
4963 Clear 21 1010 56 10000 6 270 15:21 18.07.2019
4964 Clear 20 1010 60 10000 5 270 14:45 18.07.2019
4965 Clear 20 1010 60 10000 5 270 14:26 18.07.2019
4966 Clouds 20 1010 68 10000 6 250 13:48 18.07.2019
4967 Rain 20 1010 52 10000 5 250 13:23 18.07.2019
4968 Clouds 21 1010 59 10000 5 260 12:50 18.07.2019
4969 Clouds 20 1010 56 10000 4 250 12:21 18.07.2019
4970 Clouds 21 1010 52 10000 5 270 11:58 18.07.2019
4971 Clouds 21 1010 52 10000 5 270 11:39 18.07.2019
4972 Clouds 19 1010 55 10000 5 250 11:20 18.07.2019
4973 Clouds 20 1010 55 10000 5 280 10:41 18.07.2019
4974 Clouds 18 1009 72 10000 4 260 09:50 18.07.2019
4975 Clouds 18 1009 72 10000 4 260 09:26 18.07.2019
4976 Clear 17 1009 82 10000 4 270 08:51 18.07.2019
4977 Clear 15 1009 82 10000 3 280 08:23 18.07.2019
4978 Clouds 15 1009 87 10000 3 260 07:55 18.07.2019
4979 Clear 15 1009 87 10000 4 280 07:34 18.07.2019
4980 Clouds 14 1009 93 10000 3 240 06:46 18.07.2019
4981 Clear 12 1009 93 10000 3 270 06:19 18.07.2019
4982 Clouds 12 1008 100 10000 3 270 03:29 18.07.2019
4983 Clouds 12 1008 100 9000 3 270 01:52 18.07.2019
4984 Clouds 12 1008 100 9000 3 270 01:33 18.07.2019
4985 Clouds 13 1008 93 10000 4 280 23:57 17.07.2019
4986 Clouds 13 1008 93 10000 4 280 23:21 17.07.2019
4987 Clear 14 1008 93 10000 2 260 22:58 17.07.2019
4988 Clear 14 1008 93 10000 2 260 22:40 17.07.2019
4989 Clear 14 1008 93 10000 2 250 22:21 17.07.2019
4990 Clear 14 1008 93 10000 2 260 21:56 17.07.2019
4991 Clear 14 1008 93 10000 2 260 21:36 17.07.2019
4992 Clear 15 1008 93 10000 3 250 21:18 17.07.2019
4993 Clear 15 1007 93 10000 3 240 20:41 17.07.2019
4994 Clear 15 1007 82 10000 2 250 20:21 17.07.2019
4995 Clear 15 1007 82 10000 2 250 19:59 17.07.2019
4996 Clear 15 1007 82 10000 2 250 19:40 17.07.2019
4997 Rain 16 1007 82 10000 4 290 19:19 17.07.2019
4998 Rain 17 1007 82 10000 7 270 18:42 17.07.2019
4999 Clear 19 1006 59 10000 4 270 18:21 17.07.2019
5000 Clear 19 1006 59 10000 4 270 18:21 17.07.2019
5001 Clear 19 1006 59 10000 4 270 17:55 17.07.2019
5002 Clear 19 1006 59 10000 4 270 17:37 17.07.2019
5003 Rain 20 1006 55 10000 4 250 17:18 17.07.2019
5004 Clouds 21 1006 63 10000 4 260 16:38 17.07.2019
5005 Clouds 21 1006 59 10000 9 290 16:19 17.07.2019
5006 Clouds 20 1006 59 10000 9 290 16:19 17.07.2019
5007 Clouds 21 1006 46 10000 4 260 15:51 17.07.2019
5008 Clouds 21 1006 46 10000 4 260 15:29 17.07.2019
5009 Clear 22 1006 46 10000 3 240 14:55 17.07.2019
5010 Clear 21 1006 49 10000 5 290 14:37 17.07.2019
5011 Clear 22 1007 52 10000 4 270 14:18 17.07.2019
5012 Clear 22 1007 52 10000 4 280 13:42 17.07.2019
5013 Clear 20 1007 56 10000 4 270 13:24 17.07.2019
5014 Clear 21 1007 52 10000 4 260 12:41 17.07.2019
5015 Clouds 21 1007 56 10000 3 240 12:21 17.07.2019
5016 Clouds 20 1007 68 10000 2 260 11:46 17.07.2019
5017 Clouds 19 1008 63 10000 2 280 11:22 17.07.2019
5018 Clouds 19 1008 63 10000 2 280 10:56 17.07.2019
5019 Clear 17 1008 72 10000 2 270 10:37 17.07.2019
5020 Rain 17 1008 82 10000 2 240 10:18 17.07.2019
5021 Rain 16 1008 82 10000 3 260 09:44 17.07.2019
5022 Rain 16 1008 82 10000 3 260 09:44 17.07.2019
5023 Rain 16 1008 87 10000 3 270 09:25 17.07.2019
5024 Clear 16 1008 82 10000 2 260 08:44 17.07.2019
5025 Clear 16 1007 87 10000 4 300 08:22 17.07.2019
5026 Clear 16 1007 82 10000 4 300 07:51 17.07.2019
5027 Clear 16 1007 82 10000 4 300 07:25 17.07.2019
5028 Clouds 15 1007 82 10000 3 320 06:58 17.07.2019
5029 Clear 15 1007 82 10000 4 280 06:30 17.07.2019
5030 Clear 15 1007 87 10000 4 270 05:50 17.07.2019
5031 Clear 15 1007 87 10000 4 270 05:30 17.07.2019
5032 Clear 15 1007 82 10000 2 260 04:45 17.07.2019
5033 Clear 14 1007 93 10000 2 220 03:29 17.07.2019
5034 Clear 14 1008 93 10000 1 230 02:19 17.07.2019
5035 Clear 15 1008 87 10000 2 250 01:26 17.07.2019
5036 Clear 14 1008 100 10000 2 250 00:55 17.07.2019
5037 Clear 15 1008 100 10000 2 230 00:36 17.07.2019
5038 Clear 16 1008 93 10000 1 230 00:18 17.07.2019
5039 Clear 16 1008 93 10000 1 250 23:38 16.07.2019
5040 Clear 16 1008 93 10000 2 230 23:18 16.07.2019
5041 Clear 16 1008 82 10000 1 0 22:42 16.07.2019
5042 Clear 16 1009 77 10000 2 220 22:24 16.07.2019
5043 Clear 18 1008 82 10000 1 240 21:47 16.07.2019
5044 Clear 19 1008 63 10000 1 240 21:22 16.07.2019
5045 Clear 19 1008 63 10000 1 240 20:58 16.07.2019
5046 Clear 20 1008 55 10000 1 270 20:39 16.07.2019
5047 Clear 21 1008 52 10000 2 270 20:21 16.07.2019
5048 Clear 22 1008 46 10000 3 290 19:52 16.07.2019
5049 Clear 22 1008 49 10000 5 280 19:29 16.07.2019
5050 Clear 22 1008 49 10000 5 280 18:58 16.07.2019
5051 Clear 22 1008 46 10000 4 280 18:39 16.07.2019
5052 Clear 24 1008 41 10000 5 270 18:20 16.07.2019
5053 Clear 24 1008 41 10000 4 280 17:42 16.07.2019
5054 Clear 24 1008 46 10000 2 310 17:21 16.07.2019
5055 Clear 24 1008 47 10000 1 0 16:45 16.07.2019
5056 Clear 24 1008 46 10000 4 20 16:23 16.07.2019
5057 Clear 24 1008 49 10000 1 0 15:55 16.07.2019
5058 Clear 24 1008 49 10000 1 0 15:37 16.07.2019
5059 Clear 23 1008 49 10000 3 360 15:18 16.07.2019
5060 Clear 24 1009 46 10000 2 330 14:42 16.07.2019
5061 Clear 23 1009 46 10000 2 350 14:23 16.07.2019
5062 Clear 23 1009 49 10000 3 360 13:46 16.07.2019
5063 Clear 23 1009 49 10000 3 360 13:27 16.07.2019
5064 Clouds 22 1009 49 10000 4 20 12:55 16.07.2019
5065 Clouds 23 1009 49 10000 4 20 12:37 16.07.2019
5066 Clouds 22 1009 52 10000 4 360 12:19 16.07.2019
5067 Clouds 22 1009 56 10000 4 360 11:43 16.07.2019
5068 Clouds 21 1010 60 10000 4 10 11:23 16.07.2019
5069 Clouds 22 1010 60 10000 4 10 10:57 16.07.2019
5070 Clouds 21 1010 56 10000 3 330 10:38 16.07.2019
5071 Clear 21 1010 64 10000 3 10 10:18 16.07.2019
5072 Clear 20 1010 64 10000 3 10 10:18 16.07.2019
5073 Clear 20 1010 64 10000 3 320 09:42 16.07.2019
5074 Clear 19 1010 72 10000 2 10 09:19 16.07.2019
5075 Clear 18 1010 77 10000 2 360 08:46 16.07.2019
5076 Mist 17 1010 82 10000 1 0 08:22 16.07.2019
5077 Mist 16 1010 82 10000 1 0 07:49 16.07.2019
5078 Fog 15 1010 87 10000 2 350 07:31 16.07.2019
5079 Fog 15 1010 93 10000 1 0 06:53 16.07.2019
5080 Fog 15 1010 93 10000 1 0 06:31 16.07.2019
5081 Fog 13 1010 100 9000 1 290 05:42 16.07.2019
5082 Fog 14 1010 100 9000 1 290 05:24 16.07.2019
5083 Fog 12 1010 93 10000 2 290 04:23 16.07.2019
5084 Mist 13 1010 93 10000 1 310 03:28 16.07.2019
5085 Fog 13 1010 100 9000 2 300 02:36 16.07.2019
5086 Clear 14 1010 100 10000 1 280 01:49 16.07.2019
5087 Clouds 14 1010 100 10000 3 320 00:53 16.07.2019
5088 Clouds 15 1010 100 10000 2 320 00:22 16.07.2019
5089 Clouds 15 1010 100 10000 2 320 23:54 15.07.2019
5090 Clear 15 1010 100 10000 1 0 23:36 15.07.2019
5091 Clouds 15 1010 93 9000 3 310 22:55 15.07.2019
5092 Clouds 15 1010 100 9000 1 290 22:37 15.07.2019
5093 Clouds 15 1010 100 9000 1.31 288.683 22:18 15.07.2019
5094 Rain 15 1010 100 9000 1.31 288.683 21:42 15.07.2019
5095 Clear 16 1010 100 10000 2 330 21:20 15.07.2019
5096 Clear 16 1010 100 10000 2 330 20:57 15.07.2019
5097 Clear 16 1010 87 10000 1 330 20:39 15.07.2019
5098 Rain 16 1010 82 10000 2 10 20:21 15.07.2019
5099 Rain 17 1010 82 10000 2 340 19:43 15.07.2019
5100 Rain 18 1010 82 10000 2 360 19:22 15.07.2019
5101 Rain 18 1010 82 10000 2 360 18:57 15.07.2019
5102 Rain 18 1010 77 10000 2 360 18:37 15.07.2019
5103 Clouds 18 1010 82 10000 2 30 18:18 15.07.2019
5104 Clouds 18 1010 82 10000 2 30 18:18 15.07.2019
5105 Clouds 18 1010 82 10000 2 30 18:18 15.07.2019
5106 Clouds 18 1010 77 10000 2 300 17:44 15.07.2019
5107 Rain 18 1010 88 10000 3 290 17:26 15.07.2019
5108 Rain 19 1010 88 10000 3 290 16:59 15.07.2019
5109 Rain 18 1010 82 10000 3 310 16:38 15.07.2019
5110 Rain 17 1010 88 10000 3 320 16:20 15.07.2019
5111 Rain 17 1010 88 10000 3 320 16:20 15.07.2019
5112 Rain 17 1010 88 10000 3 320 15:55 15.07.2019
5113 Rain 17 1010 88 10000 3 330 15:36 15.07.2019
5114 Rain 19 1010 88 10000 3 320 15:18 15.07.2019
5115 Rain 18 1010 88 10000 3 290 14:41 15.07.2019
5116 Rain 19 1010 88 10000 3 320 14:23 15.07.2019
5117 Rain 17 1010 93 8000 3 330 13:50 15.07.2019
5118 Rain 17 1010 93 8000 3 330 13:50 15.07.2019
5119 Rain 17 1010 93 9000 3 310 13:22 15.07.2019
5120 Rain 17 1010 93 9000 3 310 12:58 15.07.2019
5121 Rain 16 1010 93 10000 2 290 12:39 15.07.2019
5122 Rain 16 1010 93 9000 3 300 12:20 15.07.2019
5123 Rain 17 1010 93 10000 3 300 11:41 15.07.2019
5124 Rain 17 1010 93 10000 3 300 11:41 15.07.2019
5125 Rain 17 1010 93 10000 3 290 11:22 15.07.2019
5126 Rain 18 1010 93 9000 3 310 10:45 15.07.2019
5127 Rain 17 1009 93 9000 3 300 10:25 15.07.2019
5128 Rain 17 1009 93 10000 2 310 09:47 15.07.2019
5129 Rain 17 1009 93 10000 2 310 09:25 15.07.2019
5130 Rain 17 1009 93 10000 2 330 08:49 15.07.2019
5131 Rain 17 1009 93 10000 2 330 08:27 15.07.2019
5132 Rain 17 1009 93 10000 3 310 07:58 15.07.2019
5133 Rain 16 1009 93 10000 3 310 07:36 15.07.2019
5134 Clear 16 1009 100 10000 2 260 06:51 15.07.2019
5135 Clear 16 1009 100 10000 2 260 06:32 15.07.2019
5136 Clear 15 1009 93 10000 2 230 05:44 15.07.2019
5137 Clear 15 1009 93 10000 1 0 05:19 15.07.2019
5138 Clear 15 1009 93 10000 1 0 04:41 15.07.2019
5139 Rain 16 1009 87 10000 1 0 03:30 15.07.2019
5140 Rain 16 1009 87 10000 1.69 126.795 02:26 15.07.2019
5141 Rain 16 1009 87 10000 2 340 01:38 15.07.2019
5142 Rain 16 1009 93 10000 1.83 173.563 00:54 15.07.2019
5143 Rain 16 1009 93 10000 2.94 129.733 00:29 15.07.2019
5144 Rain 16 1009 93 10000 1 0 00:00 15.07.2019
5145 Rain 16 1009 93 10000 1 0 23:41 14.07.2019
5146 Clouds 16 1009 87 10000 2 240 23:21 14.07.2019
5147 Clouds 16 1009 87 10000 2 240 22:58 14.07.2019
5148 Rain 16 1010 87 10000 2 240 22:38 14.07.2019
5149 Rain 16 1010 82 10000 2 230 22:20 14.07.2019
5150 Rain 17 1010 82 10000 3 260 21:46 14.07.2019
5151 Rain 16 1009 87 10000 3 270 21:19 14.07.2019
5152 Rain 16 1009 87 10000 3 270 20:59 14.07.2019
5153 Rain 17 1009 77 10000 1 0 20:38 14.07.2019
5154 Rain 17 1009 77 10000 1 0 20:38 14.07.2019
5155 Rain 17 1009 77 10000 1 0 20:38 14.07.2019
5156 Clear 17 1009 82 10000 2.63 146.213 20:20 14.07.2019
5157 Clear 17 1009 82 10000 2.63 146.213 19:55 14.07.2019
5158 Rain 18 1009 77 10000 2.63 146.213 19:36 14.07.2019
5159 Rain 18 1009 77 10000 2 150 19:18 14.07.2019
5160 Clear 18 1009 82 10000 2 140 18:41 14.07.2019
5161 Clear 19 1009 77 10000 3 110 18:22 14.07.2019
5162 Clear 19 1009 77 10000 3 110 17:58 14.07.2019
5163 Rain 19 1009 77 10000 3 100 17:23 14.07.2019
5164 Rain 19 1009 88 10000 3 100 16:54 14.07.2019
5165 Rain 18 1009 88 10000 3 100 16:26 14.07.2019
5166 Rain 18 1009 88 10000 4 90 15:58 14.07.2019
5167 Clouds 19 1009 88 10000 3 100 15:38 14.07.2019
5168 Thunderstorm 18 1010 93 6000 3 100 15:19 14.07.2019
5169 Thunderstorm 18 1009 82 7000 6 40 14:44 14.07.2019
5170 Thunderstorm 18 1009 77 8000 8 40 14:20 14.07.2019
5171 Thunderstorm 22 1008 52 10000 4 100 13:45 14.07.2019
5172 Thunderstorm 21 1008 49 10000 4 110 13:23 14.07.2019
5173 Thunderstorm 22 1008 49 10000 4 110 12:56 14.07.2019
5174 Thunderstorm 23 1009 53 10000 4 110 12:37 14.07.2019
5175 Thunderstorm 24 1009 49 10000 4 120 12:18 14.07.2019
5176 Clouds 23 1009 49 10000 3 140 11:45 14.07.2019
5177 Clouds 24 1009 53 10000 4 110 11:20 14.07.2019
5178 Clear 24 1009 53 10000 3 160 10:42 14.07.2019
5179 Clear 23 1009 56 10000 2 130 10:20 14.07.2019
5180 Clear 22 1009 60 10000 3 130 09:45 14.07.2019
5181 Clear 21 1009 60 10000 3 130 09:27 14.07.2019
5182 Clear 20 1009 63 10000 2 140 08:46 14.07.2019
5183 Clear 20 1009 59 10000 2 140 08:24 14.07.2019
5184 Clear 19 1009 63 10000 3 130 07:41 14.07.2019
5185 Clear 18 1009 72 10000 2 120 07:19 14.07.2019
5186 Clear 13 1010 100 10000 1.5 162.639 05:45 14.07.2019
5187 Clear 13 1010 100 10000 1.5 162.639 05:45 14.07.2019
5188 Clear 13 1009 87 10000 1 90 03:51 14.07.2019
5189 Clear 13 1009 87 10000 1 90 03:33 14.07.2019
5190 Clear 14 1010 87 10000 2.11 158.581 02:52 14.07.2019
5191 Clear 14 1010 87 10000 2.11 158.581 02:22 14.07.2019
5192 Clear 14 1010 93 10000 1 0 01:34 14.07.2019
5193 Clear 13 1010 87 10000 1 120 00:59 14.07.2019
5194 Clear 14 1010 87 10000 1 140 00:40 14.07.2019
5195 Clear 15 1010 82 10000 2.63 133.923 00:20 14.07.2019
5196 Clear 15 1010 72 10000 2 240 23:45 13.07.2019
5197 Clear 15 1010 72 10000 2 240 23:26 13.07.2019
5198 Clear 15 1010 76 10000 1 0 22:59 13.07.2019
5199 Clear 16 1010 72 10000 2 110 22:39 13.07.2019
5200 Clear 16 1010 72 10000 1 0 22:20 13.07.2019
5201 Clear 17 1010 63 10000 1 0 21:43 13.07.2019
5202 Clear 17 1010 59 10000 2 120 21:19 13.07.2019
5203 Clear 18 1009 55 10000 2 120 20:46 13.07.2019
5204 Clear 18 1009 55 10000 2 120 20:27 13.07.2019
5205 Clear 20 1009 52 10000 2 70 19:47 13.07.2019
5206 Clear 21 1009 43 10000 4 60 19:29 13.07.2019
5207 Clear 22 1009 43 10000 2 90 18:45 13.07.2019
5208 Clear 22 1009 40 10000 2 90 18:22 13.07.2019
5209 Clear 22 1009 40 10000 2 80 17:40 13.07.2019
5210 Clear 22 1009 40 10000 1 0 17:20 13.07.2019
5211 Clear 22 1009 40 10000 1 0 16:57 13.07.2019
5212 Clear 22 1009 49 10000 3 80 16:37 13.07.2019
5213 Clear 22 1009 49 10000 3 80 16:37 13.07.2019
5214 Clear 22 1009 43 10000 3 60 16:19 13.07.2019
5215 Clear 22 1009 43 10000 2 60 15:43 13.07.2019
5216 Clear 21 1009 40 10000 4 40 15:21 13.07.2019
5217 Clouds 22 1009 46 10000 4 30 14:44 13.07.2019
5218 Clear 21 1009 40 10000 3 340 14:22 13.07.2019
5219 Clear 22 1009 43 10000 3 270 13:46 13.07.2019
5220 Clear 22 1009 43 10000 3 270 13:24 13.07.2019
5221 Clouds 22 1009 60 10000 3 330 12:59 13.07.2019
5222 Clouds 21 1009 60 10000 3 330 12:37 13.07.2019
5223 Clouds 21 1010 56 10000 3 330 12:18 13.07.2019
5224 Clouds 21 1010 56 10000 2 360 11:41 13.07.2019
5225 Clouds 21 1010 63 10000 3 30 11:19 13.07.2019
5226 Clouds 21 1010 63 10000 3 30 11:19 13.07.2019
5227 Clouds 20 1010 63 10000 2 20 10:44 13.07.2019
5228 Clouds 20 1010 63 10000 2 20 10:23 13.07.2019
5229 Clouds 20 1010 63 10000 2 20 10:23 13.07.2019
5230 Clouds 18 1009 63 10000 3 330 09:53 13.07.2019
5231 Clouds 18 1009 63 10000 3 330 09:31 13.07.2019
5232 Clear 18 1009 77 10000 3 320 08:58 13.07.2019
5233 Clear 17 1009 77 10000 2 290 08:32 13.07.2019
5234 Clear 16 1009 87 10000 1 0 07:58 13.07.2019
5235 Clear 15 1009 93 10000 2 270 07:30 13.07.2019
5236 Clouds 14 1009 100 10000 3 270 06:39 13.07.2019
5237 Fog 13 1009 100 9000 2 260 05:57 13.07.2019
5238 Clear 12 1009 100 9000 1 0 04:42 13.07.2019
5239 Clear 12 1009 100 10000 2 290 04:22 13.07.2019
5240 Clear 12 1009 100 10000 2 290 03:55 13.07.2019
5241 Clear 12 1009 100 10000 2 290 03:37 13.07.2019
5242 Clear 13 1009 100 10000 3 280 01:54 13.07.2019
5243 Clear 13 1009 100 10000 3 280 01:36 13.07.2019
5244 Clear 14 1009 100 10000 1 290 01:18 13.07.2019
5245 Clear 14 1009 100 10000 1 0 00:46 13.07.2019
5246 Clear 14 1009 93 10000 2 100 00:18 13.07.2019
5247 Rain 14 1009 87 9000 1 0 23:42 12.07.2019
5248 Rain 14 1009 87 9000 1 0 23:23 12.07.2019
5249 Rain 14 1009 93 10000 1 60 22:42 12.07.2019
5250 Rain 14 1009 93 10000 1 60 22:23 12.07.2019
5251 Rain 16 1009 93 10000 1 0 21:42 12.07.2019
5252 Rain 16 1009 87 10000 2 130 21:21 12.07.2019
5253 Rain 16 1009 87 10000 2 130 20:54 12.07.2019
5254 Clouds 18 1008 68 10000 1 90 20:24 12.07.2019
5255 Clear 19 1008 63 10000 1 330 19:45 12.07.2019
5256 Clear 19 1008 63 10000 1 330 19:27 12.07.2019
5257 Clear 19 1008 63 10000 2 320 18:59 12.07.2019
5258 Clouds 19 1008 68 10000 2 320 18:38 12.07.2019
5259 Clouds 18 1008 77 10000 1 0 18:19 12.07.2019
5260 Rain 19 1008 77 9000 6 320 17:47 12.07.2019
5261 Rain 20 1008 77 9000 6 320 17:27 12.07.2019
5262 Rain 21 1008 38 10000 5 320 16:43 12.07.2019
5263 Clouds 21 1008 49 10000 3 330 16:20 12.07.2019
5264 Clear 20 1008 49 10000 4 330 15:41 12.07.2019
5265 Rain 19 1008 52 10000 4 300 15:21 12.07.2019
5266 Rain 20 1008 52 10000 4 300 14:56 12.07.2019
5267 Clouds 20 1008 68 10000 4 330 14:38 12.07.2019
5268 Rain 20 1008 59 10000 7 330 14:19 12.07.2019
5269 Clouds 22 1007 49 10000 4 270 13:39 12.07.2019
5270 Clouds 21 1008 60 10000 3 280 12:58 12.07.2019
5271 Clouds 21 1008 60 10000 3 280 12:38 12.07.2019
5272 Clouds 22 1008 60 10000 4 270 12:20 12.07.2019
5273 Clouds 21 1008 56 10000 4 320 11:44 12.07.2019
5274 Clouds 21 1008 68 10000 4 290 11:20 12.07.2019
5275 Clear 20 1008 64 10000 3 290 10:44 12.07.2019
5276 Clear 19 1008 72 10000 3 290 10:24 12.07.2019
5277 Clear 18 1008 77 10000 3 310 09:54 12.07.2019
5278 Clear 18 1008 77 10000 3 310 09:30 12.07.2019
5279 Clear 18 1008 77 10000 3 310 09:30 12.07.2019
5280 Clear 18 1008 77 10000 3 310 09:30 12.07.2019
5281 Clouds 17 1008 82 10000 3 290 08:59 12.07.2019
5282 Clear 16 1008 87 10000 3 280 08:39 12.07.2019
5283 Clear 16 1008 93 10000 4 270 08:18 12.07.2019
5284 Clear 16 1008 87 10000 4 280 07:44 12.07.2019
5285 Clear 15 1008 87 10000 4 280 07:26 12.07.2019
5286 Clear 13 1008 93 10000 3 270 06:29 12.07.2019
5287 Clear 12 1008 100 10000 2 250 05:47 12.07.2019
5288 Clear 12 1007 100 10000 2 250 03:23 12.07.2019
5289 Clear 12 1007 93 10000 3 260 01:43 12.07.2019
5290 Clear 12 1007 93 10000 3 280 00:58 12.07.2019
5291 Clear 13 1007 100 10000 3 270 00:27 12.07.2019
5292 Clear 13 1007 87 10000 2 280 23:49 11.07.2019
5293 Clear 13 1007 87 10000 2 280 23:26 11.07.2019
5294 Clear 14 1007 87 10000 4 300 22:58 11.07.2019
5295 Clear 14 1007 87 10000 4 300 22:39 11.07.2019
5296 Clear 14 1007 87 10000 2 240 22:21 11.07.2019
5297 Clear 14 1007 82 10000 3 250 21:41 11.07.2019
5298 Clouds 15 1007 77 10000 2 280 21:19 11.07.2019
5299 Clear 15 1007 82 10000 2 260 20:55 11.07.2019
5300 Clear 16 1007 77 10000 3 260 20:36 11.07.2019
5301 Rain 16 1007 72 10000 4 270 20:18 11.07.2019
5302 Clear 17 1006 77 10000 4 280 19:43 11.07.2019
5303 Clear 18 1006 63 10000 4 310 19:23 11.07.2019
5304 Rain 18 1006 77 10000 3 260 18:44 11.07.2019
5305 Rain 18 1006 77 10000 3 260 18:26 11.07.2019
5306 Rain 18 1006 59 10000 5 260 17:54 11.07.2019
5307 Rain 18 1006 59 10000 5 260 17:36 11.07.2019
5308 Thunderstorm 18 1006 63 10000 6 280 17:18 11.07.2019
5309 Rain 19 1006 49 10000 6 280 16:42 11.07.2019
5310 Rain 19 1006 49 10000 6 280 16:42 11.07.2019
5311 Clouds 20 1006 59 10000 4 250 16:21 11.07.2019
5312 Clouds 20 1006 60 10000 4 300 15:44 11.07.2019
5313 Clouds 20 1006 60 10000 4 300 15:44 11.07.2019
5314 Clouds 19 1006 55 10000 4 270 15:24 11.07.2019
5315 Clouds 19 1006 55 10000 4 270 14:58 11.07.2019
5316 Clouds 19 1006 55 10000 4 280 14:38 11.07.2019
5317 Clouds 20 1006 59 10000 4 310 14:19 11.07.2019
5318 Clouds 20 1006 59 10000 4 310 14:19 11.07.2019
5319 Clouds 20 1006 63 10000 4 280 13:42 11.07.2019
5320 Clouds 19 1006 59 10000 3 300 13:23 11.07.2019
5321 Clouds 18 1006 63 10000 4 290 12:39 11.07.2019
5322 Clouds 18 1006 63 10000 4 300 12:19 11.07.2019
5323 Clouds 18 1007 67 10000 5 280 11:50 11.07.2019
5324 Clouds 18 1006 68 10000 5 290 11:30 11.07.2019
5325 Clouds 16 1006 82 10000 5 290 10:54 11.07.2019
5326 Clouds 15 1006 87 10000 5 290 10:20 11.07.2019
5327 Clouds 15 1006 87 10000 5 290 09:57 11.07.2019
5328 Clouds 15 1006 87 10000 4 290 09:39 11.07.2019
5329 Clouds 14 1006 93 10000 4 290 09:20 11.07.2019
5330 Clouds 14 1006 93 10000 4 280 08:42 11.07.2019
5331 Clouds 13 1006 93 10000 4 280 08:20 11.07.2019
5332 Clouds 13 1006 100 10000 4 280 07:46 11.07.2019
5333 Clouds 13 1006 93 10000 5 280 07:28 11.07.2019
5334 Clouds 12 1006 100 10000 4 280 06:21 11.07.2019
5335 Clouds 12 1006 93 10000 4 290 05:43 11.07.2019
5336 Clouds 12 1006 93 10000 4 290 05:24 11.07.2019
5337 Clouds 11 1005 100 10000 4 290 03:58 11.07.2019
5338 Clouds 12 1006 100 10000 4 270 02:34 11.07.2019
5339 Clear 12 1006 100 10000 4 270 00:48 11.07.2019
5340 Clear 13 1006 93 10000 4 280 23:52 10.07.2019
5341 Clear 13 1006 93 10000 4 280 23:31 10.07.2019
5342 Clear 14 1006 87 10000 4 280 22:58 10.07.2019
5343 Clear 14 1006 82 10000 4 280 22:27 10.07.2019
5344 Clear 14 1005 82 10000 4 290 21:59 10.07.2019
5345 Clouds 15 1005 82 10000 4 280 21:39 10.07.2019
5346 Rain 15 1005 82 10000 3 280 21:21 10.07.2019
5347 Clear 16 1005 72 10000 5 280 20:48 10.07.2019
5348 Clear 16 1005 72 10000 5 280 20:27 10.07.2019
5349 Rain 17 1005 67 10000 5 280 19:59 10.07.2019
5350 Rain 17 1005 67 10000 5 280 19:40 10.07.2019
5351 Rain 17 1005 63 10000 6 260 19:21 10.07.2019
5352 Rain 18 1005 63 10000 4 270 18:46 10.07.2019
5353 Rain 19 1005 63 10000 2 320 18:24 10.07.2019
5354 Rain 19 1005 63 10000 4 280 17:50 10.07.2019
5355 Rain 19 1005 63 10000 4 280 17:30 10.07.2019
5356 Clouds 19 1005 59 10000 6 260 16:48 10.07.2019
5357 Clouds 18 1005 56 10000 6 260 16:22 10.07.2019
5358 Clouds 18 1005 63 10000 7 250 15:47 10.07.2019
5359 Clouds 19 1005 87 10000 4 310 15:26 10.07.2019
5360 Clouds 19 1005 87 10000 4 310 14:59 10.07.2019
5361 Thunderstorm 19 1005 55 10000 8 260 14:37 10.07.2019
5362 Clouds 21 1005 55 10000 6 260 14:19 10.07.2019
5363 Clouds 20 1004 56 10000 5 270 13:38 10.07.2019
5364 Clouds 20 1005 56 10000 6 270 13:18 10.07.2019
5365 Rain 19 1005 59 10000 6 270 12:41 10.07.2019
5366 Clouds 18 1005 63 10000 7 270 12:21 10.07.2019
5367 Rain 17 1005 72 10000 5 260 11:50 10.07.2019
5368 Rain 16 1005 77 10000 5 270 11:22 10.07.2019
5369 Clouds 16 1005 77 10000 5 270 10:58 10.07.2019
5370 Clouds 16 1005 77 10000 5 270 10:24 10.07.2019
5371 Rain 16 1006 82 10000 6 260 09:59 10.07.2019
5372 Clouds 15 1005 82 9000 5 260 09:41 10.07.2019
5373 Clouds 15 1005 77 10000 6 270 09:20 10.07.2019
5374 Clouds 15 1005 76 10000 6 270 08:49 10.07.2019
5375 Clouds 14 1005 76 10000 6 270 08:26 10.07.2019
5376 Clouds 14 1005 82 10000 7 270 07:51 10.07.2019
5377 Clouds 14 1005 82 10000 7 280 07:24 10.07.2019
5378 Clear 13 1005 87 10000 6 270 06:40 10.07.2019
5379 Clear 13 1006 81 10000 5 260 05:42 10.07.2019
5380 Clear 13 1006 76 10000 4 250 04:33 10.07.2019
5381 Clear 12 1006 81 10000 3 250 02:38 10.07.2019
5382 Clear 13 1007 71 10000 4 260 00:44 10.07.2019
5383 Clear 14 1008 76 10000 3 250 23:44 09.07.2019
5384 Clear 14 1008 76 10000 3 250 23:25 09.07.2019
5385 Clear 14 1008 71 10000 4 260 22:58 09.07.2019
5386 Clear 14 1008 71 10000 4 260 22:40 09.07.2019
5387 Clear 15 1008 67 10000 5 300 22:20 09.07.2019
5388 Clear 16 1008 63 10000 4 300 21:47 09.07.2019
5389 Clear 16 1008 63 10000 4 300 21:26 09.07.2019
5390 Clouds 17 1008 55 10000 8 300 20:55 09.07.2019
5391 Clear 18 1007 48 10000 5 260 20:36 09.07.2019
5392 Clear 18 1007 48 10000 5 250 20:18 09.07.2019
5393 Clear 19 1007 45 10000 5 260 19:37 09.07.2019
5394 Clear 19 1007 40 10000 6 270 19:19 09.07.2019
5395 Clear 20 1007 42 10000 5 260 18:39 09.07.2019
5396 Clear 21 1007 42 10000 5 250 18:19 09.07.2019
5397 Clear 21 1007 43 10000 5 260 17:44 09.07.2019
5398 Clear 21 1007 40 10000 6 260 17:21 09.07.2019
5399 Clear 21 1007 40 10000 6 260 16:58 09.07.2019
5400 Clear 21 1007 43 10000 5 290 16:39 09.07.2019
5401 Clear 21 1007 43 10000 5 290 16:21 09.07.2019
5402 Clear 21 1008 46 10000 6 270 15:41 09.07.2019
5403 Clear 21 1008 49 10000 8 280 15:22 09.07.2019
5404 Clear 20 1008 46 10000 9 270 14:43 09.07.2019
5405 Rain 20 1008 49 10000 9 270 14:23 09.07.2019
5406 Clouds 21 1008 49 10000 8 280 13:50 09.07.2019
5407 Clouds 20 1009 52 10000 8 280 13:29 09.07.2019
5408 Clouds 20 1009 59 10000 6 260 12:59 09.07.2019
5409 Clouds 19 1009 59 10000 6 260 12:38 09.07.2019
5410 Clouds 19 1009 55 10000 7 260 12:19 09.07.2019
5411 Clear 19 1009 59 10000 8 270 11:42 09.07.2019
5412 Clouds 18 1009 55 10000 6 260 11:22 09.07.2019
5413 Clouds 18 1009 55 10000 6 260 10:59 09.07.2019
5414 Clouds 19 1009 59 10000 8 270 10:40 09.07.2019
5415 Clouds 18 1009 59 10000 7 270 10:21 09.07.2019
5416 Clouds 18 1009 59 10000 6 270 09:38 09.07.2019
5417 Clouds 17 1009 63 10000 7 280 09:20 09.07.2019
5418 Clear 17 1009 63 10000 6 280 08:44 09.07.2019
5419 Clear 17 1009 67 10000 5 280 08:18 09.07.2019
5420 Clear 11 1017 81 10000 2 190 03:45 05.07.2019
5421 Clear 11 1018 87 10000 1 200 03:21 05.07.2019
5422 Clear 11 1018 87 10000 1 200 02:52 05.07.2019
5423 Clear 11 1018 81 10000 1 220 02:20 05.07.2019
5424 Clear 12 1018 76 10000 2 230 01:34 05.07.2019
5425 Clear 13 1018 62 10000 2 270 00:52 05.07.2019
5426 Clear 14 1018 58 10000 3 300 00:31 05.07.2019
5427 Clear 14 1018 58 10000 3 290 23:40 04.07.2019
5428 Clear 15 1017 58 10000 3 280 23:19 04.07.2019
5429 Clear 14 1017 54 10000 3 270 22:42 04.07.2019
5430 Clear 15 1017 54 10000 3 280 22:23 04.07.2019
5431 Clear 16 1017 51 10000 3 280 21:45 04.07.2019
5432 Clear 17 1017 48 10000 3 270 21:26 04.07.2019
5433 Clear 17 1017 48 10000 3 270 20:59 04.07.2019
5434 Clear 18 1017 42 10000 4 280 20:38 04.07.2019
5435 Clear 19 1017 39 10000 5 300 20:19 04.07.2019
5436 Clear 19 1017 39 10000 6 300 19:42 04.07.2019
5437 Clear 19 1017 39 10000 7 280 19:22 04.07.2019
5438 Clear 20 1017 39 10000 7 280 18:55 04.07.2019
5439 Clear 20 1017 37 10000 7 290 18:36 04.07.2019
5440 Clear 21 1017 35 10000 7 290 18:18 04.07.2019
5441 Clear 21 1017 37 10000 7 290 17:41 04.07.2019
5442 Clear 21 1017 35 10000 7 290 17:18 04.07.2019
5443 Clear 21 1017 35 10000 7 290 17:18 04.07.2019
5444 Clear 21 1017 35 10000 7 290 15:55 04.07.2019
5445 Clear 21 1017 35 10000 7 290 15:36 04.07.2019
5446 Clear 22 1017 37 10000 6 290 15:18 04.07.2019
5447 Clear 21 1017 37 10000 7 280 14:40 04.07.2019
5448 Clear 22 1017 37 10000 7 270 14:20 04.07.2019
5449 Clear 22 1017 35 10000 6 290 13:57 04.07.2019
5450 Clear 23 1017 37 10000 7 270 13:57 04.07.2019
5451 Clear 21 1017 35 10000 6 290 13:39 04.07.2019
5452 Clear 21 1017 33 10000 6 270 13:19 04.07.2019
5453 Clear 21 1018 32 10000 6 280 12:39 04.07.2019
5454 Clear 21 1018 32 10000 6 280 12:39 04.07.2019
5455 Clear 21 1018 35 10000 6 290 12:20 04.07.2019
5456 Clear 21 1018 40 10000 6 290 11:55 04.07.2019
5457 Clear 21 1018 40 10000 6 290 11:36 04.07.2019
5458 Clear 20 1018 40 10000 7 280 11:18 04.07.2019
5459 Clear 20 1018 39 10000 6 300 10:39 04.07.2019
5460 Clear 20 1018 45 10000 5 270 10:18 04.07.2019
5461 Clear 19 1018 48 10000 5 260 09:39 04.07.2019
5462 Clear 18 1018 55 10000 5 280 09:19 04.07.2019
5463 Clear 18 1018 55 10000 3 280 08:53 04.07.2019
5464 Clear 17 1018 55 10000 2 240 08:19 04.07.2019
5465 Clear 16 1018 59 10000 2 310 07:42 04.07.2019
5466 Clear 15 1018 62 10000 3 270 07:20 04.07.2019
5467 Clear 15 1018 67 10000 2 250 06:37 04.07.2019
5468 Clear 13 1018 76 10000 2 250 05:47 04.07.2019
5469 Clear 13 1018 71 10000 2 250 05:29 04.07.2019
5470 Clear 13 1017 71 10000 2 250 02:36 04.07.2019
5471 Clear 13 1017 81 10000 2 280 01:27 04.07.2019
5472 Clear 14 1017 54 10000 2 310 00:52 04.07.2019
5473 Clear 16 1016 48 10000 3 330 23:53 03.07.2019
5474 Clear 16 1016 48 10000 4 350 23:21 03.07.2019
5475 Clear 16 1016 48 10000 4 350 23:21 03.07.2019
5476 Clear 16 1016 48 10000 4 350 22:57 03.07.2019
5477 Clear 16 1016 45 10000 3 350 22:39 03.07.2019
5478 Clear 17 1016 45 10000 5 330 22:21 03.07.2019
5479 Clear 17 1016 45 10000 5 330 21:56 03.07.2019
5480 Clear 18 1016 45 10000 4 340 21:37 03.07.2019
5481 Clear 20 1015 40 10000 6 330 20:57 03.07.2019
5482 Clear 20 1015 40 10000 6 330 20:37 03.07.2019
5483 Clear 21 1015 40 10000 5 330 20:19 03.07.2019
5484 Clear 22 1015 40 10000 5 340 19:45 03.07.2019
5485 Clear 22 1014 37 10000 5 300 19:25 03.07.2019
5486 Clear 23 1014 38 10000 7 300 18:45 03.07.2019
5487 Clear 23 1014 38 10000 6 310 18:23 03.07.2019
5488 Clear 24 1014 36 10000 7 310 17:51 03.07.2019
5489 Clear 24 1014 36 10000 7 310 17:20 03.07.2019
5490 Clear 24 1014 36 10000 7 310 16:58 03.07.2019
5491 Clear 24 1014 38 10000 7 320 16:40 03.07.2019
5492 Clear 24 1014 38 10000 7 300 16:18 03.07.2019
5493 Clear 24 1014 33 10000 9 310 15:46 03.07.2019
5494 Clear 24 1014 33 10000 9 310 15:27 03.07.2019
5495 Clear 24 1014 36 10000 8 280 14:49 03.07.2019
5496 Clear 24 1014 36 10000 8 280 14:22 03.07.2019
5497 Clear 24 1014 38 10000 6 290 13:50 03.07.2019
5498 Clear 24 1014 38 10000 6 290 13:31 03.07.2019
5499 Clear 24 1014 41 10000 7 290 12:52 03.07.2019
5500 Clear 23 1014 40 10000 7 290 12:20 03.07.2019
5501 Clear 23 1014 40 10000 7 290 11:55 03.07.2019
5502 Clear 23 1014 43 10000 6 290 11:36 03.07.2019
5503 Clear 23 1014 40 10000 5 310 11:18 03.07.2019
5504 Clear 23 1014 40 10000 5 300 10:40 03.07.2019
5505 Clear 23 1014 43 10000 5 300 10:21 03.07.2019
5506 Clear 22 1014 43 10000 4 330 09:42 03.07.2019
5507 Clear 21 1014 46 10000 5 330 09:20 03.07.2019
5508 Clear 21 1014 46 10000 6 330 08:53 03.07.2019
5509 Clear 21 1014 46 10000 6 330 08:31 03.07.2019
5510 Clear 20 1014 55 10000 4 340 07:49 03.07.2019
5511 Clear 20 1014 55 10000 4 340 07:31 03.07.2019
5512 Clear 18 1014 63 10000 4 360 06:35 03.07.2019
5513 Clear 17 1013 77 10000 3 350 05:39 03.07.2019
5514 Clear 17 1013 82 10000 3 260 04:50 03.07.2019
5515 Clear 17 1012 87 10000 2 240 03:26 03.07.2019
5516 Clear 18 1012 82 10000 1 240 02:27 03.07.2019
5517 Clear 18 1012 77 10000 2 240 01:22 03.07.2019
5518 Clear 18 1012 77 10000 2 240 00:52 03.07.2019
5519 Clear 19 1012 72 10000 2 230 00:32 03.07.2019
5520 Clear 19 1011 77 10000 2 220 23:38 02.07.2019
5521 Clear 19 1011 77 10000 2 220 23:38 02.07.2019
5522 Clear 20 1011 77 10000 1 230 23:20 02.07.2019
5523 Clear 19 1011 88 10000 1 220 22:57 02.07.2019
5524 Clear 20 1011 88 10000 2 260 22:38 02.07.2019
5525 Clear 20 1011 88 10000 2 260 22:20 02.07.2019
5526 Clear 21 1011 82 10000 2 280 21:46 02.07.2019
5527 Clear 21 1011 82 10000 2 280 21:46 02.07.2019
5528 Clear 22 1011 82 10000 2 300 21:24 02.07.2019
5529 Clear 23 1011 60 10000 3 280 20:58 02.07.2019
5530 Clear 23 1011 60 10000 3 280 20:40 02.07.2019
5531 Clear 23 1011 56 10000 3 290 20:21 02.07.2019
5532 Clear 25 1011 50 10000 5 290 19:44 02.07.2019
5533 Clear 25 1011 57 10000 5 280 19:23 02.07.2019
5534 Clear 25 1011 57 10000 5 280 18:58 02.07.2019
5535 Clear 25 1011 57 10000 4 280 18:19 02.07.2019
5536 Clear 26 1011 53 10000 5 290 17:45 02.07.2019
5537 Clear 26 1011 53 10000 5 290 17:45 02.07.2019
5538 Clear 26 1011 57 10000 4 300 17:25 02.07.2019
5539 Clear 25 1011 57 10000 2 320 16:57 02.07.2019
5540 Clear 25 1011 57 10000 2 320 16:39 02.07.2019
5541 Clear 25 1011 57 10000 4 290 16:21 02.07.2019
5542 Clear 24 1011 60 10000 2 320 15:40 02.07.2019
5543 Clear 24 1012 57 10000 3 360 15:21 02.07.2019
5544 Rain 23 1012 60 10000 4 10 14:45 02.07.2019
5545 Rain 24 1012 69 10000 4 10 14:25 02.07.2019
5546 Rain 24 1011 65 10000 6 340 13:43 02.07.2019
5547 Rain 25 1012 69 10000 3 360 13:19 02.07.2019
5548 Clouds 26 1012 69 10000 4 10 12:45 02.07.2019
5549 Clouds 26 1012 65 10000 4 20 12:23 02.07.2019
5550 Clouds 26 1011 57 10000 3 340 11:45 02.07.2019
5551 Clear 25 1011 65 10000 4 20 11:25 02.07.2019
5552 Clear 24 1011 61 10000 3 360 10:59 02.07.2019
5553 Clear 25 1011 61 10000 3 360 10:39 02.07.2019
5554 Rain 24 1011 61 10000 2 10 10:21 02.07.2019
5555 Rain 23 1011 69 10000 3 340 09:42 02.07.2019
5556 Rain 24 1011 57 10000 2 360 09:19 02.07.2019
5557 Clear 24 1011 57 10000 1 0 08:40 02.07.2019
5558 Clear 24 1010 60 10000 4 30 08:20 02.07.2019
5559 Clear 23 1011 60 10000 3 20 07:50 02.07.2019
5560 Clear 23 1010 60 10000 3 90 07:20 02.07.2019
5561 Clear 22 1011 56 10000 5 60 06:42 02.07.2019
5562 Clear 21 1011 60 10000 5 20 05:55 02.07.2019
5563 Clear 21 1010 64 10000 2 200 02:43 02.07.2019
5564 Clear 22 1011 60 10000 2 150 00:48 02.07.2019
5565 Clear 23 1011 56 10000 2 100 23:43 01.07.2019
5566 Clear 23 1011 60 10000 2 90 23:19 01.07.2019
5567 Clear 24 1012 57 10000 6 20 22:44 01.07.2019
5568 Clouds 25 1012 50 10000 11 10 22:26 01.07.2019
5569 Clouds 26 1012 47 10000 8 10 21:46 01.07.2019
5570 Clear 28 1011 54 10000 4 270 21:25 01.07.2019
5571 Clear 29 1010 51 10000 3 260 20:51 01.07.2019
5572 Clear 29 1010 48 10000 4 260 20:21 01.07.2019
5573 Clear 31 1009 45 10000 5 250 19:57 01.07.2019
5574 Clear 31 1009 48 10000 4 240 19:39 01.07.2019
5575 Clear 31 1009 48 10000 4 240 19:21 01.07.2019
5576 Clear 32 1009 43 10000 5 250 18:50 01.07.2019
5577 Clear 32 1009 43 10000 5 250 18:28 01.07.2019
5578 Clear 33 1010 43 10000 6 250 17:55 01.07.2019
5579 Clear 33 1010 43 10000 6 250 17:37 01.07.2019
5580 Clear 33 1010 43 10000 6 240 17:19 01.07.2019
5581 Clear 33 1010 43 10000 6 250 16:44 01.07.2019
5582 Clear 33 1010 43 10000 6 250 16:24 01.07.2019
5583 Clear 33 1010 43 10000 6 260 15:44 01.07.2019
5584 Clear 33 1010 43 10000 6 260 15:26 01.07.2019
5585 Clear 33 1011 43 10000 5 250 14:45 01.07.2019
5586 Clear 33 1011 43 10000 5 250 14:24 01.07.2019
5587 Clear 33 1011 40 10000 7 260 13:49 01.07.2019
5588 Clear 33 1011 40 10000 7 260 13:24 01.07.2019
5589 Clear 33 1012 43 10000 7 270 12:58 01.07.2019
5590 Clear 32 1012 43 10000 7 270 12:38 01.07.2019
5591 Clear 31 1012 43 10000 7 260 12:20 01.07.2019
5592 Clear 31 1012 45 10000 6 270 11:47 01.07.2019
5593 Clear 30 1012 48 10000 5 250 11:28 01.07.2019
5594 Clear 30 1012 51 10000 5 250 10:48 01.07.2019
5595 Clear 29 1012 51 10000 5 250 10:25 01.07.2019
5596 Clear 29 1012 51 10000 5 260 09:59 01.07.2019
5597 Clear 28 1012 54 10000 5 260 09:40 01.07.2019
5598 Clear 26 1013 54 10000 5 260 09:22 01.07.2019
5599 Clear 26 1013 57 10000 4 260 08:39 01.07.2019
5600 Clear 24 1013 60 10000 4 250 08:21 01.07.2019
5601 Clear 23 1013 68 10000 4 250 07:29 01.07.2019
5602 Clear 21 1013 72 10000 3 240 06:30 01.07.2019
5603 Clear 17 1014 93 10000 2 240 02:48 01.07.2019
5604 Clear 17 1014 82 10000 1.86 249.386 00:51 01.07.2019
5605 Clear 17 1014 82 10000 1.05 253.018 00:30 01.07.2019
5606 Clear 18 1014 82 10000 1 220 23:57 30.06.2019
5607 Clear 18 1014 82 10000 1 240 23:22 30.06.2019
5608 Clear 18 1014 77 10000 1 230 22:53 30.06.2019
5609 Clear 19 1014 72 10000 1 230 22:22 30.06.2019
5610 Clear 21 1014 56 10000 2 50 21:45 30.06.2019
5611 Clear 21 1014 56 10000 2 50 21:26 30.06.2019
5612 Clear 22 1013 53 10000 2 20 20:59 30.06.2019
5613 Clear 23 1013 44 10000 2 330 20:40 30.06.2019
5614 Clear 24 1013 44 10000 3 320 20:21 30.06.2019
5615 Clear 25 1013 39 10000 4 330 19:47 30.06.2019
5616 Clear 25 1013 39 10000 4 330 19:25 30.06.2019
5617 Clear 27 1012 36 10000 6 340 18:41 30.06.2019
5618 Clear 27 1012 39 10000 5 320 18:20 30.06.2019
5619 Clear 26 1012 44 10000 6 310 17:40 30.06.2019
5620 Clear 27 1012 42 10000 8 310 17:19 30.06.2019
5621 Clear 26 1013 44 10000 7 290 16:51 30.06.2019
5622 Clear 27 1013 44 10000 7 290 16:32 30.06.2019
5623 Clear 25 1013 44 10000 6 270 15:39 30.06.2019
5624 Clear 24 1013 47 10000 6 270 15:19 30.06.2019
5625 Clear 25 1013 50 10000 5 250 14:57 30.06.2019
5626 Clear 25 1013 50 10000 5 250 14:57 30.06.2019
5627 Clear 25 1013 50 10000 5 250 14:57 30.06.2019
5628 Clear 25 1013 50 10000 5 250 14:38 30.06.2019
5629 Clear 25 1013 49 10000 6 250 13:57 30.06.2019
5630 Clear 25 1014 47 10000 5 270 13:38 30.06.2019
5631 Clear 24 1014 49 10000 5 280 13:18 30.06.2019
5632 Clear 22 1014 53 10000 6 270 12:44 30.06.2019
5633 Clear 22 1015 53 10000 5 270 12:21 30.06.2019
5634 Clear 21 1015 52 10000 5 270 11:47 30.06.2019
5635 Clear 22 1015 53 10000 5 270 11:22 30.06.2019
5636 Clear 20 1015 60 10000 4 270 10:56 30.06.2019
5637 Clear 20 1015 60 10000 4 270 10:36 30.06.2019
5638 Clear 19 1015 59 10000 5 270 10:18 30.06.2019
5639 Clear 18 1015 63 10000 4 280 09:43 30.06.2019
5640 Clear 18 1015 63 10000 4 280 09:21 30.06.2019
5641 Clear 17 1016 72 10000 3 280 08:40 30.06.2019
5642 Clear 17 1015 72 10000 4 280 08:22 30.06.2019
5643 Clear 16 1015 76 10000 3 280 07:51 30.06.2019
5644 Clear 16 1015 76 10000 3 280 07:26 30.06.2019
5645 Clear 14 1015 76 10000 2 280 06:37 30.06.2019
5646 Clear 12 1014 87 10000 2 230 04:48 30.06.2019
5647 Clear 12 1014 71 10000 2 270 02:27 30.06.2019
5648 Clear 13 1014 76 10000 3 270 01:23 30.06.2019
5649 Clear 13 1014 71 10000 3 270 00:24 30.06.2019
5650 Clear 14 1014 71 10000 3 260 23:53 29.06.2019
5651 Clear 14 1014 66 10000 3 260 23:23 29.06.2019
5652 Clear 14 1014 62 10000 3 260 22:52 29.06.2019
5653 Clear 14 1014 62 10000 3 260 22:25 29.06.2019
5654 Clear 14 1013 62 10000 2 270 21:57 29.06.2019
5655 Clear 14 1013 62 10000 2 270 21:56 29.06.2019
5656 Clear 15 1014 58 10000 3 290 21:38 29.06.2019
5657 Clear 16 1013 51 10000 5 310 21:19 29.06.2019
5658 Clear 17 1013 48 10000 5 310 20:36 29.06.2019
5659 Clear 17 1013 45 10000 6 320 20:18 29.06.2019
5660 Clear 18 1013 45 10000 7 320 19:43 29.06.2019
5661 Clear 18 1012 37 10000 7 320 19:22 29.06.2019
5662 Clear 19 1012 37 10000 8 310 18:48 29.06.2019
5663 Clear 19 1012 37 10000 8 310 18:25 29.06.2019
5664 Clear 20 1012 40 10000 7 320 17:40 29.06.2019
5665 Clear 20 1012 45 10000 5 320 17:21 29.06.2019
5666 Clear 20 1012 42 10000 7 320 16:45 29.06.2019
5667 Rain 20 1012 45 10000 4 320 16:25 29.06.2019
5668 Rain 19 1012 67 10000 4 10 15:34 29.06.2019
5669 Rain 20 1012 55 9000 8 330 14:59 29.06.2019
5670 Clouds 21 1012 37 10000 4 320 14:41 29.06.2019
5671 Clouds 21 1012 34 10000 6 320 14:23 29.06.2019
5672 Clear 21 1012 34 10000 7 310 13:44 29.06.2019
5673 Clear 21 1012 34 10000 7 310 13:25 29.06.2019
5674 Clear 21 1012 34 10000 7 330 12:43 29.06.2019
5675 Clear 21 1012 34 10000 7 330 12:24 29.06.2019
5676 Clear 20 1012 35 10000 8 330 11:48 29.06.2019
5677 Clear 20 1012 35 10000 8 330 11:29 29.06.2019
5678 Clear 20 1012 34 10000 7 330 10:52 29.06.2019
5679 Clear 20 1013 34 10000 5 340 10:29 29.06.2019
5680 Clear 20 1013 39 10000 7 320 09:58 29.06.2019
5681 Clear 19 1013 42 10000 6 300 09:29 29.06.2019
5682 Clear 18 1013 48 10000 5 320 08:37 29.06.2019
5683 Clear 16 1013 58 10000 4 330 07:46 29.06.2019
5684 Clear 15 1013 58 10000 4 320 07:19 29.06.2019
5685 Clear 14 1012 62 10000 4 310 06:41 29.06.2019
5686 Clear 14 1012 62 10000 5 320 06:20 29.06.2019
5687 Clear 13 1012 71 10000 4 290 02:26 29.06.2019
5688 Clear 13 1012 76 10000 3 260 00:57 29.06.2019
5689 Clear 14 1012 71 10000 3 270 23:55 28.06.2019
5690 Clear 15 1012 93 10000 2 300 23:22 28.06.2019
5691 Rain 15 1012 59 10000 4 350 22:50 28.06.2019
5692 Rain 15 1012 59 10000 4 350 22:27 28.06.2019
5693 Clear 16 1012 72 10000 4 310 21:46 28.06.2019
5694 Clear 15 1011 77 10000 3 310 21:20 28.06.2019
5695 Rain 16 1011 67 9000 4 320 20:43 28.06.2019
5696 Clouds 16 1011 63 10000 3 330 20:20 28.06.2019
5697 Rain 17 1011 63 10000 3 330 19:43 28.06.2019
5698 Clear 18 1010 52 10000 5 330 19:24 28.06.2019
5699 Clear 19 1010 52 10000 7 340 18:43 28.06.2019
5700 Clouds 18 1010 52 10000 6 340 18:22 28.06.2019
5701 Clouds 18 1010 52 10000 6 340 17:54 28.06.2019
5702 Clouds 18 1009 52 10000 6 330 17:29 28.06.2019
5703 Rain 19 1009 52 9000 9 310 16:48 28.06.2019
5704 Rain 19 1009 52 9000 9 310 16:23 28.06.2019
5705 Clear 21 1009 43 10000 11 310 15:48 28.06.2019
5706 Clear 21 1008 43 10000 10 310 15:19 28.06.2019
5707 Clear 21 1008 45 10000 8 330 14:42 28.06.2019
5708 Clear 21 1008 45 10000 8 330 14:22 28.06.2019
5709 Clouds 20 1009 52 10000 9 320 13:50 28.06.2019
5710 Clouds 19 1009 52 10000 9 320 13:30 28.06.2019
5711 Clouds 19 1008 59 10000 8 320 12:54 28.06.2019
5712 Clouds 19 1008 59 10000 8 320 12:36 28.06.2019
5713 Clouds 17 1008 67 10000 9 310 11:47 28.06.2019
5714 Clouds 17 1008 63 10000 9 310 11:19 28.06.2019
5715 Clouds 18 1007 63 10000 10 310 10:43 28.06.2019
5716 Clouds 18 1007 63 10000 10 310 10:21 28.06.2019
5717 Clouds 19 1007 63 10000 8 300 09:47 28.06.2019
5718 Clouds 18 1007 63 10000 8 300 09:29 28.06.2019
5719 Clouds 17 1007 67 10000 9 310 08:44 28.06.2019
5720 Clouds 16 1007 67 10000 9 310 08:24 28.06.2019
5721 Clouds 17 1007 72 10000 8 310 07:45 28.06.2019
5722 Clouds 16 1007 72 10000 7 310 06:57 28.06.2019
5723 Clear 16 1007 77 10000 5 300 05:18 28.06.2019
5724 Clear 17 1007 68 10000 8 310 01:22 28.06.2019
5725 Clear 18 1007 68 10000 9 310 00:26 28.06.2019
5726 Clear 19 1006 60 10000 8 310 23:48 27.06.2019
5727 Clear 19 1006 60 10000 8 310 23:25 27.06.2019
5728 Clear 20 1006 60 10000 8 310 22:54 27.06.2019
5729 Clear 20 1006 60 10000 7 300 22:36 27.06.2019
5730 Clear 20 1006 60 10000 5 300 22:18 27.06.2019
5731 Clear 21 1006 56 10000 7 300 21:42 27.06.2019
5732 Clear 21 1006 60 10000 6 300 21:21 27.06.2019
5733 Clear 22 1006 68 10000 5 300 20:50 27.06.2019
5734 Clear 22 1006 68 10000 5 300 20:31 27.06.2019
5735 Clear 23 1005 83 10000 4 280 19:57 27.06.2019
5736 Clear 22 1005 73 10000 4 280 19:57 27.06.2019
5737 Clear 23 1005 83 10000 4 280 19:39 27.06.2019
5738 Clear 23 1005 94 10000 3 250 19:21 27.06.2019
5739 Clear 23 1006 88 10000 3 240 18:41 27.06.2019
5740 Clouds 23 1006 88 10000 2 250 18:19 27.06.2019
5741 Thunderstorm 21 1005 94 10000 5 230 17:39 27.06.2019
5742 Rain 20 1005 100 9000 3 160 17:21 27.06.2019
5743 Thunderstorm 19 1006 93 900 6 320 16:39 27.06.2019
5744 Thunderstorm 21 1006 88 10000 4 240 16:19 27.06.2019
5745 Clouds 23 1005 94 10000 4 210 15:47 27.06.2019
5746 Clouds 24 1005 94 10000 4 210 15:26 27.06.2019
5747 Clouds 22 1006 94 10000 3 210 14:52 27.06.2019
5748 Rain 21 1007 94 10000 3 190 14:31 27.06.2019
5749 Rain 20 1007 94 10000 4 240 13:56 27.06.2019
5750 Rain 20 1008 94 2000 4 230 13:36 27.06.2019
5751 Rain 20 1008 100 9000 6 220 13:18 27.06.2019
5752 Rain 20 1009 100 9000 3 220 12:41 27.06.2019
5753 Thunderstorm 19 1009 100 9000 3 220 12:22 27.06.2019
5754 Thunderstorm 22 1010 88 1400 12 270 11:44 27.06.2019
5755 Thunderstorm 28 1008 51 10000 6 220 11:21 27.06.2019
5756 Thunderstorm 29 1008 51 10000 6 220 10:56 27.06.2019
5757 Clear 31 1008 48 10000 6 230 10:36 27.06.2019
5758 Clear 29 1009 51 10000 7 230 10:18 27.06.2019
5759 Clear 27 1010 51 10000 5 230 09:37 27.06.2019
5760 Clear 28 1010 51 10000 5 220 09:19 27.06.2019
5761 Clear 27 1011 54 10000 5 240 08:44 27.06.2019
5762 Clear 26 1012 57 10000 5 240 08:22 27.06.2019
5763 Clear 24 1012 60 10000 4 240 07:39 27.06.2019
5764 Clear 23 1013 64 10000 4 240 06:55 27.06.2019
5765 Clear 22 1013 64 10000 4 240 06:29 27.06.2019
5766 Clear 20 1016 77 10000 3 230 03:50 27.06.2019
5767 Clear 20 1017 77 10000 2 250 02:40 27.06.2019
5768 Clear 21 1017 72 10000 1 250 01:18 27.06.2019
5769 Clear 21 1018 72 10000 2 240 00:45 27.06.2019
5770 Clear 21 1018 64 10000 2 240 00:24 27.06.2019
5771 Clear 22 1019 64 10000 2 240 23:42 26.06.2019
5772 Clear 22 1019 64 10000 2 240 23:22 26.06.2019
5773 Clear 22 1019 64 10000 2 230 22:55 26.06.2019
5774 Clear 23 1019 56 10000 2 240 22:37 26.06.2019
5775 Clear 23 1019 56 10000 2 240 22:18 26.06.2019
5776 Clear 24 1019 56 10000 2 230 21:39 26.06.2019
5777 Clear 24 1019 56 10000 2 230 21:39 26.06.2019
5778 Clear 25 1020 50 10000 3 240 21:19 26.06.2019
5779 Clear 26 1019 47 10000 2 240 20:49 26.06.2019
5780 Clear 26 1019 47 10000 2 240 20:30 26.06.2019
5781 Clear 27 1020 44 10000 3 240 19:52 26.06.2019
5782 Clear 27 1020 44 10000 3 240 19:52 26.06.2019
5783 Clear 28 1020 39 10000 4 250 19:31 26.06.2019
5784 Clear 28 1020 39 10000 4 250 18:58 26.06.2019
5785 Clear 29 1020 35 10000 5 240 18:39 26.06.2019
5786 Clear 29 1021 35 10000 4 240 18:19 26.06.2019
5787 Clear 29 1021 37 10000 4 250 17:46 26.06.2019
5788 Clear 29 1021 37 10000 4 250 17:46 26.06.2019
5789 Clear 29 1021 37 10000 4 250 17:27 26.06.2019
5790 Clear 29 1021 37 10000 4 250 17:27 26.06.2019
5791 Clear 30 1022 33 10000 4 240 16:51 26.06.2019
5792 Clear 30 1022 30 10000 4 270 16:29 26.06.2019
5793 Clear 30 1022 30 10000 4 270 15:52 26.06.2019
5794 Clear 30 1022 33 10000 4 290 15:28 26.06.2019
5795 Clear 30 1023 30 10000 4 280 14:42 26.06.2019
5796 Clear 30 1023 30 10000 4 280 14:21 26.06.2019
5797 Clear 30 1024 35 10000 3 240 13:46 26.06.2019
5798 Clear 30 1024 32 10000 3 230 13:21 26.06.2019
5799 Clear 30 1024 32 10000 3 230 13:21 26.06.2019
5800 Clear 29 1025 37 10000 2 190 12:54 26.06.2019
5801 Clear 29 1025 37 10000 2 190 12:36 26.06.2019
5802 Clear 29 1025 35 10000 3 230 12:18 26.06.2019
5803 Clear 28 1025 37 10000 4 250 11:25 26.06.2019
5804 Clear 28 1025 36 10000 3 200 10:51 26.06.2019
5805 Clear 28 1025 36 10000 3 200 10:51 26.06.2019
5806 Clear 28 1025 36 10000 3 200 10:31 26.06.2019
5807 Clear 26 1026 41 10000 3 200 09:51 26.06.2019
5808 Clear 26 1026 41 10000 3 210 09:29 26.06.2019
5809 Clear 26 1026 41 10000 3 210 08:52 26.06.2019
5810 Clear 24 1026 50 10000 3 200 08:22 26.06.2019
5811 Clear 24 1026 50 10000 3 200 07:57 26.06.2019
5812 Clear 23 1026 50 10000 2 220 07:37 26.06.2019
5813 Clear 20 1026 72 10000 0.64 97.404 06:33 26.06.2019
5814 Clear 16 1026 72 10000 1.43 66.453 01:36 26.06.2019
5815 Clear 17 1026 77 10000 1 100 00:32 26.06.2019
5816 Clear 19 1026 63 10000 1 70 23:49 25.06.2019
5817 Clear 19 1026 63 10000 1 70 23:31 25.06.2019
5818 Clear 19 1026 59 10000 2.86 69.343 22:59 25.06.2019
5819 Clear 19 1026 55 10000 2.86 69.343 22:41 25.06.2019
5820 Clear 19 1026 55 10000 2.86 69.343 22:22 25.06.2019
5821 Clear 22 1026 46 10000 1 70 21:46 25.06.2019
5822 Clear 23 1026 46 10000 1 70 21:24 25.06.2019
5823 Clear 24 1026 41 10000 3 70 20:48 25.06.2019
5824 Clear 24 1026 41 10000 3 70 20:48 25.06.2019
5825 Clear 24 1026 41 10000 3 70 20:48 25.06.2019
5826 Clear 25 1025 36 10000 3 60 20:24 25.06.2019
5827 Clear 27 1025 32 10000 4 30 19:56 25.06.2019
5828 Clear 27 1025 32 10000 4 30 19:37 25.06.2019
5829 Clear 27 1025 32 10000 5 10 19:19 25.06.2019
5830 Clear 28 1025 30 10000 5 10 18:41 25.06.2019
5831 Clear 28 1025 28 10000 4 10 18:23 25.06.2019
5832 -273 0 0 0 0 0 17:44 25.06.2019
5833 Clear 29 1025 30 10000 4 30 17:22 25.06.2019
5834 Clear 29 1025 30 10000 4 30 17:22 25.06.2019
5835 Clear 28 1025 30 10000 4 360 16:44 25.06.2019
5836 Clear 29 1025 30 10000 4 360 16:25 25.06.2019
5837 Clear 28 1026 30 10000 6 30 15:43 25.06.2019
5838 Clear 28 1026 30 10000 6 30 15:25 25.06.2019
5839 Clear 28 1026 32 10000 5 30 14:57 25.06.2019
5840 Clear 28 1026 32 10000 5 30 14:38 25.06.2019
5841 Clear 28 1026 32 10000 5 60 14:20 25.06.2019
5842 Clear 28 1026 32 10000 6 60 13:41 25.06.2019
5843 Clear 28 1026 30 10000 6 40 13:19 25.06.2019
5844 Clear 27 1026 34 10000 6 40 12:41 25.06.2019
5845 Clear 27 1026 36 10000 6 50 12:23 25.06.2019
5846 Clear 27 1026 39 10000 5 40 11:44 25.06.2019
5847 Clear 26 1026 44 10000 6 50 11:22 25.06.2019
5848 Clouds 26 1026 47 10000 6 30 10:48 25.06.2019
5849 Clouds 26 1026 47 10000 5 50 10:24 25.06.2019
5850 Clouds 26 1026 47 10000 5 50 09:59 25.06.2019
5851 Clouds 26 1026 53 10000 6 50 09:38 25.06.2019
5852 Clouds 25 1026 57 10000 4 30 09:20 25.06.2019
5853 Clouds 24 1026 60 10000 5 40 08:50 25.06.2019
5854 Clear 23 1025 60 10000 5 40 08:29 25.06.2019
5855 Clouds 22 1025 60 10000 4 50 07:43 25.06.2019
5856 Clear 22 1025 64 10000 4 40 07:23 25.06.2019
5857 Clouds 21 1025 64 10000 4 40 06:42 25.06.2019
5858 Clear 19 1024 72 10000 3 40 04:30 25.06.2019
5859 Clear 20 1024 64 10000 5 30 02:35 25.06.2019
5860 Clear 22 1023 60 10000 5 30 00:38 25.06.2019
5861 Clear 23 1023 57 10000 5 30 00:18 25.06.2019
5862 Clear 23 1023 53 10000 6 30 23:48 24.06.2019
5863 Clear 24 1023 53 10000 6 30 23:30 24.06.2019
5864 Clear 24 1022 53 10000 5 20 22:45 24.06.2019
5865 Clear 24 1022 57 10000 5 30 22:19 24.06.2019
5866 Clear 25 1022 54 10000 5 30 21:43 24.06.2019
5867 Clear 26 1022 54 10000 5 30 21:20 24.06.2019
5868 Clear 26 1022 54 10000 4 30 20:59 24.06.2019
5869 Clear 26 1021 51 10000 5 20 20:40 24.06.2019
5870 Clear 27 1021 54 10000 5 360 20:22 24.06.2019
5871 Clear 28 1021 51 10000 5 10 19:47 24.06.2019
5872 Clear 29 1020 48 10000 5 10 19:25 24.06.2019
5873 Clouds 29 1020 48 10000 7 360 18:54 24.06.2019
5874 Clouds 29 1020 48 10000 7 360 18:30 24.06.2019
5875 Clouds 29 1020 48 10000 7 10 17:58 24.06.2019
5876 Clear 30 1020 45 10000 6 10 17:36 24.06.2019
5877 Clear 30 1020 45 10000 6 360 16:56 24.06.2019
5878 Clear 30 1020 48 10000 6 20 16:37 24.06.2019
5879 Clear 31 1020 48 10000 5 40 16:19 24.06.2019
5880 Clouds 31 1020 48 10000 5 10 15:40 24.06.2019
5881 Clouds 30 1020 51 10000 5 20 15:21 24.06.2019
5882 Clear 30 1020 51 10000 5 10 14:35 24.06.2019
5883 Clear 30 1020 48 10000 5 30 13:56 24.06.2019
5884 Clear 30 1020 48 10000 5 30 13:31 24.06.2019
5885 Clear 29 1020 54 10000 4 30 12:45 24.06.2019
5886 Clear 28 1020 54 10000 4 30 12:26 24.06.2019
5887 Clear 28 1020 54 10000 4 30 11:59 24.06.2019
5888 Clear 28 1020 54 10000 4 30 11:59 24.06.2019
5889 Clear 28 1020 57 10000 4 20 11:40 24.06.2019
5890 Clear 27 1020 61 10000 4 40 11:20 24.06.2019
5891 -273 0 0 0 0 0 10:47 24.06.2019
5892 Clear 26 1020 65 10000 4 40 10:27 24.06.2019
5893 Clear 24 1019 61 10000 4 360 09:49 24.06.2019
5894 Clear 24 1019 61 10000 4 360 09:49 24.06.2019
5895 Clear 24 1019 61 10000 4 360 09:49 24.06.2019
5896 Clear 23 1019 69 10000 4 30 09:22 24.06.2019
5897 Clear 22 1019 77 10000 3 10 08:52 24.06.2019
5898 Clear 22 1019 77 10000 3 10 08:26 24.06.2019
5899 Clear 22 1019 77 10000 3 10 08:26 24.06.2019
5900 Clear 20 1019 82 10000 3 20 07:45 24.06.2019
5901 Clear 20 1019 82 10000 3 20 07:26 24.06.2019
5902 Clear 20 1019 82 10000 4 30 06:39 24.06.2019
5903 Clear 20 1019 82 10000 4 40 06:19 24.06.2019
5904 Clear 19 1019 82 10000 3 40 05:24 24.06.2019
5905 Clear 19 1018 82 10000 4 30 04:25 24.06.2019
5906 Clear 19 1018 77 10000 3 30 03:23 24.06.2019
5907 Clear 20 1018 73 10000 4 20 02:32 24.06.2019
5908 Clear 20 1018 73 10000 4 30 01:53 24.06.2019
5909 Clear 21 1017 73 10000 5 50 01:22 24.06.2019
5910 Clear 21 1017 73 10000 4 40 00:40 24.06.2019
5911 Clear 21 1017 69 10000 4 40 00:19 24.06.2019
5912 Clear 21 1017 69 10000 4 40 00:19 24.06.2019
5913 Clear 22 1017 69 10000 5 30 23:44 23.06.2019
5914 Clear 22 1017 69 10000 5 20 23:23 23.06.2019
5915 Clear 23 1018 64 10000 4 360 22:43 23.06.2019
5916 Rain 23 1018 64 10000 6 350 22:20 23.06.2019
5917 Rain 23 1017 61 10000 6 340 21:56 23.06.2019
5918 Rain 24 1017 61 10000 6 340 21:36 23.06.2019
5919 Rain 24 1017 61 10000 5 310 21:18 23.06.2019
5920 Thunderstorm 24 1017 64 10000 4 270 20:40 23.06.2019
5921 Thunderstorm 25 1017 53 10000 4 280 20:22 23.06.2019
5922 Thunderstorm 26 1016 53 10000 3 290 19:44 23.06.2019
5923 Thunderstorm 27 1016 54 10000 3 350 19:21 23.06.2019
5924 Clouds 28 1016 51 10000 6 10 18:54 23.06.2019
5925 Clouds 28 1016 51 10000 6 10 18:54 23.06.2019
5926 Clouds 28 1016 51 10000 6 10 18:24 23.06.2019
5927 Thunderstorm 28 1015 48 10000 7 20 17:50 23.06.2019
5928 Thunderstorm 28 1015 48 10000 7 20 17:26 23.06.2019
5929 Clouds 29 1015 47 10000 4 280 16:55 23.06.2019
5930 Clouds 31 1015 43 10000 5 360 16:36 23.06.2019
5931 Thunderstorm 31 1015 43 10000 4 20 16:18 23.06.2019
5932 Clouds 31 1015 43 10000 4 10 15:40 23.06.2019
5933 Clear 31 1016 45 10000 4 350 15:20 23.06.2019
5934 Clear 31 1016 45 10000 4 340 14:40 23.06.2019
5935 Clear 31 1016 45 10000 4 20 14:22 23.06.2019
5936 Clear 31 1016 45 10000 4 20 13:57 23.06.2019
5937 Clear 31 1016 45 10000 4 20 13:57 23.06.2019
5938 Clear 31 1016 45 10000 5 10 13:38 23.06.2019
5939 Rain 29 1016 48 10000 4 360 13:18 23.06.2019
5940 Rain 30 1016 51 10000 4 20 12:42 23.06.2019
5941 Clear 28 1016 58 10000 3 350 12:21 23.06.2019
5942 Clear 30 1016 58 10000 3 350 11:52 23.06.2019
5943 Clear 28 1017 57 10000 4 10 11:29 23.06.2019
5944 Clear 27 1016 61 10000 3 30 10:54 23.06.2019
5945 Rain 26 1016 65 10000 4 20 10:22 23.06.2019
5946 Rain 27 1016 65 10000 4 20 09:59 23.06.2019
5947 Rain 25 1017 73 10000 3 360 09:28 23.06.2019
5948 Rain 24 1017 73 10000 4 330 08:56 23.06.2019
5949 Rain 24 1017 73 10000 4 330 08:37 23.06.2019
5950 Clouds 23 1017 78 10000 5 310 08:19 23.06.2019
5951 Rain 22 1017 83 10000 6 270 07:51 23.06.2019
5952 Clear 23 1016 73 10000 3 70 07:20 23.06.2019
5953 Clear 23 1016 78 10000 3 40 06:53 23.06.2019
5954 Clear 21 1016 83 10000 2 300 05:54 23.06.2019
5955 Clear 20 1016 83 10000 2 310 03:30 23.06.2019
5956 Clear 22 1016 69 10000 3 360 01:43 23.06.2019
5957 Clear 22 1016 64 10000 3 330 01:24 23.06.2019
5958 Clear 22 1016 60 10000 2 30 00:34 23.06.2019
5959 Clear 23 1016 64 10000 2 30 23:52 22.06.2019
5960 Clear 23 1016 69 10000 2 40 23:27 22.06.2019
5961 Clear 24 1016 65 10000 2 20 22:49 22.06.2019
5962 Clear 25 1016 65 10000 2 20 22:29 22.06.2019
5963 Clear 25 1016 57 10000 3 310 21:59 22.06.2019
5964 Clear 26 1016 51 10000 3 320 21:36 22.06.2019
5965 Clear 25 1016 60 10000 1 0 21:18 22.06.2019
5966 Rain 27 1016 50 10000 1 130 20:46 22.06.2019
5967 Rain 27 1015 47 10000 2 220 20:24 22.06.2019
5968 Clear 28 1015 37 10000 2 160 19:42 22.06.2019
5969 Thunderstorm 30 1015 33 10000 2 160 19:22 22.06.2019
5970 Rain 31 1015 33 10000 3 150 18:44 22.06.2019
5971 Rain 32 1015 33 10000 3 150 18:25 22.06.2019
5972 Clear 33 1015 33 10000 3 170 17:46 22.06.2019
5973 Clear 33 1015 33 10000 3 170 17:28 22.06.2019
5974 Clear 33 1015 31 10000 2 220 16:46 22.06.2019
5975 Clear 33 1015 31 10000 3 200 16:24 22.06.2019
5976 Clear 34 1015 30 10000 3 160 15:49 22.06.2019
5977 Clear 34 1015 30 10000 3 160 15:29 22.06.2019
5978 Clear 33 1016 29 10000 3 220 14:52 22.06.2019
5979 Clear 33 1016 29 10000 3 220 14:33 22.06.2019
5980 Clear 33 1016 30 10000 4 230 13:58 22.06.2019
5981 Clear 33 1016 30 10000 4 230 13:39 22.06.2019
5982 Clear 33 1017 29 10000 3 210 13:19 22.06.2019
5983 Clear 34 1017 27 10000 1 0 12:45 22.06.2019
5984 Clear 32 1017 29 10000 2 110 12:26 22.06.2019
5985 Clear 32 1017 31 10000 2 130 11:45 22.06.2019
5986 Clear 32 1017 31 10000 2 130 11:27 22.06.2019
5987 Clear 32 1016 29 10000 2 150 10:23 22.06.2019
5988 Clear 31 1016 29 10000 2 150 09:58 22.06.2019
5989 Clear 31 1016 37 10000 2 160 09:36 22.06.2019
5990 Clear 28 1016 39 10000 3 200 08:50 22.06.2019
5991 Clear 28 1016 39 10000 3 200 08:31 22.06.2019
5992 Clear 26 1016 47 10000 1 0 07:52 22.06.2019
5993 Clear 25 1016 47 10000 2 160 07:24 22.06.2019
5994 Clear 24 1016 57 10000 2 90 06:41 22.06.2019
5995 Clear 20 1016 60 10000 1 0 03:42 22.06.2019
5996 Clear 21 1016 49 10000 1 0 02:24 22.06.2019
5997 Clear 22 1016 56 10000 1 0 00:54 22.06.2019
5998 Clear 24 1016 56 10000 1 0 00:30 22.06.2019
5999 Clear 23 1016 53 10000 1 0 23:50 21.06.2019
6000 Clear 24 1016 50 10000 2 130 23:23 21.06.2019
6001 Clear 24 1016 50 10000 2 130 22:57 21.06.2019
6002 Clear 24 1015 47 10000 2 140 22:34 21.06.2019
6003 Clear 24 1015 44 10000 2 150 21:58 21.06.2019
6004 Clear 25 1015 44 10000 2 150 21:39 21.06.2019
6005 Clear 26 1015 44 10000 2 150 21:20 21.06.2019
6006 Clear 26 1015 42 10000 2 140 20:47 21.06.2019
6007 Clear 27 1015 42 10000 2 140 20:26 21.06.2019
6008 Clear 29 1015 39 10000 3 130 19:48 21.06.2019
6009 Clear 30 1015 37 10000 4 130 19:21 21.06.2019
6010 Clear 30 1015 37 10000 3 130 18:40 21.06.2019
6011 Clear 31 1015 37 10000 4 130 18:22 21.06.2019
6012 Clear 31 1015 35 10000 3 140 17:31 21.06.2019
6013 Clear 32 1015 35 10000 3 160 16:43 21.06.2019
6014 Clear 31 1015 35 10000 3 160 16:24 21.06.2019
6015 Clear 32 1015 35 10000 4 130 15:58 21.06.2019
6016 Clear 33 1015 37 10000 4 130 15:36 21.06.2019
6017 Clear 33 1016 35 10000 2 170 14:56 21.06.2019
6018 Clear 33 1016 35 10000 2 170 14:37 21.06.2019
6019 Clear 32 1016 33 10000 3 160 14:19 21.06.2019
6020 Clear 33 1016 35 10000 2 180 13:39 21.06.2019
6021 Clear 32 1016 33 10000 2 160 13:21 21.06.2019
6022 Clear 32 1016 35 10000 2 200 12:44 21.06.2019
6023 Clear 32 1016 35 10000 2 200 12:22 21.06.2019
6024 Clear 32 1016 33 10000 2 180 11:48 21.06.2019
6025 Clear 31 1016 37 10000 3 170 11:28 21.06.2019
6026 Clear 31 1016 37 10000 3 170 10:58 21.06.2019
6027 Clear 31 1016 35 10000 2 170 10:39 21.06.2019
6028 Clear 30 1016 42 10000 2 140 10:20 21.06.2019
6029 Clear 29 1016 45 10000 3 140 09:42 21.06.2019
6030 Clear 29 1016 45 10000 3 140 09:21 21.06.2019
6031 Clear 27 1016 54 10000 2 150 08:45 21.06.2019
6032 Clear 27 1016 54 10000 2 150 08:27 21.06.2019
6033 Clear 27 1016 54 10000 2 150 08:27 21.06.2019
6034 Clear 26 1016 57 10000 2 130 07:57 21.06.2019
6035 Clear 25 1016 57 10000 1 0 07:38 21.06.2019
6036 Clear 24 1016 64 10000 1 0 06:59 21.06.2019
6037 Clear 22 1016 68 10000 2 110 06:24 21.06.2019
6038 Clear 21 1016 77 10000 2 90 05:33 21.06.2019
6039 Clear 20 1016 77 10000 2 80 04:35 21.06.2019
6040 Clear 20 1016 77 10000 2 80 03:35 21.06.2019
6041 Clear 19 1016 77 10000 2 70 02:58 21.06.2019
6042 Clouds 20 1015 77 10000 2 100 01:58 21.06.2019
6043 Clear 20 1015 72 10000 1 110 00:58 21.06.2019
6044 Clear 21 1015 72 10000 1 90 00:27 21.06.2019
6045 Clear 22 1015 68 10000 2 80 23:53 20.06.2019
6046 Clear 22 1015 68 10000 2.69 144.14 23:24 20.06.2019
6047 Clouds 22 1015 77 10000 2.69 144.14 22:58 20.06.2019
6048 Clear 22 1015 68 10000 1 90 22:39 20.06.2019
6049 Clouds 23 1015 68 10000 2.69 144.14 22:21 20.06.2019
6050 Clouds 23 1015 68 10000 2.69 144.14 21:52 20.06.2019
6051 Clear 25 1014 53 10000 1 140 21:19 20.06.2019
6052 Clear 25 1014 53 10000 1 140 20:59 20.06.2019
6053 Clear 26 1014 44 10000 2 120 20:40 20.06.2019
6054 Clear 26 1014 42 10000 3 120 20:19 20.06.2019
6055 Clear 28 1014 42 10000 3 120 19:40 20.06.2019
6056 Clear 28 1014 42 10000 3 130 19:19 20.06.2019
6057 Clear 29 1014 39 10000 3 130 18:44 20.06.2019
6058 Clear 29 1014 39 10000 3 140 18:23 20.06.2019
6059 Clear 29 1014 39 10000 3 140 17:59 20.06.2019
6060 Clear 30 1014 39 10000 3 130 17:41 20.06.2019
6061 Clear 30 1014 37 10000 4 110 16:58 20.06.2019
6062 Clear 30 1014 37 10000 3 140 16:40 20.06.2019
6063 Clear 30 1014 37 10000 3 140 16:19 20.06.2019
6064 Clear 30 1015 39 10000 4 130 15:43 20.06.2019
6065 Clear 30 1015 37 10000 4 100 15:23 20.06.2019
6066 Clear 30 1015 42 10000 4 130 14:54 20.06.2019
6067 Clear 31 1015 42 10000 4 130 14:24 20.06.2019
6068 Clear 30 1015 39 10000 4 110 13:59 20.06.2019
6069 Clear 30 1015 42 10000 4 110 13:37 20.06.2019
6070 Clear 30 1015 48 10000 3 110 13:18 20.06.2019
6071 Clear 30 1015 42 10000 3 120 12:41 20.06.2019
6072 Clear 29 1015 51 10000 3 130 12:19 20.06.2019
6073 Clear 28 1015 47 10000 3 140 11:40 20.06.2019
6074 Clear 29 1015 48 10000 3 130 11:22 20.06.2019
6075 Clouds 29 1015 54 10000 3 100 10:43 20.06.2019
6076 Clouds 29 1015 54 10000 3 100 10:23 20.06.2019
6077 Clear 28 1015 54 10000 3 140 09:46 20.06.2019
6078 Clear 27 1015 54 10000 3 140 09:24 20.06.2019
6079 Clear 28 1015 54 10000 3 140 08:58 20.06.2019
6080 Clear 27 1015 54 10000 3 140 08:40 20.06.2019
6081 Clear 26 1015 61 10000 3 110 08:19 20.06.2019
6082 Clear 25 1015 64 10000 3 90 07:42 20.06.2019
6083 Clear 24 1015 64 10000 2 100 07:23 20.06.2019
6084 Clear 22 1015 73 10000 3 90 06:19 20.06.2019
6085 Clear 19 1016 88 10000 1 80 03:40 20.06.2019
6086 Clear 18 1016 82 10000 2.17 99.779 00:59 20.06.2019
6087 Smoke 19 1015 77 10000 3.01 89.143 00:33 20.06.2019
6088 Smoke 20 1015 72 10000 3.01 89.143 23:43 19.06.2019
6089 Smoke 20 1015 72 10000 3.01 89.143 23:25 19.06.2019
6090 Smoke 20 1015 72 10000 3.01 89.143 22:48 19.06.2019
6091 Smoke 21 1015 72 10000 3.01 89.143 22:24 19.06.2019
6092 Smoke 22 1015 68 10000 3.01 89.143 21:57 19.06.2019
6093 Smoke 22 1015 68 10000 3.01 89.143 21:37 19.06.2019
6094 Clear 24 1015 60 10000 1 120 21:18 19.06.2019
6095 Clear 25 1015 53 10000 2 120 20:39 19.06.2019
6096 Clear 26 1015 50 10000 2 120 20:20 19.06.2019
6097 Clear 27 1015 44 10000 2 120 19:43 19.06.2019
6098 Clear 27 1015 44 10000 2 130 19:24 19.06.2019
6099 Clear 27 1015 47 10000 2 100 18:55 19.06.2019
6100 Clear 28 1015 39 10000 2 120 18:23 19.06.2019
6101 Clear 28 1015 44 10000 3 110 17:43 19.06.2019
6102 Clear 28 1015 39 10000 2 120 17:24 19.06.2019
6103 Clear 28 1015 39 10000 2 120 17:24 19.06.2019
6104 Clear 29 1015 42 10000 5 70 16:43 19.06.2019
6105 Clear 29 1015 37 10000 3 110 16:22 19.06.2019
6106 Clear 29 1015 37 10000 3 110 15:58 19.06.2019
6107 Clear 29 1016 42 10000 4 60 15:40 19.06.2019
6108 Clear 29 1016 37 10000 2 360 15:19 19.06.2019
6109 Clear 29 1016 39 10000 3 60 14:42 19.06.2019
6110 Clear 29 1016 42 10000 3 50 14:22 19.06.2019
6111 Clear 28 1017 39 10000 4 70 13:43 19.06.2019
6112 Clear 28 1017 39 10000 4 70 13:25 19.06.2019
6113 Clear 28 1017 42 10000 4 80 12:48 19.06.2019
6114 Clear 27 1017 39 10000 3 20 12:22 19.06.2019
6115 -273 0 0 0 0 0 11:58 19.06.2019
6116 Clear 27 1017 37 10000 5 40 11:38 19.06.2019
6117 Clear 27 1017 42 10000 4 40 11:20 19.06.2019
6118 Clear 27 1017 37 10000 5 40 11:20 19.06.2019
6119 Clear 27 1017 44 10000 5 30 10:45 19.06.2019
6120 Clouds 26 1017 47 10000 4 30 10:27 19.06.2019
6121 Clear 26 1017 47 10000 4 40 09:50 19.06.2019
6122 Clear 26 1017 50 10000 4 30 09:23 19.06.2019
6123 Clear 25 1017 50 10000 4 30 08:55 19.06.2019
6124 Clear 25 1017 53 10000 4 60 08:37 19.06.2019
6125 Clear 25 1017 57 10000 4 60 08:19 19.06.2019
6126 Clear 23 1017 57 10000 4 70 07:42 19.06.2019
6127 Clear 23 1017 60 10000 3 60 06:59 19.06.2019
6128 Clear 22 1017 60 10000 2 60 06:35 19.06.2019
6129 Clear 21 1017 68 10000 2 40 05:50 19.06.2019
6130 Clear 20 1017 72 10000 1 0 04:47 19.06.2019
6131 Clear 19 1017 77 10000 1 0 03:51 19.06.2019
6132 Clear 20 1017 77 10000 1 0 02:35 19.06.2019
6133 Clear 20 1017 72 10000 1 0 01:36 19.06.2019
6134 Clear 20 1017 72 10000 1 10 00:53 19.06.2019
6135 Clear 20 1017 72 10000 1 0 00:35 19.06.2019
6136 Clear 21 1017 64 10000 2 350 23:58 18.06.2019
6137 Clear 21 1017 64 10000 2 350 23:58 18.06.2019
6138 Clear 21 1017 64 10000 2 350 23:58 18.06.2019
6139 Clear 21 1017 64 10000 2 350 23:30 18.06.2019
6140 Clear 21 1017 60 10000 3 10 22:55 18.06.2019
6141 Clear 21 1017 60 10000 3 10 22:37 18.06.2019
6142 Clear 22 1017 57 10000 3 360 22:18 18.06.2019
6143 Clear 22 1017 57 10000 3 360 21:43 18.06.2019
6144 Clear 23 1016 60 10000 3 10 21:21 18.06.2019
6145 Clear 24 1016 57 10000 2 10 20:44 18.06.2019
6146 Clear 24 1016 57 10000 2 10 20:26 18.06.2019
6147 Clear 25 1016 53 10000 3 10 19:56 18.06.2019
6148 Clear 25 1016 53 10000 4 360 19:38 18.06.2019
6149 Clear 26 1016 50 10000 3 360 19:19 18.06.2019
6150 Clear 27 1016 47 10000 4 350 18:45 18.06.2019
6151 Clear 27 1016 47 10000 4 10 18:24 18.06.2019
6152 Clouds 27 1016 51 10000 4 40 17:42 18.06.2019
6153 Clear 27 1016 51 10000 4 360 17:21 18.06.2019
6154 Clear 28 1016 48 10000 4 10 16:47 18.06.2019
6155 Clear 28 1016 48 10000 4 10 16:28 18.06.2019
6156 Clear 28 1016 42 10000 2 50 15:58 18.06.2019
6157 Clear 28 1017 45 10000 4 40 15:37 18.06.2019
6158 Clear 27 1017 44 10000 2 40 15:19 18.06.2019
6159 Clouds 28 1017 44 10000 3 330 14:45 18.06.2019
6160 Clouds 28 1017 44 10000 3 330 14:45 18.06.2019
6161 Clouds 27 1017 45 10000 1 0 14:22 18.06.2019
6162 Clouds 27 1017 45 10000 1 0 13:56 18.06.2019
6163 Clouds 27 1017 47 10000 4 350 13:38 18.06.2019
6164 Clouds 27 1017 47 10000 4 350 13:19 18.06.2019
6165 Clouds 27 1017 51 10000 4 350 12:42 18.06.2019
6166 Clouds 27 1017 51 10000 4 350 12:24 18.06.2019
6167 Clouds 26 1017 54 10000 3 320 11:43 18.06.2019
6168 Clouds 26 1017 54 10000 4 340 11:21 18.06.2019
6169 Clouds 26 1017 54 10000 4 340 10:57 18.06.2019
6170 Clouds 25 1017 53 10000 4 340 10:37 18.06.2019
6171 Clouds 24 1017 57 10000 4 320 10:18 18.06.2019
6172 Clouds 24 1017 57 10000 4 350 09:47 18.06.2019
6173 Clear 23 1017 64 10000 3 350 09:22 18.06.2019
6174 Clear 23 1017 64 10000 3 350 08:43 18.06.2019
6175 Clear 22 1017 73 10000 3 360 08:21 18.06.2019
6176 Clear 21 1017 73 10000 3 350 07:41 18.06.2019
6177 Clear 21 1017 73 10000 3 350 07:20 18.06.2019
6178 Clear 20 1017 77 10000 3 350 06:33 18.06.2019
6179 Clear 20 1017 82 10000 3 350 05:19 18.06.2019
6180 Clear 21 1017 77 10000 4 340 02:53 18.06.2019
6181 Clear 21 1016 73 10000 4 350 01:55 18.06.2019
6182 Clear 21 1016 69 10000 5 340 01:24 18.06.2019
6183 Clear 22 1016 64 10000 4 340 00:55 18.06.2019
6184 Clear 23 1016 64 10000 4 340 00:27 18.06.2019
6185 Clear 24 1016 69 10000 5 340 23:41 17.06.2019
6186 Clear 24 1015 73 10000 3 330 23:20 17.06.2019
6187 Clear 23 1015 88 10000 2 250 22:56 17.06.2019
6188 Clear 23 1015 88 10000 2 250 22:37 17.06.2019
6189 Clear 23 1015 94 10000 2 270 22:18 17.06.2019
6190 Clear 23 1015 83 10000 3 210 21:42 17.06.2019
6191 Clear 24 1015 73 10000 3 220 21:21 17.06.2019
6192 Clear 24 1015 73 10000 2 210 20:37 17.06.2019
6193 Clear 25 1015 69 10000 2 240 20:19 17.06.2019
6194 Clear 25 1014 69 10000 3 240 19:42 17.06.2019
6195 Clear 26 1015 65 10000 1 0 19:24 17.06.2019
6196 Clear 27 1014 73 10000 2 190 18:58 17.06.2019
6197 Clear 27 1014 73 10000 2 190 18:38 17.06.2019
6198 Clouds 27 1015 61 10000 2 200 18:18 17.06.2019
6199 Clouds 27 1015 61 10000 2 200 17:47 17.06.2019
6200 Thunderstorm 27 1015 61 10000 2 200 17:28 17.06.2019
6201 Thunderstorm 27 1015 58 10000 4 310 16:49 17.06.2019
6202 Thunderstorm 27 1015 58 10000 4 310 16:31 17.06.2019
6203 Thunderstorm 28 1015 54 10000 2 210 15:58 17.06.2019
6204 Thunderstorm 29 1015 54 10000 2 230 15:39 17.06.2019
6205 Clear 30 1014 51 10000 2 160 15:19 17.06.2019
6206 Thunderstorm 30 1015 48 10000 2 250 14:53 17.06.2019
6207 Thunderstorm 30 1015 48 10000 2 250 14:34 17.06.2019
6208 Clear 31 1015 45 10000 3 190 13:57 17.06.2019
6209 Clear 31 1015 45 10000 3 190 13:39 17.06.2019
6210 Clear 31 1015 45 10000 3 220 13:20 17.06.2019
6211 Clear 30 1015 48 10000 3 210 12:33 17.06.2019
6212 -273 0 0 0 0 0 11:58 17.06.2019
6213 Clear 29 1016 45 10000 2 170 11:39 17.06.2019
6214 Clear 28 1016 45 10000 3 150 11:18 17.06.2019
6215 Clear 29 1016 42 10000 3 150 10:46 17.06.2019
6216 Clear 27 1016 42 10000 2 210 10:28 17.06.2019
6217 Clear 26 1016 47 10000 2 190 09:56 17.06.2019
6218 Clear 26 1016 47 10000 2 190 09:32 17.06.2019
6219 Clear 25 1016 47 10000 2 160 08:46 17.06.2019
6220 Clear 25 1016 50 10000 2 190 08:24 17.06.2019
6221 Clear 23 1016 56 10000 2 170 07:52 17.06.2019
6222 Clear 23 1016 56 10000 2 170 07:32 17.06.2019
6223 Rain 21 1016 73 10000 1 0 06:50 17.06.2019
6224 Rain 20 1015 68 10000 2 110 05:55 17.06.2019
6225 Clear 20 1015 68 10000 1 60 04:59 17.06.2019
6226 Clear 19 1015 68 10000 2 120 03:52 17.06.2019
6227 Clear 19 1015 68 10000 2 120 03:25 17.06.2019
6228 Clear 20 1015 68 10000 1 0 02:42 17.06.2019
6229 Clear 20 1015 68 10000 1 160 02:24 17.06.2019
6230 Clear 21 1015 56 10000 2 10 01:35 17.06.2019
6231 Clear 20 1015 53 10000 2 110 00:48 17.06.2019
6232 Clear 21 1015 60 10000 2 130 00:28 17.06.2019
6233 Clear 22 1015 60 10000 1 120 23:58 16.06.2019
6234 Clear 22 1015 60 10000 1 120 23:37 16.06.2019
6235 Clear 23 1015 53 10000 2 120 23:19 16.06.2019
6236 Clear 22 1015 49 10000 2 120 22:44 16.06.2019
6237 Clear 23 1014 47 10000 3 100 22:19 16.06.2019
6238 Clear 24 1014 44 10000 3 110 21:57 16.06.2019
6239 Clear 24 1014 44 10000 3 110 21:39 16.06.2019
6240 Clear 25 1014 47 10000 3 110 21:20 16.06.2019
6241 Clear 25 1014 44 10000 3 110 20:38 16.06.2019
6242 Clear 26 1014 41 10000 2 70 20:19 16.06.2019
6243 Clear 27 1013 37 10000 3 60 19:58 16.06.2019
6244 Clear 27 1013 37 10000 3 60 19:39 16.06.2019
6245 Clear 28 1013 37 10000 4 50 19:19 16.06.2019
6246 Clear 29 1013 37 10000 4 50 18:41 16.06.2019
6247 Clear 29 1014 37 10000 4 20 18:21 16.06.2019
6248 Clear 30 1014 37 10000 4 20 17:49 16.06.2019
6249 Clear 30 1014 37 10000 3 30 17:25 16.06.2019
6250 Clear 30 1014 37 10000 4 30 16:58 16.06.2019
6251 Clear 30 1014 37 10000 4 30 16:40 16.06.2019
6252 Clear 30 1014 37 10000 5 40 16:21 16.06.2019
6253 Clear 30 1014 40 10000 5 20 15:45 16.06.2019
6254 Clear 30 1014 40 10000 3 30 15:26 16.06.2019
6255 Clear 30 1014 40 10000 3 30 14:56 16.06.2019
6256 Clear 30 1014 42 10000 3 30 14:37 16.06.2019
6257 Clear 30 1014 42 10000 3 40 14:19 16.06.2019
6258 Clear 29 1015 45 10000 2 170 13:45 16.06.2019
6259 Clear 29 1015 45 10000 2 130 13:25 16.06.2019
6260 Clear 28 1015 48 10000 3 70 12:44 16.06.2019
6261 Clear 28 1015 45 10000 3 50 12:22 16.06.2019
6262 Clear 28 1015 42 10000 4 40 11:56 16.06.2019
6263 Clear 28 1015 42 10000 4 40 11:37 16.06.2019
6264 Clear 29 1015 45 10000 3 50 11:18 16.06.2019
6265 Clear 28 1015 47 10000 3 60 10:44 16.06.2019
6266 Clear 28 1014 47 10000 3 70 10:19 16.06.2019
6267 Clear 27 1014 51 10000 2 100 09:42 16.06.2019
6268 Clear 26 1014 53 10000 3 90 09:23 16.06.2019
6269 Clear 26 1014 53 10000 2 70 08:46 16.06.2019
6270 Clear 25 1014 57 10000 3 80 08:20 16.06.2019
6271 Clear 24 1014 53 10000 3 90 07:45 16.06.2019
6272 Clear 23 1014 57 10000 2 80 07:27 16.06.2019
6273 Clear 23 1014 57 10000 2 80 07:27 16.06.2019
6274 Clear 23 1014 64 10000 2 90 06:52 16.06.2019
6275 Clear 20 1014 82 10000 1 90 05:56 16.06.2019
6276 Clear 17 1014 82 10000 1 90 05:22 16.06.2019
6277 Clear 19 1014 88 10000 1.39 75.754 04:21 16.06.2019
6278 Clear 19 1014 88 10000 1.39 75.754 03:40 16.06.2019
6279 Clear 19 1014 77 10000 1.31 70.873 03:20 16.06.2019
6280 Clear 18 1014 77 10000 1.31 70.873 01:48 16.06.2019
6281 Clear 18 1014 72 10000 1.87 61.291 01:30 16.06.2019
6282 Clear 19 1014 72 10000 1.87 61.291 00:43 16.06.2019
6283 Clear 19 1014 72 10000 1.96 73.345 00:25 16.06.2019
6284 Clear 19 1014 72 10000 1.96 73.345 23:56 15.06.2019
6285 Clear 20 1014 68 10000 1.96 73.345 23:38 15.06.2019
6286 Clear 20 1014 72 10000 1 210 23:19 15.06.2019
6287 Clear 21 1014 68 10000 1.96 73.345 22:43 15.06.2019
6288 Clear 22 1014 60 10000 1 120 22:25 15.06.2019
6289 Clear 24 1014 64 10000 1.96 73.345 21:44 15.06.2019
6290 Clear 26 1014 53 10000 1 90 21:21 15.06.2019
6291 Clear 27 1014 42 10000 3 20 20:45 15.06.2019
6292 Clear 28 1014 35 10000 4 10 20:23 15.06.2019
6293 Clear 29 1014 33 10000 4 20 19:50 15.06.2019
6294 Clear 29 1014 33 10000 4 20 19:28 15.06.2019
6295 Clear 31 1014 29 10000 3 40 18:45 15.06.2019
6296 Clear 31 1014 29 10000 3 40 18:26 15.06.2019
6297 Clear 32 1014 24 10000 3 300 17:47 15.06.2019
6298 Clear 32 1014 24 10000 3 300 17:29 15.06.2019
6299 Clear 32 1014 29 10000 4 320 16:49 15.06.2019
6300 Clear 33 1014 24 10000 4 300 16:22 15.06.2019
6301 Clear 33 1014 22 10000 3 40 15:58 15.06.2019
6302 Clear 33 1014 22 10000 3 40 15:40 15.06.2019
6303 Clear 33 1015 19 10000 3 50 15:20 15.06.2019
6304 Clear 32 1015 19 10000 3 60 14:38 15.06.2019
6305 Clear 32 1015 17 10000 4 50 14:18 15.06.2019
6306 Clear 32 1016 22 10000 3 30 13:43 15.06.2019
6307 Clear 32 1016 24 10000 3 20 13:20 15.06.2019
6308 Clear 32 1016 24 10000 3 20 12:57 15.06.2019
6309 Clear 32 1016 25 10000 3 340 12:37 15.06.2019
6310 Clear 31 1016 31 10000 3 20 12:19 15.06.2019
6311 Clear 30 1016 40 10000 4 350 11:41 15.06.2019
6312 Clear 30 1016 40 10000 4 350 11:41 15.06.2019
6313 Clear 30 1017 42 10000 5 350 11:23 15.06.2019
6314 Clear 29 1017 51 10000 2 350 10:42 15.06.2019
6315 Clear 28 1017 51 10000 3 340 10:24 15.06.2019
6316 Clear 28 1017 54 10000 4 360 09:47 15.06.2019
6317 Clear 28 1017 54 10000 4 360 09:25 15.06.2019
6318 Clear 26 1017 57 10000 2 10 08:54 15.06.2019
6319 Clear 26 1017 57 10000 2 10 08:32 15.06.2019
6320 Clear 24 1017 65 10000 2 10 07:52 15.06.2019
6321 Clear 24 1017 61 10000 2 10 07:25 15.06.2019
6322 Clear 23 1017 69 10000 2 310 06:44 15.06.2019
6323 Clear 22 1017 83 10000 2 290 06:19 15.06.2019
6324 Clear 21 1017 82 10000 3 260 05:27 15.06.2019
6325 Clear 20 1017 88 10000 3 260 04:44 15.06.2019
6326 -273 0 0 0 0 0 03:47 15.06.2019
6327 Clear 20 1017 88 10000 2 250 02:56 15.06.2019
6328 Clear 20 1017 93 10000 1 0 02:23 15.06.2019
6329 Clear 19 1018 93 10000 1 200 01:49 15.06.2019
6330 Clear 20 1018 93 10000 1 220 00:58 15.06.2019
6331 Clear 21 1018 88 10000 1 190 00:39 15.06.2019
6332 Clear 21 1018 88 10000 1 0 23:55 14.06.2019
6333 Clear 22 1018 78 10000 1 240 23:26 14.06.2019
6334 Clear 22 1019 73 10000 2 250 22:56 14.06.2019
6335 Clear 23 1019 73 10000 2 250 22:37 14.06.2019
6336 Clear 23 1019 69 10000 3 260 22:19 14.06.2019
6337 Clear 23 1018 64 10000 2 270 21:40 14.06.2019
6338 Clear 24 1018 64 10000 2 250 21:22 14.06.2019
6339 Clear 25 1018 64 10000 1 280 20:43 14.06.2019
6340 Clear 25 1018 64 10000 1 280 20:43 14.06.2019
6341 Clear 26 1018 54 10000 2 310 20:19 14.06.2019
6342 Clear 26 1018 54 10000 2 310 19:56 14.06.2019
6343 Clear 26 1018 51 10000 2 310 19:36 14.06.2019
6344 Clouds 27 1018 69 10000 4 330 19:18 14.06.2019
6345 Thunderstorm 26 1018 48 10000 3 360 18:42 14.06.2019
6346 Thunderstorm 28 1018 48 10000 4 360 18:24 14.06.2019
6347 Thunderstorm 28 1018 48 10000 4 360 18:24 14.06.2019
6348 Thunderstorm 28 1018 45 10000 4 250 17:55 14.06.2019
6349 Thunderstorm 29 1018 45 10000 4 250 17:36 14.06.2019
6350 Thunderstorm 29 1018 45 10000 3 270 17:18 14.06.2019
6351 Clear 30 1018 43 10000 3 230 16:44 14.06.2019
6352 Clear 31 1019 45 10000 3 250 16:20 14.06.2019
6353 Clear 31 1019 45 10000 3 250 16:20 14.06.2019
6354 Clear 31 1019 45 10000 3 250 16:20 14.06.2019
6355 Clear 31 1019 37 10000 2 270 15:42 14.06.2019
6356 Clear 31 1019 37 10000 2 270 15:42 14.06.2019
6357 Clouds 30 1019 39 10000 3 230 15:24 14.06.2019
6358 Clouds 30 1019 39 10000 3 230 14:59 14.06.2019
6359 Clouds 30 1019 39 10000 3 230 14:59 14.06.2019
6360 Clouds 30 1019 39 10000 3 230 14:59 14.06.2019
6361 Clouds 29 1019 47 10000 4 250 14:40 14.06.2019
6362 Thunderstorm 29 1019 48 10000 3 200 14:20 14.06.2019
6363 Clear 30 1019 45 10000 3 220 13:42 14.06.2019
6364 Clear 30 1019 45 10000 3 220 13:24 14.06.2019
6365 Clear 30 1020 45 10000 3 140 12:43 14.06.2019
6366 Clear 29 1020 45 10000 3 90 12:25 14.06.2019
6367 Clear 29 1020 45 10000 3 90 12:25 14.06.2019
6368 Clear 29 1020 45 10000 3 90 11:58 14.06.2019
6369 Clear 29 1020 48 10000 3 110 11:39 14.06.2019
6370 Clear 29 1020 48 10000 3 90 11:20 14.06.2019
6371 Clear 30 1020 54 10000 2 160 10:43 14.06.2019
6372 Clear 29 1020 54 10000 2 140 10:20 14.06.2019
6373 Clear 27 1020 57 10000 2 160 09:46 14.06.2019
6374 Clear 27 1020 57 10000 2 160 09:46 14.06.2019
6375 Clear 26 1020 61 10000 1 0 09:24 14.06.2019
6376 Clear 26 1020 69 10000 2 80 08:47 14.06.2019
6377 Clear 24 1020 69 10000 2 100 08:19 14.06.2019
6378 Clear 23 1020 73 10000 3 100 07:51 14.06.2019
6379 Clear 24 1020 78 10000 4 100 07:21 14.06.2019
6380 Clear 23 1019 78 10000 5 90 06:35 14.06.2019
6381 Clear 21 1019 88 10000 3 90 05:58 14.06.2019
6382 Clear 21 1019 88 10000 3 90 05:58 14.06.2019
6383 Clear 21 1019 88 10000 3 90 05:21 14.06.2019
6384 Clear 21 1019 88 10000 3 80 04:45 14.06.2019
6385 Clear 21 1019 88 10000 3 80 03:52 14.06.2019
6386 Clear 21 1019 83 10000 3 90 03:25 14.06.2019
6387 Clear 21 1020 73 10000 3 100 02:55 14.06.2019
6388 Clear 21 1020 73 10000 3 100 02:27 14.06.2019
6389 Clear 21 1020 73 10000 3 100 02:27 14.06.2019
6390 Clear 23 1020 69 10000 3 110 00:58 14.06.2019
6391 Rain 23 1020 69 10000 4 100 00:23 14.06.2019
6392 Clear 24 1020 65 10000 3 110 23:59 13.06.2019
6393 Clear 23 1020 65 10000 3 110 23:41 13.06.2019
6394 Clear 23 1019 64 10000 3 80 23:21 13.06.2019
6395 Clear 23 1019 73 10000 1 0 22:40 13.06.2019
6396 Clear 23 1019 64 10000 2 330 22:21 13.06.2019
6397 Clear 24 1019 73 10000 2 290 21:40 13.06.2019
6398 Clear 25 1019 64 10000 1 260 21:20 13.06.2019
6399 Clear 25 1018 69 10000 1 0 20:55 13.06.2019
6400 Clear 25 1018 69 10000 1 0 20:36 13.06.2019
6401 Clear 26 1018 65 10000 1 0 20:18 13.06.2019
6402 Clear 26 1018 65 10000 1 0 20:18 13.06.2019
6403 Clear 28 1018 57 10000 1 0 19:41 13.06.2019
6404 Clear 28 1018 57 10000 2 220 19:22 13.06.2019
6405 Clear 29 1018 54 10000 2 220 18:57 13.06.2019
6406 Clear 29 1018 54 10000 2 220 18:38 13.06.2019
6407 Clear 29 1018 45 10000 2 140 18:20 13.06.2019
6408 Clear 30 1018 48 10000 2 120 17:41 13.06.2019
6409 Clear 30 1018 45 10000 3 120 17:20 13.06.2019
6410 Clear 30 1018 45 10000 4 130 16:48 13.06.2019
6411 Clear 30 1018 40 10000 4 120 16:22 13.06.2019
6412 Clear 31 1018 40 10000 4 120 15:57 13.06.2019
6413 Clear 31 1018 38 10000 4 120 15:57 13.06.2019
6414 Clear 31 1018 38 10000 4 120 15:38 13.06.2019
6415 Clear 30 1018 40 10000 3 140 15:19 13.06.2019
6416 Clear 30 1018 37 10000 4 110 14:45 13.06.2019
6417 -273 0 0 0 0 0 14:27 13.06.2019
6418 Clear 32 1018 38 10000 3 80 13:46 13.06.2019
6419 Clear 32 1018 38 10000 2 90 13:21 13.06.2019
6420 Clear 31 1018 35 10000 4 100 12:58 13.06.2019
6421 Clear 31 1018 35 10000 4 100 12:38 13.06.2019
6422 Clear 31 1018 38 10000 3 90 12:19 13.06.2019
6423 Clear 31 1018 38 10000 4 70 11:41 13.06.2019
6424 Clear 30 1018 40 10000 3 90 11:22 13.06.2019
6425 Clear 30 1018 40 10000 5 70 10:46 13.06.2019
6426 Clear 29 1018 42 10000 5 80 10:27 13.06.2019
6427 Clear 29 1018 42 10000 5 80 10:27 13.06.2019
6428 Clear 29 1018 42 10000 5 80 10:27 13.06.2019
6429 Clear 29 1018 45 10000 4 80 09:45 13.06.2019
6430 Clear 29 1018 45 10000 4 80 09:25 13.06.2019
6431 Clear 28 1018 48 10000 4 70 09:25 13.06.2019
6432 Clear 27 1018 48 10000 4 90 08:50 13.06.2019
6433 Clear 27 1018 48 10000 4 90 08:29 13.06.2019
6434 Clear 26 1018 51 10000 4 80 07:59 13.06.2019
6435 Clear 26 1017 54 10000 3 60 07:31 13.06.2019
6436 Clear 24 1017 69 10000 1 0 06:52 13.06.2019
6437 Clear 21 1017 73 10000 1 0 06:24 13.06.2019
6438 Clear 22 1017 73 10000 1 0 05:57 13.06.2019
6439 Clear 21 1017 82 10000 1.74 72.628 05:37 13.06.2019
6440 Clear 19 1017 88 10000 1.74 72.628 05:18 13.06.2019
6441 Clear 19 1016 93 10000 1.74 72.628 03:28 13.06.2019
6442 Clear 19 1016 88 10000 1.79 63.992 01:27 13.06.2019
6443 Clear 22 1017 82 10000 1.64 38.747 00:29 13.06.2019
6444 Clear 21 1017 82 10000 1.64 38.747 23:24 12.06.2019
6445 Clear 21 1016 73 10000 1.64 38.747 22:47 12.06.2019
6446 Clear 22 1016 73 10000 1.64 38.747 22:28 12.06.2019
6447 Clear 23 1016 60 10000 1 70 21:58 12.06.2019
6448 Clear 23 1016 60 10000 1 70 21:40 12.06.2019
6449 Clear 25 1016 57 10000 1 80 21:21 12.06.2019
6450 Clear 26 1016 54 10000 2 120 20:42 12.06.2019
6451 Clear 27 1016 47 10000 2 120 20:22 12.06.2019
6452 Clear 28 1015 45 10000 2 120 19:56 12.06.2019
6453 Clear 28 1015 45 10000 2 120 19:37 12.06.2019
6454 Clear 29 1015 42 10000 2 110 19:18 12.06.2019
6455 Clear 29 1015 42 10000 3 100 18:40 12.06.2019
6456 Clear 30 1015 40 10000 3 70 18:22 12.06.2019
6457 Thunderstorm 30 1015 42 10000 3 100 17:45 12.06.2019
6458 Thunderstorm 31 1015 38 10000 3 100 17:21 12.06.2019
6459 Clear 30 1015 40 10000 3 50 16:43 12.06.2019
6460 Clear 30 1016 40 10000 4 110 16:24 12.06.2019
6461 -273 0 0 0 0 0 15:57 12.06.2019
6462 Clear 31 1016 38 10000 3 120 15:32 12.06.2019
6463 Clear 31 1016 38 10000 4 70 14:55 12.06.2019
6464 Clear 31 1016 38 10000 4 70 14:31 12.06.2019
6465 Clear 30 1016 42 10000 4 80 13:56 12.06.2019
6466 Clear 30 1016 40 10000 4 80 13:37 12.06.2019
6467 Clear 30 1017 42 10000 4 100 13:18 12.06.2019
6468 Clear 30 1017 42 10000 4 80 12:40 12.06.2019
6469 Clear 30 1017 40 10000 4 100 12:20 12.06.2019
6470 Clear 30 1017 38 10000 4 100 11:48 12.06.2019
6471 Clear 30 1017 38 10000 4 100 11:29 12.06.2019
6472 -273 0 0 0 0 0 10:57 12.06.2019
6473 Clouds 29 1017 48 10000 4 50 10:39 12.06.2019
6474 Clear 29 1017 48 10000 4 70 09:59 12.06.2019
6475 Clear 28 1018 51 10000 3 70 09:41 12.06.2019
6476 Clear 27 1018 51 10000 3 70 09:19 12.06.2019
6477 Clear 27 1018 51 10000 3 80 08:28 12.06.2019
6478 Clear 26 1018 57 10000 3 70 07:56 12.06.2019
6479 Clear 23 1018 64 10000 3 70 07:18 12.06.2019
6480 Clear 23 1017 64 10000 3 80 06:38 12.06.2019
6481 Clear 20 1017 77 10000 3 70 05:25 12.06.2019
6482 Clear 20 1018 68 10000 2 70 02:22 12.06.2019
6483 Clear 21 1018 68 10000 2 80 00:46 12.06.2019
6484 Clear 23 1018 64 10000 2 80 23:57 11.06.2019
6485 Clear 23 1018 60 10000 3 90 23:39 11.06.2019
6486 Clear 24 1018 60 10000 2 100 23:20 11.06.2019
6487 Clear 24 1018 60 10000 1 90 22:41 11.06.2019
6488 Clear 24 1018 60 10000 2 90 22:18 11.06.2019
6489 Clear 24 1018 57 10000 2 80 21:55 11.06.2019
6490 Clear 25 1018 57 10000 2 80 21:36 11.06.2019
6491 Clear 26 1018 53 10000 2 80 21:18 11.06.2019
6492 Clear 26 1018 50 10000 3 80 20:42 11.06.2019
6493 Clear 27 1018 45 10000 4 70 20:22 11.06.2019
6494 Clear 28 1017 61 10000 3 50 19:51 11.06.2019
6495 Clear 29 1017 57 10000 3 50 19:29 11.06.2019
6496 Clear 30 1018 40 10000 4 80 18:49 11.06.2019
6497 Clear 30 1018 48 10000 3 50 18:20 11.06.2019
6498 Clear 30 1018 48 10000 3 50 18:20 11.06.2019
6499 Clear 30 1018 42 10000 4 80 17:41 11.06.2019
6500 Clear 30 1018 35 10000 4 90 17:20 11.06.2019
6501 Clear 30 1018 40 10000 5 70 16:43 11.06.2019
6502 Clear 31 1018 42 10000 4 90 16:24 11.06.2019
6503 Clear 31 1018 37 10000 3 110 15:44 11.06.2019
6504 Clear 31 1018 38 10000 4 110 15:25 11.06.2019
6505 -273 0 0 0 0 0 14:58 11.06.2019
6506 Clear 30 1018 40 10000 4 80 14:39 11.06.2019
6507 Clear 30 1019 42 10000 4 110 14:19 11.06.2019
6508 Clear 30 1019 38 10000 5 100 13:43 11.06.2019
6509 Clear 31 1019 43 10000 5 70 13:21 11.06.2019
6510 Clear 30 1019 40 10000 6 70 12:42 11.06.2019
6511 Clear 30 1019 42 10000 5 110 12:22 11.06.2019
6512 Clear 30 1020 51 10000 5 70 11:56 11.06.2019
6513 Clear 30 1020 51 10000 5 70 11:33 11.06.2019
6514 Clear 29 1020 48 10000 4 90 10:51 11.06.2019
6515 Clear 28 1020 51 10000 4 60 10:27 11.06.2019
6516 Clear 27 1020 54 10000 4 50 09:52 11.06.2019
6517 Clear 27 1020 54 10000 3 90 09:28 11.06.2019
6518 Clear 27 1020 54 10000 3 90 08:59 11.06.2019
6519 Clear 26 1020 57 10000 4 80 08:40 11.06.2019
6520 Clear 25 1020 61 10000 4 70 08:20 11.06.2019
6521 Clear 24 1020 60 10000 3 80 07:34 11.06.2019
6522 Clear 23 1020 64 10000 3 60 06:53 11.06.2019
6523 Clear 20 1019 77 10000 2 80 05:21 11.06.2019
6524 Clear 19 1019 82 10000 2 80 04:40 11.06.2019
6525 Clear 20 1019 72 10000 3 80 02:27 11.06.2019
6526 Clear 20 1019 72 10000 2 90 00:53 11.06.2019
6527 Clear 20 1019 72 10000 2 90 00:31 11.06.2019
6528 Clear 20 1020 82 10000 2 80 23:46 10.06.2019
6529 Clear 20 1020 72 10000 1 100 23:21 10.06.2019
6530 Clear 23 1020 64 10000 2 100 22:45 10.06.2019
6531 Clear 23 1020 60 10000 2 110 22:27 10.06.2019
6532 Clear 23 1020 60 10000 2 110 21:56 10.06.2019
6533 Clear 23 1020 57 10000 4 100 21:38 10.06.2019
6534 Clear 24 1020 53 10000 3 110 21:20 10.06.2019
6535 Clear 25 1020 53 10000 4 90 20:42 10.06.2019
6536 Clear 25 1019 57 10000 3 80 20:21 10.06.2019
6537 Clear 26 1019 51 10000 3 80 19:46 10.06.2019
6538 Rain 27 1019 51 10000 1 100 19:23 10.06.2019
6539 Thunderstorm 27 1019 44 10000 2 130 18:58 10.06.2019
6540 Thunderstorm 27 1019 44 10000 2 130 18:39 10.06.2019
6541 Thunderstorm 29 1019 42 10000 2 120 18:20 10.06.2019
6542 Thunderstorm 29 1019 45 10000 3 120 17:44 10.06.2019
6543 Thunderstorm 29 1019 45 10000 3 120 17:44 10.06.2019
6544 Thunderstorm 29 1019 42 10000 2 110 17:24 10.06.2019
6545 Clear 29 1019 39 10000 2 140 16:49 10.06.2019
6546 Clear 29 1019 39 10000 2 140 16:30 10.06.2019
6547 Clear 30 1020 42 10000 3 160 15:58 10.06.2019
6548 Clear 30 1020 42 10000 3 160 15:39 10.06.2019
6549 Clear 29 1020 40 10000 2 90 15:21 10.06.2019
6550 Rain 29 1020 37 10000 3 120 14:42 10.06.2019
6551 Clear 30 1020 42 10000 3 170 14:24 10.06.2019
6552 Clear 30 1021 48 10000 3 100 13:46 10.06.2019
6553 Clear 30 1021 48 10000 3 100 13:46 10.06.2019
6554 Clear 31 1021 48 10000 3 100 13:28 10.06.2019
6555 Clear 30 1021 42 10000 4 130 12:54 10.06.2019
6556 Clear 29 1021 42 10000 4 130 12:31 10.06.2019
6557 Clear 29 1021 45 10000 3 110 11:54 10.06.2019
6558 Clear 29 1021 45 10000 3 110 11:30 10.06.2019
6559 Clear 29 1021 48 10000 2 120 10:59 10.06.2019
6560 Clear 28 1021 48 10000 2 20 10:41 10.06.2019
6561 Clear 27 1021 51 10000 2 60 10:19 10.06.2019
6562 Clear 27 1021 51 10000 2 60 09:51 10.06.2019
6563 Clear 26 1021 51 10000 2 60 09:29 10.06.2019
6564 Clear 25 1021 61 10000 2 60 08:49 10.06.2019
6565 Clear 24 1021 60 10000 2 60 08:26 10.06.2019
6566 Clear 23 1021 64 10000 2 80 07:41 10.06.2019
6567 Mist 17 1021 100 5000 1 280 04:43 10.06.2019
6568 Mist 17 1022 100 8000 1 290 02:35 10.06.2019
6569 Clear 18 1022 100 8000 0.85 59.5 01:50 10.06.2019
6570 Mist 18 1022 100 6000 1 230 01:19 10.06.2019
6571 Mist 18 1021 100 5000 0.85 59.5 00:37 10.06.2019
6572 Smoke 19 1021 93 9000 1.03 87.605 23:46 09.06.2019
6573 Clouds 19 1021 93 9000 1.03 87.605 23:22 09.06.2019
6574 Clouds 20 1021 88 9000 1.03 87.605 22:47 09.06.2019
6575 Clear 20 1022 93 10000 1 0 22:26 09.06.2019
6576 Clouds 21 1022 82 10000 1 160 21:48 09.06.2019
6577 Clouds 21 1022 82 10000 1 160 21:29 09.06.2019
6578 Clear 21 1022 82 10000 1 70 20:59 09.06.2019
6579 Clouds 22 1022 73 10000 2 280 20:41 09.06.2019
6580 Clear 22 1022 78 10000 1 0 20:21 09.06.2019
6581 Clear 22 1022 78 10000 1 0 20:21 09.06.2019
6582 Clear 23 1022 64 10000 2.29 83.895 19:43 09.06.2019
6583 Clear 23 1022 64 10000 2.29 83.895 19:43 09.06.2019
6584 Clear 24 1021 69 10000 1 70 19:18 09.06.2019
6585 Clear 24 1021 69 10000 1 0 18:43 09.06.2019
6586 Clear 25 1021 65 10000 1 0 18:25 09.06.2019
6587 Clear 27 1020 61 10000 2 150 17:56 09.06.2019
6588 Clear 26 1020 61 10000 2 150 17:30 09.06.2019
6589 Clear 25 1020 64 10000 3 140 16:58 09.06.2019
6590 Rain 26 1021 60 10000 4 90 16:39 09.06.2019
6591 Rain 25 1021 64 10000 3 110 16:20 09.06.2019
6592 Clouds 25 1021 64 10000 3 130 15:50 09.06.2019
6593 Clouds 25 1021 64 10000 3 130 15:29 09.06.2019
6594 Thunderstorm 28 1021 45 10000 3 60 14:54 09.06.2019
6595 Thunderstorm 28 1021 45 10000 3 60 14:34 09.06.2019
6596 Clear 30 1021 39 10000 3 90 13:57 09.06.2019
6597 Clear 29 1021 39 10000 3 90 13:39 09.06.2019
6598 Clear 29 1022 42 10000 3 70 12:55 09.06.2019
6599 Clear 28 1022 42 10000 3 90 12:34 09.06.2019
6600 Clear 28 1022 42 10000 3 90 12:34 09.06.2019
6601 Clear 28 1022 42 10000 3 70 11:51 09.06.2019
6602 Clear 28 1022 42 10000 3 70 11:30 09.06.2019
6603 -273 0 0 0 0 0 10:58 09.06.2019
6604 -273 0 0 0 0 0 10:58 09.06.2019
6605 Clear 28 1022 42 10000 3 40 10:38 09.06.2019
6606 Clear 27 1022 44 10000 4 60 10:19 09.06.2019
6607 Clear 27 1022 44 10000 4 60 10:19 09.06.2019
6608 Clear 27 1022 50 10000 3 50 09:38 09.06.2019
6609 Clear 26 1022 50 10000 2 50 09:19 09.06.2019
6610 Clear 26 1022 50 10000 2 50 09:19 09.06.2019
6611 Clear 25 1022 54 10000 3 60 08:44 09.06.2019
6612 Clear 23 1022 64 10000 1 0 07:52 09.06.2019
6613 Clear 22 1022 73 10000 2 50 06:44 09.06.2019
6614 Clear 20 1021 82 10000 1 0 05:55 09.06.2019
6615 Clear 19 1021 82 10000 1.1 80.452 02:59 09.06.2019
6616 Clear 20 1021 88 10000 1 0 01:37 09.06.2019
6617 Clear 20 1021 88 10000 1.26 84.158 01:19 09.06.2019
6618 Clear 20 1021 88 10000 1 0 00:29 09.06.2019
6619 Clear 20 1021 77 10000 1.99 116.049 23:41 08.06.2019
6620 Clear 21 1021 77 10000 1 70 23:22 08.06.2019
6621 Clear 21 1020 77 10000 2 100 22:55 08.06.2019
6622 Clear 21 1020 77 10000 2 100 22:36 08.06.2019
6623 Clear 21 1020 77 10000 1 0 22:18 08.06.2019
6624 Clouds 22 1020 73 10000 1 120 21:40 08.06.2019
6625 Clear 22 1020 73 10000 1 100 21:21 08.06.2019
6626 Clouds 23 1020 68 10000 2.91 106.232 20:45 08.06.2019
6627 Clear 24 1020 60 10000 1 0 20:25 08.06.2019
6628 Clear 24 1020 60 10000 1 0 19:56 08.06.2019
6629 Clear 24 1020 60 10000 1 90 19:37 08.06.2019
6630 Clear 25 1020 57 10000 2 100 19:19 08.06.2019
6631 Clear 26 1020 57 10000 3 100 18:41 08.06.2019
6632 Clear 26 1019 57 10000 3 100 18:22 08.06.2019
6633 Clear 26 1019 57 10000 4 110 17:44 08.06.2019
6634 Clear 26 1019 57 10000 5 120 17:22 08.06.2019
6635 Thunderstorm 27 1019 83 10000 2 80 16:48 08.06.2019
6636 Thunderstorm 27 1019 83 10000 2 80 16:29 08.06.2019
6637 Thunderstorm 28 1019 54 10000 3 80 15:51 08.06.2019
6638 Thunderstorm 28 1019 54 10000 3 80 15:33 08.06.2019
6639 Thunderstorm 28 1019 54 10000 3 80 15:33 08.06.2019
6640 Thunderstorm 28 1019 54 10000 3 80 15:33 08.06.2019
6641 Clear 28 1020 54 10000 4 100 14:48 08.06.2019
6642 Clear 28 1020 54 10000 4 100 14:29 08.06.2019
6643 Clear 28 1020 48 10000 4 110 13:45 08.06.2019
6644 Clouds 28 1020 51 10000 4 70 12:53 08.06.2019
6645 Clouds 28 1020 51 10000 4 70 12:33 08.06.2019
6646 Clear 28 1020 57 10000 3 100 11:44 08.06.2019
6647 Clear 26 1020 54 10000 4 100 11:26 08.06.2019
6648 Clear 26 1020 57 10000 3 110 10:47 08.06.2019
6649 Clear 26 1020 60 10000 4 100 10:24 08.06.2019
6650 Clear 25 1020 60 10000 4 120 09:54 08.06.2019
6651 Clear 24 1020 60 10000 4 120 09:29 08.06.2019
6652 Clear 24 1020 64 10000 3 100 08:40 08.06.2019
6653 Clear 23 1020 64 10000 2 120 08:19 08.06.2019
6654 Clear 21 1020 73 10000 3 90 06:51 08.06.2019
6655 Clear 20 1020 77 10000 2 90 06:32 08.06.2019
6656 Clear 17 1019 100 10000 1 70 03:35 08.06.2019
6657 Clear 17 1020 93 10000 1 260 01:59 08.06.2019
6658 Clear 19 1020 82 10000 1 0 00:29 08.06.2019
6659 Clear 20 1020 82 10000 1 120 23:52 07.06.2019
6660 Clear 20 1020 88 10000 2.38 136.398 23:21 07.06.2019
6661 Clear 20 1020 82 10000 1 90 22:50 07.06.2019
6662 Clear 20 1020 82 10000 1 90 22:31 07.06.2019
6663 Clear 20 1020 72 10000 2 90 21:54 07.06.2019
6664 Clear 22 1020 64 10000 1.93 121.091 21:31 07.06.2019
6665 Clear 22 1020 64 10000 1.93 121.091 20:58 07.06.2019
6666 Rain 22 1020 64 10000 1.93 121.091 20:38 07.06.2019
6667 Thunderstorm 25 1019 53 10000 1 0 19:52 07.06.2019
6668 Thunderstorm 25 1019 53 10000 1 0 19:30 07.06.2019
6669 Thunderstorm 26 1019 47 10000 3 140 18:59 07.06.2019
6670 Clear 26 1019 50 10000 3 130 18:37 07.06.2019
6671 Clear 27 1019 47 10000 3 150 18:19 07.06.2019
6672 Clear 27 1019 50 10000 3 150 17:41 07.06.2019
6673 Clear 27 1019 47 10000 4 120 17:19 07.06.2019
6674 Clear 27 1019 47 10000 4 130 16:41 07.06.2019
6675 Clear 27 1019 42 10000 4 130 15:55 07.06.2019
6676 Clear 28 1019 47 10000 4 120 15:28 07.06.2019
6677 Clear 28 1019 47 10000 4 120 14:49 07.06.2019
6678 Clear 27 1019 47 10000 4 120 14:27 07.06.2019
6679 Clear 26 1020 50 10000 4 110 13:53 07.06.2019
6680 Clear 26 1020 61 10000 3 110 13:27 07.06.2019
6681 Clear 27 1020 61 10000 4 140 12:51 07.06.2019
6682 Clear 27 1020 61 10000 4 140 12:25 07.06.2019
6683 Clear 25 1020 69 10000 2 100 11:55 07.06.2019
6684 Clear 25 1020 69 10000 2 100 11:32 07.06.2019
6685 Clear 24 1020 73 10000 2 130 10:58 07.06.2019
6686 Clear 24 1020 68 10000 3 110 10:39 07.06.2019
6687 Clear 23 1020 78 10000 3 80 10:19 07.06.2019
6688 Clear 23 1019 83 10000 4.14 138.235 09:44 07.06.2019
6689 Clear 22 1019 88 10000 1 0 09:21 07.06.2019
6690 Clear 20 1019 93 10000 1 0 08:43 07.06.2019
6691 Rain 18 1019 93 10000 2 60 08:25 07.06.2019
6692 Rain 17 1020 100 10000 4 120 07:48 07.06.2019
6693 Rain 18 1019 100 10000 6 80 07:21 07.06.2019
6694 Rain 17 1020 100 10000 2 110 06:47 07.06.2019
6695 Rain 17 1020 100 10000 2 120 06:22 07.06.2019
6696 Rain 17 1020 100 10000 2 90 05:43 07.06.2019
6697 Rain 19 1019 93 10000 4 200 02:24 07.06.2019
6698 Clouds 20 1019 64 10000 3 130 01:36 07.06.2019
6699 Clouds 20 1018 60 10000 1 0 00:45 07.06.2019
6700 Clear 20 1018 60 10000 2 150 23:45 06.06.2019
6701 Rain 21 1019 64 10000 2 160 23:24 06.06.2019
6702 Rain 21 1019 68 10000 2 160 22:55 06.06.2019
6703 Rain 22 1019 68 10000 2 160 22:36 06.06.2019
6704 Clear 22 1019 64 10000 3 130 22:18 06.06.2019
6705 Clear 22 1019 64 10000 3 130 22:18 06.06.2019
6706 Clear 22 1018 64 10000 3 100 21:41 06.06.2019
6707 Clear 21 1018 64 10000 2 120 21:22 06.06.2019
6708 Clear 22 1017 60 10000 1 110 20:54 06.06.2019
6709 Clear 22 1018 60 10000 2 120 20:30 06.06.2019
6710 Rain 23 1018 57 10000 3 130 19:58 06.06.2019
6711 Rain 24 1018 57 10000 3 130 19:36 06.06.2019
6712 Thunderstorm 24 1018 53 10000 3 150 19:18 06.06.2019
6713 Clear 25 1018 53 10000 4 120 18:40 06.06.2019
6714 Clear 26 1017 54 10000 4 110 18:22 06.06.2019
6715 Clear 27 1018 54 10000 4 110 17:44 06.06.2019
6716 Clear 26 1018 54 10000 5 100 17:22 06.06.2019
6717 Clouds 26 1018 54 10000 5 100 16:49 06.06.2019
6718 Clouds 26 1018 54 10000 5 100 16:26 06.06.2019
6719 Clouds 27 1018 54 10000 4 100 15:55 06.06.2019
6720 Clouds 27 1018 54 10000 4 100 15:37 06.06.2019
6721 Clouds 28 1018 57 10000 5 100 15:18 06.06.2019
6722 Clear 27 1018 57 10000 5 100 14:41 06.06.2019
6723 Clouds 27 1018 57 10000 5 100 14:19 06.06.2019
6724 Clouds 26 1019 54 10000 4 110 13:47 06.06.2019
6725 Clouds 26 1019 57 10000 5 120 13:29 06.06.2019
6726 Clouds 28 1019 54 10000 4 120 12:47 06.06.2019
6727 Clouds 26 1019 64 10000 5 120 12:24 06.06.2019
6728 Clouds 26 1019 57 10000 5 130 11:49 06.06.2019
6729 Clouds 26 1019 57 10000 5 130 11:29 06.06.2019
6730 Clouds 25 1019 69 10000 4 110 10:52 06.06.2019
6731 Clouds 25 1019 69 10000 4 110 10:33 06.06.2019
6732 Clouds 25 1019 69 10000 4 100 09:56 06.06.2019
6733 Clear 24 1019 73 10000 5 100 09:38 06.06.2019
6734 Clear 23 1019 78 10000 4 120 09:20 06.06.2019
6735 Clear 22 1019 83 10000 3 100 08:45 06.06.2019
6736 Clear 21 1019 88 10000 2 90 08:23 06.06.2019
6737 Rain 20 1019 93 10000 2 100 07:49 06.06.2019
6738 Clear 19 1019 93 10000 2 90 07:24 06.06.2019
6739 Rain 19 1018 100 10000 2 100 06:47 06.06.2019
6740 Rain 18 1018 100 10000 3 80 05:34 06.06.2019
6741 Rain 18 1018 93 8000 3.35 102.969 04:32 06.06.2019
6742 Clear 18 1018 93 10000 1 0 02:21 06.06.2019
6743 Rain 18 1018 88 10000 3 270 01:43 06.06.2019
6744 Rain 19 1019 93 10000 2 270 00:42 06.06.2019
6745 Rain 19 1019 93 2600 4 180 00:23 06.06.2019
6746 Rain 21 1018 77 10000 3 150 23:38 05.06.2019
6747 Thunderstorm 21 1018 77 10000 3 90 23:18 05.06.2019
6748 Thunderstorm 21 1018 77 10000 4 80 22:40 05.06.2019
6749 Clear 21 1018 77 10000 3 90 22:20 05.06.2019
6750 Clear 21 1018 77 10000 3 90 21:44 05.06.2019
6751 Clear 21 1018 77 10000 3 90 21:44 05.06.2019
6752 Clear 22 1018 73 10000 4 90 21:25 05.06.2019
6753 Clear 22 1018 73 10000 4 90 20:50 05.06.2019
6754 Clear 22 1018 73 10000 4 90 20:32 05.06.2019
6755 Clouds 23 1018 69 10000 4 110 19:51 05.06.2019
6756 Clear 23 1018 69 10000 4 110 19:27 05.06.2019
6757 Clear 24 1018 64 10000 4 100 18:57 05.06.2019
6758 Clear 24 1018 64 10000 4 100 18:39 05.06.2019
6759 Clear 25 1018 64 10000 4 110 18:20 05.06.2019